<?xml version='1.0' encoding='UTF-8'?><gpx version="1.1" creator="JPX - https://github.com/jenetics/jpx" xmlns="http://www.topografix.com/GPX/1/1"><trk><trkseg><trkpt lat="41.77444234095906" lon="14.099956829023892"><ele>808.0</ele><time>2026-04-19T07:43:58.997Z</time></trkpt><trkpt lat="41.7743905395346" lon="14.10000738318573"><ele>808.0</ele><time>2026-04-19T07:43:59.997Z</time></trkpt><trkpt lat="41.77438117863702" lon="14.100093269480725"><ele>808.0</ele><time>2026-04-19T07:44:09.997Z</time></trkpt><trkpt lat="41.77445057416197" lon="14.10002881733074"><ele>808.0</ele><time>2026-04-19T07:44:14.997Z</time></trkpt><trkpt lat="41.77450232235398" lon="14.099941148082422"><ele>808.0</ele><time>2026-04-19T07:44:18.997Z</time></trkpt><trkpt lat="41.77455517346215" lon="14.099873055970162"><ele>808.0</ele><time>2026-04-19T07:44:22.997Z</time></trkpt><trkpt lat="41.77460445448794" lon="14.099818510476283"><ele>808.0</ele><time>2026-04-19T07:44:26.997Z</time></trkpt><trkpt lat="41.77459225371406" lon="14.099715339312183"><ele>807.6666666666666</ele><time>2026-04-19T07:44:30.997Z</time></trkpt><trkpt lat="41.774549560409994" lon="14.099625720932437"><ele>807.3333333333333</ele><time>2026-04-19T07:44:47.997Z</time></trkpt><trkpt lat="41.774549694266256" lon="14.099501268258113"><ele>807.0</ele><time>2026-04-19T07:44:55.997Z</time></trkpt><trkpt lat="41.774599722976745" lon="14.09940806261539"><ele>806.6666666666667</ele><time>2026-04-19T07:44:57.997Z</time></trkpt><trkpt lat="41.77465444289322" lon="14.099350696160325"><ele>806.3333333333334</ele><time>2026-04-19T07:45:00.997Z</time></trkpt><trkpt lat="41.77466555123876" lon="14.099260278246526"><ele>806.0</ele><time>2026-04-19T07:45:14.997Z</time></trkpt><trkpt lat="41.774685192092235" lon="14.099175116282986"><ele>806.1999999999999</ele><time>2026-04-19T07:45:15.997Z</time></trkpt><trkpt lat="41.77473010787131" lon="14.099063813053803"><ele>806.4</ele><time>2026-04-19T07:45:16.997Z</time></trkpt><trkpt lat="41.7747950912081" lon="14.098947990076331"><ele>806.6</ele><time>2026-04-19T07:45:17.997Z</time></trkpt><trkpt lat="41.77486497566516" lon="14.098815904502226"><ele>806.8</ele><time>2026-04-19T07:45:18.997Z</time></trkpt><trkpt lat="41.77493601344137" lon="14.098682665343969"><ele>807.0</ele><time>2026-04-19T07:45:19.997Z</time></trkpt><trkpt lat="41.77499937873489" lon="14.098591631798262"><ele>807.0</ele><time>2026-04-19T07:45:20.997Z</time></trkpt><trkpt lat="41.77505024269253" lon="14.098487788007054"><ele>807.0</ele><time>2026-04-19T07:45:21.997Z</time></trkpt><trkpt lat="41.77508642476011" lon="14.098387516758644"><ele>807.0</ele><time>2026-04-19T07:45:22.997Z</time></trkpt><trkpt lat="41.7751146391956" lon="14.098307077046917"><ele>807.0</ele><time>2026-04-19T07:45:23.997Z</time></trkpt><trkpt lat="41.775151094675756" lon="14.098212963752133"><ele>807.0</ele><time>2026-04-19T07:45:25.996Z</time></trkpt><trkpt lat="41.775173009253386" lon="14.098103252137097"><ele>807.0</ele><time>2026-04-19T07:45:28.996Z</time></trkpt><trkpt lat="41.77520853024223" lon="14.098028906124794"><ele>807.1666666666666</ele><time>2026-04-19T07:45:31.996Z</time></trkpt><trkpt lat="41.77524167107397" lon="14.09794562100152"><ele>807.3333333333333</ele><time>2026-04-19T07:45:35.996Z</time></trkpt><trkpt lat="41.77521192824897" lon="14.097841378367228"><ele>807.5</ele><time>2026-04-19T07:45:37.996Z</time></trkpt><trkpt lat="41.77511147484455" lon="14.097792216867251"><ele>807.6666666666666</ele><time>2026-04-19T07:45:39.996Z</time></trkpt><trkpt lat="41.775043723722206" lon="14.097780831296143"><ele>807.8333333333333</ele><time>2026-04-19T07:45:40.996Z</time></trkpt><trkpt lat="41.774978955288816" lon="14.09777488324312"><ele>808.0</ele><time>2026-04-19T07:45:41.996Z</time></trkpt><trkpt lat="41.77486959533668" lon="14.097746642369861"><ele>807.9999999999999</ele><time>2026-04-19T07:45:43.996Z</time></trkpt><trkpt lat="41.77478049398357" lon="14.09769817601321"><ele>808.0</ele><time>2026-04-19T07:45:45.996Z</time></trkpt><trkpt lat="41.77471743655861" lon="14.097576669202235"><ele>808.0</ele><time>2026-04-19T07:45:47.996Z</time></trkpt><trkpt lat="41.77470606010659" lon="14.097468676348875"><ele>808.0</ele><time>2026-04-19T07:45:48.996Z</time></trkpt><trkpt lat="41.77471551747793" lon="14.09736852896917"><ele>807.9999999999999</ele><time>2026-04-19T07:45:49.996Z</time></trkpt><trkpt lat="41.77473089936801" lon="14.097279054003298"><ele>808.0</ele><time>2026-04-19T07:45:50.996Z</time></trkpt><trkpt lat="41.774745041083776" lon="14.097192987465709"><ele>807.9999999999999</ele><time>2026-04-19T07:45:51.996Z</time></trkpt><trkpt lat="41.77478311021039" lon="14.097036298393068"><ele>808.0</ele><time>2026-04-19T07:45:53.996Z</time></trkpt><trkpt lat="41.77480603593728" lon="14.096950234248142"><ele>808.0</ele><time>2026-04-19T07:45:54.996Z</time></trkpt><trkpt lat="41.774825717481065" lon="14.096865498134726"><ele>808.0</ele><time>2026-04-19T07:45:55.996Z</time></trkpt><trkpt lat="41.77484102728108" lon="14.096776340945201"><ele>807.9999999999999</ele><time>2026-04-19T07:45:56.996Z</time></trkpt><trkpt lat="41.77485247282531" lon="14.096682600685726"><ele>808.0</ele><time>2026-04-19T07:45:57.996Z</time></trkpt><trkpt lat="41.774863734263135" lon="14.096578979348964"><ele>807.7142857142857</ele><time>2026-04-19T07:45:58.996Z</time></trkpt><trkpt lat="41.774877046328655" lon="14.096482077181234"><ele>807.4285714285713</ele><time>2026-04-19T07:45:59.996Z</time></trkpt><trkpt lat="41.774883974105826" lon="14.09638932233421"><ele>807.1428571428571</ele><time>2026-04-19T07:46:00.996Z</time></trkpt><trkpt lat="41.77488628115906" lon="14.096299837637162"><ele>806.8571428571429</ele><time>2026-04-19T07:46:01.996Z</time></trkpt><trkpt lat="41.77488590628995" lon="14.09620444024508"><ele>806.5714285714286</ele><time>2026-04-19T07:46:02.996Z</time></trkpt><trkpt lat="41.77488193487367" lon="14.096115853981534"><ele>806.2857142857143</ele><time>2026-04-19T07:46:03.996Z</time></trkpt><trkpt lat="41.77489728093428" lon="14.096021819237642"><ele>806.0</ele><time>2026-04-19T07:46:04.996Z</time></trkpt><trkpt lat="41.77492836313037" lon="14.095939089423242"><ele>806.0</ele><time>2026-04-19T07:46:05.996Z</time></trkpt><trkpt lat="41.77497725729689" lon="14.095881866048703"><ele>806.0</ele><time>2026-04-19T07:46:06.996Z</time></trkpt><trkpt lat="41.7750498598419" lon="14.09584064397637"><ele>806.0</ele><time>2026-04-19T07:46:07.996Z</time></trkpt><trkpt lat="41.77515297499782" lon="14.095815987091777"><ele>806.0</ele><time>2026-04-19T07:46:08.996Z</time></trkpt><trkpt lat="41.77527234512914" lon="14.095812471304358"><ele>806.0</ele><time>2026-04-19T07:46:09.996Z</time></trkpt><trkpt lat="41.77538352122558" lon="14.095809565917797"><ele>806.1666666666667</ele><time>2026-04-19T07:46:10.996Z</time></trkpt><trkpt lat="41.775487572144385" lon="14.095805546587462"><ele>806.3333333333334</ele><time>2026-04-19T07:46:11.996Z</time></trkpt><trkpt lat="41.77558197625294" lon="14.095778286906933"><ele>806.5</ele><time>2026-04-19T07:46:12.996Z</time></trkpt><trkpt lat="41.77567085409055" lon="14.095777522517011"><ele>806.6666666666667</ele><time>2026-04-19T07:46:13.996Z</time></trkpt><trkpt lat="41.77575128998446" lon="14.095769702302908"><ele>806.8333333333334</ele><time>2026-04-19T07:46:14.996Z</time></trkpt><trkpt lat="41.77582577700037" lon="14.095749677824065"><ele>807.0</ele><time>2026-04-19T07:46:15.996Z</time></trkpt><trkpt lat="41.77590988277479" lon="14.095711132141851"><ele>807.0</ele><time>2026-04-19T07:46:16.996Z</time></trkpt><trkpt lat="41.776008663457716" lon="14.095680698092488"><ele>807.0</ele><time>2026-04-19T07:46:17.996Z</time></trkpt><trkpt lat="41.77613752835363" lon="14.09565365820989"><ele>807.0</ele><time>2026-04-19T07:46:18.996Z</time></trkpt><trkpt lat="41.77623506336964" lon="14.095657301866728"><ele>807.0</ele><time>2026-04-19T07:46:19.996Z</time></trkpt><trkpt lat="41.776345578152224" lon="14.095655339271373"><ele>807.0</ele><time>2026-04-19T07:46:21.996Z</time></trkpt><trkpt lat="41.77647729678835" lon="14.09568807291303"><ele>807.5</ele><time>2026-04-19T07:46:23.996Z</time></trkpt><trkpt lat="41.77654604246419" lon="14.095697565107521"><ele>808.0</ele><time>2026-04-19T07:46:24.996Z</time></trkpt><trkpt lat="41.776627450447165" lon="14.09570180062761"><ele>808.5</ele><time>2026-04-19T07:46:25.996Z</time></trkpt><trkpt lat="41.77670482017847" lon="14.095712389933963"><ele>809.0</ele><time>2026-04-19T07:46:26.996Z</time></trkpt><trkpt lat="41.77678257157854" lon="14.095734204636486"><ele>809.5</ele><time>2026-04-19T07:46:27.996Z</time></trkpt><trkpt lat="41.77685320047641" lon="14.095751523005696"><ele>810.0</ele><time>2026-04-19T07:46:28.996Z</time></trkpt><trkpt lat="41.77693688844031" lon="14.095785442092646"><ele>810.4285714285713</ele><time>2026-04-19T07:46:29.996Z</time></trkpt><trkpt lat="41.777005269336705" lon="14.095828374023288"><ele>810.8571428571429</ele><time>2026-04-19T07:46:30.996Z</time></trkpt><trkpt lat="41.77708778246996" lon="14.095874231385668"><ele>811.2857142857142</ele><time>2026-04-19T07:46:31.996Z</time></trkpt><trkpt lat="41.777141122572615" lon="14.095928026029672"><ele>811.7142857142857</ele><time>2026-04-19T07:46:32.996Z</time></trkpt><trkpt lat="41.77719690578716" lon="14.095979993233476"><ele>812.1428571428571</ele><time>2026-04-19T07:46:33.996Z</time></trkpt><trkpt lat="41.77724930868216" lon="14.096040678576596"><ele>812.5714285714286</ele><time>2026-04-19T07:46:34.996Z</time></trkpt><trkpt lat="41.777303852045215" lon="14.096099203499728"><ele>813.0</ele><time>2026-04-19T07:46:35.996Z</time></trkpt><trkpt lat="41.777357264927126" lon="14.096164896496196"><ele>813.0</ele><time>2026-04-19T07:46:36.996Z</time></trkpt><trkpt lat="41.77741012935171" lon="14.096239527878163"><ele>813.0</ele><time>2026-04-19T07:46:37.996Z</time></trkpt><trkpt lat="41.77746708893114" lon="14.09631317753605"><ele>813.0</ele><time>2026-04-19T07:46:38.996Z</time></trkpt><trkpt lat="41.77753671090152" lon="14.09640136054533"><ele>813.0</ele><time>2026-04-19T07:46:39.996Z</time></trkpt><trkpt lat="41.77763300668494" lon="14.096482039727272"><ele>813.0</ele><time>2026-04-19T07:46:40.996Z</time></trkpt><trkpt lat="41.7777171522421" lon="14.096577763474539"><ele>814.0</ele><time>2026-04-19T07:46:41.996Z</time></trkpt><trkpt lat="41.777807680916005" lon="14.096690842336011"><ele>815.0</ele><time>2026-04-19T07:46:42.996Z</time></trkpt><trkpt lat="41.77790393023822" lon="14.09680424329813"><ele>816.0</ele><time>2026-04-19T07:46:43.996Z</time></trkpt><trkpt lat="41.77800025119691" lon="14.096907591708435"><ele>817.0</ele><time>2026-04-19T07:46:44.996Z</time></trkpt><trkpt lat="41.778089948859666" lon="14.097015967024783"><ele>817.0</ele><time>2026-04-19T07:46:45.996Z</time></trkpt><trkpt lat="41.77818071548496" lon="14.097111088439496"><ele>817.0</ele><time>2026-04-19T07:46:46.996Z</time></trkpt><trkpt lat="41.77827463065168" lon="14.097211373707538"><ele>817.0</ele><time>2026-04-19T07:46:47.996Z</time></trkpt><trkpt lat="41.77838799181517" lon="14.097314228408566"><ele>817.0</ele><time>2026-04-19T07:46:48.996Z</time></trkpt><trkpt lat="41.77851220825151" lon="14.097413881339492"><ele>814.6666666666666</ele><time>2026-04-19T07:46:49.996Z</time></trkpt><trkpt lat="41.778648111902854" lon="14.097500032678397"><ele>812.3333333333333</ele><time>2026-04-19T07:46:50.996Z</time></trkpt><trkpt lat="41.77878965185717" lon="14.097588409536511"><ele>810.0</ele><time>2026-04-19T07:46:51.996Z</time></trkpt><trkpt lat="41.778938767882224" lon="14.097672162885512"><ele>810.0</ele><time>2026-04-19T07:46:52.996Z</time></trkpt><trkpt lat="41.779088810802044" lon="14.097752814027798"><ele>810.0</ele><time>2026-04-19T07:46:53.996Z</time></trkpt><trkpt lat="41.77922469395585" lon="14.097848949739157"><ele>810.0</ele><time>2026-04-19T07:46:54.996Z</time></trkpt><trkpt lat="41.779363998316526" lon="14.09793620828653"><ele>812.75</ele><time>2026-04-19T07:46:55.996Z</time></trkpt><trkpt lat="41.77950321945748" lon="14.098014144559997"><ele>815.5</ele><time>2026-04-19T07:46:56.996Z</time></trkpt><trkpt lat="41.779636351167866" lon="14.098096940798527"><ele>818.25</ele><time>2026-04-19T07:46:57.996Z</time></trkpt><trkpt lat="41.77976650602893" lon="14.098165694118093"><ele>821.0</ele><time>2026-04-19T07:46:58.996Z</time></trkpt><trkpt lat="41.77990390676712" lon="14.098214004885874"><ele>818.3333333333334</ele><time>2026-04-19T07:46:59.996Z</time></trkpt><trkpt lat="41.78004019365052" lon="14.098273284685886"><ele>815.6666666666667</ele><time>2026-04-19T07:47:00.996Z</time></trkpt><trkpt lat="41.780213122209744" lon="14.098331357087247"><ele>813.0</ele><time>2026-04-19T07:47:01.996Z</time></trkpt><trkpt lat="41.78039945012866" lon="14.098397232032456"><ele>813.0</ele><time>2026-04-19T07:47:02.996Z</time></trkpt><trkpt lat="41.78056578822693" lon="14.09845166341783"><ele>813.0</ele><time>2026-04-19T07:47:03.996Z</time></trkpt><trkpt lat="41.780716596225595" lon="14.098476626943311"><ele>813.0</ele><time>2026-04-19T07:47:04.996Z</time></trkpt><trkpt lat="41.78084352914628" lon="14.098507301498842"><ele>813.0</ele><time>2026-04-19T07:47:05.996Z</time></trkpt><trkpt lat="41.7809628160889" lon="14.098554547458491"><ele>813.0</ele><time>2026-04-19T07:47:06.996Z</time></trkpt><trkpt lat="41.781095144575744" lon="14.098613190254316"><ele>813.0</ele><time>2026-04-19T07:47:07.996Z</time></trkpt><trkpt lat="41.78121034950342" lon="14.098687569990467"><ele>813.0</ele><time>2026-04-19T07:47:08.996Z</time></trkpt><trkpt lat="41.781320370228705" lon="14.098775810647014"><ele>814.75</ele><time>2026-04-19T07:47:09.996Z</time></trkpt><trkpt lat="41.78141987200767" lon="14.098895135590997"><ele>816.5</ele><time>2026-04-19T07:47:10.996Z</time></trkpt><trkpt lat="41.78151825750942" lon="14.098983903062129"><ele>818.25</ele><time>2026-04-19T07:47:11.996Z</time></trkpt><trkpt lat="41.78161887911411" lon="14.099102586323388"><ele>820.0</ele><time>2026-04-19T07:47:12.996Z</time></trkpt><trkpt lat="41.7816979688309" lon="14.099215226632225"><ele>818.8</ele><time>2026-04-19T07:47:13.996Z</time></trkpt><trkpt lat="41.78176104134732" lon="14.099322380169049"><ele>817.6</ele><time>2026-04-19T07:47:14.996Z</time></trkpt><trkpt lat="41.78183763451596" lon="14.099411221296444"><ele>816.4000000000001</ele><time>2026-04-19T07:47:15.996Z</time></trkpt><trkpt lat="41.78192664747651" lon="14.099511939473489"><ele>815.2</ele><time>2026-04-19T07:47:16.996Z</time></trkpt><trkpt lat="41.78199550648497" lon="14.099602792833037"><ele>814.0</ele><time>2026-04-19T07:47:17.996Z</time></trkpt><trkpt lat="41.78208486616735" lon="14.099672972565134"><ele>814.0</ele><time>2026-04-19T07:47:18.996Z</time></trkpt><trkpt lat="41.782170645704305" lon="14.099722082979923"><ele>814.0</ele><time>2026-04-19T07:47:19.996Z</time></trkpt><trkpt lat="41.78227655921912" lon="14.099759474982564"><ele>814.0</ele><time>2026-04-19T07:47:20.996Z</time></trkpt><trkpt lat="41.78239187265283" lon="14.099783729319348"><ele>814.0</ele><time>2026-04-19T07:47:21.996Z</time></trkpt><trkpt lat="41.78251349193721" lon="14.09980290657021"><ele>814.0</ele><time>2026-04-19T07:47:22.996Z</time></trkpt><trkpt lat="41.78263137284492" lon="14.099807999069835"><ele>814.75</ele><time>2026-04-19T07:47:23.996Z</time></trkpt><trkpt lat="41.782734325196905" lon="14.099817941644343"><ele>815.5</ele><time>2026-04-19T07:47:24.996Z</time></trkpt><trkpt lat="41.782844871864505" lon="14.099835973275875"><ele>816.25</ele><time>2026-04-19T07:47:25.996Z</time></trkpt><trkpt lat="41.78297446960094" lon="14.099863020601282"><ele>817.0</ele><time>2026-04-19T07:47:26.996Z</time></trkpt><trkpt lat="41.78311659379745" lon="14.099903956101015"><ele>814.0</ele><time>2026-04-19T07:47:27.996Z</time></trkpt><trkpt lat="41.78326229788441" lon="14.099917822997378"><ele>811.0</ele><time>2026-04-19T07:47:28.996Z</time></trkpt><trkpt lat="41.783403680313015" lon="14.099951416221545"><ele>808.0</ele><time>2026-04-19T07:47:29.996Z</time></trkpt><trkpt lat="41.78353296101467" lon="14.099987448640109"><ele>805.0</ele><time>2026-04-19T07:47:30.996Z</time></trkpt><trkpt lat="41.783654757792675" lon="14.100040726386787"><ele>805.0</ele><time>2026-04-19T07:47:31.996Z</time></trkpt><trkpt lat="41.783773453112765" lon="14.10011809429688"><ele>805.0</ele><time>2026-04-19T07:47:32.996Z</time></trkpt><trkpt lat="41.78388399941927" lon="14.100227778556349"><ele>805.0</ele><time>2026-04-19T07:47:33.996Z</time></trkpt><trkpt lat="41.78400644207996" lon="14.100304364674805"><ele>805.0</ele><time>2026-04-19T07:47:34.996Z</time></trkpt><trkpt lat="41.78414123443583" lon="14.100355781429917"><ele>805.0</ele><time>2026-04-19T07:47:35.996Z</time></trkpt><trkpt lat="41.78429968223026" lon="14.100376044013197"><ele>805.0</ele><time>2026-04-19T07:47:36.996Z</time></trkpt><trkpt lat="41.784451234300754" lon="14.100368332783903"><ele>805.0</ele><time>2026-04-19T07:47:37.996Z</time></trkpt><trkpt lat="41.78459044392732" lon="14.100382148807642"><ele>805.75</ele><time>2026-04-19T07:47:38.995Z</time></trkpt><trkpt lat="41.78471631178159" lon="14.100396309606111"><ele>806.5</ele><time>2026-04-19T07:47:39.995Z</time></trkpt><trkpt lat="41.7848301381639" lon="14.100408799622288"><ele>807.25</ele><time>2026-04-19T07:47:40.995Z</time></trkpt><trkpt lat="41.784936356295134" lon="14.100416865172708"><ele>808.0</ele><time>2026-04-19T07:47:41.995Z</time></trkpt><trkpt lat="41.78504504505263" lon="14.100433725959796"><ele>807.9999999999999</ele><time>2026-04-19T07:47:42.995Z</time></trkpt><trkpt lat="41.785141633914535" lon="14.100453850977537"><ele>808.0</ele><time>2026-04-19T07:47:43.995Z</time></trkpt><trkpt lat="41.78523641128523" lon="14.100471060483292"><ele>808.0</ele><time>2026-04-19T07:47:44.995Z</time></trkpt><trkpt lat="41.78531251834478" lon="14.100483391152249"><ele>808.0</ele><time>2026-04-19T07:47:45.995Z</time></trkpt><trkpt lat="41.78542280877064" lon="14.100500023385"><ele>807.9999999999999</ele><time>2026-04-19T07:47:47.995Z</time></trkpt><trkpt lat="41.78548666328772" lon="14.10050184292859"><ele>808.0</ele><time>2026-04-19T07:47:48.995Z</time></trkpt><trkpt lat="41.785550395017836" lon="14.100508886555208"><ele>807.6666666666666</ele><time>2026-04-19T07:47:49.995Z</time></trkpt><trkpt lat="41.78562462748347" lon="14.100522670776979"><ele>807.3333333333333</ele><time>2026-04-19T07:47:50.995Z</time></trkpt><trkpt lat="41.785703497901956" lon="14.100532227104681"><ele>807.0</ele><time>2026-04-19T07:47:51.995Z</time></trkpt><trkpt lat="41.78577796721343" lon="14.10053494238609"><ele>806.6666666666667</ele><time>2026-04-19T07:47:52.995Z</time></trkpt><trkpt lat="41.785851903856816" lon="14.100543049300988"><ele>806.3333333333334</ele><time>2026-04-19T07:47:53.995Z</time></trkpt><trkpt lat="41.785924127612525" lon="14.100550534666665"><ele>806.0</ele><time>2026-04-19T07:47:54.995Z</time></trkpt><trkpt lat="41.78599648696376" lon="14.100577350966406"><ele>806.0000000000001</ele><time>2026-04-19T07:47:55.995Z</time></trkpt><trkpt lat="41.786060900949785" lon="14.10063545675207"><ele>806.0</ele><time>2026-04-19T07:47:56.995Z</time></trkpt><trkpt lat="41.7861190876555" lon="14.100729604253527"><ele>806.0</ele><time>2026-04-19T07:47:57.995Z</time></trkpt><trkpt lat="41.78618361217952" lon="14.100817481923576"><ele>806.0</ele><time>2026-04-19T07:47:58.995Z</time></trkpt><trkpt lat="41.78625943434849" lon="14.10089617734935"><ele>806.0000000000001</ele><time>2026-04-19T07:47:59.995Z</time></trkpt><trkpt lat="41.786327630769385" lon="14.100971860798682"><ele>806.0</ele><time>2026-04-19T07:48:00.995Z</time></trkpt><trkpt lat="41.786405112787534" lon="14.101044297054715"><ele>805.0</ele><time>2026-04-19T07:48:01.995Z</time></trkpt><trkpt lat="41.786473986095075" lon="14.10110819887971"><ele>804.0</ele><time>2026-04-19T07:48:02.995Z</time></trkpt><trkpt lat="41.78657541128442" lon="14.101223531373849"><ele>803.0</ele><time>2026-04-19T07:48:04.995Z</time></trkpt><trkpt lat="41.786676911666234" lon="14.101326476564964"><ele>802.0</ele><time>2026-04-19T07:48:06.995Z</time></trkpt><trkpt lat="41.7867414441568" lon="14.101369074563639"><ele>801.0</ele><time>2026-04-19T07:48:07.995Z</time></trkpt><trkpt lat="41.78681709564965" lon="14.101418831052694"><ele>801.4285714285714</ele><time>2026-04-19T07:48:08.995Z</time></trkpt><trkpt lat="41.78688790002284" lon="14.101458248480947"><ele>801.8571428571429</ele><time>2026-04-19T07:48:09.995Z</time></trkpt><trkpt lat="41.78695135546972" lon="14.101484531457219"><ele>802.2857142857142</ele><time>2026-04-19T07:48:10.995Z</time></trkpt><trkpt lat="41.7870134951915" lon="14.101522058714755"><ele>802.7142857142858</ele><time>2026-04-19T07:48:11.995Z</time></trkpt><trkpt lat="41.78707573783645" lon="14.101568769303448"><ele>803.1428571428572</ele><time>2026-04-19T07:48:12.995Z</time></trkpt><trkpt lat="41.7871397024253" lon="14.101618479432377"><ele>803.5714285714286</ele><time>2026-04-19T07:48:13.995Z</time></trkpt><trkpt lat="41.78720648085634" lon="14.10166045150219"><ele>804.0</ele><time>2026-04-19T07:48:14.995Z</time></trkpt><trkpt lat="41.787269405893646" lon="14.10170670666852"><ele>804.0</ele><time>2026-04-19T07:48:15.995Z</time></trkpt><trkpt lat="41.78733108116949" lon="14.101748055300453"><ele>804.0</ele><time>2026-04-19T07:48:16.995Z</time></trkpt><trkpt lat="41.78739326449925" lon="14.101801364950918"><ele>804.0</ele><time>2026-04-19T07:48:17.995Z</time></trkpt><trkpt lat="41.787451167169095" lon="14.101857923786714"><ele>804.0</ele><time>2026-04-19T07:48:18.995Z</time></trkpt><trkpt lat="41.78750874063092" lon="14.101897828999267"><ele>804.0</ele><time>2026-04-19T07:48:19.995Z</time></trkpt><trkpt lat="41.78757032977924" lon="14.101949392837076"><ele>804.0</ele><time>2026-04-19T07:48:20.995Z</time></trkpt><trkpt lat="41.78762572171407" lon="14.101996666673834"><ele>804.0</ele><time>2026-04-19T07:48:21.995Z</time></trkpt><trkpt lat="41.78767010112332" lon="14.102125767709442"><ele>804.0</ele><time>2026-04-19T07:48:23.995Z</time></trkpt><trkpt lat="41.78765009758851" lon="14.102240405753593"><ele>804.0</ele><time>2026-04-19T07:48:25.995Z</time></trkpt><trkpt lat="41.787617256901385" lon="14.102343335213936"><ele>804.0</ele><time>2026-04-19T07:48:26.995Z</time></trkpt><trkpt lat="41.787582536585425" lon="14.102452401647028"><ele>804.0</ele><time>2026-04-19T07:48:27.995Z</time></trkpt><trkpt lat="41.787541896430646" lon="14.102550503196166"><ele>804.0</ele><time>2026-04-19T07:48:28.995Z</time></trkpt><trkpt lat="41.78752245796903" lon="14.102650369934715"><ele>804.0</ele><time>2026-04-19T07:48:29.995Z</time></trkpt><trkpt lat="41.787518434613716" lon="14.10275482129102"><ele>802.8333333333334</ele><time>2026-04-19T07:48:30.995Z</time></trkpt><trkpt lat="41.787527209820105" lon="14.102852000697647"><ele>801.6666666666667</ele><time>2026-04-19T07:48:31.995Z</time></trkpt><trkpt lat="41.78756096806381" lon="14.102956124208285"><ele>800.5</ele><time>2026-04-19T07:48:32.995Z</time></trkpt><trkpt lat="41.787594480583316" lon="14.103058057448086"><ele>799.3333333333334</ele><time>2026-04-19T07:48:33.995Z</time></trkpt><trkpt lat="41.7876337486874" lon="14.103156481161273"><ele>798.1666666666667</ele><time>2026-04-19T07:48:34.995Z</time></trkpt><trkpt lat="41.78767147867078" lon="14.103253155556244"><ele>797.0</ele><time>2026-04-19T07:48:35.995Z</time></trkpt><trkpt lat="41.78771079185797" lon="14.103342467931363"><ele>796.4285714285714</ele><time>2026-04-19T07:48:36.995Z</time></trkpt><trkpt lat="41.787747980832144" lon="14.10342172199883"><ele>795.8571428571429</ele><time>2026-04-19T07:48:37.995Z</time></trkpt><trkpt lat="41.78778314439907" lon="14.103528723465931"><ele>795.2857142857143</ele><time>2026-04-19T07:48:38.995Z</time></trkpt><trkpt lat="41.78781554799481" lon="14.103629692332444"><ele>794.7142857142858</ele><time>2026-04-19T07:48:39.995Z</time></trkpt><trkpt lat="41.78784377820208" lon="14.103720513080832"><ele>794.1428571428571</ele><time>2026-04-19T07:48:40.995Z</time></trkpt><trkpt lat="41.7878788906527" lon="14.103802214054062"><ele>793.5714285714287</ele><time>2026-04-19T07:48:41.995Z</time></trkpt><trkpt lat="41.78791167083428" lon="14.103879275004248"><ele>793.0</ele><time>2026-04-19T07:48:42.995Z</time></trkpt><trkpt lat="41.78794675719402" lon="14.103959817786063"><ele>792.9999999999999</ele><time>2026-04-19T07:48:43.995Z</time></trkpt><trkpt lat="41.78798657221221" lon="14.104052383473354"><ele>793.0</ele><time>2026-04-19T07:48:44.995Z</time></trkpt><trkpt lat="41.788028146967214" lon="14.104145525869251"><ele>793.0</ele><time>2026-04-19T07:48:45.995Z</time></trkpt><trkpt lat="41.78806550265342" lon="14.104245529563354"><ele>793.0</ele><time>2026-04-19T07:48:46.995Z</time></trkpt><trkpt lat="41.78809562273726" lon="14.104354440526622"><ele>792.9999999999999</ele><time>2026-04-19T07:48:47.995Z</time></trkpt><trkpt lat="41.78811419238814" lon="14.104465617859669"><ele>793.0</ele><time>2026-04-19T07:48:48.995Z</time></trkpt><trkpt lat="41.78811246230167" lon="14.104584620601862"><ele>792.8571428571429</ele><time>2026-04-19T07:48:49.995Z</time></trkpt><trkpt lat="41.78810819692246" lon="14.104703522172521"><ele>792.7142857142858</ele><time>2026-04-19T07:48:50.995Z</time></trkpt><trkpt lat="41.78811196733373" lon="14.104804777119954"><ele>792.5714285714287</ele><time>2026-04-19T07:48:51.995Z</time></trkpt><trkpt lat="41.788116096131894" lon="14.104896468772582"><ele>792.4285714285714</ele><time>2026-04-19T07:48:52.995Z</time></trkpt><trkpt lat="41.78812106448208" lon="14.104982029980858"><ele>792.2857142857142</ele><time>2026-04-19T07:48:53.995Z</time></trkpt><trkpt lat="41.78812459763721" lon="14.105067307702463"><ele>792.1428571428572</ele><time>2026-04-19T07:48:54.995Z</time></trkpt><trkpt lat="41.788133935342785" lon="14.10517580582308"><ele>792.0</ele><time>2026-04-19T07:48:56.995Z</time></trkpt><trkpt lat="41.78816380482449" lon="14.105276823605244"><ele>792.8</ele><time>2026-04-19T07:49:01.995Z</time></trkpt><trkpt lat="41.78826212542683" lon="14.1053308963939"><ele>793.6</ele><time>2026-04-19T07:49:03.995Z</time></trkpt><trkpt lat="41.78834155266158" lon="14.105399973696597"><ele>794.4</ele><time>2026-04-19T07:49:05.995Z</time></trkpt><trkpt lat="41.7883949393399" lon="14.105551585548671"><ele>795.1999999999999</ele><time>2026-04-19T07:49:08.995Z</time></trkpt><trkpt lat="41.78839088129151" lon="14.105657095907524"><ele>796.0</ele><time>2026-04-19T07:49:09.995Z</time></trkpt><trkpt lat="41.78837719826488" lon="14.105761824577664"><ele>797.4999999999999</ele><time>2026-04-19T07:49:10.995Z</time></trkpt><trkpt lat="41.78832593374384" lon="14.105888279827845"><ele>799.0</ele><time>2026-04-19T07:49:12.995Z</time></trkpt><trkpt lat="41.788270703020885" lon="14.105928843219264"><ele>800.5</ele><time>2026-04-19T07:49:13.995Z</time></trkpt><trkpt lat="41.78820146965153" lon="14.105961706559743"><ele>802.0</ele><time>2026-04-19T07:49:16.995Z</time></trkpt><trkpt lat="41.7882343387988" lon="14.106042184678863"><ele>803.4999999999999</ele><time>2026-04-19T07:49:18.995Z</time></trkpt><trkpt lat="41.78831158233039" lon="14.106125233112467"><ele>805.0</ele><time>2026-04-19T07:49:20.995Z</time></trkpt><trkpt lat="41.78842730187354" lon="14.106159556164195"><ele>804.8</ele><time>2026-04-19T07:49:22.995Z</time></trkpt><trkpt lat="41.78852677574585" lon="14.106279997122162"><ele>804.6</ele><time>2026-04-19T07:49:24.995Z</time></trkpt><trkpt lat="41.78857966528576" lon="14.10635864919578"><ele>804.4000000000001</ele><time>2026-04-19T07:49:25.995Z</time></trkpt><trkpt lat="41.78863204593316" lon="14.10648404323535"><ele>804.2</ele><time>2026-04-19T07:49:27.995Z</time></trkpt><trkpt lat="41.7886111649221" lon="14.106574899689559"><ele>804.0</ele><time>2026-04-19T07:49:29.995Z</time></trkpt><trkpt lat="41.78853584814711" lon="14.106633386205862"><ele>807.0</ele><time>2026-04-19T07:49:31.995Z</time></trkpt><trkpt lat="41.78840918028353" lon="14.106684829058628"><ele>810.0</ele><time>2026-04-19T07:49:33.995Z</time></trkpt><trkpt lat="41.78833678865885" lon="14.106710023408533"><ele>813.0</ele><time>2026-04-19T07:49:34.995Z</time></trkpt><trkpt lat="41.78825275827401" lon="14.106763130980145"><ele>816.0</ele><time>2026-04-19T07:49:35.995Z</time></trkpt><trkpt lat="41.788174388210365" lon="14.106823028841166"><ele>819.0</ele><time>2026-04-19T07:49:36.995Z</time></trkpt><trkpt lat="41.788107859914774" lon="14.106855950528407"><ele>819.0</ele><time>2026-04-19T07:49:37.995Z</time></trkpt><trkpt lat="41.788030896453385" lon="14.106909935809455"><ele>819.0</ele><time>2026-04-19T07:49:38.995Z</time></trkpt><trkpt lat="41.78797003561492" lon="14.106977607443406"><ele>819.0</ele><time>2026-04-19T07:49:39.995Z</time></trkpt><trkpt lat="41.78791577516449" lon="14.107055403913513"><ele>819.0</ele><time>2026-04-19T07:49:40.995Z</time></trkpt><trkpt lat="41.78784383364765" lon="14.107117766348166"><ele>819.0</ele><time>2026-04-19T07:49:41.995Z</time></trkpt><trkpt lat="41.78775108574317" lon="14.107165803184493"><ele>819.0</ele><time>2026-04-19T07:49:42.995Z</time></trkpt><trkpt lat="41.78767084223533" lon="14.107218016513471"><ele>820.5</ele><time>2026-04-19T07:49:43.995Z</time></trkpt><trkpt lat="41.787602148630526" lon="14.10726941530034"><ele>822.0</ele><time>2026-04-19T07:49:44.995Z</time></trkpt><trkpt lat="41.78754845226389" lon="14.107344587962451"><ele>823.5</ele><time>2026-04-19T07:49:46.995Z</time></trkpt><trkpt lat="41.78757603386818" lon="14.107451469827183"><ele>825.0</ele><time>2026-04-19T07:49:53.994Z</time></trkpt><trkpt lat="41.78762833152745" lon="14.107506772009533"><ele>826.5</ele><time>2026-04-19T07:49:57.994Z</time></trkpt><trkpt lat="41.78768632458108" lon="14.107561450001933"><ele>828.0</ele><time>2026-04-19T07:49:59.994Z</time></trkpt><trkpt lat="41.7877816805834" lon="14.107621925504287"><ele>828.8333333333334</ele><time>2026-04-19T07:50:02.994Z</time></trkpt><trkpt lat="41.78779587991421" lon="14.107706892364579"><ele>829.6666666666667</ele><time>2026-04-19T07:50:06.994Z</time></trkpt><trkpt lat="41.78773286756097" lon="14.107694673365513"><ele>830.5</ele><time>2026-04-19T07:50:09.994Z</time></trkpt><trkpt lat="41.78763681547572" lon="14.107608483072752"><ele>831.3333333333334</ele><time>2026-04-19T07:50:11.994Z</time></trkpt><trkpt lat="41.787582153183216" lon="14.107554418135122"><ele>832.1666666666667</ele><time>2026-04-19T07:50:12.994Z</time></trkpt><trkpt lat="41.78751832413177" lon="14.107494124127092"><ele>833.0</ele><time>2026-04-19T07:50:13.994Z</time></trkpt><trkpt lat="41.78745895574529" lon="14.107459604572158"><ele>835.1666666666667</ele><time>2026-04-19T07:50:14.994Z</time></trkpt><trkpt lat="41.78739060672551" lon="14.107428303006422"><ele>837.3333333333334</ele><time>2026-04-19T07:50:15.994Z</time></trkpt><trkpt lat="41.78731922867854" lon="14.107517576894532"><ele>839.5</ele><time>2026-04-19T07:50:17.994Z</time></trkpt><trkpt lat="41.78738328849367" lon="14.107618603132426"><ele>841.6666666666667</ele><time>2026-04-19T07:50:18.994Z</time></trkpt><trkpt lat="41.78745634834115" lon="14.107686510621724"><ele>843.8333333333334</ele><time>2026-04-19T07:50:19.994Z</time></trkpt><trkpt lat="41.78751580892878" lon="14.107757817054836"><ele>846.0</ele><time>2026-04-19T07:50:20.994Z</time></trkpt><trkpt lat="41.78757650670818" lon="14.107831257846568"><ele>846.0</ele><time>2026-04-19T07:50:21.994Z</time></trkpt><trkpt lat="41.78764671330875" lon="14.107914395696964"><ele>846.0</ele><time>2026-04-19T07:50:22.994Z</time></trkpt><trkpt lat="41.787695898085865" lon="14.108012872513997"><ele>846.0</ele><time>2026-04-19T07:50:24.994Z</time></trkpt><trkpt lat="41.78761533086309" lon="14.108044590610461"><ele>846.0</ele><time>2026-04-19T07:50:26.994Z</time></trkpt><trkpt lat="41.78755105443294" lon="14.107985320346208"><ele>846.0</ele><time>2026-04-19T07:50:27.994Z</time></trkpt><trkpt lat="41.78749600474276" lon="14.10792602228301"><ele>846.0</ele><time>2026-04-19T07:50:28.994Z</time></trkpt><trkpt lat="41.78743945732703" lon="14.107862563782572"><ele>846.0</ele><time>2026-04-19T07:50:29.994Z</time></trkpt><trkpt lat="41.78737159027739" lon="14.107808961814472"><ele>846.0</ele><time>2026-04-19T07:50:30.994Z</time></trkpt><trkpt lat="41.78723589020603" lon="14.107860787384146"><ele>846.0</ele><time>2026-04-19T07:50:32.994Z</time></trkpt><trkpt lat="41.78717358865191" lon="14.107966144529232"><ele>846.0</ele><time>2026-04-19T07:50:33.994Z</time></trkpt><trkpt lat="41.787110524730664" lon="14.108041687966708"><ele>846.0</ele><time>2026-04-19T07:50:34.994Z</time></trkpt><trkpt lat="41.78704867222306" lon="14.108198232698932"><ele>848.8333333333334</ele><time>2026-04-19T07:50:36.994Z</time></trkpt><trkpt lat="41.787040579144026" lon="14.108297687826333"><ele>851.6666666666667</ele><time>2026-04-19T07:50:37.994Z</time></trkpt><trkpt lat="41.786991988677116" lon="14.108436112916118"><ele>854.5</ele><time>2026-04-19T07:50:39.994Z</time></trkpt><trkpt lat="41.78700654331054" lon="14.108582638604478"><ele>857.3333333333334</ele><time>2026-04-19T07:50:41.994Z</time></trkpt><trkpt lat="41.786983129417" lon="14.108668938564962"><ele>860.1666666666667</ele><time>2026-04-19T07:50:42.994Z</time></trkpt><trkpt lat="41.786967526149674" lon="14.108755016589873"><ele>863.0</ele><time>2026-04-19T07:50:43.994Z</time></trkpt><trkpt lat="41.78696523674368" lon="14.108841224864577"><ele>863.0000000000001</ele><time>2026-04-19T07:50:44.994Z</time></trkpt><trkpt lat="41.78696716493374" lon="14.108939252139857"><ele>863.0</ele><time>2026-04-19T07:50:45.994Z</time></trkpt><trkpt lat="41.786968480918766" lon="14.109025911447649"><ele>863.0</ele><time>2026-04-19T07:50:46.994Z</time></trkpt><trkpt lat="41.786953329942556" lon="14.109175372289673"><ele>863.0</ele><time>2026-04-19T07:50:48.994Z</time></trkpt><trkpt lat="41.78696049610759" lon="14.109260540771585"><ele>863.0000000000001</ele><time>2026-04-19T07:50:50.994Z</time></trkpt><trkpt lat="41.78695705986433" lon="14.109363917642916"><ele>863.0</ele><time>2026-04-19T07:50:54.994Z</time></trkpt><trkpt lat="41.78690802593622" lon="14.1094845928736"><ele>861.3333333333334</ele><time>2026-04-19T07:50:56.994Z</time></trkpt><trkpt lat="41.786830139369634" lon="14.109580125928312"><ele>859.6666666666667</ele><time>2026-04-19T07:50:58.994Z</time></trkpt><trkpt lat="41.78677742121751" lon="14.109665238863078"><ele>858.0</ele><time>2026-04-19T07:51:00.994Z</time></trkpt><trkpt lat="41.78672911880897" lon="14.109740926429309"><ele>856.3333333333333</ele><time>2026-04-19T07:51:02.994Z</time></trkpt><trkpt lat="41.7866524560113" lon="14.109749143813392"><ele>854.6666666666666</ele><time>2026-04-19T07:51:04.994Z</time></trkpt><trkpt lat="41.78655426144408" lon="14.109767162326463"><ele>853.0</ele><time>2026-04-19T07:51:06.994Z</time></trkpt><trkpt lat="41.78649106700217" lon="14.109786724138816"><ele>852.9999999999999</ele><time>2026-04-19T07:51:08.994Z</time></trkpt><trkpt lat="41.7864131129059" lon="14.10974145280246"><ele>853.0</ele><time>2026-04-19T07:51:10.994Z</time></trkpt><trkpt lat="41.78633395957554" lon="14.109699687659083"><ele>853.0</ele><time>2026-04-19T07:51:12.994Z</time></trkpt><trkpt lat="41.78625586645907" lon="14.109700270110936"><ele>853.0</ele><time>2026-04-19T07:51:16.994Z</time></trkpt><trkpt lat="41.786174617699224" lon="14.109709835558983"><ele>852.9999999999999</ele><time>2026-04-19T07:51:38.994Z</time></trkpt><trkpt lat="41.78618893433193" lon="14.109816779389945"><ele>853.0</ele><time>2026-04-19T07:51:41.994Z</time></trkpt><trkpt lat="41.78616837413142" lon="14.109965743833405"><ele>854.5999999999999</ele><time>2026-04-19T07:51:43.994Z</time></trkpt><trkpt lat="41.786180219398815" lon="14.110127939195944"><ele>856.1999999999999</ele><time>2026-04-19T07:51:45.994Z</time></trkpt><trkpt lat="41.78621124015429" lon="14.110209320188382"><ele>857.8</ele><time>2026-04-19T07:51:46.994Z</time></trkpt><trkpt lat="41.7861948380163" lon="14.110321048693956"><ele>859.4</ele><time>2026-04-19T07:51:47.994Z</time></trkpt><trkpt lat="41.78623949294541" lon="14.110422479385814"><ele>861.0</ele><time>2026-04-19T07:51:48.994Z</time></trkpt><trkpt lat="41.786282781821356" lon="14.110524624428738"><ele>861.0</ele><time>2026-04-19T07:51:49.994Z</time></trkpt><trkpt lat="41.78631447897268" lon="14.110610790681905"><ele>861.0</ele><time>2026-04-19T07:51:50.994Z</time></trkpt><trkpt lat="41.78634271325243" lon="14.110702629829246"><ele>861.0</ele><time>2026-04-19T07:51:51.994Z</time></trkpt><trkpt lat="41.786339257161764" lon="14.11082060590148"><ele>861.0</ele><time>2026-04-19T07:51:52.994Z</time></trkpt><trkpt lat="41.78631339633206" lon="14.110942282720114"><ele>861.0</ele><time>2026-04-19T07:51:53.994Z</time></trkpt><trkpt lat="41.786302774023255" lon="14.111054669041785"><ele>861.0</ele><time>2026-04-19T07:51:54.994Z</time></trkpt><trkpt lat="41.78629456274033" lon="14.111147182839064"><ele>863.6666666666666</ele><time>2026-04-19T07:51:55.994Z</time></trkpt><trkpt lat="41.786290007785944" lon="14.111271444107683"><ele>866.3333333333333</ele><time>2026-04-19T07:51:57.994Z</time></trkpt><trkpt lat="41.78631565272122" lon="14.11142131565526"><ele>869.0</ele><time>2026-04-19T07:51:59.994Z</time></trkpt><trkpt lat="41.78633702741673" lon="14.11150944539836"><ele>871.6666666666666</ele><time>2026-04-19T07:52:00.994Z</time></trkpt><trkpt lat="41.786398552990796" lon="14.111589672556452"><ele>874.3333333333333</ele><time>2026-04-19T07:52:01.994Z</time></trkpt><trkpt lat="41.786427593459095" lon="14.11169014260509"><ele>877.0</ele><time>2026-04-19T07:52:02.994Z</time></trkpt><trkpt lat="41.786451448678214" lon="14.111782228382317"><ele>877.4999999999999</ele><time>2026-04-19T07:52:03.994Z</time></trkpt><trkpt lat="41.786461660930584" lon="14.111867894071638"><ele>878.0</ele><time>2026-04-19T07:52:04.994Z</time></trkpt><trkpt lat="41.78650934830226" lon="14.112039774879557"><ele>878.5</ele><time>2026-04-19T07:52:06.993Z</time></trkpt><trkpt lat="41.786536956585586" lon="14.11214683548464"><ele>879.0</ele><time>2026-04-19T07:52:07.993Z</time></trkpt><trkpt lat="41.786564204359316" lon="14.112259080870562"><ele>879.4999999999999</ele><time>2026-04-19T07:52:08.993Z</time></trkpt><trkpt lat="41.786581411688076" lon="14.112348065951586"><ele>880.0</ele><time>2026-04-19T07:52:09.993Z</time></trkpt><trkpt lat="41.78660118568851" lon="14.112462127619047"><ele>880.0</ele><time>2026-04-19T07:52:11.993Z</time></trkpt><trkpt lat="41.78667754274708" lon="14.112543336377247"><ele>880.0</ele><time>2026-04-19T07:52:13.993Z</time></trkpt><trkpt lat="41.78677708482417" lon="14.112497693702371"><ele>880.0</ele><time>2026-04-19T07:52:15.993Z</time></trkpt><trkpt lat="41.78680808470733" lon="14.11239656910064"><ele>880.0</ele><time>2026-04-19T07:52:16.993Z</time></trkpt><trkpt lat="41.786828766425955" lon="14.112266512537012"><ele>880.0</ele><time>2026-04-19T07:52:17.993Z</time></trkpt><trkpt lat="41.786819604639675" lon="14.112163354781956"><ele>886.8</ele><time>2026-04-19T07:52:18.993Z</time></trkpt><trkpt lat="41.78688419579483" lon="14.112059285174459"><ele>893.6</ele><time>2026-04-19T07:52:20.993Z</time></trkpt><trkpt lat="41.78697587266103" lon="14.112148050251877"><ele>900.4000000000001</ele><time>2026-04-19T07:52:22.993Z</time></trkpt><trkpt lat="41.78698861609096" lon="14.112264499029182"><ele>907.2</ele><time>2026-04-19T07:52:23.993Z</time></trkpt><trkpt lat="41.7869779611575" lon="14.112408835805281"><ele>914.0</ele><time>2026-04-19T07:52:24.993Z</time></trkpt><trkpt lat="41.78697439200573" lon="14.112571260022657"><ele>914.0</ele><time>2026-04-19T07:52:25.993Z</time></trkpt><trkpt lat="41.78697500384305" lon="14.112726819693801"><ele>914.0</ele><time>2026-04-19T07:52:26.993Z</time></trkpt><trkpt lat="41.78698223373038" lon="14.112881590287516"><ele>914.0</ele><time>2026-04-19T07:52:27.993Z</time></trkpt><trkpt lat="41.7869932216838" lon="14.113070451954357"><ele>914.0</ele><time>2026-04-19T07:52:28.993Z</time></trkpt><trkpt lat="41.78700095747686" lon="14.11325397124856"><ele>912.5</ele><time>2026-04-19T07:52:29.993Z</time></trkpt><trkpt lat="41.787008445249135" lon="14.113426815003079"><ele>911.0</ele><time>2026-04-19T07:52:30.993Z</time></trkpt><trkpt lat="41.78702996978308" lon="14.11361225524358"><ele>909.5</ele><time>2026-04-19T07:52:31.993Z</time></trkpt><trkpt lat="41.78704313289345" lon="14.113783901691658"><ele>908.0</ele><time>2026-04-19T07:52:32.993Z</time></trkpt><trkpt lat="41.78706630263281" lon="14.113968621040145"><ele>907.6666666666667</ele><time>2026-04-19T07:52:33.993Z</time></trkpt><trkpt lat="41.787109884733866" lon="14.11415767658261"><ele>907.3333333333333</ele><time>2026-04-19T07:52:34.993Z</time></trkpt><trkpt lat="41.78719399585299" lon="14.114336883754707"><ele>907.0</ele><time>2026-04-19T07:52:35.993Z</time></trkpt><trkpt lat="41.78727595007988" lon="14.114514753545723"><ele>907.0</ele><time>2026-04-19T07:52:36.993Z</time></trkpt><trkpt lat="41.7873568191132" lon="14.11470104644181"><ele>907.0</ele><time>2026-04-19T07:52:37.993Z</time></trkpt><trkpt lat="41.78743912572123" lon="14.114893571343023"><ele>907.0</ele><time>2026-04-19T07:52:38.993Z</time></trkpt><trkpt lat="41.78752568551407" lon="14.115057454553623"><ele>909.3333333333333</ele><time>2026-04-19T07:52:39.993Z</time></trkpt><trkpt lat="41.78763005982892" lon="14.115215023716672"><ele>911.6666666666667</ele><time>2026-04-19T07:52:40.993Z</time></trkpt><trkpt lat="41.78773611795341" lon="14.115354619713546"><ele>914.0</ele><time>2026-04-19T07:52:41.993Z</time></trkpt><trkpt lat="41.78785412359857" lon="14.115495135649043"><ele>918.6666666666667</ele><time>2026-04-19T07:52:42.993Z</time></trkpt><trkpt lat="41.78797160917587" lon="14.115629869551746"><ele>923.3333333333333</ele><time>2026-04-19T07:52:43.993Z</time></trkpt><trkpt lat="41.78810106375627" lon="14.115775734029393"><ele>928.0</ele><time>2026-04-19T07:52:44.993Z</time></trkpt><trkpt lat="41.78821100284121" lon="14.11591904449745"><ele>928.0</ele><time>2026-04-19T07:52:45.993Z</time></trkpt><trkpt lat="41.788309619167755" lon="14.116050793477799"><ele>928.0</ele><time>2026-04-19T07:52:46.993Z</time></trkpt><trkpt lat="41.7883980546615" lon="14.116155445908113"><ele>928.0</ele><time>2026-04-19T07:52:47.993Z</time></trkpt><trkpt lat="41.788477064221134" lon="14.116247713138767"><ele>928.0</ele><time>2026-04-19T07:52:48.993Z</time></trkpt><trkpt lat="41.788525312369146" lon="14.116368613284356"><ele>927.0</ele><time>2026-04-19T07:52:49.993Z</time></trkpt><trkpt lat="41.78856069537282" lon="14.11653767871776"><ele>926.0</ele><time>2026-04-19T07:52:50.993Z</time></trkpt><trkpt lat="41.788569147313886" lon="14.116709632983218"><ele>925.0</ele><time>2026-04-19T07:52:51.993Z</time></trkpt><trkpt lat="41.788576894878574" lon="14.116881229465601"><ele>924.0</ele><time>2026-04-19T07:52:52.993Z</time></trkpt><trkpt lat="41.7885753681928" lon="14.117034121537428"><ele>924.0</ele><time>2026-04-19T07:52:53.993Z</time></trkpt><trkpt lat="41.78857276280819" lon="14.117183253189792"><ele>924.0</ele><time>2026-04-19T07:52:54.993Z</time></trkpt><trkpt lat="41.78857179189952" lon="14.117307760524747"><ele>924.0</ele><time>2026-04-19T07:52:55.993Z</time></trkpt><trkpt lat="41.78857308443686" lon="14.117425210290804"><ele>924.0</ele><time>2026-04-19T07:52:56.993Z</time></trkpt><trkpt lat="41.78856437755309" lon="14.117510775047993"><ele>924.0</ele><time>2026-04-19T07:52:57.993Z</time></trkpt><trkpt lat="41.78855184039803" lon="14.117595646487965"><ele>924.0</ele><time>2026-04-19T07:52:59.993Z</time></trkpt><trkpt lat="41.78854127259127" lon="14.117679081247429"><ele>924.8333333333334</ele><time>2026-04-19T07:53:01.993Z</time></trkpt><trkpt lat="41.78850761831029" lon="14.117778423674086"><ele>925.6666666666667</ele><time>2026-04-19T07:53:04.993Z</time></trkpt><trkpt lat="41.7884699001404" lon="14.11789403079308"><ele>926.5</ele><time>2026-04-19T07:53:08.993Z</time></trkpt><trkpt lat="41.78843724217227" lon="14.118022431835438"><ele>927.3333333333334</ele><time>2026-04-19T07:53:10.993Z</time></trkpt><trkpt lat="41.788407020566915" lon="14.118122318590698"><ele>928.1666666666667</ele><time>2026-04-19T07:53:11.993Z</time></trkpt><trkpt lat="41.78837162768593" lon="14.118222049080776"><ele>929.0</ele><time>2026-04-19T07:53:12.993Z</time></trkpt><trkpt lat="41.788322140420526" lon="14.118328881561991"><ele>930.8000000000001</ele><time>2026-04-19T07:53:13.993Z</time></trkpt><trkpt lat="41.78826074326054" lon="14.11842375995823"><ele>932.6000000000001</ele><time>2026-04-19T07:53:14.993Z</time></trkpt><trkpt lat="41.7881981681776" lon="14.11854471398844"><ele>934.4</ele><time>2026-04-19T07:53:15.993Z</time></trkpt><trkpt lat="41.788170263281025" lon="14.118674082217597"><ele>936.2</ele><time>2026-04-19T07:53:16.993Z</time></trkpt><trkpt lat="41.78815814471406" lon="14.118805995404337"><ele>938.0</ele><time>2026-04-19T07:53:17.993Z</time></trkpt><trkpt lat="41.78815793004337" lon="14.118949784489939"><ele>939.1666666666667</ele><time>2026-04-19T07:53:18.993Z</time></trkpt><trkpt lat="41.788161339697155" lon="14.11908403319813"><ele>940.3333333333334</ele><time>2026-04-19T07:53:19.993Z</time></trkpt><trkpt lat="41.78816898008362" lon="14.119222590096411"><ele>941.5</ele><time>2026-04-19T07:53:20.993Z</time></trkpt><trkpt lat="41.788182255122166" lon="14.119348684755657"><ele>942.6666666666667</ele><time>2026-04-19T07:53:21.993Z</time></trkpt><trkpt lat="41.78819817479957" lon="14.119456687988126"><ele>943.8333333333334</ele><time>2026-04-19T07:53:22.993Z</time></trkpt><trkpt lat="41.78822532886631" lon="14.119537507837585"><ele>945.0</ele><time>2026-04-19T07:53:23.993Z</time></trkpt><trkpt lat="41.78825671271941" lon="14.119625540779845"><ele>945.0</ele><time>2026-04-19T07:53:25.993Z</time></trkpt><trkpt lat="41.78827862855872" lon="14.119708399456513"><ele>945.0</ele><time>2026-04-19T07:53:51.993Z</time></trkpt><trkpt lat="41.78827323265513" lon="14.119834177789189"><ele>945.0</ele><time>2026-04-19T07:53:54.993Z</time></trkpt><trkpt lat="41.7882662835854" lon="14.119959182504482"><ele>945.0</ele><time>2026-04-19T07:53:56.993Z</time></trkpt><trkpt lat="41.7882692331592" lon="14.120120072997766"><ele>945.0</ele><time>2026-04-19T07:53:58.993Z</time></trkpt><trkpt lat="41.78828044146522" lon="14.120272661130015"><ele>944.8</ele><time>2026-04-19T07:54:00.993Z</time></trkpt><trkpt lat="41.78830583307511" lon="14.120400077677944"><ele>944.6</ele><time>2026-04-19T07:54:02.993Z</time></trkpt><trkpt lat="41.78833392037331" lon="14.120492677057497"><ele>944.4000000000001</ele><time>2026-04-19T07:54:04.993Z</time></trkpt><trkpt lat="41.78838732752656" lon="14.120571045752163"><ele>944.2</ele><time>2026-04-19T07:54:07.993Z</time></trkpt><trkpt lat="41.788384816452144" lon="14.12067853226039"><ele>944.0</ele><time>2026-04-19T07:54:29.992Z</time></trkpt><trkpt lat="41.78844569275152" lon="14.120815036154982"><ele>943.5000000000001</ele><time>2026-04-19T07:54:31.992Z</time></trkpt><trkpt lat="41.78848133135795" lon="14.12091414542105"><ele>943.0</ele><time>2026-04-19T07:54:32.992Z</time></trkpt><trkpt lat="41.78851597696044" lon="14.121000243850427"><ele>942.5</ele><time>2026-04-19T07:54:33.992Z</time></trkpt><trkpt lat="41.788552921261186" lon="14.121084378289819"><ele>942.0</ele><time>2026-04-19T07:54:34.992Z</time></trkpt><trkpt lat="41.78860195813541" lon="14.121196737895445"><ele>941.5000000000001</ele><time>2026-04-19T07:54:35.992Z</time></trkpt><trkpt lat="41.788627828581" lon="14.121339388151291"><ele>941.0</ele><time>2026-04-19T07:54:36.992Z</time></trkpt><trkpt lat="41.78870012641432" lon="14.121458605663737"><ele>940.1999999999999</ele><time>2026-04-19T07:54:37.992Z</time></trkpt><trkpt lat="41.78876769442776" lon="14.12158462603969"><ele>939.3999999999999</ele><time>2026-04-19T07:54:38.992Z</time></trkpt><trkpt lat="41.78883642178" lon="14.121695782159641"><ele>938.6</ele><time>2026-04-19T07:54:39.992Z</time></trkpt><trkpt lat="41.788906387062625" lon="14.12179844378136"><ele>937.8</ele><time>2026-04-19T07:54:40.992Z</time></trkpt><trkpt lat="41.78897651570402" lon="14.121905340662988"><ele>937.0</ele><time>2026-04-19T07:54:41.992Z</time></trkpt><trkpt lat="41.78904929927286" lon="14.122021080712438"><ele>937.0</ele><time>2026-04-19T07:54:42.992Z</time></trkpt><trkpt lat="41.789119397897935" lon="14.122141078998494"><ele>937.0</ele><time>2026-04-19T07:54:43.992Z</time></trkpt><trkpt lat="41.7891896237929" lon="14.122252571535057"><ele>937.0</ele><time>2026-04-19T07:54:44.992Z</time></trkpt><trkpt lat="41.789255347847366" lon="14.122368015636717"><ele>937.0</ele><time>2026-04-19T07:54:45.992Z</time></trkpt><trkpt lat="41.78932019895248" lon="14.122494306195964"><ele>937.0</ele><time>2026-04-19T07:54:46.992Z</time></trkpt><trkpt lat="41.789384195872564" lon="14.12261688478814"><ele>936.8</ele><time>2026-04-19T07:54:47.992Z</time></trkpt><trkpt lat="41.789445132965994" lon="14.122744755488869"><ele>936.6</ele><time>2026-04-19T07:54:48.992Z</time></trkpt><trkpt lat="41.78950738039595" lon="14.122860693982133"><ele>936.3999999999999</ele><time>2026-04-19T07:54:49.992Z</time></trkpt><trkpt lat="41.7895686703245" lon="14.122975511129916"><ele>936.1999999999999</ele><time>2026-04-19T07:54:50.992Z</time></trkpt><trkpt lat="41.78963185143656" lon="14.123082133250357"><ele>936.0</ele><time>2026-04-19T07:54:51.992Z</time></trkpt><trkpt lat="41.78969277479716" lon="14.12318876729719"><ele>936.5</ele><time>2026-04-19T07:54:52.992Z</time></trkpt><trkpt lat="41.7897497694072" lon="14.123284765158745"><ele>937.0</ele><time>2026-04-19T07:54:53.992Z</time></trkpt><trkpt lat="41.78980081405169" lon="14.123377495047315"><ele>937.5</ele><time>2026-04-19T07:54:54.992Z</time></trkpt><trkpt lat="41.789852862823" lon="14.123466806717207"><ele>938.0</ele><time>2026-04-19T07:54:55.992Z</time></trkpt><trkpt lat="41.78990382866346" lon="14.123556944456627"><ele>938.5</ele><time>2026-04-19T07:54:56.992Z</time></trkpt><trkpt lat="41.78996217839951" lon="14.123635016030365"><ele>939.0</ele><time>2026-04-19T07:54:57.992Z</time></trkpt><trkpt lat="41.79002153205584" lon="14.123711769257953"><ele>939.0</ele><time>2026-04-19T07:54:58.992Z</time></trkpt><trkpt lat="41.79007311041183" lon="14.123786566947441"><ele>939.0000000000001</ele><time>2026-04-19T07:54:59.992Z</time></trkpt><trkpt lat="41.7901198937979" lon="14.123860965170646"><ele>939.0000000000001</ele><time>2026-04-19T07:55:00.992Z</time></trkpt><trkpt lat="41.790163291213574" lon="14.123930886113651"><ele>939.0</ele><time>2026-04-19T07:55:01.992Z</time></trkpt><trkpt lat="41.79024709123108" lon="14.124037197517474"><ele>939.0</ele><time>2026-04-19T07:55:03.992Z</time></trkpt><trkpt lat="41.790342338366834" lon="14.12416330021358"><ele>938.0</ele><time>2026-04-19T07:55:05.992Z</time></trkpt><trkpt lat="41.79041709953447" lon="14.124270723138313"><ele>937.0000000000001</ele><time>2026-04-19T07:55:07.992Z</time></trkpt><trkpt lat="41.79047085596344" lon="14.12440105614195"><ele>936.0000000000001</ele><time>2026-04-19T07:55:09.992Z</time></trkpt><trkpt lat="41.79051125662187" lon="14.124546304112474"><ele>935.0</ele><time>2026-04-19T07:55:11.992Z</time></trkpt><trkpt lat="41.790544934326974" lon="14.124655183978927"><ele>934.0</ele><time>2026-04-19T07:55:13.992Z</time></trkpt><trkpt lat="41.790587853836854" lon="14.124775877723241"><ele>933.9999999999999</ele><time>2026-04-19T07:55:15.992Z</time></trkpt><trkpt lat="41.790614070493206" lon="14.124874812055435"><ele>934.0</ele><time>2026-04-19T07:55:16.992Z</time></trkpt><trkpt lat="41.790644033922035" lon="14.124979089843713"><ele>934.0</ele><time>2026-04-19T07:55:17.992Z</time></trkpt><trkpt lat="41.790663118792565" lon="14.125093030096888"><ele>934.0</ele><time>2026-04-19T07:55:18.992Z</time></trkpt><trkpt lat="41.79070709311687" lon="14.125190665400535"><ele>933.9999999999999</ele><time>2026-04-19T07:55:19.992Z</time></trkpt><trkpt lat="41.79074283907396" lon="14.12529129721094"><ele>934.0</ele><time>2026-04-19T07:55:20.992Z</time></trkpt><trkpt lat="41.790776184081786" lon="14.125385470823554"><ele>932.8333333333333</ele><time>2026-04-19T07:55:21.992Z</time></trkpt><trkpt lat="41.790827272501446" lon="14.125481164165445"><ele>931.6666666666666</ele><time>2026-04-19T07:55:22.992Z</time></trkpt><trkpt lat="41.7908881974979" lon="14.125577481399416"><ele>930.5</ele><time>2026-04-19T07:55:23.992Z</time></trkpt><trkpt lat="41.79093687126903" lon="14.12567424885773"><ele>929.3333333333333</ele><time>2026-04-19T07:55:24.992Z</time></trkpt><trkpt lat="41.79095758756365" lon="14.125761885124623"><ele>928.1666666666666</ele><time>2026-04-19T07:55:25.992Z</time></trkpt><trkpt lat="41.79097531897831" lon="14.125871116392807"><ele>927.0</ele><time>2026-04-19T07:55:26.992Z</time></trkpt><trkpt lat="41.79099653861774" lon="14.125979519254548"><ele>924.2</ele><time>2026-04-19T07:55:27.992Z</time></trkpt><trkpt lat="41.79103180058828" lon="14.126062262022849"><ele>921.4000000000001</ele><time>2026-04-19T07:55:28.992Z</time></trkpt><trkpt lat="41.79106849932962" lon="14.126178412146853"><ele>918.5999999999999</ele><time>2026-04-19T07:55:29.992Z</time></trkpt><trkpt lat="41.791089062212876" lon="14.126319167953445"><ele>915.8</ele><time>2026-04-19T07:55:30.992Z</time></trkpt><trkpt lat="41.791115143623614" lon="14.12643238176658"><ele>913.0</ele><time>2026-04-19T07:55:31.992Z</time></trkpt><trkpt lat="41.791135461616015" lon="14.126557178422582"><ele>912.4999999999999</ele><time>2026-04-19T07:55:32.992Z</time></trkpt><trkpt lat="41.79115737101667" lon="14.126652595895496"><ele>912.0</ele><time>2026-04-19T07:55:33.992Z</time></trkpt><trkpt lat="41.79119675441072" lon="14.126750370761236"><ele>911.5</ele><time>2026-04-19T07:55:34.992Z</time></trkpt><trkpt lat="41.79124371186572" lon="14.126834442468379"><ele>911.0</ele><time>2026-04-19T07:55:35.992Z</time></trkpt><trkpt lat="41.79127734144119" lon="14.126924955862556"><ele>910.4999999999999</ele><time>2026-04-19T07:55:36.992Z</time></trkpt><trkpt lat="41.791305381471894" lon="14.127020868672442"><ele>910.0</ele><time>2026-04-19T07:55:37.992Z</time></trkpt><trkpt lat="41.7913554774002" lon="14.1271696367516"><ele>909.9999999999999</ele><time>2026-04-19T07:55:39.992Z</time></trkpt><trkpt lat="41.791414245248866" lon="14.12732107394045"><ele>910.0</ele><time>2026-04-19T07:55:41.992Z</time></trkpt><trkpt lat="41.79144366087067" lon="14.127403947971876"><ele>910.0</ele><time>2026-04-19T07:55:42.992Z</time></trkpt><trkpt lat="41.79147405789825" lon="14.127481242949466"><ele>910.0</ele><time>2026-04-19T07:55:43.992Z</time></trkpt><trkpt lat="41.791505833558624" lon="14.127572421078794"><ele>909.9999999999999</ele><time>2026-04-19T07:55:44.992Z</time></trkpt><trkpt lat="41.791534857294636" lon="14.127650842333658"><ele>910.0</ele><time>2026-04-19T07:55:45.992Z</time></trkpt><trkpt lat="41.79156254206505" lon="14.127768354651547"><ele>908.6666666666666</ele><time>2026-04-19T07:55:47.992Z</time></trkpt><trkpt lat="41.79158461842409" lon="14.127861498364872"><ele>907.3333333333333</ele><time>2026-04-19T07:55:51.992Z</time></trkpt><trkpt lat="41.791597568978794" lon="14.127955225887533"><ele>906.0</ele><time>2026-04-19T07:55:54.992Z</time></trkpt><trkpt lat="41.7916259478986" lon="14.128064775534876"><ele>904.6666666666667</ele><time>2026-04-19T07:55:56.992Z</time></trkpt><trkpt lat="41.791660970365236" lon="14.128176329067845"><ele>903.3333333333334</ele><time>2026-04-19T07:55:58.992Z</time></trkpt><trkpt lat="41.791728259379354" lon="14.128316472635738"><ele>902.0</ele><time>2026-04-19T07:56:00.992Z</time></trkpt><trkpt lat="41.79175859433485" lon="14.128395906746555"><ele>897.0</ele><time>2026-04-19T07:56:01.992Z</time></trkpt><trkpt lat="41.79184860774088" lon="14.128470648604779"><ele>892.0</ele><time>2026-04-19T07:56:03.992Z</time></trkpt><trkpt lat="41.79189448780555" lon="14.128537053796848"><ele>887.0</ele><time>2026-04-19T07:56:04.992Z</time></trkpt><trkpt lat="41.79195577649785" lon="14.128650402219671"><ele>882.0</ele><time>2026-04-19T07:56:06.992Z</time></trkpt><trkpt lat="41.79203742800057" lon="14.12876626597476"><ele>877.0</ele><time>2026-04-19T07:56:08.992Z</time></trkpt><trkpt lat="41.792107330443486" lon="14.128858745773051"><ele>877.0000000000001</ele><time>2026-04-19T07:56:10.992Z</time></trkpt><trkpt lat="41.792183587793005" lon="14.128863799250539"><ele>877.0</ele><time>2026-04-19T07:56:13.992Z</time></trkpt><trkpt lat="41.79225933878647" lon="14.128916489986532"><ele>877.0</ele><time>2026-04-19T07:56:15.992Z</time></trkpt><trkpt lat="41.792292052736514" lon="14.128990332478962"><ele>877.0</ele><time>2026-04-19T07:56:17.992Z</time></trkpt><trkpt lat="41.79234136325573" lon="14.129043015920583"><ele>877.0</ele><time>2026-04-19T07:56:20.992Z</time></trkpt><trkpt lat="41.79241450313501" lon="14.129056657327236"><ele>877.0000000000001</ele><time>2026-04-19T07:56:22.992Z</time></trkpt><trkpt lat="41.79245840209802" lon="14.128983162123534"><ele>877.0</ele><time>2026-04-19T07:56:41.991Z</time></trkpt><trkpt lat="41.79252175253796" lon="14.128972666955443"><ele>876.9999999999999</ele><time>2026-04-19T07:56:43.991Z</time></trkpt><trkpt lat="41.792597280214466" lon="14.12900423624236"><ele>877.0</ele><time>2026-04-19T07:56:47.991Z</time></trkpt><trkpt lat="41.79266729883101" lon="14.129098837487287"><ele>877.0</ele><time>2026-04-19T07:56:49.991Z</time></trkpt><trkpt lat="41.79274508993844" lon="14.12912886188663"><ele>877.0</ele><time>2026-04-19T07:56:52.991Z</time></trkpt><trkpt lat="41.792802175226434" lon="14.129170064981754"><ele>876.9999999999999</ele><time>2026-04-19T07:56:55.003Z</time></trkpt><trkpt lat="41.792867534863504" lon="14.129202893276986"><ele>877.0</ele><time>2026-04-19T07:56:57.003Z</time></trkpt><trkpt lat="41.7929480259022" lon="14.129214077471861"><ele>873.3333333333333</ele><time>2026-04-19T07:57:00.003Z</time></trkpt><trkpt lat="41.793031849992424" lon="14.12922495979807"><ele>869.6666666666666</ele><time>2026-04-19T07:57:03.003Z</time></trkpt><trkpt lat="41.79309516698507" lon="14.129264820520829"><ele>866.0</ele><time>2026-04-19T07:57:05.003Z</time></trkpt><trkpt lat="41.793157212667715" lon="14.12930008333774"><ele>862.3333333333333</ele><time>2026-04-19T07:57:08.003Z</time></trkpt><trkpt lat="41.793220875644714" lon="14.129345442204745"><ele>858.6666666666666</ele><time>2026-04-19T07:57:11.003Z</time></trkpt><trkpt lat="41.79329828446159" lon="14.129289953984744"><ele>855.0</ele><time>2026-04-19T07:57:14.003Z</time></trkpt><trkpt lat="41.79335902434718" lon="14.129189255596257"><ele>855.0</ele><time>2026-04-19T07:57:17.003Z</time></trkpt><trkpt lat="41.79338372055965" lon="14.129101782014915"><ele>855.0</ele><time>2026-04-19T07:57:19.003Z</time></trkpt><trkpt lat="41.79338863360137" lon="14.129012266652845"><ele>855.0</ele><time>2026-04-19T07:57:21.003Z</time></trkpt><trkpt lat="41.79346676236031" lon="14.128985015788098"><ele>855.0</ele><time>2026-04-19T07:57:24.003Z</time></trkpt><trkpt lat="41.79354875350242" lon="14.129002948302979"><ele>855.0</ele><time>2026-04-19T07:57:26.003Z</time></trkpt><trkpt lat="41.79362433058727" lon="14.129017670161154"><ele>855.0</ele><time>2026-04-19T07:57:28.003Z</time></trkpt><trkpt lat="41.79371153392603" lon="14.129027518787408"><ele>851.5</ele><time>2026-04-19T07:57:30.003Z</time></trkpt><trkpt lat="41.79378762102966" lon="14.12900889883672"><ele>848.0</ele><time>2026-04-19T07:57:32.003Z</time></trkpt><trkpt lat="41.79388382873013" lon="14.129013379369864"><ele>844.5</ele><time>2026-04-19T07:57:37.003Z</time></trkpt><trkpt lat="41.79397131216583" lon="14.12901146473644"><ele>841.0</ele><time>2026-04-19T07:57:39.003Z</time></trkpt><trkpt lat="41.794070420527966" lon="14.128991461403752"><ele>837.5</ele><time>2026-04-19T07:57:41.004Z</time></trkpt><trkpt lat="41.79414414744106" lon="14.128951687868417"><ele>834.0</ele><time>2026-04-19T07:57:43.004Z</time></trkpt><trkpt lat="41.794216364689916" lon="14.128952448337712"><ele>834.0</ele><time>2026-04-19T07:57:46.004Z</time></trkpt><trkpt lat="41.79429588531194" lon="14.128968753490472"><ele>834.0</ele><time>2026-04-19T07:57:49.004Z</time></trkpt><trkpt lat="41.79437966155677" lon="14.129018309108256"><ele>834.0</ele><time>2026-04-19T07:57:51.004Z</time></trkpt><trkpt lat="41.79447951241108" lon="14.129030120834615"><ele>834.0</ele><time>2026-04-19T07:57:53.004Z</time></trkpt><trkpt lat="41.79456753038764" lon="14.129021323182098"><ele>834.0</ele><time>2026-04-19T07:57:55.004Z</time></trkpt><trkpt lat="41.79463404311589" lon="14.129007137980619"><ele>834.0</ele><time>2026-04-19T07:57:57.004Z</time></trkpt><trkpt lat="41.79471288701336" lon="14.12904111184581"><ele>830.3333333333334</ele><time>2026-04-19T07:57:59.004Z</time></trkpt><trkpt lat="41.79478178497316" lon="14.129061233438803"><ele>826.6666666666667</ele><time>2026-04-19T07:58:01.004Z</time></trkpt><trkpt lat="41.79485499521406" lon="14.12911757919762"><ele>823.0</ele><time>2026-04-19T07:58:03.004Z</time></trkpt><trkpt lat="41.79493305054715" lon="14.12909181236273"><ele>819.3333333333334</ele><time>2026-04-19T07:58:05.004Z</time></trkpt><trkpt lat="41.79502746503894" lon="14.129056644755696"><ele>815.6666666666667</ele><time>2026-04-19T07:58:07.004Z</time></trkpt><trkpt lat="41.79509391236436" lon="14.1290299709445"><ele>812.0</ele><time>2026-04-19T07:58:09.004Z</time></trkpt><trkpt lat="41.79516178611931" lon="14.129009482500098"><ele>808.0000000000001</ele><time>2026-04-19T07:58:11.004Z</time></trkpt><trkpt lat="41.79522360332543" lon="14.12897678982699"><ele>804.0</ele><time>2026-04-19T07:58:13.003Z</time></trkpt><trkpt lat="41.79531027335732" lon="14.12898127417926"><ele>800.0</ele><time>2026-04-19T07:58:16.003Z</time></trkpt><trkpt lat="41.79538221436013" lon="14.129025392342848"><ele>796.0</ele><time>2026-04-19T07:58:18.003Z</time></trkpt><trkpt lat="41.79545689295544" lon="14.129081495511862"><ele>792.0000000000001</ele><time>2026-04-19T07:58:20.003Z</time></trkpt><trkpt lat="41.795530310494065" lon="14.129143698461455"><ele>788.0</ele><time>2026-04-19T07:58:22.003Z</time></trkpt><trkpt lat="41.79557857884076" lon="14.129211501224528"><ele>788.0000000000001</ele><time>2026-04-19T07:58:25.003Z</time></trkpt><trkpt lat="41.795621729426216" lon="14.129309364999212"><ele>788.0</ele><time>2026-04-19T07:58:27.003Z</time></trkpt><trkpt lat="41.795682696662034" lon="14.129407951432198"><ele>788.0</ele><time>2026-04-19T07:58:30.003Z</time></trkpt><trkpt lat="41.79574851612328" lon="14.129498316061056"><ele>788.0</ele><time>2026-04-19T07:58:32.003Z</time></trkpt><trkpt lat="41.795779728868716" lon="14.12958354999209"><ele>788.0000000000001</ele><time>2026-04-19T07:58:40.003Z</time></trkpt><trkpt lat="41.79578008350073" lon="14.129683671714458"><ele>788.0</ele><time>2026-04-19T07:58:46.003Z</time></trkpt><trkpt lat="41.79586405514106" lon="14.129759038660373"><ele>788.0000000000001</ele><time>2026-04-19T07:58:52.003Z</time></trkpt><trkpt lat="41.79591931903016" lon="14.1298257381426"><ele>788.0</ele><time>2026-04-19T07:58:53.003Z</time></trkpt><trkpt lat="41.79597135102055" lon="14.129879864661097"><ele>788.0</ele><time>2026-04-19T07:58:54.003Z</time></trkpt><trkpt lat="41.79601066701244" lon="14.129950106481665"><ele>788.0</ele><time>2026-04-19T07:58:55.003Z</time></trkpt><trkpt lat="41.796048934800545" lon="14.130028641248291"><ele>788.0000000000001</ele><time>2026-04-19T07:58:56.003Z</time></trkpt><trkpt lat="41.79607904947917" lon="14.13010474013866"><ele>788.0</ele><time>2026-04-19T07:58:57.003Z</time></trkpt><trkpt lat="41.79608570869165" lon="14.130267590805959"><ele>787.6666666666667</ele><time>2026-04-19T07:58:59.003Z</time></trkpt><trkpt lat="41.796078030194415" lon="14.130354889566034"><ele>787.3333333333334</ele><time>2026-04-19T07:59:00.003Z</time></trkpt><trkpt lat="41.79606368011747" lon="14.130461765944256"><ele>787.0</ele><time>2026-04-19T07:59:01.003Z</time></trkpt><trkpt lat="41.79604195495223" lon="14.130589373591075"><ele>786.6666666666667</ele><time>2026-04-19T07:59:02.003Z</time></trkpt><trkpt lat="41.796019765976446" lon="14.130709562963604"><ele>786.3333333333334</ele><time>2026-04-19T07:59:03.003Z</time></trkpt><trkpt lat="41.79599411977995" lon="14.130821928569334"><ele>786.0</ele><time>2026-04-19T07:59:04.003Z</time></trkpt><trkpt lat="41.795975095845904" lon="14.130931705300934"><ele>786.0</ele><time>2026-04-19T07:59:05.003Z</time></trkpt><trkpt lat="41.79595694513996" lon="14.131031004279913"><ele>786.0</ele><time>2026-04-19T07:59:06.003Z</time></trkpt><trkpt lat="41.79594168441178" lon="14.131132736412576"><ele>786.0</ele><time>2026-04-19T07:59:07.003Z</time></trkpt><trkpt lat="41.79592526679351" lon="14.131238515200193"><ele>786.0</ele><time>2026-04-19T07:59:08.003Z</time></trkpt><trkpt lat="41.79589416244989" lon="14.13135864631506"><ele>786.0</ele><time>2026-04-19T07:59:09.003Z</time></trkpt><trkpt lat="41.7958716357803" lon="14.13145992058023"><ele>786.0</ele><time>2026-04-19T07:59:10.003Z</time></trkpt><trkpt lat="41.795841831420695" lon="14.131569177818516"><ele>785.7142857142858</ele><time>2026-04-19T07:59:11.003Z</time></trkpt><trkpt lat="41.79580697675873" lon="14.131656119303257"><ele>785.4285714285714</ele><time>2026-04-19T07:59:12.003Z</time></trkpt><trkpt lat="41.79578146355372" lon="14.131744652134977"><ele>785.1428571428571</ele><time>2026-04-19T07:59:13.003Z</time></trkpt><trkpt lat="41.795752596876774" lon="14.131844175508697"><ele>784.8571428571429</ele><time>2026-04-19T07:59:14.003Z</time></trkpt><trkpt lat="41.79571666983934" lon="14.131936632151623"><ele>784.5714285714286</ele><time>2026-04-19T07:59:15.003Z</time></trkpt><trkpt lat="41.795686832951326" lon="14.132015313377224"><ele>784.2857142857143</ele><time>2026-04-19T07:59:16.003Z</time></trkpt><trkpt lat="41.795657414260525" lon="14.132107928002604"><ele>784.0</ele><time>2026-04-19T07:59:17.003Z</time></trkpt><trkpt lat="41.79563758918291" lon="14.132191368365335"><ele>783.9999999999999</ele><time>2026-04-19T07:59:18.003Z</time></trkpt><trkpt lat="41.795601961836844" lon="14.132362602861605"><ele>784.0</ele><time>2026-04-19T07:59:20.003Z</time></trkpt><trkpt lat="41.7955764092796" lon="14.132442141148363"><ele>784.0</ele><time>2026-04-19T07:59:21.003Z</time></trkpt><trkpt lat="41.795551743993194" lon="14.132529586222365"><ele>784.0</ele><time>2026-04-19T07:59:22.003Z</time></trkpt><trkpt lat="41.795536531659124" lon="14.132616788390148"><ele>783.9999999999999</ele><time>2026-04-19T07:59:23.003Z</time></trkpt><trkpt lat="41.795537322390814" lon="14.132718611465455"><ele>784.0</ele><time>2026-04-19T07:59:24.003Z</time></trkpt><trkpt lat="41.795534300359314" lon="14.132820815280349"><ele>783.8333333333333</ele><time>2026-04-19T07:59:25.003Z</time></trkpt><trkpt lat="41.795527900223256" lon="14.132932155975805"><ele>783.6666666666666</ele><time>2026-04-19T07:59:26.003Z</time></trkpt><trkpt lat="41.79551843701599" lon="14.133016201457226"><ele>783.5</ele><time>2026-04-19T07:59:27.003Z</time></trkpt><trkpt lat="41.79544955001036" lon="14.133108167198818"><ele>783.3333333333333</ele><time>2026-04-19T07:59:29.003Z</time></trkpt><trkpt lat="41.79538575776516" lon="14.133120449707972"><ele>783.1666666666666</ele><time>2026-04-19T07:59:30.003Z</time></trkpt><trkpt lat="41.795256620878455" lon="14.133140661521816"><ele>783.0</ele><time>2026-04-19T07:59:32.003Z</time></trkpt><trkpt lat="41.795173090466626" lon="14.133157629550603"><ele>782.8</ele><time>2026-04-19T07:59:33.003Z</time></trkpt><trkpt lat="41.79508878554599" lon="14.133183313546834"><ele>782.5999999999999</ele><time>2026-04-19T07:59:34.003Z</time></trkpt><trkpt lat="41.795002769155744" lon="14.133230412800657"><ele>782.4000000000001</ele><time>2026-04-19T07:59:35.003Z</time></trkpt><trkpt lat="41.79491479233143" lon="14.133284724711219"><ele>782.2</ele><time>2026-04-19T07:59:36.003Z</time></trkpt><trkpt lat="41.79481786525547" lon="14.133344144332787"><ele>782.0</ele><time>2026-04-19T07:59:37.003Z</time></trkpt><trkpt lat="41.79471534741815" lon="14.13341464133015"><ele>782.0</ele><time>2026-04-19T07:59:38.003Z</time></trkpt><trkpt lat="41.79461191014781" lon="14.133497280458142"><ele>782.0</ele><time>2026-04-19T07:59:39.003Z</time></trkpt><trkpt lat="41.794510419503695" lon="14.133577780799119"><ele>782.0</ele><time>2026-04-19T07:59:40.003Z</time></trkpt><trkpt lat="41.79441097995986" lon="14.133651896750402"><ele>782.0</ele><time>2026-04-19T07:59:41.003Z</time></trkpt><trkpt lat="41.79431523594182" lon="14.133715881185928"><ele>783.4000000000001</ele><time>2026-04-19T07:59:42.003Z</time></trkpt><trkpt lat="41.79421442416354" lon="14.133781736815386"><ele>784.8000000000001</ele><time>2026-04-19T07:59:43.003Z</time></trkpt><trkpt lat="41.79411007822379" lon="14.133850115157376"><ele>786.2</ele><time>2026-04-19T07:59:44.003Z</time></trkpt><trkpt lat="41.79401328814298" lon="14.133920029441038"><ele>787.6</ele><time>2026-04-19T07:59:45.003Z</time></trkpt><trkpt lat="41.79391757265433" lon="14.133990530701743"><ele>789.0</ele><time>2026-04-19T07:59:46.003Z</time></trkpt><trkpt lat="41.7938266913135" lon="14.134051296391878"><ele>788.6666666666666</ele><time>2026-04-19T07:59:47.004Z</time></trkpt><trkpt lat="41.793755283907835" lon="14.134113860711466"><ele>788.3333333333333</ele><time>2026-04-19T07:59:48.004Z</time></trkpt><trkpt lat="41.79367988785647" lon="14.134178975871755"><ele>788.0</ele><time>2026-04-19T07:59:49.004Z</time></trkpt><trkpt lat="41.79360658902821" lon="14.134242305172256"><ele>787.6666666666666</ele><time>2026-04-19T07:59:50.004Z</time></trkpt><trkpt lat="41.793535245422504" lon="14.134307833350281"><ele>787.3333333333333</ele><time>2026-04-19T07:59:51.004Z</time></trkpt><trkpt lat="41.79346792965871" lon="14.134369007038872"><ele>787.0</ele><time>2026-04-19T07:59:52.004Z</time></trkpt><trkpt lat="41.793411856683136" lon="14.13442130068443"><ele>786.9999999999999</ele><time>2026-04-19T07:59:53.004Z</time></trkpt><trkpt lat="41.79335191877375" lon="14.13446720914657"><ele>787.0</ele><time>2026-04-19T07:59:54.004Z</time></trkpt><trkpt lat="41.79330225324225" lon="14.134523853158923"><ele>787.0</ele><time>2026-04-19T07:59:55.004Z</time></trkpt><trkpt lat="41.79323136773459" lon="14.134664218173505"><ele>787.0</ele><time>2026-04-19T07:59:57.004Z</time></trkpt><trkpt lat="41.79318572257576" lon="14.13473118935373"><ele>786.9999999999999</ele><time>2026-04-19T07:59:58.004Z</time></trkpt><trkpt lat="41.79314738678338" lon="14.134804467072547"><ele>787.0</ele><time>2026-04-19T07:59:59.004Z</time></trkpt><trkpt lat="41.793101204167776" lon="14.134884801109571"><ele>786.9999999999999</ele><time>2026-04-19T08:00:00.004Z</time></trkpt><trkpt lat="41.79306479182595" lon="14.134967595880795"><ele>787.0</ele><time>2026-04-19T08:00:01.004Z</time></trkpt><trkpt lat="41.79303941201033" lon="14.13505824103551"><ele>787.0</ele><time>2026-04-19T08:00:02.004Z</time></trkpt><trkpt lat="41.79302378051214" lon="14.135170013627764"><ele>787.0</ele><time>2026-04-19T08:00:03.004Z</time></trkpt><trkpt lat="41.79301547893025" lon="14.135273190481279"><ele>786.9999999999999</ele><time>2026-04-19T08:00:04.004Z</time></trkpt><trkpt lat="41.79297727484825" lon="14.135397878039619"><ele>787.0</ele><time>2026-04-19T08:00:06.004Z</time></trkpt><trkpt lat="41.79285471818517" lon="14.135416563368203"><ele>787.0</ele><time>2026-04-19T08:00:08.004Z</time></trkpt><trkpt lat="41.79275932707683" lon="14.135387313496299"><ele>787.0</ele><time>2026-04-19T08:00:09.004Z</time></trkpt><trkpt lat="41.79264973963265" lon="14.135364506144478"><ele>787.0</ele><time>2026-04-19T08:00:10.004Z</time></trkpt><trkpt lat="41.79253035909" lon="14.135369063642461"><ele>787.0</ele><time>2026-04-19T08:00:11.004Z</time></trkpt><trkpt lat="41.792420595796685" lon="14.13537544394203"><ele>787.0</ele><time>2026-04-19T08:00:12.004Z</time></trkpt><trkpt lat="41.792321153268865" lon="14.135384050559779"><ele>787.1428571428571</ele><time>2026-04-19T08:00:13.004Z</time></trkpt><trkpt lat="41.79223243698666" lon="14.135384430269763"><ele>787.2857142857142</ele><time>2026-04-19T08:00:14.004Z</time></trkpt><trkpt lat="41.79215916062548" lon="14.135383335591904"><ele>787.4285714285714</ele><time>2026-04-19T08:00:15.004Z</time></trkpt><trkpt lat="41.79209802116709" lon="14.13542180139886"><ele>787.5714285714286</ele><time>2026-04-19T08:00:16.004Z</time></trkpt><trkpt lat="41.792060076388026" lon="14.13549819174199"><ele>787.7142857142858</ele><time>2026-04-19T08:00:17.004Z</time></trkpt><trkpt lat="41.792039587593315" lon="14.13559364601809"><ele>787.8571428571429</ele><time>2026-04-19T08:00:18.004Z</time></trkpt><trkpt lat="41.792037643252435" lon="14.135693419664808"><ele>788.0</ele><time>2026-04-19T08:00:19.004Z</time></trkpt><trkpt lat="41.792045296805554" lon="14.135811172200222"><ele>788.5999999999999</ele><time>2026-04-19T08:00:21.004Z</time></trkpt><trkpt lat="41.79202450448694" lon="14.13589967414966"><ele>789.1999999999999</ele><time>2026-04-19T08:00:24.004Z</time></trkpt><trkpt lat="41.7919023979412" lon="14.13591425625126"><ele>789.8</ele><time>2026-04-19T08:00:26.004Z</time></trkpt><trkpt lat="41.791812171603794" lon="14.135922826870114"><ele>790.4</ele><time>2026-04-19T08:00:27.004Z</time></trkpt><trkpt lat="41.79169742993635" lon="14.135928713326193"><ele>791.0</ele><time>2026-04-19T08:00:28.004Z</time></trkpt><trkpt lat="41.79156568219348" lon="14.135929749992005"><ele>791.0</ele><time>2026-04-19T08:00:29.004Z</time></trkpt><trkpt lat="41.79142229716672" lon="14.135938398510781"><ele>791.0</ele><time>2026-04-19T08:00:30.004Z</time></trkpt><trkpt lat="41.79126875644102" lon="14.135953596670083"><ele>791.0</ele><time>2026-04-19T08:00:31.004Z</time></trkpt><trkpt lat="41.79111243790888" lon="14.135964744376762"><ele>791.4</ele><time>2026-04-19T08:00:32.004Z</time></trkpt><trkpt lat="41.79098731161673" lon="14.135974260109853"><ele>791.8</ele><time>2026-04-19T08:00:33.004Z</time></trkpt><trkpt lat="41.79088404018462" lon="14.135986379938867"><ele>792.1999999999999</ele><time>2026-04-19T08:00:34.004Z</time></trkpt><trkpt lat="41.790787489985426" lon="14.135995163967808"><ele>792.5999999999999</ele><time>2026-04-19T08:00:35.004Z</time></trkpt><trkpt lat="41.79068142564316" lon="14.136002910336659"><ele>793.0</ele><time>2026-04-19T08:00:36.004Z</time></trkpt><trkpt lat="41.79058165785479" lon="14.136004674886179"><ele>792.9999999999999</ele><time>2026-04-19T08:00:37.004Z</time></trkpt><trkpt lat="41.790493253326424" lon="14.136006916975111"><ele>793.0</ele><time>2026-04-19T08:00:38.004Z</time></trkpt><trkpt lat="41.79040544164872" lon="14.136011609257016"><ele>793.0</ele><time>2026-04-19T08:00:39.004Z</time></trkpt><trkpt lat="41.79031650483931" lon="14.136024543952654"><ele>793.0</ele><time>2026-04-19T08:00:40.004Z</time></trkpt><trkpt lat="41.790236659355855" lon="14.1360349287046"><ele>792.9999999999999</ele><time>2026-04-19T08:00:41.004Z</time></trkpt><trkpt lat="41.790163676711664" lon="14.136039608006156"><ele>793.0</ele><time>2026-04-19T08:00:42.004Z</time></trkpt><trkpt lat="41.79008374662285" lon="14.136052778146908"><ele>793.1428571428572</ele><time>2026-04-19T08:00:43.004Z</time></trkpt><trkpt lat="41.790000759912544" lon="14.13605722984509"><ele>793.2857142857143</ele><time>2026-04-19T08:00:44.004Z</time></trkpt><trkpt lat="41.78992145997163" lon="14.136065262748831"><ele>793.4285714285714</ele><time>2026-04-19T08:00:45.004Z</time></trkpt><trkpt lat="41.789847440155356" lon="14.136068653914437"><ele>793.5714285714287</ele><time>2026-04-19T08:00:46.004Z</time></trkpt><trkpt lat="41.78978157061797" lon="14.136074094871484"><ele>793.7142857142857</ele><time>2026-04-19T08:00:47.003Z</time></trkpt><trkpt lat="41.78971949064847" lon="14.136104806924589"><ele>793.8571428571429</ele><time>2026-04-19T08:00:48.003Z</time></trkpt><trkpt lat="41.78965535501516" lon="14.136157050369091"><ele>794.0</ele><time>2026-04-19T08:00:49.003Z</time></trkpt><trkpt lat="41.789605876323236" lon="14.136232212003945"><ele>794.0</ele><time>2026-04-19T08:00:50.003Z</time></trkpt><trkpt lat="41.78955973204804" lon="14.136328540006538"><ele>794.0</ele><time>2026-04-19T08:00:51.003Z</time></trkpt><trkpt lat="41.78952301465071" lon="14.136434632851316"><ele>794.0</ele><time>2026-04-19T08:00:52.003Z</time></trkpt><trkpt lat="41.789479126478405" lon="14.136555903039273"><ele>794.0</ele><time>2026-04-19T08:00:53.003Z</time></trkpt><trkpt lat="41.78944045245333" lon="14.136676889194991"><ele>794.0</ele><time>2026-04-19T08:00:54.003Z</time></trkpt><trkpt lat="41.78941234723775" lon="14.136808261135299"><ele>795.0</ele><time>2026-04-19T08:00:55.003Z</time></trkpt><trkpt lat="41.78942055221237" lon="14.136948702286896"><ele>796.0</ele><time>2026-04-19T08:00:56.003Z</time></trkpt><trkpt lat="41.78943341070969" lon="14.137079312992919"><ele>797.0</ele><time>2026-04-19T08:00:57.003Z</time></trkpt><trkpt lat="41.78944568696227" lon="14.13721345569974"><ele>798.0</ele><time>2026-04-19T08:00:58.003Z</time></trkpt><trkpt lat="41.78944991279733" lon="14.137336832084786"><ele>799.0</ele><time>2026-04-19T08:00:59.003Z</time></trkpt><trkpt lat="41.78945748503431" lon="14.137462250732879"><ele>800.4000000000001</ele><time>2026-04-19T08:01:00.003Z</time></trkpt><trkpt lat="41.78946925681127" lon="14.137578765041477"><ele>801.8</ele><time>2026-04-19T08:01:01.003Z</time></trkpt><trkpt lat="41.78947893312385" lon="14.137700554778448"><ele>803.2</ele><time>2026-04-19T08:01:02.003Z</time></trkpt><trkpt lat="41.78948467395631" lon="14.13782565590426"><ele>804.5999999999999</ele><time>2026-04-19T08:01:03.003Z</time></trkpt><trkpt lat="41.789488799472096" lon="14.137961428093071"><ele>806.0</ele><time>2026-04-19T08:01:04.003Z</time></trkpt><trkpt lat="41.78948735866952" lon="14.138099367020232"><ele>807.5000000000001</ele><time>2026-04-19T08:01:05.003Z</time></trkpt><trkpt lat="41.78949065222157" lon="14.138219438614218"><ele>809.0</ele><time>2026-04-19T08:01:06.003Z</time></trkpt><trkpt lat="41.78950624782974" lon="14.138333392591221"><ele>810.5</ele><time>2026-04-19T08:01:07.003Z</time></trkpt><trkpt lat="41.789526318250715" lon="14.13844085559245"><ele>812.0</ele><time>2026-04-19T08:01:08.003Z</time></trkpt><trkpt lat="41.789549871252895" lon="14.138561812712979"><ele>813.5000000000001</ele><time>2026-04-19T08:01:09.003Z</time></trkpt><trkpt lat="41.78955583676708" lon="14.138678264735274"><ele>815.0</ele><time>2026-04-19T08:01:10.003Z</time></trkpt><trkpt lat="41.7895643397973" lon="14.138802581124237"><ele>815.0000000000001</ele><time>2026-04-19T08:01:11.003Z</time></trkpt><trkpt lat="41.78959336422056" lon="14.138929590599604"><ele>815.0</ele><time>2026-04-19T08:01:12.003Z</time></trkpt><trkpt lat="41.78962935170443" lon="14.139036218088048"><ele>815.0</ele><time>2026-04-19T08:01:13.003Z</time></trkpt><trkpt lat="41.78966086226952" lon="14.13913543277325"><ele>815.0</ele><time>2026-04-19T08:01:14.003Z</time></trkpt><trkpt lat="41.789685996499045" lon="14.139223668448688"><ele>815.0000000000001</ele><time>2026-04-19T08:01:15.003Z</time></trkpt><trkpt lat="41.78972753943311" lon="14.139292508072538"><ele>815.0</ele><time>2026-04-19T08:01:16.003Z</time></trkpt><trkpt lat="41.78977640769846" lon="14.13943492879671"><ele>816.0000000000001</ele><time>2026-04-19T08:01:18.003Z</time></trkpt><trkpt lat="41.78979852134385" lon="14.13952160870009"><ele>817.0</ele><time>2026-04-19T08:01:20.003Z</time></trkpt><trkpt lat="41.789777496590126" lon="14.139630650746836"><ele>818.0</ele><time>2026-04-19T08:01:23.003Z</time></trkpt><trkpt lat="41.78974004460439" lon="14.139705979663095"><ele>819.0</ele><time>2026-04-19T08:01:26.003Z</time></trkpt><trkpt lat="41.78965392276453" lon="14.139721988857337"><ele>820.0000000000001</ele><time>2026-04-19T08:01:29.003Z</time></trkpt><trkpt lat="41.78957164557741" lon="14.13979055190474"><ele>821.0</ele><time>2026-04-19T08:01:54.004Z</time></trkpt><trkpt lat="41.789506088534175" lon="14.139903420192276"><ele>821.5000000000001</ele><time>2026-04-19T08:01:56.004Z</time></trkpt><trkpt lat="41.789461410112736" lon="14.139996026031147"><ele>822.0</ele><time>2026-04-19T08:01:57.005Z</time></trkpt><trkpt lat="41.78942706125811" lon="14.140080368599444"><ele>822.5</ele><time>2026-04-19T08:01:58.005Z</time></trkpt><trkpt lat="41.78936725557481" lon="14.140164107063002"><ele>823.0</ele><time>2026-04-19T08:01:59.005Z</time></trkpt><trkpt lat="41.7892863240976" lon="14.140243364290837"><ele>823.5000000000001</ele><time>2026-04-19T08:02:00.005Z</time></trkpt><trkpt lat="41.78921122305988" lon="14.14028947926997"><ele>824.0</ele><time>2026-04-19T08:02:01.005Z</time></trkpt><trkpt lat="41.789151951814404" lon="14.140354128112152"><ele>824.4000000000001</ele><time>2026-04-19T08:02:02.004Z</time></trkpt><trkpt lat="41.78912082571544" lon="14.140461254538575"><ele>824.8</ele><time>2026-04-19T08:02:03.004Z</time></trkpt><trkpt lat="41.78911082926879" lon="14.140592423083818"><ele>825.2</ele><time>2026-04-19T08:02:04.004Z</time></trkpt><trkpt lat="41.78908494976678" lon="14.140686459013146"><ele>825.5999999999999</ele><time>2026-04-19T08:02:05.005Z</time></trkpt><trkpt lat="41.78906588128017" lon="14.140772881953728"><ele>826.0</ele><time>2026-04-19T08:02:06.004Z</time></trkpt><trkpt lat="41.78910936089511" lon="14.140939938321786"><ele>828.1666666666666</ele><time>2026-04-19T08:02:08.004Z</time></trkpt><trkpt lat="41.7891697488144" lon="14.141052877331317"><ele>830.3333333333333</ele><time>2026-04-19T08:02:09.004Z</time></trkpt><trkpt lat="41.789224108406295" lon="14.141154413953661"><ele>832.5</ele><time>2026-04-19T08:02:10.004Z</time></trkpt><trkpt lat="41.789288820676916" lon="14.141230114318372"><ele>834.6666666666667</ele><time>2026-04-19T08:02:11.004Z</time></trkpt><trkpt lat="41.78935367767585" lon="14.141273926619526"><ele>836.8333333333334</ele><time>2026-04-19T08:02:12.004Z</time></trkpt><trkpt lat="41.78942725867172" lon="14.141315251803766"><ele>839.0</ele><time>2026-04-19T08:02:13.004Z</time></trkpt><trkpt lat="41.789510834972376" lon="14.141352621794772"><ele>839.2</ele><time>2026-04-19T08:02:14.004Z</time></trkpt><trkpt lat="41.789573620004504" lon="14.141406348901276"><ele>839.4000000000001</ele><time>2026-04-19T08:02:15.004Z</time></trkpt><trkpt lat="41.78962953061993" lon="14.141520909879729"><ele>839.6</ele><time>2026-04-19T08:02:16.004Z</time></trkpt><trkpt lat="41.78969098639093" lon="14.141624841662882"><ele>839.8</ele><time>2026-04-19T08:02:17.004Z</time></trkpt><trkpt lat="41.78975459649441" lon="14.141750298629223"><ele>840.0</ele><time>2026-04-19T08:02:19.004Z</time></trkpt><trkpt lat="41.78975598580795" lon="14.141860556121658"><ele>843.1666666666666</ele><time>2026-04-19T08:02:20.004Z</time></trkpt><trkpt lat="41.78978343150167" lon="14.141980201204225"><ele>846.3333333333333</ele><time>2026-04-19T08:02:21.004Z</time></trkpt><trkpt lat="41.78983806237828" lon="14.142089500204232"><ele>849.5</ele><time>2026-04-19T08:02:22.004Z</time></trkpt><trkpt lat="41.78988202338525" lon="14.142162046083698"><ele>852.6666666666666</ele><time>2026-04-19T08:02:23.004Z</time></trkpt><trkpt lat="41.789950001489636" lon="14.142204087179971"><ele>855.8333333333333</ele><time>2026-04-19T08:02:24.004Z</time></trkpt><trkpt lat="41.790024166992936" lon="14.14225163131532"><ele>859.0</ele><time>2026-04-19T08:02:25.004Z</time></trkpt><trkpt lat="41.79011906015047" lon="14.142345537982646"><ele>864.0</ele><time>2026-04-19T08:02:26.004Z</time></trkpt><trkpt lat="41.79019025465939" lon="14.142469715309701"><ele>869.0</ele><time>2026-04-19T08:02:27.004Z</time></trkpt><trkpt lat="41.79025853181361" lon="14.1426093100367"><ele>874.0</ele><time>2026-04-19T08:02:28.004Z</time></trkpt><trkpt lat="41.790338020679" lon="14.142699977866595"><ele>879.0</ele><time>2026-04-19T08:02:29.004Z</time></trkpt><trkpt lat="41.79041116600835" lon="14.142808779648046"><ele>879.0</ele><time>2026-04-19T08:02:30.004Z</time></trkpt><trkpt lat="41.79047310713452" lon="14.142919798690821"><ele>879.0</ele><time>2026-04-19T08:02:31.004Z</time></trkpt><trkpt lat="41.790534902702994" lon="14.142993596932397"><ele>879.0</ele><time>2026-04-19T08:02:32.004Z</time></trkpt><trkpt lat="41.79060391169006" lon="14.143064987264554"><ele>879.0</ele><time>2026-04-19T08:02:33.004Z</time></trkpt><trkpt lat="41.79066086023469" lon="14.143155988699025"><ele>879.0</ele><time>2026-04-19T08:02:34.004Z</time></trkpt><trkpt lat="41.79070088334775" lon="14.143251409242733"><ele>879.0</ele><time>2026-04-19T08:02:35.004Z</time></trkpt><trkpt lat="41.79075828300094" lon="14.143323660251856"><ele>879.6666666666666</ele><time>2026-04-19T08:02:36.004Z</time></trkpt><trkpt lat="41.790826290351916" lon="14.143393497325777"><ele>880.3333333333333</ele><time>2026-04-19T08:02:37.004Z</time></trkpt><trkpt lat="41.79090932887177" lon="14.143445388746896"><ele>881.0</ele><time>2026-04-19T08:02:38.004Z</time></trkpt><trkpt lat="41.790982322437316" lon="14.143479539738173"><ele>881.6666666666666</ele><time>2026-04-19T08:02:39.004Z</time></trkpt><trkpt lat="41.79104350687071" lon="14.143515325749503"><ele>882.3333333333333</ele><time>2026-04-19T08:02:40.004Z</time></trkpt><trkpt lat="41.79109217111634" lon="14.143582175445202"><ele>883.0</ele><time>2026-04-19T08:02:41.004Z</time></trkpt><trkpt lat="41.791155629767225" lon="14.143667642096226"><ele>883.0</ele><time>2026-04-19T08:02:42.004Z</time></trkpt><trkpt lat="41.791232635596494" lon="14.14376147471767"><ele>883.0</ele><time>2026-04-19T08:02:43.004Z</time></trkpt><trkpt lat="41.79133129358512" lon="14.143853914164849"><ele>883.0</ele><time>2026-04-19T08:02:44.004Z</time></trkpt><trkpt lat="41.79143053492188" lon="14.143957550440565"><ele>883.0</ele><time>2026-04-19T08:02:45.004Z</time></trkpt><trkpt lat="41.79152833593253" lon="14.144048948047935"><ele>883.5999999999999</ele><time>2026-04-19T08:02:46.004Z</time></trkpt><trkpt lat="41.7916205593082" lon="14.14408881826081"><ele>884.1999999999999</ele><time>2026-04-19T08:02:47.004Z</time></trkpt><trkpt lat="41.791703304308875" lon="14.144142243685005"><ele>884.8</ele><time>2026-04-19T08:02:48.004Z</time></trkpt><trkpt lat="41.791757640360075" lon="14.144238420697771"><ele>885.4</ele><time>2026-04-19T08:02:49.004Z</time></trkpt><trkpt lat="41.79180741087733" lon="14.144362479948732"><ele>886.0</ele><time>2026-04-19T08:02:50.004Z</time></trkpt><trkpt lat="41.79185315561098" lon="14.144473199181656"><ele>886.0</ele><time>2026-04-19T08:02:51.004Z</time></trkpt><trkpt lat="41.79189500382033" lon="14.14459893310174"><ele>885.9999999999999</ele><time>2026-04-19T08:02:52.004Z</time></trkpt><trkpt lat="41.791939352223814" lon="14.14473511020136"><ele>885.9999999999999</ele><time>2026-04-19T08:02:53.004Z</time></trkpt><trkpt lat="41.79196340660016" lon="14.144863058798144"><ele>886.0</ele><time>2026-04-19T08:02:54.004Z</time></trkpt><trkpt lat="41.791980215718766" lon="14.144993687024211"><ele>886.0</ele><time>2026-04-19T08:02:55.004Z</time></trkpt><trkpt lat="41.791989022201804" lon="14.14511492811033"><ele>888.4</ele><time>2026-04-19T08:02:56.004Z</time></trkpt><trkpt lat="41.79202423302534" lon="14.145221299508185"><ele>890.8</ele><time>2026-04-19T08:02:57.004Z</time></trkpt><trkpt lat="41.792106074705195" lon="14.145314644891844"><ele>893.1999999999999</ele><time>2026-04-19T08:02:58.004Z</time></trkpt><trkpt lat="41.79219618029161" lon="14.145391255365501"><ele>895.5999999999999</ele><time>2026-04-19T08:02:59.004Z</time></trkpt><trkpt lat="41.79223933509249" lon="14.145489895809032"><ele>898.0</ele><time>2026-04-19T08:03:00.004Z</time></trkpt><trkpt lat="41.79229440949727" lon="14.145616334823002"><ele>899.5999999999999</ele><time>2026-04-19T08:03:01.004Z</time></trkpt><trkpt lat="41.79237792934988" lon="14.14573739234402"><ele>901.1999999999999</ele><time>2026-04-19T08:03:02.004Z</time></trkpt><trkpt lat="41.79245046708127" lon="14.145825045555041"><ele>902.8</ele><time>2026-04-19T08:03:03.004Z</time></trkpt><trkpt lat="41.79251972875625" lon="14.145908192638478"><ele>904.4</ele><time>2026-04-19T08:03:04.004Z</time></trkpt><trkpt lat="41.79260132096805" lon="14.1460227124638"><ele>906.0</ele><time>2026-04-19T08:03:05.004Z</time></trkpt><trkpt lat="41.79269077135141" lon="14.14612014845634"><ele>906.0</ele><time>2026-04-19T08:03:06.004Z</time></trkpt><trkpt lat="41.79273918648445" lon="14.146200006689089"><ele>905.9999999999999</ele><time>2026-04-19T08:03:07.004Z</time></trkpt><trkpt lat="41.792749578361835" lon="14.146343423228785"><ele>905.9999999999999</ele><time>2026-04-19T08:03:09.004Z</time></trkpt><trkpt lat="41.79272354391449" lon="14.146496149784213"><ele>906.0</ele><time>2026-04-19T08:03:10.004Z</time></trkpt><trkpt lat="41.79268526613525" lon="14.14667023904403"><ele>906.0</ele><time>2026-04-19T08:03:11.004Z</time></trkpt><trkpt lat="41.79267305648377" lon="14.1467710732997"><ele>909.1666666666666</ele><time>2026-04-19T08:03:12.004Z</time></trkpt><trkpt lat="41.792696168542214" lon="14.146871848962332"><ele>912.3333333333333</ele><time>2026-04-19T08:03:13.004Z</time></trkpt><trkpt lat="41.792736856986224" lon="14.146980516412771"><ele>915.5</ele><time>2026-04-19T08:03:14.004Z</time></trkpt><trkpt lat="41.79279004828328" lon="14.147074687462974"><ele>918.6666666666666</ele><time>2026-04-19T08:03:15.004Z</time></trkpt><trkpt lat="41.79286170506635" lon="14.147142198852437"><ele>921.8333333333333</ele><time>2026-04-19T08:03:16.004Z</time></trkpt><trkpt lat="41.7929583552474" lon="14.147163520633281"><ele>925.0</ele><time>2026-04-19T08:03:17.004Z</time></trkpt><trkpt lat="41.79306963640046" lon="14.147145344473543"><ele>925.0</ele><time>2026-04-19T08:03:18.004Z</time></trkpt><trkpt lat="41.79320009398124" lon="14.147126799731506"><ele>925.0</ele><time>2026-04-19T08:03:19.004Z</time></trkpt><trkpt lat="41.79331597682414" lon="14.1471540743223"><ele>925.0</ele><time>2026-04-19T08:03:20.004Z</time></trkpt><trkpt lat="41.79340819043452" lon="14.147169833789354"><ele>925.0</ele><time>2026-04-19T08:03:21.004Z</time></trkpt><trkpt lat="41.793483982988406" lon="14.147184734800252"><ele>925.0</ele><time>2026-04-19T08:03:22.004Z</time></trkpt><trkpt lat="41.79356733543354" lon="14.147223224083797"><ele>925.8</ele><time>2026-04-19T08:03:23.004Z</time></trkpt><trkpt lat="41.79364447410885" lon="14.147296126517857"><ele>926.6</ele><time>2026-04-19T08:03:24.004Z</time></trkpt><trkpt lat="41.79372530230524" lon="14.147348096545327"><ele>927.4000000000001</ele><time>2026-04-19T08:03:25.004Z</time></trkpt><trkpt lat="41.793797668071605" lon="14.14736062376404"><ele>928.2</ele><time>2026-04-19T08:03:26.004Z</time></trkpt><trkpt lat="41.79388443014085" lon="14.147419002080866"><ele>929.0</ele><time>2026-04-19T08:03:28.004Z</time></trkpt><trkpt lat="41.793966549824155" lon="14.147520335514058"><ele>931.8000000000001</ele><time>2026-04-19T08:03:29.004Z</time></trkpt><trkpt lat="41.79407073763172" lon="14.147612693531379"><ele>934.6000000000001</ele><time>2026-04-19T08:03:30.004Z</time></trkpt><trkpt lat="41.79416907034402" lon="14.147651946270917"><ele>937.4</ele><time>2026-04-19T08:03:31.004Z</time></trkpt><trkpt lat="41.794261531947" lon="14.147682404313175"><ele>940.2</ele><time>2026-04-19T08:03:32.004Z</time></trkpt><trkpt lat="41.79432870314093" lon="14.147716929533928"><ele>943.0</ele><time>2026-04-19T08:03:33.004Z</time></trkpt><trkpt lat="41.79450752023246" lon="14.147574034498406"><ele>942.4</ele><time>2026-04-19T08:04:08.005Z</time></trkpt><trkpt lat="41.79455066908888" lon="14.14747410383031"><ele>941.8</ele><time>2026-04-19T08:04:09.005Z</time></trkpt><trkpt lat="41.794575959827796" lon="14.147384678171747"><ele>941.2</ele><time>2026-04-19T08:04:10.005Z</time></trkpt><trkpt lat="41.79459258927482" lon="14.147245337086408"><ele>940.6</ele><time>2026-04-19T08:04:11.004Z</time></trkpt><trkpt lat="41.79460129332228" lon="14.147074574882513"><ele>940.0</ele><time>2026-04-19T08:04:12.004Z</time></trkpt><trkpt lat="41.794619205925336" lon="14.1468885585128"><ele>939.9999999999999</ele><time>2026-04-19T08:04:13.004Z</time></trkpt><trkpt lat="41.79462220538981" lon="14.146730406057502"><ele>940.0</ele><time>2026-04-19T08:04:14.004Z</time></trkpt><trkpt lat="41.794626819636655" lon="14.146582171607248"><ele>940.0</ele><time>2026-04-19T08:04:15.004Z</time></trkpt><trkpt lat="41.7946181125518" lon="14.146489665624424"><ele>940.0</ele><time>2026-04-19T08:04:16.004Z</time></trkpt><trkpt lat="41.794616345681646" lon="14.146402490113225"><ele>939.9999999999999</ele><time>2026-04-19T08:04:17.004Z</time></trkpt><trkpt lat="41.79463429545496" lon="14.146289178172195"><ele>940.0</ele><time>2026-04-19T08:04:18.004Z</time></trkpt><trkpt lat="41.794671948312356" lon="14.146173791866763"><ele>937.0</ele><time>2026-04-19T08:04:19.004Z</time></trkpt><trkpt lat="41.794625854450956" lon="14.145997657767921"><ele>934.0</ele><time>2026-04-19T08:04:21.004Z</time></trkpt><trkpt lat="41.794610114538216" lon="14.145896384397723"><ele>931.0</ele><time>2026-04-19T08:04:22.004Z</time></trkpt><trkpt lat="41.79465093719065" lon="14.145813884261162"><ele>928.0</ele><time>2026-04-19T08:04:23.004Z</time></trkpt><trkpt lat="41.79477834969827" lon="14.145748778143323"><ele>925.0</ele><time>2026-04-19T08:04:24.004Z</time></trkpt><trkpt lat="41.79494593992109" lon="14.145682556985166"><ele>922.25</ele><time>2026-04-19T08:04:25.004Z</time></trkpt><trkpt lat="41.79511335376909" lon="14.145627317835325"><ele>919.5</ele><time>2026-04-19T08:04:26.004Z</time></trkpt><trkpt lat="41.79525919819815" lon="14.14559490525854"><ele>916.75</ele><time>2026-04-19T08:04:27.004Z</time></trkpt><trkpt lat="41.795354663053615" lon="14.145602595247764"><ele>914.0</ele><time>2026-04-19T08:04:28.004Z</time></trkpt><trkpt lat="41.795450171434744" lon="14.14562669963549"><ele>916.5</ele><time>2026-04-19T08:04:29.004Z</time></trkpt><trkpt lat="41.795576666013126" lon="14.145818246251908"><ele>919.0</ele><time>2026-04-19T08:04:52.004Z</time></trkpt><trkpt lat="41.795653712927255" lon="14.145929608237175"><ele>921.5</ele><time>2026-04-19T08:04:54.004Z</time></trkpt><trkpt lat="41.795740564486465" lon="14.145921947848384"><ele>924.0</ele><time>2026-04-19T08:04:55.004Z</time></trkpt><trkpt lat="41.79579508924864" lon="14.146004643749626"><ele>924.0</ele><time>2026-04-19T08:04:57.004Z</time></trkpt><trkpt lat="41.79576975050174" lon="14.14610405730264"><ele>924.0</ele><time>2026-04-19T08:04:58.004Z</time></trkpt><trkpt lat="41.79580879874706" lon="14.146171717312347"><ele>924.0</ele><time>2026-04-19T08:05:00.004Z</time></trkpt><trkpt lat="41.795889016929614" lon="14.146215500315721"><ele>924.0</ele><time>2026-04-19T08:05:03.004Z</time></trkpt><trkpt lat="41.79599121026372" lon="14.14622562491173"><ele>924.0</ele><time>2026-04-19T08:05:06.004Z</time></trkpt><trkpt lat="41.79604098480753" lon="14.146278548073584"><ele>924.0</ele><time>2026-04-19T08:05:08.004Z</time></trkpt><trkpt lat="41.79612028994513" lon="14.146370777592237"><ele>922.2</ele><time>2026-04-19T08:05:11.004Z</time></trkpt><trkpt lat="41.79624248157303" lon="14.146475506304661"><ele>920.4000000000001</ele><time>2026-04-19T08:05:13.004Z</time></trkpt><trkpt lat="41.79630411189675" lon="14.146518566570563"><ele>918.6</ele><time>2026-04-19T08:05:14.004Z</time></trkpt><trkpt lat="41.796366724790424" lon="14.1465388625886"><ele>916.8</ele><time>2026-04-19T08:05:15.004Z</time></trkpt><trkpt lat="41.7964611279271" lon="14.14654143755526"><ele>915.0</ele><time>2026-04-19T08:05:17.004Z</time></trkpt><trkpt lat="41.79657212425223" lon="14.146542545474057"><ele>917.6</ele><time>2026-04-19T08:05:19.004Z</time></trkpt><trkpt lat="41.796654242599445" lon="14.146580620971314"><ele>920.2</ele><time>2026-04-19T08:05:22.004Z</time></trkpt><trkpt lat="41.79674976300035" lon="14.14663952419247"><ele>922.8</ele><time>2026-04-19T08:05:25.004Z</time></trkpt><trkpt lat="41.79683308092959" lon="14.146645446503776"><ele>925.4</ele><time>2026-04-19T08:05:27.004Z</time></trkpt><trkpt lat="41.796958239451975" lon="14.14663346378455"><ele>928.0</ele><time>2026-04-19T08:05:29.004Z</time></trkpt><trkpt lat="41.79707287976121" lon="14.146654318264625"><ele>928.0</ele><time>2026-04-19T08:05:31.004Z</time></trkpt><trkpt lat="41.79715119755497" lon="14.146733059697352"><ele>928.0</ele><time>2026-04-19T08:05:32.004Z</time></trkpt><trkpt lat="41.797239646997085" lon="14.146782211094589"><ele>928.0</ele><time>2026-04-19T08:05:33.004Z</time></trkpt><trkpt lat="41.79735122097312" lon="14.146797542969205"><ele>928.0</ele><time>2026-04-19T08:05:34.004Z</time></trkpt><trkpt lat="41.797464916784946" lon="14.146814154337196"><ele>928.0</ele><time>2026-04-19T08:05:35.004Z</time></trkpt><trkpt lat="41.79756129926049" lon="14.14683598327716"><ele>928.0</ele><time>2026-04-19T08:05:36.004Z</time></trkpt><trkpt lat="41.79766459347049" lon="14.146869614807716"><ele>928.0</ele><time>2026-04-19T08:05:37.004Z</time></trkpt><trkpt lat="41.79777043583923" lon="14.146936483939779"><ele>928.0</ele><time>2026-04-19T08:05:38.004Z</time></trkpt><trkpt lat="41.797889232754066" lon="14.147010883281506"><ele>928.0</ele><time>2026-04-19T08:05:39.004Z</time></trkpt><trkpt lat="41.79799858180839" lon="14.147126797895307"><ele>926.0</ele><time>2026-04-19T08:05:40.004Z</time></trkpt><trkpt lat="41.79811166200634" lon="14.147209654380937"><ele>924.0</ele><time>2026-04-19T08:05:41.003Z</time></trkpt><trkpt lat="41.79821425533663" lon="14.147294133751133"><ele>922.0</ele><time>2026-04-19T08:05:42.003Z</time></trkpt><trkpt lat="41.798307343510025" lon="14.147411548627131"><ele>920.0</ele><time>2026-04-19T08:05:43.003Z</time></trkpt><trkpt lat="41.79840588953546" lon="14.14753572129694"><ele>921.0</ele><time>2026-04-19T08:05:44.003Z</time></trkpt><trkpt lat="41.798477159606044" lon="14.147671440181387"><ele>922.0</ele><time>2026-04-19T08:05:45.003Z</time></trkpt><trkpt lat="41.798546026293664" lon="14.147792115107453"><ele>923.0</ele><time>2026-04-19T08:05:46.003Z</time></trkpt><trkpt lat="41.79861613949184" lon="14.147905384835386"><ele>924.0</ele><time>2026-04-19T08:05:47.003Z</time></trkpt><trkpt lat="41.79869480904579" lon="14.147995927483585"><ele>924.0</ele><time>2026-04-19T08:05:48.003Z</time></trkpt><trkpt lat="41.798786803096384" lon="14.148083906946509"><ele>924.0000000000001</ele><time>2026-04-19T08:05:49.003Z</time></trkpt><trkpt lat="41.79887324626589" lon="14.148146192706944"><ele>924.0000000000001</ele><time>2026-04-19T08:05:50.003Z</time></trkpt><trkpt lat="41.79895690308553" lon="14.148199603672976"><ele>924.0</ele><time>2026-04-19T08:05:51.003Z</time></trkpt><trkpt lat="41.799032546639765" lon="14.148251538933698"><ele>924.0</ele><time>2026-04-19T08:05:52.003Z</time></trkpt><trkpt lat="41.799099063184414" lon="14.148318591457164"><ele>922.6666666666666</ele><time>2026-04-19T08:05:53.003Z</time></trkpt><trkpt lat="41.79913835373937" lon="14.148429126850411"><ele>921.3333333333333</ele><time>2026-04-19T08:05:55.003Z</time></trkpt><trkpt lat="41.799175877216285" lon="14.148505936646162"><ele>920.0</ele><time>2026-04-19T08:05:56.003Z</time></trkpt><trkpt lat="41.799222401275394" lon="14.14859381764726"><ele>918.6666666666666</ele><time>2026-04-19T08:05:57.003Z</time></trkpt><trkpt lat="41.79927894548079" lon="14.148702097740252"><ele>917.3333333333333</ele><time>2026-04-19T08:05:58.003Z</time></trkpt><trkpt lat="41.79932957801368" lon="14.148801858153494"><ele>916.0</ele><time>2026-04-19T08:05:59.003Z</time></trkpt><trkpt lat="41.79937967412904" lon="14.148875436302488"><ele>916.0</ele><time>2026-04-19T08:06:00.003Z</time></trkpt><trkpt lat="41.799432411287874" lon="14.148982722854162"><ele>915.9999999999999</ele><time>2026-04-19T08:06:01.003Z</time></trkpt><trkpt lat="41.79950688270502" lon="14.149055228703805"><ele>915.9999999999999</ele><time>2026-04-19T08:06:02.003Z</time></trkpt><trkpt lat="41.79957948797891" lon="14.149116670504624"><ele>916.0</ele><time>2026-04-19T08:06:03.003Z</time></trkpt><trkpt lat="41.79961519304541" lon="14.149208941821996"><ele>916.0</ele><time>2026-04-19T08:06:04.003Z</time></trkpt><trkpt lat="41.79964750558754" lon="14.14933543681158"><ele>919.1999999999999</ele><time>2026-04-19T08:06:05.004Z</time></trkpt><trkpt lat="41.79967128503235" lon="14.149500692402171"><ele>922.3999999999999</ele><time>2026-04-19T08:06:06.004Z</time></trkpt><trkpt lat="41.799695346670966" lon="14.149646777079655"><ele>925.6</ele><time>2026-04-19T08:06:07.004Z</time></trkpt><trkpt lat="41.79972736863594" lon="14.149740586409884"><ele>928.8</ele><time>2026-04-19T08:06:08.005Z</time></trkpt><trkpt lat="41.799772802118156" lon="14.149824724731545"><ele>932.0</ele><time>2026-04-19T08:06:09.005Z</time></trkpt><trkpt lat="41.799841486094536" lon="14.149924166139789"><ele>932.6</ele><time>2026-04-19T08:06:10.005Z</time></trkpt><trkpt lat="41.79991283094794" lon="14.149983264425883"><ele>933.2</ele><time>2026-04-19T08:06:11.005Z</time></trkpt><trkpt lat="41.79997927294104" lon="14.150056363441994"><ele>933.8</ele><time>2026-04-19T08:06:12.005Z</time></trkpt><trkpt lat="41.80006137530328" lon="14.150087914887038"><ele>934.4</ele><time>2026-04-19T08:06:13.005Z</time></trkpt><trkpt lat="41.80012628341649" lon="14.15013691969962"><ele>935.0</ele><time>2026-04-19T08:06:16.004Z</time></trkpt><trkpt lat="41.80022436518957" lon="14.150230566700225"><ele>935.0000000000001</ele><time>2026-04-19T08:06:18.004Z</time></trkpt><trkpt lat="41.80032005346033" lon="14.150284030843762"><ele>935.0</ele><time>2026-04-19T08:06:20.004Z</time></trkpt><trkpt lat="41.80037544056398" lon="14.150325397637594"><ele>935.0</ele><time>2026-04-19T08:06:21.004Z</time></trkpt><trkpt lat="41.80042885705948" lon="14.150386652009937"><ele>935.0</ele><time>2026-04-19T08:06:22.004Z</time></trkpt><trkpt lat="41.80050078501019" lon="14.150474017654599"><ele>935.0000000000001</ele><time>2026-04-19T08:06:23.004Z</time></trkpt><trkpt lat="41.80057444310512" lon="14.150543157802375"><ele>935.0</ele><time>2026-04-19T08:06:24.004Z</time></trkpt><trkpt lat="41.800623473587244" lon="14.150626364781097"><ele>935.0000000000001</ele><time>2026-04-19T08:06:25.004Z</time></trkpt><trkpt lat="41.800662807361086" lon="14.150697780884299"><ele>935.0</ele><time>2026-04-19T08:06:26.004Z</time></trkpt><trkpt lat="41.80076133968044" lon="14.150793282731213"><ele>935.0</ele><time>2026-04-19T08:06:28.004Z</time></trkpt><trkpt lat="41.800848151225075" lon="14.150895063987289"><ele>935.0</ele><time>2026-04-19T08:06:30.004Z</time></trkpt><trkpt lat="41.80089216454274" lon="14.150959602969419"><ele>935.0000000000001</ele><time>2026-04-19T08:06:31.004Z</time></trkpt><trkpt lat="41.80094234340878" lon="14.151017675526598"><ele>935.0</ele><time>2026-04-19T08:06:32.004Z</time></trkpt><trkpt lat="41.801039203768276" lon="14.151056989865122"><ele>935.4</ele><time>2026-04-19T08:06:34.004Z</time></trkpt><trkpt lat="41.80115415435728" lon="14.151113458108327"><ele>935.8</ele><time>2026-04-19T08:06:36.004Z</time></trkpt><trkpt lat="41.80126486321438" lon="14.151156201336176"><ele>936.2</ele><time>2026-04-19T08:06:38.004Z</time></trkpt><trkpt lat="41.80132563550989" lon="14.1511810975985"><ele>936.6</ele><time>2026-04-19T08:06:39.004Z</time></trkpt><trkpt lat="41.80139737973713" lon="14.151220152280443"><ele>937.0</ele><time>2026-04-19T08:06:40.004Z</time></trkpt><trkpt lat="41.801475172775106" lon="14.151256455855949"><ele>936.9999999999999</ele><time>2026-04-19T08:06:41.004Z</time></trkpt><trkpt lat="41.80154836340799" lon="14.15129859048989"><ele>937.0</ele><time>2026-04-19T08:06:42.004Z</time></trkpt><trkpt lat="41.80161653785503" lon="14.151336963077721"><ele>937.0</ele><time>2026-04-19T08:06:43.004Z</time></trkpt><trkpt lat="41.80170733585329" lon="14.151410586376379"><ele>937.0</ele><time>2026-04-19T08:06:45.004Z</time></trkpt><trkpt lat="41.801783349834295" lon="14.151455208358977"><ele>936.9999999999999</ele><time>2026-04-19T08:06:46.004Z</time></trkpt><trkpt lat="41.80187243601373" lon="14.151495135531123"><ele>937.0</ele><time>2026-04-19T08:06:47.004Z</time></trkpt><trkpt lat="41.801942951882225" lon="14.151524704342505"><ele>938.5714285714286</ele><time>2026-04-19T08:06:48.004Z</time></trkpt><trkpt lat="41.80201467011681" lon="14.151570410563494"><ele>940.1428571428571</ele><time>2026-04-19T08:06:49.004Z</time></trkpt><trkpt lat="41.802077956990324" lon="14.151608565412618"><ele>941.7142857142857</ele><time>2026-04-19T08:06:50.004Z</time></trkpt><trkpt lat="41.80213554856767" lon="14.151662351900496"><ele>943.2857142857142</ele><time>2026-04-19T08:06:52.004Z</time></trkpt><trkpt lat="41.80218329069774" lon="14.151730368466293"><ele>944.8571428571429</ele><time>2026-04-19T08:06:54.004Z</time></trkpt><trkpt lat="41.80225182863101" lon="14.151795836388633"><ele>946.4285714285713</ele><time>2026-04-19T08:06:57.004Z</time></trkpt><trkpt lat="41.802312885220736" lon="14.151841807443665"><ele>947.9999999999999</ele><time>2026-04-19T08:06:58.004Z</time></trkpt><trkpt lat="41.80239906328029" lon="14.151931878190643"><ele>948.0</ele><time>2026-04-19T08:07:00.004Z</time></trkpt><trkpt lat="41.80244367496882" lon="14.152000344475104"><ele>948.0</ele><time>2026-04-19T08:07:01.004Z</time></trkpt><trkpt lat="41.80250104540868" lon="14.152080901791082"><ele>948.0</ele><time>2026-04-19T08:07:03.004Z</time></trkpt><trkpt lat="41.80263988535475" lon="14.15222591166416"><ele>948.0</ele><time>2026-04-19T08:07:11.004Z</time></trkpt><trkpt lat="41.8026949943769" lon="14.152330262979415"><ele>948.0</ele><time>2026-04-19T08:07:12.004Z</time></trkpt><trkpt lat="41.80274331181888" lon="14.152452023304443"><ele>947.0</ele><time>2026-04-19T08:07:13.004Z</time></trkpt><trkpt lat="41.80275745918057" lon="14.152554715576862"><ele>946.0</ele><time>2026-04-19T08:07:14.004Z</time></trkpt><trkpt lat="41.802770858144044" lon="14.152656009262156"><ele>945.0</ele><time>2026-04-19T08:07:15.004Z</time></trkpt><trkpt lat="41.80276690811518" lon="14.152770362832031"><ele>944.0</ele><time>2026-04-19T08:07:16.004Z</time></trkpt><trkpt lat="41.80279234370411" lon="14.152863586840352"><ele>943.0</ele><time>2026-04-19T08:07:17.004Z</time></trkpt><trkpt lat="41.80283535432434" lon="14.15296533518626"><ele>942.0</ele><time>2026-04-19T08:07:18.004Z</time></trkpt><trkpt lat="41.80289891054485" lon="14.15306891427767"><ele>942.0</ele><time>2026-04-19T08:07:19.004Z</time></trkpt><trkpt lat="41.80297967407276" lon="14.153127919382507"><ele>942.0</ele><time>2026-04-19T08:07:20.004Z</time></trkpt><trkpt lat="41.80307263656965" lon="14.153191685452171"><ele>942.0</ele><time>2026-04-19T08:07:21.004Z</time></trkpt><trkpt lat="41.80318121976428" lon="14.153257496113996"><ele>942.0</ele><time>2026-04-19T08:07:22.004Z</time></trkpt><trkpt lat="41.80329987806422" lon="14.153330984323256"><ele>942.0</ele><time>2026-04-19T08:07:23.004Z</time></trkpt><trkpt lat="41.80337185364756" lon="14.153370316412223"><ele>943.0</ele><time>2026-04-19T08:07:24.004Z</time></trkpt><trkpt lat="41.80342461171655" lon="14.153449126962924"><ele>944.0</ele><time>2026-04-19T08:07:25.004Z</time></trkpt><trkpt lat="41.803475177101674" lon="14.153553645049106"><ele>945.0</ele><time>2026-04-19T08:07:26.004Z</time></trkpt><trkpt lat="41.80353685593144" lon="14.153676902290442"><ele>946.0</ele><time>2026-04-19T08:07:27.004Z</time></trkpt><trkpt lat="41.80364765004545" lon="14.153751947418952"><ele>947.0</ele><time>2026-04-19T08:07:28.004Z</time></trkpt><trkpt lat="41.80376014568866" lon="14.153799502372083"><ele>947.0000000000001</ele><time>2026-04-19T08:07:29.003Z</time></trkpt><trkpt lat="41.803845195303445" lon="14.153834430446429"><ele>947.0</ele><time>2026-04-19T08:07:30.003Z</time></trkpt><trkpt lat="41.80391635106248" lon="14.153925260822287"><ele>947.0</ele><time>2026-04-19T08:07:31.003Z</time></trkpt><trkpt lat="41.80395864916395" lon="14.154016132163726"><ele>947.0</ele><time>2026-04-19T08:07:32.003Z</time></trkpt><trkpt lat="41.803992231814696" lon="14.15414416716994"><ele>947.0000000000001</ele><time>2026-04-19T08:07:34.003Z</time></trkpt><trkpt lat="41.804022833372464" lon="14.154230437279292"><ele>947.0</ele><time>2026-04-19T08:07:35.003Z</time></trkpt><trkpt lat="41.804085691291114" lon="14.15431829700658"><ele>949.5</ele><time>2026-04-19T08:07:36.003Z</time></trkpt><trkpt lat="41.80414411127081" lon="14.154458324948806"><ele>952.0</ele><time>2026-04-19T08:07:37.003Z</time></trkpt><trkpt lat="41.80419026770921" lon="14.154639080370673"><ele>954.5</ele><time>2026-04-19T08:07:38.003Z</time></trkpt><trkpt lat="41.8042339896995" lon="14.15483361759577"><ele>957.0</ele><time>2026-04-19T08:07:39.003Z</time></trkpt><trkpt lat="41.80426629938104" lon="14.154966336463962"><ele>957.8333333333334</ele><time>2026-04-19T08:07:40.003Z</time></trkpt><trkpt lat="41.80429363351957" lon="14.155062023375223"><ele>958.6666666666667</ele><time>2026-04-19T08:07:42.003Z</time></trkpt><trkpt lat="41.804294418876545" lon="14.155177541817025"><ele>959.5</ele><time>2026-04-19T08:07:44.003Z</time></trkpt><trkpt lat="41.80428931780913" lon="14.155264645496686"><ele>960.3333333333334</ele><time>2026-04-19T08:07:45.003Z</time></trkpt><trkpt lat="41.8042786961568" lon="14.155376062746338"><ele>961.1666666666667</ele><time>2026-04-19T08:07:46.003Z</time></trkpt><trkpt lat="41.804264105663755" lon="14.155480920784345"><ele>962.0</ele><time>2026-04-19T08:07:47.003Z</time></trkpt><trkpt lat="41.804255686619584" lon="14.155593280755113"><ele>961.8333333333334</ele><time>2026-04-19T08:07:48.003Z</time></trkpt><trkpt lat="41.804251866305805" lon="14.155709123673311"><ele>961.6666666666667</ele><time>2026-04-19T08:07:49.003Z</time></trkpt><trkpt lat="41.80424862031913" lon="14.155803195143829"><ele>961.5</ele><time>2026-04-19T08:07:50.003Z</time></trkpt><trkpt lat="41.80423328984179" lon="14.155920050463111"><ele>961.3333333333333</ele><time>2026-04-19T08:07:51.003Z</time></trkpt><trkpt lat="41.80421091094196" lon="14.156041970209381"><ele>961.1666666666666</ele><time>2026-04-19T08:07:53.003Z</time></trkpt><trkpt lat="41.80421059907092" lon="14.156132554342324"><ele>961.0</ele><time>2026-04-19T08:07:57.003Z</time></trkpt><trkpt lat="41.804210861776504" lon="14.156237403017167"><ele>960.9999999999999</ele><time>2026-04-19T08:07:59.003Z</time></trkpt><trkpt lat="41.804245699752485" lon="14.156310131035692"><ele>961.0</ele><time>2026-04-19T08:08:02.003Z</time></trkpt><trkpt lat="41.80429792945241" lon="14.156380331600737"><ele>961.0</ele><time>2026-04-19T08:08:04.003Z</time></trkpt><trkpt lat="41.80433455670811" lon="14.156469374621697"><ele>961.0</ele><time>2026-04-19T08:08:06.003Z</time></trkpt><trkpt lat="41.80435347441422" lon="14.156567202431352"><ele>960.9999999999999</ele><time>2026-04-19T08:08:08.003Z</time></trkpt><trkpt lat="41.80432924879882" lon="14.156695005520797"><ele>961.0</ele><time>2026-04-19T08:08:11.005Z</time></trkpt><trkpt lat="41.80428489775706" lon="14.15675728625773"><ele>961.4999999999999</ele><time>2026-04-19T08:08:13.005Z</time></trkpt><trkpt lat="41.80428780626399" lon="14.15686186468816"><ele>962.0</ele><time>2026-04-19T08:08:23.005Z</time></trkpt><trkpt lat="41.804310214320104" lon="14.156970947270132"><ele>962.5</ele><time>2026-04-19T08:08:26.005Z</time></trkpt><trkpt lat="41.80430449044472" lon="14.157064936888533"><ele>963.0</ele><time>2026-04-19T08:08:27.005Z</time></trkpt><trkpt lat="41.80436222519434" lon="14.157177636414408"><ele>963.4999999999999</ele><time>2026-04-19T08:08:29.005Z</time></trkpt><trkpt lat="41.80440575809758" lon="14.157256762707425"><ele>964.0</ele><time>2026-04-19T08:08:33.005Z</time></trkpt><trkpt lat="41.80439921176361" lon="14.157392335678303"><ele>960.4999999999999</ele><time>2026-04-19T08:08:37.005Z</time></trkpt><trkpt lat="41.80438887419778" lon="14.157481928790784"><ele>957.0</ele><time>2026-04-19T08:08:41.005Z</time></trkpt><trkpt lat="41.804413091943765" lon="14.157575778174742"><ele>953.5</ele><time>2026-04-19T08:09:14.004Z</time></trkpt><trkpt lat="41.8044662373956" lon="14.15767650489099"><ele>950.0</ele><time>2026-04-19T08:09:18.004Z</time></trkpt><trkpt lat="41.80457674143783" lon="14.157705745764078"><ele>946.4999999999999</ele><time>2026-04-19T08:09:20.004Z</time></trkpt><trkpt lat="41.80465303906164" lon="14.157727577250512"><ele>943.0</ele><time>2026-04-19T08:09:23.004Z</time></trkpt><trkpt lat="41.804715124150206" lon="14.15777200392819"><ele>942.9999999999999</ele><time>2026-04-19T08:09:27.004Z</time></trkpt><trkpt lat="41.804770462739185" lon="14.157826051407378"><ele>943.0</ele><time>2026-04-19T08:09:30.004Z</time></trkpt><trkpt lat="41.80481326626728" lon="14.157905420061322"><ele>943.0</ele><time>2026-04-19T08:09:32.004Z</time></trkpt><trkpt lat="41.80481913871426" lon="14.1580515211689"><ele>943.0</ele><time>2026-04-19T08:09:34.004Z</time></trkpt><trkpt lat="41.80481837953844" lon="14.158155248976062"><ele>942.9999999999999</ele><time>2026-04-19T08:09:35.004Z</time></trkpt><trkpt lat="41.80481383365186" lon="14.158264518554015"><ele>943.0</ele><time>2026-04-19T08:09:36.004Z</time></trkpt><trkpt lat="41.80485844515692" lon="14.158355288387133"><ele>943.8</ele><time>2026-04-19T08:09:38.004Z</time></trkpt><trkpt lat="41.80493055413965" lon="14.158353619246943"><ele>944.5999999999999</ele><time>2026-04-19T08:09:39.004Z</time></trkpt><trkpt lat="41.80503144421725" lon="14.158347139032275"><ele>945.4000000000001</ele><time>2026-04-19T08:09:40.004Z</time></trkpt><trkpt lat="41.80513982044504" lon="14.158326835025894"><ele>946.2</ele><time>2026-04-19T08:09:41.004Z</time></trkpt><trkpt lat="41.80520806414366" lon="14.158346814975344"><ele>947.0</ele><time>2026-04-19T08:09:42.004Z</time></trkpt><trkpt lat="41.805332087397986" lon="14.158478727781564"><ele>942.0</ele><time>2026-04-19T08:09:44.004Z</time></trkpt><trkpt lat="41.80544410097052" lon="14.158633664204011"><ele>937.0</ele><time>2026-04-19T08:09:45.004Z</time></trkpt><trkpt lat="41.805527621202025" lon="14.158723184329892"><ele>932.0</ele><time>2026-04-19T08:09:46.004Z</time></trkpt><trkpt lat="41.8056130232194" lon="14.158771282868646"><ele>927.0</ele><time>2026-04-19T08:09:47.004Z</time></trkpt><trkpt lat="41.805706308086606" lon="14.158772776120461"><ele>927.0</ele><time>2026-04-19T08:09:48.004Z</time></trkpt><trkpt lat="41.80578675462647" lon="14.15885061868849"><ele>927.0</ele><time>2026-04-19T08:09:50.004Z</time></trkpt><trkpt lat="41.80576415562978" lon="14.158986268452917"><ele>927.0</ele><time>2026-04-19T08:09:52.004Z</time></trkpt><trkpt lat="41.80572173711849" lon="14.15905201972775"><ele>927.0</ele><time>2026-04-19T08:09:53.004Z</time></trkpt><trkpt lat="41.80565796269534" lon="14.159114426827966"><ele>927.0</ele><time>2026-04-19T08:09:54.004Z</time></trkpt><trkpt lat="41.8056164938004" lon="14.159214970616878"><ele>927.0</ele><time>2026-04-19T08:09:56.004Z</time></trkpt><trkpt lat="41.805645732217386" lon="14.159290558668156"><ele>926.4285714285713</ele><time>2026-04-19T08:09:57.004Z</time></trkpt><trkpt lat="41.805677865458435" lon="14.159371474354964"><ele>925.8571428571429</ele><time>2026-04-19T08:09:58.004Z</time></trkpt><trkpt lat="41.80564261961376" lon="14.159452153788493"><ele>925.2857142857142</ele><time>2026-04-19T08:10:00.004Z</time></trkpt><trkpt lat="41.80557846890337" lon="14.15951224615079"><ele>924.7142857142857</ele><time>2026-04-19T08:10:01.004Z</time></trkpt><trkpt lat="41.805519328382324" lon="14.159601685511566"><ele>924.1428571428571</ele><time>2026-04-19T08:10:02.004Z</time></trkpt><trkpt lat="41.805472799778634" lon="14.159664901016951"><ele>923.5714285714286</ele><time>2026-04-19T08:10:03.004Z</time></trkpt><trkpt lat="41.805440938383164" lon="14.159741702982553"><ele>923.0</ele><time>2026-04-19T08:10:05.004Z</time></trkpt><trkpt lat="41.805398034416775" lon="14.15983676964137"><ele>920.25</ele><time>2026-04-19T08:10:10.004Z</time></trkpt><trkpt lat="41.80535484528262" lon="14.159914405657315"><ele>917.5</ele><time>2026-04-19T08:10:12.004Z</time></trkpt><trkpt lat="41.805356358080566" lon="14.160020122189145"><ele>914.75</ele><time>2026-04-19T08:10:14.004Z</time></trkpt><trkpt lat="41.8055695167494" lon="14.160067707446112"><ele>912.0</ele><time>2026-04-19T08:10:59.005Z</time></trkpt><trkpt lat="41.805660733659074" lon="14.16011200532159"><ele>912.0</ele><time>2026-04-19T08:11:00.005Z</time></trkpt><trkpt lat="41.80574079376168" lon="14.160111499015956"><ele>912.0</ele><time>2026-04-19T08:11:01.005Z</time></trkpt><trkpt lat="41.80586551640609" lon="14.160113700104068"><ele>912.0</ele><time>2026-04-19T08:11:03.005Z</time></trkpt><trkpt lat="41.805938675244725" lon="14.160165946472395"><ele>912.0</ele><time>2026-04-19T08:11:04.005Z</time></trkpt><trkpt lat="41.80600395699026" lon="14.160245170724382"><ele>912.0</ele><time>2026-04-19T08:11:05.005Z</time></trkpt><trkpt lat="41.80607391486081" lon="14.160315106024642"><ele>909.2</ele><time>2026-04-19T08:11:06.005Z</time></trkpt><trkpt lat="41.80616496834544" lon="14.160349073394055"><ele>906.4000000000001</ele><time>2026-04-19T08:11:07.005Z</time></trkpt><trkpt lat="41.80625081681256" lon="14.160365920616792"><ele>903.5999999999999</ele><time>2026-04-19T08:11:08.005Z</time></trkpt><trkpt lat="41.806372234545066" lon="14.160408273189395"><ele>900.8</ele><time>2026-04-19T08:11:10.005Z</time></trkpt><trkpt lat="41.80643316880446" lon="14.160452650452546"><ele>898.0</ele><time>2026-04-19T08:11:11.005Z</time></trkpt><trkpt lat="41.806455954747406" lon="14.160606817432688"><ele>896.6666666666666</ele><time>2026-04-19T08:11:13.005Z</time></trkpt><trkpt lat="41.80647846013626" lon="14.16071871870791"><ele>895.3333333333333</ele><time>2026-04-19T08:11:15.005Z</time></trkpt><trkpt lat="41.80655549179725" lon="14.160837328184561"><ele>894.0</ele><time>2026-04-19T08:11:17.005Z</time></trkpt><trkpt lat="41.80662855111148" lon="14.160884164038512"><ele>892.6666666666667</ele><time>2026-04-19T08:11:18.005Z</time></trkpt><trkpt lat="41.80669793542252" lon="14.160920597580564"><ele>891.3333333333334</ele><time>2026-04-19T08:11:19.005Z</time></trkpt><trkpt lat="41.8067572396264" lon="14.160972300473638"><ele>890.0</ele><time>2026-04-19T08:11:20.005Z</time></trkpt><trkpt lat="41.806826497400685" lon="14.161061580665415"><ele>888.0000000000001</ele><time>2026-04-19T08:11:22.005Z</time></trkpt><trkpt lat="41.80686764398142" lon="14.161133384080824"><ele>886.0</ele><time>2026-04-19T08:11:23.005Z</time></trkpt><trkpt lat="41.80698181829672" lon="14.161236487356962"><ele>884.0</ele><time>2026-04-19T08:11:25.005Z</time></trkpt><trkpt lat="41.807042702295405" lon="14.16128442884505"><ele>882.0</ele><time>2026-04-19T08:11:26.005Z</time></trkpt><trkpt lat="41.80708163667753" lon="14.16135773854977"><ele>880.0000000000001</ele><time>2026-04-19T08:11:29.005Z</time></trkpt><trkpt lat="41.8070951515395" lon="14.161475807233405"><ele>878.0</ele><time>2026-04-19T08:11:31.005Z</time></trkpt><trkpt lat="41.807133290339095" lon="14.16157769478894"><ele>876.6666666666667</ele><time>2026-04-19T08:11:33.005Z</time></trkpt><trkpt lat="41.80718101738517" lon="14.161692234689538"><ele>875.3333333333334</ele><time>2026-04-19T08:11:36.005Z</time></trkpt><trkpt lat="41.80721416050579" lon="14.161797177378546"><ele>874.0</ele><time>2026-04-19T08:11:38.005Z</time></trkpt><trkpt lat="41.807279121669666" lon="14.161892511978174"><ele>872.6666666666667</ele><time>2026-04-19T08:11:40.005Z</time></trkpt><trkpt lat="41.80730931060229" lon="14.161988657901892"><ele>871.3333333333334</ele><time>2026-04-19T08:11:42.005Z</time></trkpt><trkpt lat="41.80730077371959" lon="14.16210289125096"><ele>870.0</ele><time>2026-04-19T08:11:44.005Z</time></trkpt><trkpt lat="41.807310080787225" lon="14.162208171074493"><ele>870.0</ele><time>2026-04-19T08:11:47.005Z</time></trkpt><trkpt lat="41.80736330693197" lon="14.162300148730209"><ele>870.0</ele><time>2026-04-19T08:11:49.005Z</time></trkpt><trkpt lat="41.80740633331059" lon="14.162390245782836"><ele>870.0</ele><time>2026-04-19T08:11:51.005Z</time></trkpt><trkpt lat="41.807464006035964" lon="14.16244396052395"><ele>870.0</ele><time>2026-04-19T08:11:53.005Z</time></trkpt><trkpt lat="41.8074665824779" lon="14.162537189274188"><ele>870.0</ele><time>2026-04-19T08:11:54.005Z</time></trkpt><trkpt lat="41.80748959074189" lon="14.162626647525608"><ele>870.0</ele><time>2026-04-19T08:11:55.005Z</time></trkpt><trkpt lat="41.80755664699866" lon="14.162742279984663"><ele>869.6666666666666</ele><time>2026-04-19T08:11:57.005Z</time></trkpt><trkpt lat="41.80761377230517" lon="14.162859239498182"><ele>869.3333333333333</ele><time>2026-04-19T08:11:59.005Z</time></trkpt><trkpt lat="41.807675843348356" lon="14.162985418981638"><ele>869.0</ele><time>2026-04-19T08:12:01.005Z</time></trkpt><trkpt lat="41.807705104079346" lon="14.16306717186731"><ele>868.6666666666666</ele><time>2026-04-19T08:12:02.005Z</time></trkpt><trkpt lat="41.80773058698361" lon="14.163175016004416"><ele>868.3333333333333</ele><time>2026-04-19T08:12:03.005Z</time></trkpt><trkpt lat="41.807756242680874" lon="14.163258303905298"><ele>868.0</ele><time>2026-04-19T08:12:04.005Z</time></trkpt><trkpt lat="41.80783640702909" lon="14.163344063027308"><ele>869.8333333333333</ele><time>2026-04-19T08:12:06.005Z</time></trkpt><trkpt lat="41.807827497277614" lon="14.163491213960132"><ele>871.6666666666666</ele><time>2026-04-19T08:12:08.005Z</time></trkpt><trkpt lat="41.80782721339715" lon="14.163609148028316"><ele>873.5</ele><time>2026-04-19T08:12:10.004Z</time></trkpt><trkpt lat="41.807855140140575" lon="14.163687807509225"><ele>875.3333333333333</ele><time>2026-04-19T08:12:14.004Z</time></trkpt><trkpt lat="41.807923568314536" lon="14.163751322558726"><ele>877.1666666666666</ele><time>2026-04-19T08:13:12.006Z</time></trkpt><trkpt lat="41.808003090104954" lon="14.163771517040821"><ele>879.0</ele><time>2026-04-19T08:13:14.006Z</time></trkpt><trkpt lat="41.8082896235319" lon="14.163731759952642"><ele>879.0</ele><time>2026-04-19T08:13:20.006Z</time></trkpt><trkpt lat="41.80838042800687" lon="14.163707778706954"><ele>879.0000000000001</ele><time>2026-04-19T08:13:21.006Z</time></trkpt><trkpt lat="41.80844350130269" lon="14.16369643790791"><ele>879.0000000000001</ele><time>2026-04-19T08:13:22.006Z</time></trkpt><trkpt lat="41.80855821663719" lon="14.163622754650445"><ele>879.0</ele><time>2026-04-19T08:13:24.006Z</time></trkpt><trkpt lat="41.80866888859416" lon="14.163590690915797"><ele>879.0</ele><time>2026-04-19T08:13:26.006Z</time></trkpt><trkpt lat="41.80875256003819" lon="14.163557661856665"><ele>876.0</ele><time>2026-04-19T08:13:27.006Z</time></trkpt><trkpt lat="41.80884376255041" lon="14.163474174996923"><ele>873.0000000000001</ele><time>2026-04-19T08:13:28.006Z</time></trkpt><trkpt lat="41.8089478429586" lon="14.163403451557881"><ele>870.0000000000001</ele><time>2026-04-19T08:13:29.006Z</time></trkpt><trkpt lat="41.809047326027404" lon="14.16333731748707"><ele>867.0</ele><time>2026-04-19T08:13:30.006Z</time></trkpt><trkpt lat="41.8091333616384" lon="14.163291657535929"><ele>864.0</ele><time>2026-04-19T08:13:31.006Z</time></trkpt><trkpt lat="41.8092481526056" lon="14.163261177214864"><ele>860.8000000000001</ele><time>2026-04-19T08:13:32.006Z</time></trkpt><trkpt lat="41.809364993427515" lon="14.163238182219958"><ele>857.6000000000001</ele><time>2026-04-19T08:13:33.006Z</time></trkpt><trkpt lat="41.80946892772283" lon="14.163197717239491"><ele>854.4</ele><time>2026-04-19T08:13:34.006Z</time></trkpt><trkpt lat="41.8095342486832" lon="14.163184014721"><ele>851.2</ele><time>2026-04-19T08:13:35.006Z</time></trkpt><trkpt lat="41.809598663389686" lon="14.163191160079005"><ele>848.0</ele><time>2026-04-19T08:13:36.006Z</time></trkpt><trkpt lat="41.80973685461119" lon="14.163211570518282"><ele>848.0</ele><time>2026-04-19T08:13:39.006Z</time></trkpt><trkpt lat="41.80984845143303" lon="14.16326610042123"><ele>848.0</ele><time>2026-04-19T08:13:40.006Z</time></trkpt><trkpt lat="41.80994938094053" lon="14.163288152140721"><ele>848.0</ele><time>2026-04-19T08:13:41.006Z</time></trkpt><trkpt lat="41.810063600498786" lon="14.163253555804072"><ele>848.0</ele><time>2026-04-19T08:13:42.006Z</time></trkpt><trkpt lat="41.81016715945902" lon="14.163230274000878"><ele>848.0</ele><time>2026-04-19T08:13:43.006Z</time></trkpt><trkpt lat="41.810266675590825" lon="14.163222763990433"><ele>845.5000000000001</ele><time>2026-04-19T08:13:44.006Z</time></trkpt><trkpt lat="41.81037884703687" lon="14.16322365459296"><ele>843.0</ele><time>2026-04-19T08:13:45.006Z</time></trkpt><trkpt lat="41.81047570764706" lon="14.163217337729687"><ele>840.5</ele><time>2026-04-19T08:13:46.006Z</time></trkpt><trkpt lat="41.81054800469418" lon="14.163214615663408"><ele>838.0</ele><time>2026-04-19T08:13:47.006Z</time></trkpt><trkpt lat="41.8106194846327" lon="14.163198612846426"><ele>835.5000000000001</ele><time>2026-04-19T08:13:48.006Z</time></trkpt><trkpt lat="41.81070489163822" lon="14.163187889709084"><ele>833.0</ele><time>2026-04-19T08:13:49.006Z</time></trkpt><trkpt lat="41.81079770758547" lon="14.16312594247845"><ele>833.0000000000001</ele><time>2026-04-19T08:13:50.006Z</time></trkpt><trkpt lat="41.810885361871236" lon="14.163058932389172"><ele>833.0</ele><time>2026-04-19T08:13:51.006Z</time></trkpt><trkpt lat="41.81095714489566" lon="14.163008895852418"><ele>833.0</ele><time>2026-04-19T08:13:52.006Z</time></trkpt><trkpt lat="41.811036309873714" lon="14.16300465449628"><ele>833.0</ele><time>2026-04-19T08:13:53.006Z</time></trkpt><trkpt lat="41.811099771299766" lon="14.162996848485154"><ele>833.0000000000001</ele><time>2026-04-19T08:13:54.006Z</time></trkpt><trkpt lat="41.81120423635609" lon="14.162947757975783"><ele>833.0</ele><time>2026-04-19T08:13:56.005Z</time></trkpt><trkpt lat="41.81123822452311" lon="14.162842565747837"><ele>832.6666666666667</ele><time>2026-04-19T08:13:58.005Z</time></trkpt><trkpt lat="41.81133165130315" lon="14.162797331281082"><ele>832.3333333333334</ele><time>2026-04-19T08:14:02.005Z</time></trkpt><trkpt lat="41.81139102584628" lon="14.162731667115388"><ele>832.0</ele><time>2026-04-19T08:14:05.005Z</time></trkpt><trkpt lat="41.8114173323939" lon="14.162608826891848"><ele>831.6666666666667</ele><time>2026-04-19T08:14:07.005Z</time></trkpt><trkpt lat="41.81141072328045" lon="14.162521980178973"><ele>831.3333333333334</ele><time>2026-04-19T08:14:09.005Z</time></trkpt><trkpt lat="41.81146676607252" lon="14.162437107762875"><ele>831.0</ele><time>2026-04-19T08:14:11.005Z</time></trkpt><trkpt lat="41.811542199936866" lon="14.162329044662474"><ele>831.0</ele><time>2026-04-19T08:14:12.005Z</time></trkpt><trkpt lat="41.811608860629974" lon="14.162267131058936"><ele>831.0</ele><time>2026-04-19T08:14:13.005Z</time></trkpt><trkpt lat="41.81165943833926" lon="14.162180638182198"><ele>831.0</ele><time>2026-04-19T08:14:14.005Z</time></trkpt><trkpt lat="41.81172853646892" lon="14.162099641083294"><ele>831.0</ele><time>2026-04-19T08:14:15.005Z</time></trkpt><trkpt lat="41.811808015660695" lon="14.162074578282274"><ele>831.0</ele><time>2026-04-19T08:14:16.005Z</time></trkpt><trkpt lat="41.81197407049086" lon="14.16206012328496"><ele>827.1999999999999</ele><time>2026-04-19T08:14:18.005Z</time></trkpt><trkpt lat="41.812040870752746" lon="14.1620315631856"><ele>823.4</ele><time>2026-04-19T08:14:19.005Z</time></trkpt><trkpt lat="41.81211027999235" lon="14.161972485621549"><ele>819.6</ele><time>2026-04-19T08:14:20.005Z</time></trkpt><trkpt lat="41.812181101152085" lon="14.161924343536"><ele>815.8</ele><time>2026-04-19T08:14:21.005Z</time></trkpt><trkpt lat="41.81229895869894" lon="14.161944544815952"><ele>812.0</ele><time>2026-04-19T08:14:23.005Z</time></trkpt><trkpt lat="41.81240917946372" lon="14.161887703498063"><ele>812.0000000000001</ele><time>2026-04-19T08:14:25.005Z</time></trkpt><trkpt lat="41.81251046963579" lon="14.161817161975"><ele>812.0</ele><time>2026-04-19T08:14:27.005Z</time></trkpt><trkpt lat="41.81256548135707" lon="14.161723766233859"><ele>812.0</ele><time>2026-04-19T08:14:28.005Z</time></trkpt><trkpt lat="41.812623384264185" lon="14.161678908144268"><ele>812.0</ele><time>2026-04-19T08:14:29.006Z</time></trkpt><trkpt lat="41.81270084877846" lon="14.161641878532626"><ele>812.0000000000001</ele><time>2026-04-19T08:14:30.006Z</time></trkpt><trkpt lat="41.81273536699661" lon="14.161524340971372"><ele>812.0</ele><time>2026-04-19T08:14:33.005Z</time></trkpt><trkpt lat="41.812761915251286" lon="14.161416112760117"><ele>813.25</ele><time>2026-04-19T08:14:34.005Z</time></trkpt><trkpt lat="41.81279187347748" lon="14.161331277765967"><ele>814.5</ele><time>2026-04-19T08:14:35.006Z</time></trkpt><trkpt lat="41.81287862323086" lon="14.161252136417868"><ele>815.75</ele><time>2026-04-19T08:14:37.005Z</time></trkpt><trkpt lat="41.812945731748464" lon="14.161289894383003"><ele>817.0</ele><time>2026-04-19T08:14:40.006Z</time></trkpt><trkpt lat="41.81319285162697" lon="14.1613182568446"><ele>816.9999999999999</ele><time>2026-04-19T08:14:54.005Z</time></trkpt><trkpt lat="41.81326050396696" lon="14.161258181725728"><ele>817.0</ele><time>2026-04-19T08:14:56.005Z</time></trkpt><trkpt lat="41.8133605626507" lon="14.161248029300799"><ele>817.0</ele><time>2026-04-19T08:15:03.005Z</time></trkpt><trkpt lat="41.81338225840284" lon="14.161149558339403"><ele>817.0</ele><time>2026-04-19T08:16:03.005Z</time></trkpt><trkpt lat="41.81347824894469" lon="14.161144778193188"><ele>816.9999999999999</ele><time>2026-04-19T08:16:05.005Z</time></trkpt><trkpt lat="41.81354991856034" lon="14.161132300321114"><ele>817.0</ele><time>2026-04-19T08:16:06.005Z</time></trkpt><trkpt lat="41.8136398815568" lon="14.161131640940534"><ele>814.9999999999999</ele><time>2026-04-19T08:16:07.005Z</time></trkpt><trkpt lat="41.81372548527639" lon="14.161123496332156"><ele>813.0</ele><time>2026-04-19T08:16:08.005Z</time></trkpt><trkpt lat="41.81379462573459" lon="14.161086227562016"><ele>811.0</ele><time>2026-04-19T08:16:09.005Z</time></trkpt><trkpt lat="41.81387646895416" lon="14.161044159742463"><ele>809.0</ele><time>2026-04-19T08:16:10.005Z</time></trkpt><trkpt lat="41.81396162006172" lon="14.160988669441878"><ele>806.9999999999999</ele><time>2026-04-19T08:16:11.005Z</time></trkpt><trkpt lat="41.81404145878892" lon="14.160981465810636"><ele>805.0</ele><time>2026-04-19T08:16:12.005Z</time></trkpt><trkpt lat="41.814125067168305" lon="14.160905757551106"><ele>805.0</ele><time>2026-04-19T08:16:14.005Z</time></trkpt><trkpt lat="41.814237172703585" lon="14.160850058365646"><ele>805.0</ele><time>2026-04-19T08:16:16.005Z</time></trkpt><trkpt lat="41.8143004333276" lon="14.160814683252026"><ele>805.0</ele><time>2026-04-19T08:16:17.005Z</time></trkpt><trkpt lat="41.81437265926613" lon="14.160748839346022"><ele>805.0</ele><time>2026-04-19T08:16:18.005Z</time></trkpt><trkpt lat="41.814465674247785" lon="14.160667293239971"><ele>805.0</ele><time>2026-04-19T08:16:19.005Z</time></trkpt><trkpt lat="41.81458537449793" lon="14.160627958826446"><ele>802.9999999999999</ele><time>2026-04-19T08:16:20.005Z</time></trkpt><trkpt lat="41.81469392613097" lon="14.160610743556633"><ele>801.0</ele><time>2026-04-19T08:16:21.005Z</time></trkpt><trkpt lat="41.814775171143566" lon="14.160584102702444"><ele>799.0</ele><time>2026-04-19T08:16:22.005Z</time></trkpt><trkpt lat="41.81483494210312" lon="14.160551855658653"><ele>797.0</ele><time>2026-04-19T08:16:23.005Z</time></trkpt><trkpt lat="41.81489388798767" lon="14.16046081193893"><ele>794.9999999999999</ele><time>2026-04-19T08:16:24.005Z</time></trkpt><trkpt lat="41.81495001719541" lon="14.160367764894072"><ele>793.0</ele><time>2026-04-19T08:16:25.005Z</time></trkpt><trkpt lat="41.81498608186596" lon="14.160275769501698"><ele>792.9999999999999</ele><time>2026-04-19T08:16:26.005Z</time></trkpt><trkpt lat="41.81503100926984" lon="14.160211895197497"><ele>793.0</ele><time>2026-04-19T08:16:27.005Z</time></trkpt><trkpt lat="41.81510724913659" lon="14.160128155529277"><ele>793.0</ele><time>2026-04-19T08:16:28.005Z</time></trkpt><trkpt lat="41.815150248270974" lon="14.160024560961263"><ele>793.0</ele><time>2026-04-19T08:16:29.005Z</time></trkpt><trkpt lat="41.815195015299466" lon="14.15995286198696"><ele>792.9999999999999</ele><time>2026-04-19T08:16:30.005Z</time></trkpt><trkpt lat="41.81523853372382" lon="14.159883332479287"><ele>793.0</ele><time>2026-04-19T08:16:31.005Z</time></trkpt><trkpt lat="41.81527605614441" lon="14.159751746299559"><ele>790.5714285714287</ele><time>2026-04-19T08:16:33.005Z</time></trkpt><trkpt lat="41.81524246041782" lon="14.159665740177775"><ele>788.1428571428571</ele><time>2026-04-19T08:16:36.006Z</time></trkpt><trkpt lat="41.815189322285946" lon="14.1596007209253"><ele>785.7142857142858</ele><time>2026-04-19T08:16:42.007Z</time></trkpt><trkpt lat="41.81523148484122" lon="14.159521978430456"><ele>783.2857142857143</ele><time>2026-04-19T08:16:46.006Z</time></trkpt><trkpt lat="41.8152982621073" lon="14.159515860865298"><ele>780.8571428571429</ele><time>2026-04-19T08:16:50.006Z</time></trkpt><trkpt lat="41.815359891289695" lon="14.159437472207003"><ele>778.4285714285714</ele><time>2026-04-19T08:16:53.006Z</time></trkpt><trkpt lat="41.81541390568177" lon="14.159393799140073"><ele>776.0</ele><time>2026-04-19T08:16:55.006Z</time></trkpt><trkpt lat="41.81548150718763" lon="14.159321955435885"><ele>776.0000000000001</ele><time>2026-04-19T08:16:57.006Z</time></trkpt><trkpt lat="41.81553242401919" lon="14.159272025058456"><ele>776.0</ele><time>2026-04-19T08:16:59.006Z</time></trkpt><trkpt lat="41.81563410344351" lon="14.15924310190313"><ele>776.0</ele><time>2026-04-19T08:17:01.006Z</time></trkpt><trkpt lat="41.81569709802311" lon="14.159229539058813"><ele>776.0</ele><time>2026-04-19T08:17:02.006Z</time></trkpt><trkpt lat="41.81580689718749" lon="14.159279389263475"><ele>776.0000000000001</ele><time>2026-04-19T08:17:04.006Z</time></trkpt><trkpt lat="41.81586939331249" lon="14.15937537546315"><ele>776.0</ele><time>2026-04-19T08:17:06.006Z</time></trkpt><trkpt lat="41.81588696869421" lon="14.15945824849108"><ele>776.0000000000001</ele><time>2026-04-19T08:17:07.006Z</time></trkpt><trkpt lat="41.81588931101172" lon="14.159570305983998"><ele>776.0</ele><time>2026-04-19T08:17:08.006Z</time></trkpt><trkpt lat="41.81587937834137" lon="14.159677082781652"><ele>776.0</ele><time>2026-04-19T08:17:09.006Z</time></trkpt><trkpt lat="41.81585241391409" lon="14.159784009113006"><ele>776.0</ele><time>2026-04-19T08:17:10.006Z</time></trkpt><trkpt lat="41.815814994744045" lon="14.159886538898068"><ele>776.0000000000001</ele><time>2026-04-19T08:17:11.006Z</time></trkpt><trkpt lat="41.81579076493311" lon="14.159967289841887"><ele>776.0</ele><time>2026-04-19T08:17:12.006Z</time></trkpt><trkpt lat="41.815788622874464" lon="14.160080161653575"><ele>776.3333333333334</ele><time>2026-04-19T08:17:13.006Z</time></trkpt><trkpt lat="41.815800731432915" lon="14.1601789816677"><ele>776.6666666666667</ele><time>2026-04-19T08:17:14.006Z</time></trkpt><trkpt lat="41.81582467947042" lon="14.160260022840847"><ele>777.0</ele><time>2026-04-19T08:17:15.006Z</time></trkpt><trkpt lat="41.81591067403613" lon="14.160367810820764"><ele>777.3333333333333</ele><time>2026-04-19T08:17:17.006Z</time></trkpt><trkpt lat="41.815984874228214" lon="14.160392475727495"><ele>777.6666666666666</ele><time>2026-04-19T08:17:19.006Z</time></trkpt><trkpt lat="41.81605238662294" lon="14.160371757469209"><ele>778.0</ele><time>2026-04-19T08:17:21.006Z</time></trkpt><trkpt lat="41.81613184721698" lon="14.160308446713586"><ele>776.4999999999999</ele><time>2026-04-19T08:17:23.006Z</time></trkpt><trkpt lat="41.816197666146266" lon="14.160228681401986"><ele>775.0</ele><time>2026-04-19T08:17:25.006Z</time></trkpt><trkpt lat="41.81626778969846" lon="14.160150504945603"><ele>773.5</ele><time>2026-04-19T08:17:27.006Z</time></trkpt><trkpt lat="41.81632601760637" lon="14.160091025109002"><ele>772.0</ele><time>2026-04-19T08:17:29.006Z</time></trkpt><trkpt lat="41.81637854081698" lon="14.160007097349425"><ele>770.4999999999999</ele><time>2026-04-19T08:17:31.006Z</time></trkpt><trkpt lat="41.81642652344336" lon="14.159916940682294"><ele>769.0</ele><time>2026-04-19T08:17:33.006Z</time></trkpt><trkpt lat="41.8165005577884" lon="14.1598419717328"><ele>768.1666666666666</ele><time>2026-04-19T08:17:35.006Z</time></trkpt><trkpt lat="41.816557246966994" lon="14.159763186651007"><ele>767.3333333333333</ele><time>2026-04-19T08:17:37.006Z</time></trkpt><trkpt lat="41.816579689805934" lon="14.159664172850615"><ele>766.5</ele><time>2026-04-19T08:17:39.006Z</time></trkpt><trkpt lat="41.81658755777358" lon="14.159570678633226"><ele>765.6666666666666</ele><time>2026-04-19T08:17:41.006Z</time></trkpt><trkpt lat="41.8166260062266" lon="14.159446579315643"><ele>764.8333333333333</ele><time>2026-04-19T08:17:43.006Z</time></trkpt><trkpt lat="41.8166824911137" lon="14.159361938927924"><ele>764.0</ele><time>2026-04-19T08:17:44.006Z</time></trkpt><trkpt lat="41.81675141865047" lon="14.159242842436862"><ele>763.2</ele><time>2026-04-19T08:17:45.006Z</time></trkpt><trkpt lat="41.81682905198131" lon="14.159112293698966"><ele>762.4000000000001</ele><time>2026-04-19T08:17:46.006Z</time></trkpt><trkpt lat="41.81687734120465" lon="14.158992258346405"><ele>761.6</ele><time>2026-04-19T08:17:47.006Z</time></trkpt><trkpt lat="41.816896988596575" lon="14.15890285369675"><ele>760.8</ele><time>2026-04-19T08:17:48.006Z</time></trkpt><trkpt lat="41.81686166936799" lon="14.158755985735432"><ele>760.0</ele><time>2026-04-19T08:17:49.006Z</time></trkpt><trkpt lat="41.81678784550894" lon="14.158594335424278"><ele>760.0</ele><time>2026-04-19T08:17:50.006Z</time></trkpt><trkpt lat="41.816712173285566" lon="14.158427595656276"><ele>760.0</ele><time>2026-04-19T08:17:51.006Z</time></trkpt><trkpt lat="41.81666195706791" lon="14.158262125349001"><ele>760.0</ele><time>2026-04-19T08:17:52.006Z</time></trkpt><trkpt lat="41.81662046266064" lon="14.158103359355877"><ele>760.0</ele><time>2026-04-19T08:17:53.006Z</time></trkpt><trkpt lat="41.81656155558951" lon="14.15794707265158"><ele>759.8333333333334</ele><time>2026-04-19T08:17:54.006Z</time></trkpt><trkpt lat="41.816501616057295" lon="14.157811802472722"><ele>759.6666666666667</ele><time>2026-04-19T08:17:55.006Z</time></trkpt><trkpt lat="41.81645275316635" lon="14.157702724994953"><ele>759.5</ele><time>2026-04-19T08:17:56.006Z</time></trkpt><trkpt lat="41.816414782929265" lon="14.157613821051902"><ele>759.3333333333334</ele><time>2026-04-19T08:17:57.006Z</time></trkpt><trkpt lat="41.816382566873244" lon="14.157538237689495"><ele>759.1666666666666</ele><time>2026-04-19T08:17:58.006Z</time></trkpt><trkpt lat="41.81639827792666" lon="14.157443166589967"><ele>759.0</ele><time>2026-04-19T08:18:00.006Z</time></trkpt><trkpt lat="41.81645564227391" lon="14.157387221945244"><ele>759.0</ele><time>2026-04-19T08:18:02.006Z</time></trkpt><trkpt lat="41.816521952006966" lon="14.157385315384573"><ele>759.0</ele><time>2026-04-19T08:18:03.006Z</time></trkpt><trkpt lat="41.81660336954662" lon="14.157370322542612"><ele>759.0</ele><time>2026-04-19T08:18:04.006Z</time></trkpt><trkpt lat="41.81670046909441" lon="14.157330046729111"><ele>759.0</ele><time>2026-04-19T08:18:05.006Z</time></trkpt><trkpt lat="41.816791340387695" lon="14.157285178847932"><ele>759.0</ele><time>2026-04-19T08:18:06.006Z</time></trkpt><trkpt lat="41.81687140578106" lon="14.15723011459203"><ele>759.0</ele><time>2026-04-19T08:18:07.006Z</time></trkpt><trkpt lat="41.8169444354583" lon="14.157169673632811"><ele>759.2</ele><time>2026-04-19T08:18:08.006Z</time></trkpt><trkpt lat="41.81703415465147" lon="14.157098081627314"><ele>759.4000000000001</ele><time>2026-04-19T08:18:09.006Z</time></trkpt><trkpt lat="41.817124471596905" lon="14.157041085723579"><ele>759.6</ele><time>2026-04-19T08:18:10.006Z</time></trkpt><trkpt lat="41.81722649808985" lon="14.156977365157346"><ele>759.8</ele><time>2026-04-19T08:18:11.006Z</time></trkpt><trkpt lat="41.81731556799559" lon="14.156906255947582"><ele>760.0</ele><time>2026-04-19T08:18:12.006Z</time></trkpt><trkpt lat="41.81739680135526" lon="14.156840990350242"><ele>760.0</ele><time>2026-04-19T08:18:13.006Z</time></trkpt><trkpt lat="41.81746375251613" lon="14.156772188596637"><ele>760.0</ele><time>2026-04-19T08:18:14.006Z</time></trkpt><trkpt lat="41.817511834821694" lon="14.156706705840596"><ele>760.0</ele><time>2026-04-19T08:18:15.006Z</time></trkpt><trkpt lat="41.817551278673335" lon="14.156561616193839"><ele>760.0</ele><time>2026-04-19T08:18:17.006Z</time></trkpt><trkpt lat="41.817504044705224" lon="14.156441867514886"><ele>760.0</ele><time>2026-04-19T08:18:18.006Z</time></trkpt><trkpt lat="41.81746702176841" lon="14.156323039587798"><ele>760.75</ele><time>2026-04-19T08:18:19.006Z</time></trkpt><trkpt lat="41.81739155347151" lon="14.156197018558213"><ele>761.5</ele><time>2026-04-19T08:18:20.006Z</time></trkpt><trkpt lat="41.817341675486716" lon="14.156038156684254"><ele>762.25</ele><time>2026-04-19T08:18:21.006Z</time></trkpt><trkpt lat="41.81729096311949" lon="14.155851202118155"><ele>763.0</ele><time>2026-04-19T08:18:22.006Z</time></trkpt><trkpt lat="41.817264859888596" lon="14.155703345915756"><ele>764.1666666666667</ele><time>2026-04-19T08:18:23.006Z</time></trkpt><trkpt lat="41.81726890827877" lon="14.155598179882036"><ele>765.3333333333334</ele><time>2026-04-19T08:18:24.006Z</time></trkpt><trkpt lat="41.81730862829334" lon="14.15550825081035"><ele>766.5</ele><time>2026-04-19T08:18:25.006Z</time></trkpt><trkpt lat="41.81738171442916" lon="14.155453407434639"><ele>767.6666666666667</ele><time>2026-04-19T08:18:26.006Z</time></trkpt><trkpt lat="41.81747366453581" lon="14.155405367772842"><ele>768.8333333333334</ele><time>2026-04-19T08:18:27.006Z</time></trkpt><trkpt lat="41.81753656697129" lon="14.15539691261198"><ele>770.0</ele><time>2026-04-19T08:18:28.006Z</time></trkpt><trkpt lat="41.81760218023925" lon="14.15529794645335"><ele>770.0</ele><time>2026-04-19T08:18:30.006Z</time></trkpt><trkpt lat="41.81762673208501" lon="14.155208039681957"><ele>770.0</ele><time>2026-04-19T08:18:31.006Z</time></trkpt><trkpt lat="41.81763502811534" lon="14.155115799302544"><ele>770.0</ele><time>2026-04-19T08:18:32.006Z</time></trkpt><trkpt lat="41.81765188411242" lon="14.154954920491871"><ele>770.0</ele><time>2026-04-19T08:18:34.006Z</time></trkpt><trkpt lat="41.8176436770447" lon="14.154820412060324"><ele>770.0</ele><time>2026-04-19T08:18:36.006Z</time></trkpt><trkpt lat="41.81763013213671" lon="14.154699792373675"><ele>772.4</ele><time>2026-04-19T08:18:41.007Z</time></trkpt><trkpt lat="41.81775075491518" lon="14.154702742281414"><ele>774.8</ele><time>2026-04-19T08:20:41.005Z</time></trkpt><trkpt lat="41.81783585793212" lon="14.154746133720435"><ele>777.2</ele><time>2026-04-19T08:20:42.005Z</time></trkpt><trkpt lat="41.81792470704215" lon="14.154775749327428"><ele>779.6</ele><time>2026-04-19T08:20:43.005Z</time></trkpt><trkpt lat="41.81804110782145" lon="14.154779892034925"><ele>782.0</ele><time>2026-04-19T08:20:44.005Z</time></trkpt><trkpt lat="41.81816832318671" lon="14.154758946546584"><ele>782.0</ele><time>2026-04-19T08:20:45.005Z</time></trkpt><trkpt lat="41.818294124603256" lon="14.154725510696478"><ele>782.0</ele><time>2026-04-19T08:20:46.007Z</time></trkpt><trkpt lat="41.818393797589714" lon="14.15468308463486"><ele>782.0</ele><time>2026-04-19T08:20:47.007Z</time></trkpt><trkpt lat="41.818459934180375" lon="14.154667501934334"><ele>782.0</ele><time>2026-04-19T08:20:48.007Z</time></trkpt><trkpt lat="41.81852600052076" lon="14.154684203482368"><ele>782.0</ele><time>2026-04-19T08:20:49.007Z</time></trkpt><trkpt lat="41.81862287044233" lon="14.154742112293123"><ele>783.5</ele><time>2026-04-19T08:20:50.007Z</time></trkpt><trkpt lat="41.81874869894704" lon="14.154824844942544"><ele>785.0</ele><time>2026-04-19T08:20:51.007Z</time></trkpt><trkpt lat="41.818874332656044" lon="14.154876763689808"><ele>786.5</ele><time>2026-04-19T08:20:52.007Z</time></trkpt><trkpt lat="41.81897022457436" lon="14.154876589019258"><ele>788.0</ele><time>2026-04-19T08:20:53.007Z</time></trkpt><trkpt lat="41.81909727512454" lon="14.154835743172736"><ele>788.0</ele><time>2026-04-19T08:20:54.007Z</time></trkpt><trkpt lat="41.819231958067974" lon="14.15478372375899"><ele>788.0</ele><time>2026-04-19T08:20:55.007Z</time></trkpt><trkpt lat="41.819355504955666" lon="14.154727118228015"><ele>788.0</ele><time>2026-04-19T08:20:56.006Z</time></trkpt><trkpt lat="41.81945279723253" lon="14.154697683132962"><ele>788.0</ele><time>2026-04-19T08:20:57.006Z</time></trkpt><trkpt lat="41.8195498847775" lon="14.154715642964563"><ele>790.25</ele><time>2026-04-19T08:20:58.007Z</time></trkpt><trkpt lat="41.81967520200203" lon="14.1547429140695"><ele>792.5</ele><time>2026-04-19T08:20:59.007Z</time></trkpt><trkpt lat="41.819813875653274" lon="14.154779513051462"><ele>794.75</ele><time>2026-04-19T08:21:00.007Z</time></trkpt><trkpt lat="41.8199271667775" lon="14.15479094420845"><ele>797.0</ele><time>2026-04-19T08:21:01.007Z</time></trkpt><trkpt lat="41.82000501619257" lon="14.15482664949905"><ele>801.25</ele><time>2026-04-19T08:21:02.007Z</time></trkpt><trkpt lat="41.82007346343371" lon="14.15489325421779"><ele>805.5</ele><time>2026-04-19T08:21:03.007Z</time></trkpt><trkpt lat="41.820188649443296" lon="14.154967162441515"><ele>809.75</ele><time>2026-04-19T08:21:04.007Z</time></trkpt><trkpt lat="41.820291747925516" lon="14.155079685975847"><ele>814.0</ele><time>2026-04-19T08:21:05.007Z</time></trkpt><trkpt lat="41.82038056509039" lon="14.155171008224954"><ele>814.9999999999999</ele><time>2026-04-19T08:21:06.007Z</time></trkpt><trkpt lat="41.82044291488849" lon="14.155210218879088"><ele>816.0</ele><time>2026-04-19T08:21:07.007Z</time></trkpt><trkpt lat="41.82050559381916" lon="14.155249475244046"><ele>817.0</ele><time>2026-04-19T08:21:09.007Z</time></trkpt><trkpt lat="41.82040123619569" lon="14.155369024228943"><ele>818.0</ele><time>2026-04-19T08:21:11.007Z</time></trkpt><trkpt lat="41.82036560262377" lon="14.15544966572042"><ele>818.9999999999999</ele><time>2026-04-19T08:21:12.007Z</time></trkpt><trkpt lat="41.82038316411788" lon="14.155557326289351"><ele>820.0</ele><time>2026-04-19T08:21:13.007Z</time></trkpt><trkpt lat="41.8204429683449" lon="14.155671344124572"><ele>821.2</ele><time>2026-04-19T08:21:14.007Z</time></trkpt><trkpt lat="41.82052629354204" lon="14.155761063752523"><ele>822.4</ele><time>2026-04-19T08:21:15.007Z</time></trkpt><trkpt lat="41.82062931336302" lon="14.155812117190273"><ele>823.5999999999999</ele><time>2026-04-19T08:21:16.007Z</time></trkpt><trkpt lat="41.82075018080113" lon="14.155826999587259"><ele>824.8</ele><time>2026-04-19T08:21:17.007Z</time></trkpt><trkpt lat="41.82085464746042" lon="14.155827431710572"><ele>826.0</ele><time>2026-04-19T08:21:18.007Z</time></trkpt><trkpt lat="41.82092936368957" lon="14.15590096818558"><ele>825.25</ele><time>2026-04-19T08:21:19.007Z</time></trkpt><trkpt lat="41.821016843807335" lon="14.156035086658473"><ele>824.5</ele><time>2026-04-19T08:21:20.007Z</time></trkpt><trkpt lat="41.82111588196179" lon="14.156144481295813"><ele>823.75</ele><time>2026-04-19T08:21:21.007Z</time></trkpt><trkpt lat="41.82116846730512" lon="14.156208249877004"><ele>823.0</ele><time>2026-04-19T08:21:22.007Z</time></trkpt><trkpt lat="41.821304090572525" lon="14.156298991566144"><ele>823.0</ele><time>2026-04-19T08:21:24.007Z</time></trkpt><trkpt lat="41.82140609478266" lon="14.156355452178715"><ele>823.0</ele><time>2026-04-19T08:21:25.007Z</time></trkpt><trkpt lat="41.82150847842551" lon="14.156417057686717"><ele>823.0</ele><time>2026-04-19T08:21:26.007Z</time></trkpt><trkpt lat="41.82160863941968" lon="14.156497972135213"><ele>823.0</ele><time>2026-04-19T08:21:27.007Z</time></trkpt><trkpt lat="41.82171311381867" lon="14.156551669317189"><ele>824.5999999999999</ele><time>2026-04-19T08:21:28.007Z</time></trkpt><trkpt lat="41.82180546484886" lon="14.156600982679464"><ele>826.1999999999999</ele><time>2026-04-19T08:21:29.007Z</time></trkpt><trkpt lat="41.82187590433754" lon="14.156667509303084"><ele>827.8</ele><time>2026-04-19T08:21:30.007Z</time></trkpt><trkpt lat="41.82194431248119" lon="14.1567475606111"><ele>829.4</ele><time>2026-04-19T08:21:31.007Z</time></trkpt><trkpt lat="41.82201957584246" lon="14.156859981820569"><ele>831.0</ele><time>2026-04-19T08:21:32.007Z</time></trkpt><trkpt lat="41.8221120783127" lon="14.156961793382779"><ele>833.0</ele><time>2026-04-19T08:21:33.007Z</time></trkpt><trkpt lat="41.82223217402059" lon="14.157042338092076"><ele>835.0</ele><time>2026-04-19T08:21:34.007Z</time></trkpt><trkpt lat="41.822343533870225" lon="14.157119360622087"><ele>837.0</ele><time>2026-04-19T08:21:35.007Z</time></trkpt><trkpt lat="41.82242493331746" lon="14.157186357052133"><ele>839.0</ele><time>2026-04-19T08:21:36.007Z</time></trkpt><trkpt lat="41.82249166737747" lon="14.157231060758837"><ele>841.0</ele><time>2026-04-19T08:21:37.007Z</time></trkpt><trkpt lat="41.82260067206941" lon="14.157208649132148"><ele>841.0</ele><time>2026-04-19T08:21:39.007Z</time></trkpt><trkpt lat="41.822632312273" lon="14.157287387442045"><ele>841.0</ele><time>2026-04-19T08:21:40.007Z</time></trkpt><trkpt lat="41.822760015636824" lon="14.1574730604511"><ele>841.0</ele><time>2026-04-19T08:21:42.007Z</time></trkpt><trkpt lat="41.82286435364172" lon="14.157585438068011"><ele>841.0</ele><time>2026-04-19T08:21:43.007Z</time></trkpt><trkpt lat="41.82298226614896" lon="14.157643774826871"><ele>845.75</ele><time>2026-04-19T08:21:44.007Z</time></trkpt><trkpt lat="41.82309653146198" lon="14.157688325823141"><ele>850.5</ele><time>2026-04-19T08:21:45.007Z</time></trkpt><trkpt lat="41.82320650847995" lon="14.157738755703896"><ele>855.25</ele><time>2026-04-19T08:21:46.007Z</time></trkpt><trkpt lat="41.82332448164796" lon="14.157787572631378"><ele>860.0</ele><time>2026-04-19T08:21:47.007Z</time></trkpt><trkpt lat="41.82343695770567" lon="14.157832191687461"><ele>863.0</ele><time>2026-04-19T08:21:48.007Z</time></trkpt><trkpt lat="41.82352926274198" lon="14.157863964896324"><ele>866.0</ele><time>2026-04-19T08:21:49.007Z</time></trkpt><trkpt lat="41.8236267556026" lon="14.157923588851634"><ele>869.0</ele><time>2026-04-19T08:21:50.007Z</time></trkpt><trkpt lat="41.823716321206284" lon="14.158008411490437"><ele>872.0</ele><time>2026-04-19T08:21:51.007Z</time></trkpt><trkpt lat="41.82378005542644" lon="14.158086055594508"><ele>875.0</ele><time>2026-04-19T08:21:52.007Z</time></trkpt><trkpt lat="41.82381591869406" lon="14.15816811846535"><ele>875.8</ele><time>2026-04-19T08:21:53.007Z</time></trkpt><trkpt lat="41.82383856960604" lon="14.158258121075903"><ele>876.6</ele><time>2026-04-19T08:21:54.007Z</time></trkpt><trkpt lat="41.823849740144645" lon="14.15839701540132"><ele>877.4000000000001</ele><time>2026-04-19T08:21:55.007Z</time></trkpt><trkpt lat="41.82384391939487" lon="14.158562495878517"><ele>878.2</ele><time>2026-04-19T08:21:56.007Z</time></trkpt><trkpt lat="41.8238093155874" lon="14.158699228859692"><ele>879.0</ele><time>2026-04-19T08:21:57.007Z</time></trkpt><trkpt lat="41.82375193459063" lon="14.15881038955797"><ele>879.0</ele><time>2026-04-19T08:21:59.007Z</time></trkpt><trkpt lat="41.82367735927507" lon="14.158841613422668"><ele>879.0</ele><time>2026-04-19T08:22:00.007Z</time></trkpt><trkpt lat="41.82362795131171" lon="14.158918811379698"><ele>879.0</ele><time>2026-04-19T08:22:02.007Z</time></trkpt><trkpt lat="41.82367477743869" lon="14.159008396573132"><ele>879.0</ele><time>2026-04-19T08:22:03.007Z</time></trkpt><trkpt lat="41.82374902587912" lon="14.159101421176553"><ele>879.0</ele><time>2026-04-19T08:22:04.007Z</time></trkpt><trkpt lat="41.823801585232914" lon="14.159174144974365"><ele>879.0</ele><time>2026-04-19T08:22:05.007Z</time></trkpt><trkpt lat="41.82385626310177" lon="14.159218380014973"><ele>878.6</ele><time>2026-04-19T08:22:06.007Z</time></trkpt><trkpt lat="41.823908126610355" lon="14.15926923630216"><ele>878.2</ele><time>2026-04-19T08:22:07.007Z</time></trkpt><trkpt lat="41.82392819697937" lon="14.159367701665545"><ele>877.8000000000001</ele><time>2026-04-19T08:22:08.007Z</time></trkpt><trkpt lat="41.82392914158571" lon="14.159537277002768"><ele>877.4000000000001</ele><time>2026-04-19T08:22:09.007Z</time></trkpt><trkpt lat="41.82388759407486" lon="14.159712133198404"><ele>877.0</ele><time>2026-04-19T08:22:10.007Z</time></trkpt><trkpt lat="41.823911568606285" lon="14.159810586319658"><ele>874.9999999999999</ele><time>2026-04-19T08:22:11.007Z</time></trkpt><trkpt lat="41.82394847117558" lon="14.1598867540624"><ele>873.0</ele><time>2026-04-19T08:22:12.007Z</time></trkpt><trkpt lat="41.82399841695981" lon="14.1599739398479"><ele>871.0</ele><time>2026-04-19T08:22:13.007Z</time></trkpt><trkpt lat="41.82407166552441" lon="14.160024203758427"><ele>869.0</ele><time>2026-04-19T08:22:14.007Z</time></trkpt><trkpt lat="41.82409798941113" lon="14.160109262456855"><ele>866.9999999999999</ele><time>2026-04-19T08:22:15.007Z</time></trkpt><trkpt lat="41.824106225969174" lon="14.160254815040771"><ele>865.0</ele><time>2026-04-19T08:22:16.007Z</time></trkpt><trkpt lat="41.824133222138194" lon="14.160427867077166"><ele>865.0</ele><time>2026-04-19T08:22:17.007Z</time></trkpt><trkpt lat="41.8241299258381" lon="14.16059725753086"><ele>865.0</ele><time>2026-04-19T08:22:18.007Z</time></trkpt><trkpt lat="41.82409211612028" lon="14.160761886874436"><ele>865.0</ele><time>2026-04-19T08:22:19.007Z</time></trkpt><trkpt lat="41.82403927993392" lon="14.160877060202075"><ele>865.0</ele><time>2026-04-19T08:22:20.007Z</time></trkpt><trkpt lat="41.82400983108048" lon="14.161012249465612"><ele>864.8</ele><time>2026-04-19T08:22:21.007Z</time></trkpt><trkpt lat="41.8240279896335" lon="14.161176050363572"><ele>864.6</ele><time>2026-04-19T08:22:22.007Z</time></trkpt><trkpt lat="41.82404472636237" lon="14.161326466610877"><ele>864.4000000000001</ele><time>2026-04-19T08:22:23.007Z</time></trkpt><trkpt lat="41.82403725732619" lon="14.161437766558066"><ele>864.2</ele><time>2026-04-19T08:22:24.007Z</time></trkpt><trkpt lat="41.82398891486217" lon="14.161543134675135"><ele>864.0</ele><time>2026-04-19T08:22:25.007Z</time></trkpt><trkpt lat="41.82395349941107" lon="14.16166886424878"><ele>863.3333333333334</ele><time>2026-04-19T08:22:26.007Z</time></trkpt><trkpt lat="41.82391867560631" lon="14.161763300599825"><ele>862.6666666666667</ele><time>2026-04-19T08:22:27.007Z</time></trkpt><trkpt lat="41.82385429994008" lon="14.161883991711008"><ele>862.0</ele><time>2026-04-19T08:22:29.007Z</time></trkpt><trkpt lat="41.823803201551534" lon="14.161944078772285"><ele>861.3333333333334</ele><time>2026-04-19T08:22:30.007Z</time></trkpt><trkpt lat="41.823726063764916" lon="14.161992905760798"><ele>860.6666666666667</ele><time>2026-04-19T08:22:31.007Z</time></trkpt><trkpt lat="41.82366277144774" lon="14.162037966993969"><ele>860.0</ele><time>2026-04-19T08:22:32.007Z</time></trkpt><trkpt lat="41.82359283130345" lon="14.162078158117275"><ele>860.0</ele><time>2026-04-19T08:22:33.007Z</time></trkpt><trkpt lat="41.823513952212224" lon="14.162130680661775"><ele>860.0</ele><time>2026-04-19T08:22:34.007Z</time></trkpt><trkpt lat="41.823447054730806" lon="14.162180660840253"><ele>860.0</ele><time>2026-04-19T08:22:35.007Z</time></trkpt><trkpt lat="41.82338920793634" lon="14.162228928267623"><ele>860.0</ele><time>2026-04-19T08:22:36.007Z</time></trkpt><trkpt lat="41.823293797461524" lon="14.162296483127282"><ele>860.0</ele><time>2026-04-19T08:22:37.007Z</time></trkpt><trkpt lat="41.82319116575371" lon="14.162356009336037"><ele>856.2</ele><time>2026-04-19T08:22:38.007Z</time></trkpt><trkpt lat="41.82310028065285" lon="14.162431666285851"><ele>852.4</ele><time>2026-04-19T08:22:39.007Z</time></trkpt><trkpt lat="41.82300353237995" lon="14.162537541976057"><ele>848.5999999999999</ele><time>2026-04-19T08:22:40.007Z</time></trkpt><trkpt lat="41.82293235520538" lon="14.162662054532602"><ele>844.8</ele><time>2026-04-19T08:22:41.007Z</time></trkpt><trkpt lat="41.822860243280545" lon="14.162755835525916"><ele>841.0</ele><time>2026-04-19T08:22:42.007Z</time></trkpt><trkpt lat="41.82281621363867" lon="14.162841499059162"><ele>841.0</ele><time>2026-04-19T08:22:43.006Z</time></trkpt><trkpt lat="41.82282152631952" lon="14.16296682757697"><ele>841.0</ele><time>2026-04-19T08:22:44.006Z</time></trkpt><trkpt lat="41.82282475542561" lon="14.163143375363742"><ele>841.0</ele><time>2026-04-19T08:22:45.006Z</time></trkpt><trkpt lat="41.82281785608963" lon="14.163337012217902"><ele>841.0</ele><time>2026-04-19T08:22:46.006Z</time></trkpt><trkpt lat="41.82280446670266" lon="14.163569673837772"><ele>837.0</ele><time>2026-04-19T08:22:47.006Z</time></trkpt><trkpt lat="41.822795087903515" lon="14.163808571876688"><ele>833.0</ele><time>2026-04-19T08:22:48.006Z</time></trkpt><trkpt lat="41.82276306990609" lon="14.164025614991832"><ele>829.0</ele><time>2026-04-19T08:22:49.006Z</time></trkpt><trkpt lat="41.82274915559081" lon="14.164211876056086"><ele>829.5</ele><time>2026-04-19T08:22:50.006Z</time></trkpt><trkpt lat="41.82272281944812" lon="14.164333151226993"><ele>830.0</ele><time>2026-04-19T08:22:51.006Z</time></trkpt><trkpt lat="41.8226756063323" lon="14.164489609185642"><ele>830.5</ele><time>2026-04-19T08:22:53.008Z</time></trkpt><trkpt lat="41.82263391217263" lon="14.164616366793078"><ele>831.0</ele><time>2026-04-19T08:22:55.007Z</time></trkpt><trkpt lat="41.822647177519784" lon="14.164906577888791"><ele>831.0</ele><time>2026-04-19T08:23:43.006Z</time></trkpt><trkpt lat="41.82263300456417" lon="14.165023819263382"><ele>831.0</ele><time>2026-04-19T08:23:44.006Z</time></trkpt><trkpt lat="41.822617253607426" lon="14.165130838576252"><ele>831.0</ele><time>2026-04-19T08:23:45.006Z</time></trkpt><trkpt lat="41.8226225246572" lon="14.165245060024422"><ele>831.0</ele><time>2026-04-19T08:23:46.006Z</time></trkpt><trkpt lat="41.822640913581274" lon="14.165369965503666"><ele>831.0</ele><time>2026-04-19T08:23:47.006Z</time></trkpt><trkpt lat="41.822670678826576" lon="14.165496974211084"><ele>831.0</ele><time>2026-04-19T08:23:48.006Z</time></trkpt><trkpt lat="41.82270869645276" lon="14.165607296167078"><ele>827.1666666666666</ele><time>2026-04-19T08:23:49.006Z</time></trkpt><trkpt lat="41.822772989663505" lon="14.165699825597601"><ele>823.3333333333333</ele><time>2026-04-19T08:23:50.006Z</time></trkpt><trkpt lat="41.82282917598896" lon="14.165773629057451"><ele>819.5</ele><time>2026-04-19T08:23:51.006Z</time></trkpt><trkpt lat="41.82288747685125" lon="14.165816796469697"><ele>815.6666666666666</ele><time>2026-04-19T08:23:53.006Z</time></trkpt><trkpt lat="41.82285003281251" lon="14.165944728904307"><ele>811.8333333333333</ele><time>2026-04-19T08:23:55.006Z</time></trkpt><trkpt lat="41.822811716116334" lon="14.166032939911881"><ele>808.0</ele><time>2026-04-19T08:23:56.006Z</time></trkpt><trkpt lat="41.822765519342596" lon="14.16614211947435"><ele>808.0</ele><time>2026-04-19T08:23:57.006Z</time></trkpt><trkpt lat="41.82271900235234" lon="14.166252947702654"><ele>808.0</ele><time>2026-04-19T08:23:58.006Z</time></trkpt><trkpt lat="41.822687044559736" lon="14.166351311404792"><ele>808.0</ele><time>2026-04-19T08:24:00.006Z</time></trkpt><trkpt lat="41.82279142303921" lon="14.166428229709567"><ele>808.0</ele><time>2026-04-19T08:24:02.006Z</time></trkpt><trkpt lat="41.822875968015396" lon="14.166481797146286"><ele>808.0</ele><time>2026-04-19T08:24:03.006Z</time></trkpt><trkpt lat="41.82299097360667" lon="14.166449441255823"><ele>808.0</ele><time>2026-04-19T08:24:05.006Z</time></trkpt><trkpt lat="41.82309411201415" lon="14.166339691310185"><ele>808.0</ele><time>2026-04-19T08:24:06.006Z</time></trkpt><trkpt lat="41.82320310361455" lon="14.166192728948017"><ele>808.0</ele><time>2026-04-19T08:24:07.006Z</time></trkpt><trkpt lat="41.823278151439915" lon="14.166101960921896"><ele>808.0</ele><time>2026-04-19T08:24:08.006Z</time></trkpt><trkpt lat="41.82333334546761" lon="14.166035335606209"><ele>808.0</ele><time>2026-04-19T08:24:10.006Z</time></trkpt><trkpt lat="41.82340718645294" lon="14.166150491566892"><ele>808.0</ele><time>2026-04-19T08:24:12.006Z</time></trkpt><trkpt lat="41.8234831515894" lon="14.166235562418583"><ele>808.0</ele><time>2026-04-19T08:24:13.006Z</time></trkpt><trkpt lat="41.82352497513102" lon="14.16633911786982"><ele>808.0</ele><time>2026-04-19T08:24:14.006Z</time></trkpt><trkpt lat="41.823562861307195" lon="14.166490268495295"><ele>808.0</ele><time>2026-04-19T08:24:15.006Z</time></trkpt><trkpt lat="41.823602589169134" lon="14.166580856372194"><ele>807.2</ele><time>2026-04-19T08:24:16.006Z</time></trkpt><trkpt lat="41.8235841521522" lon="14.166695991965687"><ele>806.4</ele><time>2026-04-19T08:24:18.006Z</time></trkpt><trkpt lat="41.82355446243213" lon="14.166784568046994"><ele>805.6</ele><time>2026-04-19T08:24:19.006Z</time></trkpt><trkpt lat="41.82349784355694" lon="14.166892383833524"><ele>804.8000000000001</ele><time>2026-04-19T08:24:20.006Z</time></trkpt><trkpt lat="41.82342797119708" lon="14.16700487257615"><ele>804.0</ele><time>2026-04-19T08:24:21.006Z</time></trkpt><trkpt lat="41.82329968026006" lon="14.167137269089677"><ele>804.0</ele><time>2026-04-19T08:24:22.006Z</time></trkpt><trkpt lat="41.82316018410149" lon="14.167259072863162"><ele>804.0</ele><time>2026-04-19T08:24:23.006Z</time></trkpt><trkpt lat="41.82304023176457" lon="14.167372966998505"><ele>804.0</ele><time>2026-04-19T08:24:24.006Z</time></trkpt><trkpt lat="41.82294674120833" lon="14.16746414784659"><ele>804.0</ele><time>2026-04-19T08:24:25.006Z</time></trkpt><trkpt lat="41.8228877838028" lon="14.167546025293506"><ele>803.4000000000001</ele><time>2026-04-19T08:24:26.006Z</time></trkpt><trkpt lat="41.82283809809738" lon="14.167641873379424"><ele>802.8</ele><time>2026-04-19T08:24:28.006Z</time></trkpt><trkpt lat="41.82277625629308" lon="14.167724476414778"><ele>802.2</ele><time>2026-04-19T08:24:30.006Z</time></trkpt><trkpt lat="41.82270956385374" lon="14.167816068920711"><ele>801.5999999999999</ele><time>2026-04-19T08:24:31.006Z</time></trkpt><trkpt lat="41.822640059935935" lon="14.167919404535375"><ele>801.0</ele><time>2026-04-19T08:24:32.006Z</time></trkpt><trkpt lat="41.82255893848851" lon="14.168001515226731"><ele>800.5</ele><time>2026-04-19T08:24:33.006Z</time></trkpt><trkpt lat="41.82245568195921" lon="14.168059332617045"><ele>800.0</ele><time>2026-04-19T08:24:34.006Z</time></trkpt><trkpt lat="41.822385882476084" lon="14.16811440639371"><ele>799.5</ele><time>2026-04-19T08:24:35.006Z</time></trkpt><trkpt lat="41.82222149231397" lon="14.168147332846067"><ele>799.0</ele><time>2026-04-19T08:24:37.006Z</time></trkpt><trkpt lat="41.82207490658841" lon="14.168206023146476"><ele>797.5</ele><time>2026-04-19T08:24:38.006Z</time></trkpt><trkpt lat="41.821958701736165" lon="14.16826577852694"><ele>796.0</ele><time>2026-04-19T08:24:39.006Z</time></trkpt><trkpt lat="41.82188991973377" lon="14.168349014156334"><ele>794.5</ele><time>2026-04-19T08:24:40.006Z</time></trkpt><trkpt lat="41.82182341950404" lon="14.16848344793836"><ele>793.0</ele><time>2026-04-19T08:24:41.006Z</time></trkpt><trkpt lat="41.821783071873796" lon="14.168625722874665"><ele>792.5999999999999</ele><time>2026-04-19T08:24:42.006Z</time></trkpt><trkpt lat="41.82173045507143" lon="14.168773614131256"><ele>792.1999999999999</ele><time>2026-04-19T08:24:43.006Z</time></trkpt><trkpt lat="41.82165849596087" lon="14.168877143679392"><ele>791.8</ele><time>2026-04-19T08:24:44.006Z</time></trkpt><trkpt lat="41.82157582241928" lon="14.168942625944863"><ele>791.4</ele><time>2026-04-19T08:24:45.006Z</time></trkpt><trkpt lat="41.821506812474254" lon="14.168989922637682"><ele>791.0</ele><time>2026-04-19T08:24:46.006Z</time></trkpt><trkpt lat="41.82145580809072" lon="14.169082989701694"><ele>789.8</ele><time>2026-04-19T08:24:47.006Z</time></trkpt><trkpt lat="41.8214055591456" lon="14.169228655456354"><ele>788.5999999999999</ele><time>2026-04-19T08:24:48.006Z</time></trkpt><trkpt lat="41.82136610630457" lon="14.169382506069745"><ele>787.4</ele><time>2026-04-19T08:24:49.006Z</time></trkpt><trkpt lat="41.8213292221358" lon="14.169505021713363"><ele>786.2</ele><time>2026-04-19T08:24:50.006Z</time></trkpt><trkpt lat="41.821313907898066" lon="14.169616405206822"><ele>785.0</ele><time>2026-04-19T08:24:51.006Z</time></trkpt><trkpt lat="41.82131524522592" lon="14.169735145645394"><ele>783.25</ele><time>2026-04-19T08:24:52.006Z</time></trkpt><trkpt lat="41.821306536999245" lon="14.169893317769636"><ele>781.5</ele><time>2026-04-19T08:24:53.006Z</time></trkpt><trkpt lat="41.8213110968454" lon="14.170049692327432"><ele>779.75</ele><time>2026-04-19T08:24:54.006Z</time></trkpt><trkpt lat="41.82133298958249" lon="14.170212356569873"><ele>778.0</ele><time>2026-04-19T08:24:55.006Z</time></trkpt><trkpt lat="41.8213225669191" lon="14.170337073053231"><ele>778.0</ele><time>2026-04-19T08:24:56.006Z</time></trkpt><trkpt lat="41.82131338202044" lon="14.170478902534251"><ele>778.0</ele><time>2026-04-19T08:24:57.006Z</time></trkpt><trkpt lat="41.82130664929375" lon="14.170628088705547"><ele>778.0</ele><time>2026-04-19T08:24:58.007Z</time></trkpt><trkpt lat="41.821350397288576" lon="14.170799461995223"><ele>778.0</ele><time>2026-04-19T08:24:59.008Z</time></trkpt><trkpt lat="41.821391906768504" lon="14.170962805047495"><ele>777.2</ele><time>2026-04-19T08:25:00.008Z</time></trkpt><trkpt lat="41.82142860904699" lon="14.171108405977428"><ele>776.4</ele><time>2026-04-19T08:25:01.008Z</time></trkpt><trkpt lat="41.8214554064385" lon="14.171217459147691"><ele>775.6</ele><time>2026-04-19T08:25:02.008Z</time></trkpt><trkpt lat="41.82144710012319" lon="14.171335134327181"><ele>774.8000000000001</ele><time>2026-04-19T08:25:03.008Z</time></trkpt><trkpt lat="41.82143580836759" lon="14.171487548950278"><ele>774.0</ele><time>2026-04-19T08:25:04.008Z</time></trkpt><trkpt lat="41.82142200988983" lon="14.171620895009518"><ele>773.5</ele><time>2026-04-19T08:25:05.008Z</time></trkpt><trkpt lat="41.821420518396074" lon="14.1717492486358"><ele>773.0</ele><time>2026-04-19T08:25:06.008Z</time></trkpt><trkpt lat="41.82144949909624" lon="14.171901428672355"><ele>772.5</ele><time>2026-04-19T08:25:07.007Z</time></trkpt><trkpt lat="41.821483711831924" lon="14.172082354326566"><ele>772.0</ele><time>2026-04-19T08:25:08.007Z</time></trkpt><trkpt lat="41.82150108202423" lon="14.172221960538248"><ele>772.0</ele><time>2026-04-19T08:25:09.007Z</time></trkpt><trkpt lat="41.821500365083786" lon="14.172356014726802"><ele>772.0</ele><time>2026-04-19T08:25:10.007Z</time></trkpt><trkpt lat="41.82149082287368" lon="14.172480824276855"><ele>772.0</ele><time>2026-04-19T08:25:11.008Z</time></trkpt><trkpt lat="41.821456607269155" lon="14.17257156394965"><ele>772.0</ele><time>2026-04-19T08:25:12.008Z</time></trkpt><trkpt lat="41.8213700164757" lon="14.172680927860922"><ele>772.0</ele><time>2026-04-19T08:25:13.008Z</time></trkpt><trkpt lat="41.821265383876394" lon="14.172810267972293"><ele>770.6</ele><time>2026-04-19T08:25:14.008Z</time></trkpt><trkpt lat="41.82120714939592" lon="14.172962445737562"><ele>769.2</ele><time>2026-04-19T08:25:15.008Z</time></trkpt><trkpt lat="41.82115258199276" lon="14.173111415793402"><ele>767.8</ele><time>2026-04-19T08:25:16.008Z</time></trkpt><trkpt lat="41.82111697533717" lon="14.173240238660439"><ele>766.4</ele><time>2026-04-19T08:25:17.008Z</time></trkpt><trkpt lat="41.82108094649291" lon="14.173358954521616"><ele>765.0</ele><time>2026-04-19T08:25:18.008Z</time></trkpt><trkpt lat="41.82103582307785" lon="14.173456211243419"><ele>764.0</ele><time>2026-04-19T08:25:20.008Z</time></trkpt><trkpt lat="41.82109850696108" lon="14.173508438510357"><ele>763.0</ele><time>2026-04-19T08:25:23.008Z</time></trkpt><trkpt lat="41.82116151207346" lon="14.17345648126167"><ele>762.0</ele><time>2026-04-19T08:26:33.008Z</time></trkpt><trkpt lat="41.82123235782612" lon="14.173382792783324"><ele>761.0</ele><time>2026-04-19T08:26:35.008Z</time></trkpt><trkpt lat="41.8212911969072" lon="14.173334930231615"><ele>760.0</ele><time>2026-04-19T08:26:36.008Z</time></trkpt><trkpt lat="41.821411055183674" lon="14.173359179528534"><ele>759.0</ele><time>2026-04-19T08:26:38.008Z</time></trkpt><trkpt lat="41.821502121629564" lon="14.173433994036179"><ele>759.0</ele><time>2026-04-19T08:26:39.008Z</time></trkpt><trkpt lat="41.82158508399842" lon="14.173505016985356"><ele>759.0</ele><time>2026-04-19T08:26:40.008Z</time></trkpt><trkpt lat="41.82166150846824" lon="14.173579294496408"><ele>759.0</ele><time>2026-04-19T08:26:41.008Z</time></trkpt><trkpt lat="41.821737087135446" lon="14.173614460770885"><ele>759.0</ele><time>2026-04-19T08:26:42.007Z</time></trkpt><trkpt lat="41.82180442043357" lon="14.173646473552513"><ele>759.0</ele><time>2026-04-19T08:26:43.007Z</time></trkpt><trkpt lat="41.821863559370165" lon="14.17369332197781"><ele>759.0</ele><time>2026-04-19T08:26:44.007Z</time></trkpt><trkpt lat="41.82190807630574" lon="14.173764454633378"><ele>758.8000000000001</ele><time>2026-04-19T08:26:45.007Z</time></trkpt><trkpt lat="41.821872102233705" lon="14.173937718186014"><ele>758.6</ele><time>2026-04-19T08:26:47.007Z</time></trkpt><trkpt lat="41.821826977032124" lon="14.174053122470117"><ele>758.4</ele><time>2026-04-19T08:26:48.007Z</time></trkpt><trkpt lat="41.82180399086588" lon="14.174157351915486"><ele>758.2</ele><time>2026-04-19T08:26:49.007Z</time></trkpt><trkpt lat="41.821810284395966" lon="14.174254908718902"><ele>758.0</ele><time>2026-04-19T08:26:50.007Z</time></trkpt><trkpt lat="41.821833089120624" lon="14.174347115651852"><ele>758.0</ele><time>2026-04-19T08:26:51.007Z</time></trkpt><trkpt lat="41.82187981280017" lon="14.174444400739668"><ele>758.0</ele><time>2026-04-19T08:26:52.007Z</time></trkpt><trkpt lat="41.82194799962892" lon="14.17453836700296"><ele>758.0</ele><time>2026-04-19T08:26:53.007Z</time></trkpt><trkpt lat="41.82202208694204" lon="14.174617661498653"><ele>758.0</ele><time>2026-04-19T08:26:54.007Z</time></trkpt><trkpt lat="41.822108143045945" lon="14.174678219244536"><ele>758.0</ele><time>2026-04-19T08:26:55.007Z</time></trkpt><trkpt lat="41.822189615505316" lon="14.174752508692379"><ele>758.0</ele><time>2026-04-19T08:26:56.007Z</time></trkpt><trkpt lat="41.822266407650886" lon="14.174823529265261"><ele>758.0</ele><time>2026-04-19T08:26:57.007Z</time></trkpt><trkpt lat="41.82234298725526" lon="14.174906616831175"><ele>758.0</ele><time>2026-04-19T08:26:58.007Z</time></trkpt><trkpt lat="41.822417416944695" lon="14.174980293633245"><ele>758.0</ele><time>2026-04-19T08:26:59.007Z</time></trkpt><trkpt lat="41.82249671393906" lon="14.175048199581303"><ele>758.0</ele><time>2026-04-19T08:27:00.007Z</time></trkpt><trkpt lat="41.822570862045275" lon="14.17512820709812"><ele>757.4</ele><time>2026-04-19T08:27:01.007Z</time></trkpt><trkpt lat="41.822633331360976" lon="14.175219125140197"><ele>756.8</ele><time>2026-04-19T08:27:02.007Z</time></trkpt><trkpt lat="41.82270501081838" lon="14.175303915376348"><ele>756.2</ele><time>2026-04-19T08:27:03.007Z</time></trkpt><trkpt lat="41.822786728860294" lon="14.175376349850477"><ele>755.6</ele><time>2026-04-19T08:27:04.008Z</time></trkpt><trkpt lat="41.82288376416687" lon="14.17545394115854"><ele>755.0</ele><time>2026-04-19T08:27:05.008Z</time></trkpt><trkpt lat="41.822980134237326" lon="14.175521488775194"><ele>755.0</ele><time>2026-04-19T08:27:06.008Z</time></trkpt><trkpt lat="41.823074053491794" lon="14.1755968973717"><ele>755.0</ele><time>2026-04-19T08:27:07.008Z</time></trkpt><trkpt lat="41.82315892880463" lon="14.17569161266198"><ele>755.0</ele><time>2026-04-19T08:27:08.008Z</time></trkpt><trkpt lat="41.823237510432115" lon="14.175805166573172"><ele>755.0</ele><time>2026-04-19T08:27:09.008Z</time></trkpt><trkpt lat="41.823324901775315" lon="14.175890722728107"><ele>755.0</ele><time>2026-04-19T08:27:10.008Z</time></trkpt><trkpt lat="41.82340369995273" lon="14.175975740612094"><ele>754.6</ele><time>2026-04-19T08:27:11.008Z</time></trkpt><trkpt lat="41.823487660121835" lon="14.17605587466024"><ele>754.2</ele><time>2026-04-19T08:27:12.008Z</time></trkpt><trkpt lat="41.8235791518641" lon="14.176131749470944"><ele>753.8</ele><time>2026-04-19T08:27:13.008Z</time></trkpt><trkpt lat="41.823662034624505" lon="14.176214880693918"><ele>753.4</ele><time>2026-04-19T08:27:14.008Z</time></trkpt><trkpt lat="41.823736321222775" lon="14.176295482729511"><ele>753.0</ele><time>2026-04-19T08:27:15.008Z</time></trkpt><trkpt lat="41.823806323245236" lon="14.176382484762252"><ele>753.0</ele><time>2026-04-19T08:27:16.008Z</time></trkpt><trkpt lat="41.823864071866915" lon="14.176429650321017"><ele>753.0</ele><time>2026-04-19T08:27:17.008Z</time></trkpt><trkpt lat="41.823924549646534" lon="14.176517231759533"><ele>753.0</ele><time>2026-04-19T08:27:19.008Z</time></trkpt><trkpt lat="41.8238909174267" lon="14.176665479967731"><ele>753.0</ele><time>2026-04-19T08:27:21.008Z</time></trkpt><trkpt lat="41.8238927305904" lon="14.176764492516423"><ele>753.0</ele><time>2026-04-19T08:27:22.008Z</time></trkpt><trkpt lat="41.82386371753068" lon="14.176897412137105"><ele>753.0</ele><time>2026-04-19T08:27:24.008Z</time></trkpt><trkpt lat="41.82376472579372" lon="14.17693227597206"><ele>752.0</ele><time>2026-04-19T08:27:25.008Z</time></trkpt><trkpt lat="41.82367658016923" lon="14.17692428457362"><ele>751.0</ele><time>2026-04-19T08:27:26.008Z</time></trkpt><trkpt lat="41.823562481111516" lon="14.176857114693217"><ele>750.0</ele><time>2026-04-19T08:27:27.008Z</time></trkpt><trkpt lat="41.823459336419376" lon="14.17679308808652"><ele>749.0</ele><time>2026-04-19T08:27:28.008Z</time></trkpt><trkpt lat="41.82333444102373" lon="14.176642493728798"><ele>749.6666666666666</ele><time>2026-04-19T08:27:29.008Z</time></trkpt><trkpt lat="41.82319105611262" lon="14.1764676531892"><ele>750.3333333333334</ele><time>2026-04-19T08:27:30.008Z</time></trkpt><trkpt lat="41.82307454581924" lon="14.176309761570993"><ele>751.0</ele><time>2026-04-19T08:27:31.008Z</time></trkpt><trkpt lat="41.822977176753646" lon="14.176216573439861"><ele>751.0</ele><time>2026-04-19T08:27:32.008Z</time></trkpt><trkpt lat="41.82286123767935" lon="14.176088097888528"><ele>751.0</ele><time>2026-04-19T08:27:33.008Z</time></trkpt><trkpt lat="41.822725703141565" lon="14.175963548545138"><ele>751.0</ele><time>2026-04-19T08:27:34.008Z</time></trkpt><trkpt lat="41.82261197743724" lon="14.175839567788222"><ele>750.8</ele><time>2026-04-19T08:27:35.008Z</time></trkpt><trkpt lat="41.822513651309066" lon="14.175741759687243"><ele>750.5999999999999</ele><time>2026-04-19T08:27:36.008Z</time></trkpt><trkpt lat="41.8224497552558" lon="14.175666204137876"><ele>750.4</ele><time>2026-04-19T08:27:37.008Z</time></trkpt><trkpt lat="41.82237914028077" lon="14.17557706925688"><ele>750.2</ele><time>2026-04-19T08:27:38.008Z</time></trkpt><trkpt lat="41.82230602934718" lon="14.175481916424308"><ele>750.0</ele><time>2026-04-19T08:27:39.008Z</time></trkpt><trkpt lat="41.822232837460284" lon="14.175375958633543"><ele>750.75</ele><time>2026-04-19T08:27:40.007Z</time></trkpt><trkpt lat="41.822142410976255" lon="14.175267725024863"><ele>751.5</ele><time>2026-04-19T08:27:41.007Z</time></trkpt><trkpt lat="41.82204405764334" lon="14.175164720728768"><ele>752.25</ele><time>2026-04-19T08:27:42.007Z</time></trkpt><trkpt lat="41.82194605379983" lon="14.175038040671106"><ele>753.0</ele><time>2026-04-19T08:27:43.007Z</time></trkpt><trkpt lat="41.821849313401984" lon="14.174903546290876"><ele>753.6666666666666</ele><time>2026-04-19T08:27:44.007Z</time></trkpt><trkpt lat="41.821781817154005" lon="14.17481258667304"><ele>754.3333333333334</ele><time>2026-04-19T08:27:45.007Z</time></trkpt><trkpt lat="41.82172834965537" lon="14.174735416576643"><ele>755.0</ele><time>2026-04-19T08:27:46.007Z</time></trkpt><trkpt lat="41.82167979660079" lon="14.174671010494585"><ele>755.6666666666667</ele><time>2026-04-19T08:27:47.007Z</time></trkpt><trkpt lat="41.821619077027684" lon="14.174570581783874"><ele>756.3333333333334</ele><time>2026-04-19T08:27:49.007Z</time></trkpt><trkpt lat="41.82155913573787" lon="14.174499607793646"><ele>757.0</ele><time>2026-04-19T08:27:51.007Z</time></trkpt><trkpt lat="41.82147811819066" lon="14.17448795360132"><ele>757.0</ele><time>2026-04-19T08:27:54.007Z</time></trkpt><trkpt lat="41.82141307219154" lon="14.1745693979472"><ele>757.0</ele><time>2026-04-19T08:27:56.007Z</time></trkpt><trkpt lat="41.8213643539112" lon="14.174628238532112"><ele>757.0</ele><time>2026-04-19T08:27:59.007Z</time></trkpt><trkpt lat="41.82130648791037" lon="14.17458845856502"><ele>757.0</ele><time>2026-04-19T08:28:02.007Z</time></trkpt><trkpt lat="41.82125533763363" lon="14.174533925282994"><ele>757.0</ele><time>2026-04-19T08:28:07.007Z</time></trkpt><trkpt lat="41.82120159306" lon="14.174450670032405"><ele>757.0</ele><time>2026-04-19T08:29:08.007Z</time></trkpt><trkpt lat="41.82113884848323" lon="14.174460056827456"><ele>757.0</ele><time>2026-04-19T08:29:28.008Z</time></trkpt><trkpt lat="41.821208885593876" lon="14.174526434691803"><ele>757.0</ele><time>2026-04-19T08:34:55.008Z</time></trkpt><trkpt lat="41.821268125022925" lon="14.174561279566946"><ele>757.0</ele><time>2026-04-19T08:51:48.001Z</time></trkpt><trkpt lat="41.821386661475685" lon="14.174573125098398"><ele>757.0</ele><time>2026-04-19T08:51:51.001Z</time></trkpt><trkpt lat="41.82147740033775" lon="14.1745355785284"><ele>757.0</ele><time>2026-04-19T08:51:52.001Z</time></trkpt><trkpt lat="41.82154205489966" lon="14.174505469064073"><ele>757.0</ele><time>2026-04-19T08:51:53.001Z</time></trkpt><trkpt lat="41.82161906359589" lon="14.174560217035888"><ele>757.0</ele><time>2026-04-19T08:51:55.001Z</time></trkpt><trkpt lat="41.82169389925509" lon="14.174667680041647"><ele>757.0</ele><time>2026-04-19T08:51:58Z</time></trkpt><trkpt lat="41.82175375816386" lon="14.17474846463485"><ele>757.0</ele><time>2026-04-19T08:51:59Z</time></trkpt><trkpt lat="41.82184137225329" lon="14.174854615719362"><ele>757.0</ele><time>2026-04-19T08:52:00Z</time></trkpt><trkpt lat="41.821946055797966" lon="14.174910559718718"><ele>757.0</ele><time>2026-04-19T08:52:01Z</time></trkpt><trkpt lat="41.82199264273979" lon="14.175034959405501"><ele>757.0</ele><time>2026-04-19T08:52:02Z</time></trkpt><trkpt lat="41.82206806737374" lon="14.175111252929101"><ele>756.2</ele><time>2026-04-19T08:52:03Z</time></trkpt><trkpt lat="41.822119302793496" lon="14.17520409311841"><ele>755.4000000000001</ele><time>2026-04-19T08:52:04Z</time></trkpt><trkpt lat="41.82218119732631" lon="14.175286557915422"><ele>754.5999999999999</ele><time>2026-04-19T08:52:05Z</time></trkpt><trkpt lat="41.822255957864236" lon="14.175370871501187"><ele>753.8</ele><time>2026-04-19T08:52:06Z</time></trkpt><trkpt lat="41.82232720998912" lon="14.175478682377884"><ele>753.0</ele><time>2026-04-19T08:52:07Z</time></trkpt><trkpt lat="41.822407615504865" lon="14.175574799734875"><ele>753.0</ele><time>2026-04-19T08:52:08Z</time></trkpt><trkpt lat="41.82249714929267" lon="14.175677012160662"><ele>753.0</ele><time>2026-04-19T08:52:09Z</time></trkpt><trkpt lat="41.82257739653582" lon="14.175777121530839"><ele>753.0</ele><time>2026-04-19T08:52:10Z</time></trkpt><trkpt lat="41.82266357985776" lon="14.175873282067895"><ele>753.0</ele><time>2026-04-19T08:52:11Z</time></trkpt><trkpt lat="41.82274479290167" lon="14.175940180081053"><ele>753.0</ele><time>2026-04-19T08:52:12Z</time></trkpt><trkpt lat="41.822809242743" lon="14.175972454948377"><ele>752.5999999999999</ele><time>2026-04-19T08:52:13Z</time></trkpt><trkpt lat="41.82285293611861" lon="14.176047108800233"><ele>752.1999999999999</ele><time>2026-04-19T08:52:15.002Z</time></trkpt><trkpt lat="41.822933972113944" lon="14.176155938163049"><ele>751.8</ele><time>2026-04-19T08:52:17.002Z</time></trkpt><trkpt lat="41.823015766194494" lon="14.176213775131872"><ele>751.4</ele><time>2026-04-19T08:52:18.002Z</time></trkpt><trkpt lat="41.823092227158945" lon="14.17626894207651"><ele>751.0</ele><time>2026-04-19T08:52:19.002Z</time></trkpt><trkpt lat="41.82317976131723" lon="14.176344349013288"><ele>751.0</ele><time>2026-04-19T08:52:20.002Z</time></trkpt><trkpt lat="41.82326678391996" lon="14.176464515094878"><ele>751.0</ele><time>2026-04-19T08:52:21.001Z</time></trkpt><trkpt lat="41.823353697240215" lon="14.176573674373575"><ele>751.0</ele><time>2026-04-19T08:52:22.001Z</time></trkpt><trkpt lat="41.8234414122954" lon="14.176691658086613"><ele>751.0</ele><time>2026-04-19T08:52:23.001Z</time></trkpt><trkpt lat="41.823524473080646" lon="14.176781118732132"><ele>750.5</ele><time>2026-04-19T08:52:24.002Z</time></trkpt><trkpt lat="41.82359854223274" lon="14.176826286632355"><ele>750.0</ele><time>2026-04-19T08:52:25.001Z</time></trkpt><trkpt lat="41.82368299151757" lon="14.17687313433916"><ele>749.5</ele><time>2026-04-19T08:52:27.001Z</time></trkpt><trkpt lat="41.82374885643886" lon="14.176920530856247"><ele>749.0</ele><time>2026-04-19T08:52:30.001Z</time></trkpt><trkpt lat="41.823797866832074" lon="14.176978584767763"><ele>748.5</ele><time>2026-04-19T08:52:32.001Z</time></trkpt><trkpt lat="41.823854569544835" lon="14.1770338729813"><ele>748.0</ele><time>2026-04-19T08:52:34.001Z</time></trkpt><trkpt lat="41.82395532031794" lon="14.177174421646678"><ele>748.0</ele><time>2026-04-19T08:53:15.001Z</time></trkpt><trkpt lat="41.824042119724645" lon="14.177227006760164"><ele>748.0</ele><time>2026-04-19T08:53:16.001Z</time></trkpt><trkpt lat="41.82412901178577" lon="14.177311861983512"><ele>748.0</ele><time>2026-04-19T08:53:17.001Z</time></trkpt><trkpt lat="41.82420018652077" lon="14.177425119664134"><ele>748.0</ele><time>2026-04-19T08:53:18.001Z</time></trkpt><trkpt lat="41.824265018287896" lon="14.177431899580547"><ele>748.0</ele><time>2026-04-19T08:53:19.001Z</time></trkpt><trkpt lat="41.82431379678982" lon="14.177511116893381"><ele>748.2</ele><time>2026-04-19T08:53:22.001Z</time></trkpt><trkpt lat="41.82432247129623" lon="14.177659017623233"><ele>748.4</ele><time>2026-04-19T08:53:24.001Z</time></trkpt><trkpt lat="41.82431484346974" lon="14.177835017433612"><ele>748.6</ele><time>2026-04-19T08:53:25.001Z</time></trkpt><trkpt lat="41.82434000563444" lon="14.177923722530124"><ele>748.8000000000001</ele><time>2026-04-19T08:53:26.001Z</time></trkpt><trkpt lat="41.82440119408872" lon="14.177993291752118"><ele>749.0</ele><time>2026-04-19T08:53:27.001Z</time></trkpt><trkpt lat="41.82448311527996" lon="14.178006403024668"><ele>749.0</ele><time>2026-04-19T08:53:28.001Z</time></trkpt><trkpt lat="41.824576644649454" lon="14.177958625993146"><ele>749.0</ele><time>2026-04-19T08:53:29.001Z</time></trkpt><trkpt lat="41.824749602019324" lon="14.178021754818333"><ele>749.0</ele><time>2026-04-19T08:53:31.001Z</time></trkpt><trkpt lat="41.82479752866428" lon="14.178082332461594"><ele>749.0</ele><time>2026-04-19T08:53:32.001Z</time></trkpt><trkpt lat="41.82485764268615" lon="14.178184223407232"><ele>749.0</ele><time>2026-04-19T08:53:33.001Z</time></trkpt><trkpt lat="41.824935005957904" lon="14.178326953809956"><ele>749.25</ele><time>2026-04-19T08:53:34.001Z</time></trkpt><trkpt lat="41.82497167102912" lon="14.17847965914903"><ele>749.5</ele><time>2026-04-19T08:53:35.001Z</time></trkpt><trkpt lat="41.824977003385065" lon="14.178670539454156"><ele>749.75</ele><time>2026-04-19T08:53:36.001Z</time></trkpt><trkpt lat="41.82496017881537" lon="14.178864887232937"><ele>750.0</ele><time>2026-04-19T08:53:37.001Z</time></trkpt><trkpt lat="41.82492906161921" lon="14.179028872356701"><ele>750.0</ele><time>2026-04-19T08:53:38.001Z</time></trkpt><trkpt lat="41.824859029216015" lon="14.179170051182032"><ele>750.0</ele><time>2026-04-19T08:53:39.001Z</time></trkpt><trkpt lat="41.82475216983305" lon="14.1793205356784"><ele>750.0</ele><time>2026-04-19T08:53:40.001Z</time></trkpt><trkpt lat="41.824642281374146" lon="14.1794936214596"><ele>750.0</ele><time>2026-04-19T08:53:41.001Z</time></trkpt><trkpt lat="41.824520872123415" lon="14.179701001765013"><ele>750.0</ele><time>2026-04-19T08:53:42.001Z</time></trkpt><trkpt lat="41.824390796575614" lon="14.179873107912698"><ele>750.0</ele><time>2026-04-19T08:53:43.001Z</time></trkpt><trkpt lat="41.824338041959365" lon="14.179970881217432"><ele>750.6</ele><time>2026-04-19T08:53:44.001Z</time></trkpt><trkpt lat="41.824290567080496" lon="14.180031824052428"><ele>751.2</ele><time>2026-04-19T08:53:45Z</time></trkpt><trkpt lat="41.824172521051345" lon="14.179985849652576"><ele>751.8</ele><time>2026-04-19T08:53:47Z</time></trkpt><trkpt lat="41.82411112980685" lon="14.179946463911905"><ele>752.4</ele><time>2026-04-19T08:53:48Z</time></trkpt><trkpt lat="41.82404892806609" lon="14.17993053938596"><ele>753.0</ele><time>2026-04-19T08:53:51Z</time></trkpt><trkpt lat="41.824034139358126" lon="14.180163824331657"><ele>753.0</ele><time>2026-04-19T08:53:58Z</time></trkpt><trkpt lat="41.824079851141654" lon="14.180290414805562"><ele>753.0</ele><time>2026-04-19T08:53:59Z</time></trkpt><trkpt lat="41.82412567700568" lon="14.180418911305757"><ele>753.0</ele><time>2026-04-19T08:54:00Z</time></trkpt><trkpt lat="41.824168638456854" lon="14.180543554742233"><ele>753.0</ele><time>2026-04-19T08:54:01Z</time></trkpt><trkpt lat="41.82420145406119" lon="14.180649364440029"><ele>753.0</ele><time>2026-04-19T08:54:02Z</time></trkpt><trkpt lat="41.824236907924046" lon="14.18074878480978"><ele>752.3333333333334</ele><time>2026-04-19T08:54:03Z</time></trkpt><trkpt lat="41.82427306195737" lon="14.180831468134409"><ele>751.6666666666666</ele><time>2026-04-19T08:54:04Z</time></trkpt><trkpt lat="41.824321360167424" lon="14.180925200740658"><ele>751.0</ele><time>2026-04-19T08:54:05Z</time></trkpt><trkpt lat="41.82437339743776" lon="14.181002915149229"><ele>750.3333333333333</ele><time>2026-04-19T08:54:06Z</time></trkpt><trkpt lat="41.8244364848476" lon="14.181097021281612"><ele>749.6666666666666</ele><time>2026-04-19T08:54:07Z</time></trkpt><trkpt lat="41.82451629449614" lon="14.181170971689852"><ele>749.0</ele><time>2026-04-19T08:54:08Z</time></trkpt><trkpt lat="41.82459320341552" lon="14.18125160815813"><ele>749.0</ele><time>2026-04-19T08:54:09Z</time></trkpt><trkpt lat="41.824679756898135" lon="14.181326111050721"><ele>749.0</ele><time>2026-04-19T08:54:10Z</time></trkpt><trkpt lat="41.82475507533099" lon="14.181399849795971"><ele>749.0</ele><time>2026-04-19T08:54:11Z</time></trkpt><trkpt lat="41.82482073002823" lon="14.181487524347675"><ele>749.0</ele><time>2026-04-19T08:54:12Z</time></trkpt><trkpt lat="41.82488673730172" lon="14.181557339218537"><ele>749.0</ele><time>2026-04-19T08:54:13Z</time></trkpt><trkpt lat="41.82494589265407" lon="14.181626107844522"><ele>748.6</ele><time>2026-04-19T08:54:14Z</time></trkpt><trkpt lat="41.8250151334223" lon="14.181699337750716"><ele>748.2</ele><time>2026-04-19T08:54:15Z</time></trkpt><trkpt lat="41.82509471073405" lon="14.181774887053521"><ele>747.8000000000001</ele><time>2026-04-19T08:54:16Z</time></trkpt><trkpt lat="41.82517294327432" lon="14.181854141587017"><ele>747.4000000000001</ele><time>2026-04-19T08:54:17Z</time></trkpt><trkpt lat="41.825254013301375" lon="14.181941308446984"><ele>747.0</ele><time>2026-04-19T08:54:18Z</time></trkpt><trkpt lat="41.82532109877048" lon="14.182043511617708"><ele>747.0</ele><time>2026-04-19T08:54:19Z</time></trkpt><trkpt lat="41.8253653004609" lon="14.182187621165854"><ele>747.0</ele><time>2026-04-19T08:54:20Z</time></trkpt><trkpt lat="41.82541094841651" lon="14.182319454349297"><ele>747.0</ele><time>2026-04-19T08:54:21.001Z</time></trkpt><trkpt lat="41.82545450958417" lon="14.182420928620134"><ele>747.0</ele><time>2026-04-19T08:54:22.001Z</time></trkpt><trkpt lat="41.82549783198172" lon="14.182534861471096"><ele>747.0</ele><time>2026-04-19T08:54:23.001Z</time></trkpt><trkpt lat="41.825557340008245" lon="14.18262252043172"><ele>748.0</ele><time>2026-04-19T08:54:24.001Z</time></trkpt><trkpt lat="41.8256117723807" lon="14.182769951282092"><ele>749.0</ele><time>2026-04-19T08:54:25.001Z</time></trkpt><trkpt lat="41.82568331933803" lon="14.182918812801814"><ele>750.0</ele><time>2026-04-19T08:54:26.001Z</time></trkpt><trkpt lat="41.825718363155445" lon="14.18306379844348"><ele>751.0</ele><time>2026-04-19T08:54:27.001Z</time></trkpt><trkpt lat="41.82574393921408" lon="14.183186874861063"><ele>751.4</ele><time>2026-04-19T08:54:28.001Z</time></trkpt><trkpt lat="41.825742149297" lon="14.183281617802905"><ele>751.8</ele><time>2026-04-19T08:54:29.001Z</time></trkpt><trkpt lat="41.825691725124486" lon="14.183380037284202"><ele>752.1999999999999</ele><time>2026-04-19T08:54:30.001Z</time></trkpt><trkpt lat="41.825622410068476" lon="14.183482319198005"><ele>752.5999999999999</ele><time>2026-04-19T08:54:31.001Z</time></trkpt><trkpt lat="41.82555191987928" lon="14.183560171297538"><ele>753.0</ele><time>2026-04-19T08:54:32.001Z</time></trkpt><trkpt lat="41.8254704520812" lon="14.18367779232411"><ele>753.0</ele><time>2026-04-19T08:54:34.001Z</time></trkpt><trkpt lat="41.825496147368405" lon="14.183825633075552"><ele>753.0</ele><time>2026-04-19T08:54:36.001Z</time></trkpt><trkpt lat="41.82555275037424" lon="14.183973060786814"><ele>753.0</ele><time>2026-04-19T08:54:38.001Z</time></trkpt><trkpt lat="41.82561114833248" lon="14.184019765162967"><ele>753.0</ele><time>2026-04-19T08:54:39.001Z</time></trkpt><trkpt lat="41.82568198279201" lon="14.184037492562965"><ele>753.0</ele><time>2026-04-19T08:54:40.001Z</time></trkpt><trkpt lat="41.825766918485186" lon="14.184061512995898"><ele>752.25</ele><time>2026-04-19T08:54:41.001Z</time></trkpt><trkpt lat="41.825874171771744" lon="14.184079203968118"><ele>751.5</ele><time>2026-04-19T08:54:42.001Z</time></trkpt><trkpt lat="41.82600900726866" lon="14.184099485422783"><ele>750.75</ele><time>2026-04-19T08:54:43.001Z</time></trkpt><trkpt lat="41.826126257757664" lon="14.184138452647943"><ele>750.0</ele><time>2026-04-19T08:54:44.001Z</time></trkpt><trkpt lat="41.82621389298325" lon="14.184209472260264"><ele>750.0</ele><time>2026-04-19T08:54:45.001Z</time></trkpt><trkpt lat="41.82628877643822" lon="14.18432747086144"><ele>750.0</ele><time>2026-04-19T08:54:46.001Z</time></trkpt><trkpt lat="41.82635234395844" lon="14.184463761192875"><ele>750.0</ele><time>2026-04-19T08:54:47.001Z</time></trkpt><trkpt lat="41.82640169860456" lon="14.18462219729086"><ele>750.0</ele><time>2026-04-19T08:54:48.001Z</time></trkpt><trkpt lat="41.82646432719441" lon="14.184733593733148"><ele>750.0</ele><time>2026-04-19T08:54:49.001Z</time></trkpt><trkpt lat="41.826538210521086" lon="14.184819960452604"><ele>750.0</ele><time>2026-04-19T08:54:51.001Z</time></trkpt><trkpt lat="41.826644073552" lon="14.184794141095212"><ele>750.0</ele><time>2026-04-19T08:54:53.001Z</time></trkpt><trkpt lat="41.82671377300718" lon="14.184785471176575"><ele>750.0</ele><time>2026-04-19T08:54:54.001Z</time></trkpt><trkpt lat="41.82679912127662" lon="14.184789377707336"><ele>750.0</ele><time>2026-04-19T08:54:55.001Z</time></trkpt><trkpt lat="41.826891427528096" lon="14.184793477879074"><ele>750.6</ele><time>2026-04-19T08:54:56.001Z</time></trkpt><trkpt lat="41.82698610094603" lon="14.18478024621536"><ele>751.2</ele><time>2026-04-19T08:54:57.001Z</time></trkpt><trkpt lat="41.82707613692788" lon="14.18478597727204"><ele>751.8</ele><time>2026-04-19T08:54:58.001Z</time></trkpt><trkpt lat="41.82718219881086" lon="14.184816631232307"><ele>752.4</ele><time>2026-04-19T08:54:59.001Z</time></trkpt><trkpt lat="41.82730203403037" lon="14.184865965111175"><ele>753.0</ele><time>2026-04-19T08:55:00.001Z</time></trkpt><trkpt lat="41.82742689633344" lon="14.184940084070666"><ele>753.0</ele><time>2026-04-19T08:55:01.001Z</time></trkpt><trkpt lat="41.82755503294425" lon="14.18500734289802"><ele>753.0</ele><time>2026-04-19T08:55:02.001Z</time></trkpt><trkpt lat="41.82768704354445" lon="14.185074416463019"><ele>753.0</ele><time>2026-04-19T08:55:03.001Z</time></trkpt><trkpt lat="41.82779970399957" lon="14.185154561274894"><ele>753.0</ele><time>2026-04-19T08:55:04.001Z</time></trkpt><trkpt lat="41.827902805726346" lon="14.185243896196656"><ele>751.5</ele><time>2026-04-19T08:55:05.001Z</time></trkpt><trkpt lat="41.82801327163094" lon="14.185325059532042"><ele>750.0</ele><time>2026-04-19T08:55:06.001Z</time></trkpt><trkpt lat="41.82811721299514" lon="14.185411603933073"><ele>748.5</ele><time>2026-04-19T08:55:07.001Z</time></trkpt><trkpt lat="41.82820584102886" lon="14.185497873237969"><ele>747.0</ele><time>2026-04-19T08:55:08.001Z</time></trkpt><trkpt lat="41.82828886839362" lon="14.185583040641786"><ele>747.0</ele><time>2026-04-19T08:55:09.001Z</time></trkpt><trkpt lat="41.82835794909323" lon="14.185667792209738"><ele>747.0</ele><time>2026-04-19T08:55:10.001Z</time></trkpt><trkpt lat="41.82843732398037" lon="14.185741518155154"><ele>747.0</ele><time>2026-04-19T08:55:11.001Z</time></trkpt><trkpt lat="41.828523310013864" lon="14.185824920084354"><ele>747.0</ele><time>2026-04-19T08:55:12.001Z</time></trkpt><trkpt lat="41.82861499846429" lon="14.185905092033083"><ele>747.0</ele><time>2026-04-19T08:55:13.001Z</time></trkpt><trkpt lat="41.82871805514057" lon="14.185995505054729"><ele>747.25</ele><time>2026-04-19T08:55:14.001Z</time></trkpt><trkpt lat="41.82882353308709" lon="14.186061072066376"><ele>747.5</ele><time>2026-04-19T08:55:15.001Z</time></trkpt><trkpt lat="41.828938470491785" lon="14.186132905367197"><ele>747.75</ele><time>2026-04-19T08:55:16.001Z</time></trkpt><trkpt lat="41.82906569267069" lon="14.186207409827045"><ele>748.0</ele><time>2026-04-19T08:55:17.001Z</time></trkpt><trkpt lat="41.82921553427418" lon="14.186253258534379"><ele>746.6666666666667</ele><time>2026-04-19T08:55:18.001Z</time></trkpt><trkpt lat="41.82936098441419" lon="14.186267057134227"><ele>745.3333333333334</ele><time>2026-04-19T08:55:19.001Z</time></trkpt><trkpt lat="41.82948937450687" lon="14.186270648604234"><ele>744.0</ele><time>2026-04-19T08:55:20.001Z</time></trkpt><trkpt lat="41.829724969614695" lon="14.1862621924898"><ele>744.0</ele><time>2026-04-19T08:55:22.001Z</time></trkpt><trkpt lat="41.82986340099162" lon="14.186254017417658"><ele>744.0</ele><time>2026-04-19T08:55:23.001Z</time></trkpt><trkpt lat="41.830014056356" lon="14.18624844474898"><ele>744.0</ele><time>2026-04-19T08:55:24.001Z</time></trkpt><trkpt lat="41.83015853408499" lon="14.186247806974814"><ele>744.0</ele><time>2026-04-19T08:55:25.001Z</time></trkpt><trkpt lat="41.83031343647951" lon="14.186252235238575"><ele>744.0</ele><time>2026-04-19T08:55:26.001Z</time></trkpt><trkpt lat="41.83045025833331" lon="14.186247539584484"><ele>744.0</ele><time>2026-04-19T08:55:27.001Z</time></trkpt><trkpt lat="41.83056679485926" lon="14.186250836872777"><ele>744.0</ele><time>2026-04-19T08:55:28.001Z</time></trkpt><trkpt lat="41.83067417447283" lon="14.186253984631941"><ele>744.0</ele><time>2026-04-19T08:55:29.001Z</time></trkpt><trkpt lat="41.8307849636677" lon="14.186258818361576"><ele>744.0</ele><time>2026-04-19T08:55:30.001Z</time></trkpt><trkpt lat="41.83088901903959" lon="14.186292644894577"><ele>744.0</ele><time>2026-04-19T08:55:31.001Z</time></trkpt><trkpt lat="41.83097653433062" lon="14.186363878109159"><ele>744.0</ele><time>2026-04-19T08:55:32.001Z</time></trkpt><trkpt lat="41.83108073639245" lon="14.186444385184322"><ele>744.0</ele><time>2026-04-19T08:55:33.001Z</time></trkpt><trkpt lat="41.83119753179787" lon="14.186519334295815"><ele>743.6</ele><time>2026-04-19T08:55:34.001Z</time></trkpt><trkpt lat="41.83130539534247" lon="14.186589555290452"><ele>743.2</ele><time>2026-04-19T08:55:35.001Z</time></trkpt><trkpt lat="41.83138204685836" lon="14.186683450884948"><ele>742.8000000000001</ele><time>2026-04-19T08:55:36.001Z</time></trkpt><trkpt lat="41.831445411723806" lon="14.186745642326867"><ele>742.4000000000001</ele><time>2026-04-19T08:55:37.001Z</time></trkpt><trkpt lat="41.83152260883699" lon="14.186806769528214"><ele>742.0</ele><time>2026-04-19T08:55:38.001Z</time></trkpt><trkpt lat="41.83161094784383" lon="14.186883007446232"><ele>742.0</ele><time>2026-04-19T08:55:39.001Z</time></trkpt><trkpt lat="41.83170441740207" lon="14.186941314378318"><ele>742.0</ele><time>2026-04-19T08:55:40.001Z</time></trkpt><trkpt lat="41.83178575431615" lon="14.187019684806675"><ele>742.0</ele><time>2026-04-19T08:55:42.001Z</time></trkpt><trkpt lat="41.83178194760025" lon="14.187119422569586"><ele>742.0</ele><time>2026-04-19T08:55:45Z</time></trkpt><trkpt lat="41.83181383587516" lon="14.187250757702289"><ele>742.0</ele><time>2026-04-19T08:55:47Z</time></trkpt><trkpt lat="41.83183870624568" lon="14.187429985292207"><ele>741.6</ele><time>2026-04-19T08:55:49Z</time></trkpt><trkpt lat="41.83189932642635" lon="14.187630129130113"><ele>741.2</ele><time>2026-04-19T08:55:51Z</time></trkpt><trkpt lat="41.83191697221233" lon="14.18771973450066"><ele>740.8</ele><time>2026-04-19T08:55:53Z</time></trkpt><trkpt lat="41.831920679541334" lon="14.187850614508031"><ele>740.4</ele><time>2026-04-19T08:55:56Z</time></trkpt><trkpt lat="41.83194015232741" lon="14.187931798847943"><ele>740.0</ele><time>2026-04-19T08:55:58Z</time></trkpt><trkpt lat="41.83196010206199" lon="14.188043502322566"><ele>739.9999999999999</ele><time>2026-04-19T08:56:00Z</time></trkpt><trkpt lat="41.83194009881244" lon="14.188124729243231"><ele>740.0</ele><time>2026-04-19T08:56:02Z</time></trkpt><trkpt lat="41.8318913080139" lon="14.188200524986236"><ele>740.0</ele><time>2026-04-19T08:56:05Z</time></trkpt><trkpt lat="41.831804916457294" lon="14.1882157174542"><ele>740.0</ele><time>2026-04-19T08:56:09Z</time></trkpt><trkpt lat="41.8317438134597" lon="14.188250037927817"><ele>740.0</ele><time>2026-04-19T08:56:11Z</time></trkpt><trkpt lat="41.83169149639349" lon="14.188314622645127"><ele>739.9999999999999</ele><time>2026-04-19T08:56:26Z</time></trkpt><trkpt lat="41.83162497438918" lon="14.188342637279172"><ele>740.0</ele><time>2026-04-19T08:56:28Z</time></trkpt><trkpt lat="41.831559199201465" lon="14.18842850828669"><ele>740.5</ele><time>2026-04-19T08:56:31Z</time></trkpt><trkpt lat="41.831525632080684" lon="14.188526620959518"><ele>741.0</ele><time>2026-04-19T08:56:34Z</time></trkpt><trkpt lat="41.831510592322644" lon="14.188609366155672"><ele>741.5</ele><time>2026-04-19T08:56:36Z</time></trkpt><trkpt lat="41.8314900347607" lon="14.188691929791625"><ele>742.0</ele><time>2026-04-19T08:56:38Z</time></trkpt><trkpt lat="41.8314938253199" lon="14.188796635217617"><ele>742.5</ele><time>2026-04-19T08:56:41.001Z</time></trkpt><trkpt lat="41.831461761109146" lon="14.188944748581928"><ele>743.0</ele><time>2026-04-19T08:56:45.001Z</time></trkpt><trkpt lat="41.83147489428065" lon="14.189096102941056"><ele>743.0</ele><time>2026-04-19T08:56:47.001Z</time></trkpt><trkpt lat="41.83148537836531" lon="14.189211619646727"><ele>743.0</ele><time>2026-04-19T08:56:48.001Z</time></trkpt><trkpt lat="41.831492316177886" lon="14.18935744598713"><ele>743.0</ele><time>2026-04-19T08:56:49.001Z</time></trkpt><trkpt lat="41.83149738644262" lon="14.189496185908071"><ele>743.0</ele><time>2026-04-19T08:56:50.001Z</time></trkpt><trkpt lat="41.83150305352356" lon="14.189638287254413"><ele>743.0</ele><time>2026-04-19T08:56:51.001Z</time></trkpt><trkpt lat="41.8314981308191" lon="14.189746782380418"><ele>744.0</ele><time>2026-04-19T08:56:52.001Z</time></trkpt><trkpt lat="41.831445779836095" lon="14.189940018825268"><ele>745.0</ele><time>2026-04-19T08:56:54.001Z</time></trkpt><trkpt lat="41.83142392992309" lon="14.190055086821415"><ele>746.0</ele><time>2026-04-19T08:56:55.001Z</time></trkpt><trkpt lat="41.83138743837505" lon="14.190134965779833"><ele>747.0</ele><time>2026-04-19T08:56:56.001Z</time></trkpt><trkpt lat="41.83130881082942" lon="14.190244277934116"><ele>748.0</ele><time>2026-04-19T08:56:58.001Z</time></trkpt><trkpt lat="41.83124541398905" lon="14.19029046593388"><ele>748.0</ele><time>2026-04-19T08:56:59.001Z</time></trkpt><trkpt lat="41.83117920120123" lon="14.190359976140888"><ele>748.0</ele><time>2026-04-19T08:57:00.001Z</time></trkpt><trkpt lat="41.83110866583377" lon="14.19039293798357"><ele>748.0</ele><time>2026-04-19T08:57:01.001Z</time></trkpt><trkpt lat="41.831036427803134" lon="14.190426725683537"><ele>748.0</ele><time>2026-04-19T08:57:02.001Z</time></trkpt><trkpt lat="41.83096925400632" lon="14.190445751288939"><ele>748.0</ele><time>2026-04-19T08:57:03.001Z</time></trkpt><trkpt lat="41.83089750806002" lon="14.190469953148355"><ele>748.0</ele><time>2026-04-19T08:57:04.001Z</time></trkpt><trkpt lat="41.83081821648695" lon="14.19050748106351"><ele>748.0</ele><time>2026-04-19T08:57:05.001Z</time></trkpt><trkpt lat="41.830726490797474" lon="14.190543865768312"><ele>748.0</ele><time>2026-04-19T08:57:06.001Z</time></trkpt><trkpt lat="41.8306561600584" lon="14.190584016184106"><ele>748.0</ele><time>2026-04-19T08:57:07.001Z</time></trkpt><trkpt lat="41.830590106151924" lon="14.190630447638174"><ele>748.0</ele><time>2026-04-19T08:57:08.001Z</time></trkpt><trkpt lat="41.8305238952828" lon="14.19073354802645"><ele>748.0</ele><time>2026-04-19T08:57:09.001Z</time></trkpt><trkpt lat="41.8304618720497" lon="14.190860306790803"><ele>752.4</ele><time>2026-04-19T08:57:10.001Z</time></trkpt><trkpt lat="41.8304133797579" lon="14.19098781231264"><ele>756.8</ele><time>2026-04-19T08:57:11.001Z</time></trkpt><trkpt lat="41.83038018068842" lon="14.191103036645524"><ele>761.2</ele><time>2026-04-19T08:57:12.001Z</time></trkpt><trkpt lat="41.83035960739039" lon="14.191226576868575"><ele>765.6</ele><time>2026-04-19T08:57:13.001Z</time></trkpt><trkpt lat="41.830351124933856" lon="14.19133668517962"><ele>770.0</ele><time>2026-04-19T08:57:14.001Z</time></trkpt><trkpt lat="41.8304135383801" lon="14.191407513671258"><ele>770.0</ele><time>2026-04-19T08:57:15Z</time></trkpt><trkpt lat="41.83064788708297" lon="14.191339379934291"><ele>770.0</ele><time>2026-04-19T08:57:20Z</time></trkpt><trkpt lat="41.830711214662664" lon="14.191284009387259"><ele>770.0</ele><time>2026-04-19T08:57:21Z</time></trkpt><trkpt lat="41.830825426894094" lon="14.191246339296177"><ele>770.0</ele><time>2026-04-19T08:57:23Z</time></trkpt><trkpt lat="41.830897506731695" lon="14.191256564197538"><ele>769.6</ele><time>2026-04-19T08:57:24Z</time></trkpt><trkpt lat="41.83099093491848" lon="14.191291907712076"><ele>769.2</ele><time>2026-04-19T08:57:25Z</time></trkpt><trkpt lat="41.831095433440154" lon="14.191317356404214"><ele>768.8</ele><time>2026-04-19T08:57:26Z</time></trkpt><trkpt lat="41.83118167345847" lon="14.191363707625975"><ele>768.4</ele><time>2026-04-19T08:57:27Z</time></trkpt><trkpt lat="41.83122319692672" lon="14.191434568745827"><ele>768.0</ele><time>2026-04-19T08:57:28Z</time></trkpt><trkpt lat="41.831164461643716" lon="14.19156802676644"><ele>771.0</ele><time>2026-04-19T08:57:30Z</time></trkpt><trkpt lat="41.83109921700322" lon="14.191684926104276"><ele>774.0</ele><time>2026-04-19T08:57:31Z</time></trkpt><trkpt lat="41.83104731781958" lon="14.191813503767685"><ele>777.0</ele><time>2026-04-19T08:57:32Z</time></trkpt><trkpt lat="41.831012316467266" lon="14.19195649366907"><ele>780.0</ele><time>2026-04-19T08:57:33Z</time></trkpt><trkpt lat="41.83100509266094" lon="14.19210526533765"><ele>783.0</ele><time>2026-04-19T08:57:34Z</time></trkpt><trkpt lat="41.83098101486791" lon="14.192244170515796"><ele>785.0</ele><time>2026-04-19T08:57:35Z</time></trkpt><trkpt lat="41.83092398287063" lon="14.192361693186776"><ele>787.0</ele><time>2026-04-19T08:57:36Z</time></trkpt><trkpt lat="41.83085850706831" lon="14.192472519998814"><ele>789.0</ele><time>2026-04-19T08:57:37Z</time></trkpt><trkpt lat="41.830775038985735" lon="14.192594552668028"><ele>791.0</ele><time>2026-04-19T08:57:38Z</time></trkpt><trkpt lat="41.830715543388216" lon="14.192704570553955"><ele>793.0</ele><time>2026-04-19T08:57:39Z</time></trkpt><trkpt lat="41.8306738273697" lon="14.19284156913709"><ele>793.0</ele><time>2026-04-19T08:57:40Z</time></trkpt><trkpt lat="41.8306660318396" lon="14.192981893164438"><ele>793.0</ele><time>2026-04-19T08:57:41Z</time></trkpt><trkpt lat="41.83069448466678" lon="14.193121075788405"><ele>793.0</ele><time>2026-04-19T08:57:42Z</time></trkpt><trkpt lat="41.83063202550522" lon="14.193245395518348"><ele>793.0</ele><time>2026-04-19T08:57:44Z</time></trkpt><trkpt lat="41.83055361431201" lon="14.19332089490672"><ele>793.0</ele><time>2026-04-19T08:57:45Z</time></trkpt><trkpt lat="41.830445275384264" lon="14.19341647896292"><ele>794.8</ele><time>2026-04-19T08:57:46Z</time></trkpt><trkpt lat="41.830363950460246" lon="14.193506975287562"><ele>796.5999999999999</ele><time>2026-04-19T08:57:47Z</time></trkpt><trkpt lat="41.83031862424015" lon="14.19357157387414"><ele>798.4000000000001</ele><time>2026-04-19T08:57:48Z</time></trkpt><trkpt lat="41.830350910947544" lon="14.193693216807507"><ele>800.2</ele><time>2026-04-19T08:57:50Z</time></trkpt><trkpt lat="41.83042542809569" lon="14.193762595893377"><ele>802.0</ele><time>2026-04-19T08:57:51Z</time></trkpt><trkpt lat="41.830506952803034" lon="14.19382992729069"><ele>802.0</ele><time>2026-04-19T08:57:52Z</time></trkpt><trkpt lat="41.830540651202334" lon="14.193946711042106"><ele>802.0</ele><time>2026-04-19T08:57:53Z</time></trkpt><trkpt lat="41.830553087718904" lon="14.194097040060225"><ele>802.0</ele><time>2026-04-19T08:57:54Z</time></trkpt><trkpt lat="41.83054343902296" lon="14.194239606885967"><ele>802.0</ele><time>2026-04-19T08:57:55Z</time></trkpt><trkpt lat="41.83052031064702" lon="14.194366243169505"><ele>802.0</ele><time>2026-04-19T08:57:56Z</time></trkpt><trkpt lat="41.83049165811114" lon="14.194460285828388"><ele>804.1666666666666</ele><time>2026-04-19T08:57:57Z</time></trkpt><trkpt lat="41.83048216168881" lon="14.194546021635784"><ele>806.3333333333333</ele><time>2026-04-19T08:57:58Z</time></trkpt><trkpt lat="41.83053187757301" lon="14.194672708607186"><ele>808.5</ele><time>2026-04-19T08:57:59Z</time></trkpt><trkpt lat="41.830556542753015" lon="14.194797396629404"><ele>810.6666666666667</ele><time>2026-04-19T08:58:00Z</time></trkpt><trkpt lat="41.83059212333722" lon="14.19489822996171"><ele>812.8333333333334</ele><time>2026-04-19T08:58:01Z</time></trkpt><trkpt lat="41.8306137514102" lon="14.194992631427095"><ele>815.0</ele><time>2026-04-19T08:58:02Z</time></trkpt><trkpt lat="41.83060923531032" lon="14.195077490396342"><ele>816.5000000000001</ele><time>2026-04-19T08:58:03Z</time></trkpt><trkpt lat="41.83060006056763" lon="14.195204004684895"><ele>818.0</ele><time>2026-04-19T08:58:04Z</time></trkpt><trkpt lat="41.83063393046133" lon="14.195296762138357"><ele>819.5</ele><time>2026-04-19T08:58:05Z</time></trkpt><trkpt lat="41.83068820616223" lon="14.195379222118014"><ele>821.0</ele><time>2026-04-19T08:58:06Z</time></trkpt><trkpt lat="41.83073069026548" lon="14.195444497420098"><ele>822.5000000000001</ele><time>2026-04-19T08:58:07Z</time></trkpt><trkpt lat="41.83081022032656" lon="14.195536352576454"><ele>824.0</ele><time>2026-04-19T08:58:09Z</time></trkpt><trkpt lat="41.83087198728698" lon="14.195580077592941"><ele>824.1666666666667</ele><time>2026-04-19T08:58:10Z</time></trkpt><trkpt lat="41.83090464757983" lon="14.195693699361765"><ele>824.3333333333334</ele><time>2026-04-19T08:58:12Z</time></trkpt><trkpt lat="41.83090266798224" lon="14.195813846762672"><ele>824.5</ele><time>2026-04-19T08:58:14Z</time></trkpt><trkpt lat="41.83091940318632" lon="14.195914042800839"><ele>824.6666666666667</ele><time>2026-04-19T08:58:16Z</time></trkpt><trkpt lat="41.830954193849564" lon="14.196041290884512"><ele>824.8333333333334</ele><time>2026-04-19T08:58:18Z</time></trkpt><trkpt lat="41.830965816489346" lon="14.196137507203535"><ele>825.0</ele><time>2026-04-19T08:58:19Z</time></trkpt><trkpt lat="41.8309865603648" lon="14.196283959708996"><ele>825.0</ele><time>2026-04-19T08:58:20Z</time></trkpt><trkpt lat="41.830999438958195" lon="14.196468127935502"><ele>825.0</ele><time>2026-04-19T08:58:21Z</time></trkpt><trkpt lat="41.83101690305335" lon="14.1966214928434"><ele>825.0</ele><time>2026-04-19T08:58:22Z</time></trkpt><trkpt lat="41.83103594854199" lon="14.196755976807896"><ele>825.0</ele><time>2026-04-19T08:58:23Z</time></trkpt><trkpt lat="41.83107644895491" lon="14.196845247653211"><ele>825.0</ele><time>2026-04-19T08:58:24Z</time></trkpt><trkpt lat="41.8311204821206" lon="14.196928833547382"><ele>825.0</ele><time>2026-04-19T08:58:25Z</time></trkpt><trkpt lat="41.831194947741416" lon="14.197021856352169"><ele>825.0</ele><time>2026-04-19T08:58:26Z</time></trkpt><trkpt lat="41.83126095384588" lon="14.197151288974124"><ele>825.0</ele><time>2026-04-19T08:58:27Z</time></trkpt><trkpt lat="41.83133633578382" lon="14.197292407736903"><ele>825.0</ele><time>2026-04-19T08:58:28Z</time></trkpt><trkpt lat="41.831430055207264" lon="14.197480092703152"><ele>826.3333333333333</ele><time>2026-04-19T08:58:29Z</time></trkpt><trkpt lat="41.83153510468103" lon="14.197665176397603"><ele>827.6666666666666</ele><time>2026-04-19T08:58:30Z</time></trkpt><trkpt lat="41.83163785293655" lon="14.197829879632486"><ele>829.0</ele><time>2026-04-19T08:58:31Z</time></trkpt><trkpt lat="41.831736212970746" lon="14.197940254922848"><ele>830.4000000000001</ele><time>2026-04-19T08:58:32Z</time></trkpt><trkpt lat="41.83183472789225" lon="14.198013613054528"><ele>831.8</ele><time>2026-04-19T08:58:33.001Z</time></trkpt><trkpt lat="41.83192465675547" lon="14.198115401192863"><ele>833.2</ele><time>2026-04-19T08:58:34.001Z</time></trkpt><trkpt lat="41.832005830350326" lon="14.19822566138273"><ele>834.5999999999999</ele><time>2026-04-19T08:58:35.001Z</time></trkpt><trkpt lat="41.83207058429749" lon="14.198313323280754"><ele>836.0</ele><time>2026-04-19T08:58:36.001Z</time></trkpt><trkpt lat="41.83212030288418" lon="14.198437676764469"><ele>836.0</ele><time>2026-04-19T08:58:37Z</time></trkpt><trkpt lat="41.83215372415128" lon="14.19857707398055"><ele>836.0</ele><time>2026-04-19T08:58:38Z</time></trkpt><trkpt lat="41.83218828883229" lon="14.198674739828933"><ele>836.0</ele><time>2026-04-19T08:58:39Z</time></trkpt><trkpt lat="41.83222179892976" lon="14.198761043322536"><ele>836.0</ele><time>2026-04-19T08:58:40Z</time></trkpt><trkpt lat="41.83224946913932" lon="14.19886131294021"><ele>836.0</ele><time>2026-04-19T08:58:41Z</time></trkpt><trkpt lat="41.832233031118164" lon="14.19903742938113"><ele>839.1666666666667</ele><time>2026-04-19T08:58:43Z</time></trkpt><trkpt lat="41.83223393702054" lon="14.199162890157806"><ele>842.3333333333334</ele><time>2026-04-19T08:58:44Z</time></trkpt><trkpt lat="41.832270929828326" lon="14.19924328181227"><ele>845.5</ele><time>2026-04-19T08:58:45Z</time></trkpt><trkpt lat="41.83233120993906" lon="14.199308192136344"><ele>848.6666666666667</ele><time>2026-04-19T08:58:46.001Z</time></trkpt><trkpt lat="41.83237737842802" lon="14.199380004549047"><ele>851.8333333333334</ele><time>2026-04-19T08:58:47.001Z</time></trkpt><trkpt lat="41.83240759255061" lon="14.199493750590216"><ele>855.0</ele><time>2026-04-19T08:58:48Z</time></trkpt><trkpt lat="41.83242198235026" lon="14.19963473369108"><ele>855.0</ele><time>2026-04-19T08:58:49Z</time></trkpt><trkpt lat="41.8324557195808" lon="14.199768356655978"><ele>855.0</ele><time>2026-04-19T08:58:50Z</time></trkpt><trkpt lat="41.83249188000989" lon="14.199917098912012"><ele>855.0</ele><time>2026-04-19T08:58:51Z</time></trkpt><trkpt lat="41.83249271482935" lon="14.200036013344903"><ele>855.0</ele><time>2026-04-19T08:58:52Z</time></trkpt><trkpt lat="41.832476926427525" lon="14.20014754494638"><ele>855.0</ele><time>2026-04-19T08:58:53Z</time></trkpt><trkpt lat="41.8324604879918" lon="14.200255661447601"><ele>856.8</ele><time>2026-04-19T08:58:55Z</time></trkpt><trkpt lat="41.83239580528707" lon="14.200415956874066"><ele>858.6</ele><time>2026-04-19T08:58:57Z</time></trkpt><trkpt lat="41.83235270056356" lon="14.200501139812985"><ele>860.4000000000001</ele><time>2026-04-19T08:58:59Z</time></trkpt><trkpt lat="41.832308673774484" lon="14.200626366864254"><ele>862.2</ele><time>2026-04-19T08:59:02Z</time></trkpt><trkpt lat="41.83225798496369" lon="14.200706738412443"><ele>864.0</ele><time>2026-04-19T08:59:04Z</time></trkpt><trkpt lat="41.83220758140265" lon="14.200787830082627"><ele>864.6666666666666</ele><time>2026-04-19T08:59:06Z</time></trkpt><trkpt lat="41.83215023389474" lon="14.200867220392192"><ele>865.3333333333333</ele><time>2026-04-19T08:59:08Z</time></trkpt><trkpt lat="41.8320937478707" lon="14.200923773440998"><ele>866.0</ele><time>2026-04-19T08:59:10Z</time></trkpt><trkpt lat="41.83204082633986" lon="14.200976963257279"><ele>866.6666666666666</ele><time>2026-04-19T08:59:12Z</time></trkpt><trkpt lat="41.83197066626509" lon="14.201051068945233"><ele>867.3333333333333</ele><time>2026-04-19T08:59:15Z</time></trkpt><trkpt lat="41.83189362236392" lon="14.201107757667598"><ele>868.0</ele><time>2026-04-19T08:59:17Z</time></trkpt><trkpt lat="41.83178537336846" lon="14.201146229069188"><ele>867.9999999999999</ele><time>2026-04-19T08:59:19Z</time></trkpt><trkpt lat="41.831679124175395" lon="14.201182898068923"><ele>868.0</ele><time>2026-04-19T08:59:21Z</time></trkpt><trkpt lat="41.83158762598278" lon="14.201238830909752"><ele>868.0</ele><time>2026-04-19T08:59:29Z</time></trkpt><trkpt lat="41.831507942556904" lon="14.201277948417122"><ele>868.0</ele><time>2026-04-19T08:59:33Z</time></trkpt><trkpt lat="41.83148363932461" lon="14.20137440320523"><ele>867.9999999999999</ele><time>2026-04-19T09:00:08Z</time></trkpt><trkpt lat="41.83153998786068" lon="14.201311198999873"><ele>868.0</ele><time>2026-04-19T09:00:17Z</time></trkpt><trkpt lat="41.83159225095678" lon="14.201261564200914"><ele>868.0</ele><time>2026-04-19T09:00:19Z</time></trkpt><trkpt lat="41.83168262260794" lon="14.201236934899617"><ele>868.0</ele><time>2026-04-19T09:00:21Z</time></trkpt><trkpt lat="41.83179972360047" lon="14.20120396822551"><ele>868.0</ele><time>2026-04-19T09:00:23Z</time></trkpt><trkpt lat="41.831877330372" lon="14.201137196609656"><ele>868.0</ele><time>2026-04-19T09:00:24Z</time></trkpt><trkpt lat="41.831931686534425" lon="14.201065459315503"><ele>868.0</ele><time>2026-04-19T09:00:25Z</time></trkpt><trkpt lat="41.83199279478881" lon="14.200970140166426"><ele>868.2</ele><time>2026-04-19T09:00:26Z</time></trkpt><trkpt lat="41.832072181368105" lon="14.20089586095369"><ele>868.4</ele><time>2026-04-19T09:00:27Z</time></trkpt><trkpt lat="41.83213209823169" lon="14.200815897210406"><ele>868.6000000000001</ele><time>2026-04-19T09:00:27.999Z</time></trkpt><trkpt lat="41.83216892652797" lon="14.200732570406425"><ele>868.8000000000001</ele><time>2026-04-19T09:00:28.999Z</time></trkpt><trkpt lat="41.83223023222558" lon="14.200615908676054"><ele>869.0</ele><time>2026-04-19T09:00:29.999Z</time></trkpt><trkpt lat="41.83227144922443" lon="14.200499196309776"><ele>868.1666666666667</ele><time>2026-04-19T09:00:30.999Z</time></trkpt><trkpt lat="41.832308650019215" lon="14.200421472688262"><ele>867.3333333333334</ele><time>2026-04-19T09:00:31.999Z</time></trkpt><trkpt lat="41.8323406098296" lon="14.200340894963242"><ele>866.5</ele><time>2026-04-19T09:00:33.999Z</time></trkpt><trkpt lat="41.83237779692508" lon="14.200234573677117"><ele>865.6666666666667</ele><time>2026-04-19T09:00:35.999Z</time></trkpt><trkpt lat="41.832392290041696" lon="14.20005282136526"><ele>864.8333333333334</ele><time>2026-04-19T09:00:37.999Z</time></trkpt><trkpt lat="41.832386500542185" lon="14.19994445916831"><ele>864.0</ele><time>2026-04-19T09:00:39Z</time></trkpt><trkpt lat="41.83238485341647" lon="14.19984288670653"><ele>862.5</ele><time>2026-04-19T09:00:40Z</time></trkpt><trkpt lat="41.832371676283294" lon="14.199740777362738"><ele>861.0</ele><time>2026-04-19T09:00:41Z</time></trkpt><trkpt lat="41.83233326007935" lon="14.199639878947108"><ele>859.5</ele><time>2026-04-19T09:00:42Z</time></trkpt><trkpt lat="41.832307984028795" lon="14.199561803774667"><ele>858.0</ele><time>2026-04-19T09:00:42.999Z</time></trkpt><trkpt lat="41.83228716414193" lon="14.199442583842044"><ele>856.5</ele><time>2026-04-19T09:00:43.999Z</time></trkpt><trkpt lat="41.83225392560463" lon="14.199354596380724"><ele>855.0</ele><time>2026-04-19T09:00:44.999Z</time></trkpt><trkpt lat="41.832222405431295" lon="14.199278436536154"><ele>855.0</ele><time>2026-04-19T09:00:45.999Z</time></trkpt><trkpt lat="41.83218324594014" lon="14.199207499870992"><ele>855.0</ele><time>2026-04-19T09:00:46.999Z</time></trkpt><trkpt lat="41.83216044094246" lon="14.1990878862293"><ele>855.0</ele><time>2026-04-19T09:00:48.999Z</time></trkpt><trkpt lat="41.832163896827524" lon="14.198992014026073"><ele>855.0</ele><time>2026-04-19T09:00:49.999Z</time></trkpt><trkpt lat="41.832172944679165" lon="14.198874656607435"><ele>855.0</ele><time>2026-04-19T09:00:52Z</time></trkpt><trkpt lat="41.8321353583037" lon="14.198731525334082"><ele>855.0</ele><time>2026-04-19T09:00:54Z</time></trkpt><trkpt lat="41.83208472143508" lon="14.198608794427605"><ele>852.2857142857143</ele><time>2026-04-19T09:00:56Z</time></trkpt><trkpt lat="41.832046814795426" lon="14.19852970446382"><ele>849.5714285714286</ele><time>2026-04-19T09:00:57Z</time></trkpt><trkpt lat="41.83201637288381" lon="14.198441445035556"><ele>846.8571428571429</ele><time>2026-04-19T09:00:58Z</time></trkpt><trkpt lat="41.8319791364848" lon="14.198355099664811"><ele>844.1428571428571</ele><time>2026-04-19T09:00:59Z</time></trkpt><trkpt lat="41.83193669145669" lon="14.198280938017119"><ele>841.4285714285713</ele><time>2026-04-19T09:01:00Z</time></trkpt><trkpt lat="41.83188431018359" lon="14.198220140760752"><ele>838.7142857142857</ele><time>2026-04-19T09:01:01Z</time></trkpt><trkpt lat="41.831822951894175" lon="14.198134768886257"><ele>836.0</ele><time>2026-04-19T09:01:02Z</time></trkpt><trkpt lat="41.831756145060055" lon="14.198051374430484"><ele>834.8333333333334</ele><time>2026-04-19T09:01:03Z</time></trkpt><trkpt lat="41.83169112590249" lon="14.197970211853981"><ele>833.6666666666667</ele><time>2026-04-19T09:01:04Z</time></trkpt><trkpt lat="41.831626678401925" lon="14.197890874397268"><ele>832.5</ele><time>2026-04-19T09:01:04.999Z</time></trkpt><trkpt lat="41.83156448355883" lon="14.1978004075897"><ele>831.3333333333333</ele><time>2026-04-19T09:01:05.999Z</time></trkpt><trkpt lat="41.83150018348456" lon="14.197703596647282"><ele>830.1666666666666</ele><time>2026-04-19T09:01:06.999Z</time></trkpt><trkpt lat="41.831456836566666" lon="14.197622150205472"><ele>829.0</ele><time>2026-04-19T09:01:07.999Z</time></trkpt><trkpt lat="41.83140489033501" lon="14.197542434936093"><ele>829.0</ele><time>2026-04-19T09:01:08.999Z</time></trkpt><trkpt lat="41.831366311627356" lon="14.197462969620359"><ele>829.0</ele><time>2026-04-19T09:01:10.999Z</time></trkpt><trkpt lat="41.831336562493036" lon="14.197369486400214"><ele>829.0</ele><time>2026-04-19T09:01:15.999Z</time></trkpt><trkpt lat="41.8312581406565" lon="14.197250761651153"><ele>829.0</ele><time>2026-04-19T09:01:17.999Z</time></trkpt><trkpt lat="41.83122209567383" lon="14.197162247008745"><ele>829.0</ele><time>2026-04-19T09:01:18.999Z</time></trkpt><trkpt lat="41.831143451308336" lon="14.197031583294311"><ele>828.3333333333333</ele><time>2026-04-19T09:01:20.999Z</time></trkpt><trkpt lat="41.8310957245735" lon="14.196963802456857"><ele>827.6666666666666</ele><time>2026-04-19T09:01:21.999Z</time></trkpt><trkpt lat="41.83104470302827" lon="14.196873880725265"><ele>827.0</ele><time>2026-04-19T09:01:22.999Z</time></trkpt><trkpt lat="41.831002659999314" lon="14.196795621430317"><ele>826.3333333333333</ele><time>2026-04-19T09:01:23.999Z</time></trkpt><trkpt lat="41.83098812995883" lon="14.196694741570843"><ele>825.6666666666666</ele><time>2026-04-19T09:01:24.999Z</time></trkpt><trkpt lat="41.83099045797116" lon="14.196555768090771"><ele>825.0</ele><time>2026-04-19T09:01:25.999Z</time></trkpt><trkpt lat="41.83098414286655" lon="14.196393579014982"><ele>825.0</ele><time>2026-04-19T09:01:26.999Z</time></trkpt><trkpt lat="41.83096840570002" lon="14.196270207704782"><ele>825.0</ele><time>2026-04-19T09:01:27.999Z</time></trkpt><trkpt lat="41.83095420581064" lon="14.19614291327404"><ele>825.0</ele><time>2026-04-19T09:01:28.999Z</time></trkpt><trkpt lat="41.83094050533846" lon="14.196017676698288"><ele>825.0</ele><time>2026-04-19T09:01:29.999Z</time></trkpt><trkpt lat="41.830930771179034" lon="14.1958691850481"><ele>825.0</ele><time>2026-04-19T09:01:30.999Z</time></trkpt><trkpt lat="41.83090457334503" lon="14.195739541233463"><ele>824.8333333333334</ele><time>2026-04-19T09:01:31.999Z</time></trkpt><trkpt lat="41.83086535177645" lon="14.195631372126128"><ele>824.6666666666667</ele><time>2026-04-19T09:01:32.999Z</time></trkpt><trkpt lat="41.830797423176236" lon="14.195531223964128"><ele>824.5</ele><time>2026-04-19T09:01:33.999Z</time></trkpt><trkpt lat="41.83071741586459" lon="14.19549148269943"><ele>824.3333333333334</ele><time>2026-04-19T09:01:34.999Z</time></trkpt><trkpt lat="41.83065706201505" lon="14.195442224341623"><ele>824.1666666666667</ele><time>2026-04-19T09:01:35.999Z</time></trkpt><trkpt lat="41.8306159177066" lon="14.195333377705282"><ele>824.0</ele><time>2026-04-19T09:01:36.999Z</time></trkpt><trkpt lat="41.83056950649104" lon="14.195223075818731"><ele>824.0</ele><time>2026-04-19T09:01:37.999Z</time></trkpt><trkpt lat="41.830552696261456" lon="14.195126123143641"><ele>824.0</ele><time>2026-04-19T09:01:38.999Z</time></trkpt><trkpt lat="41.83056640621488" lon="14.194952527483567"><ele>824.0</ele><time>2026-04-19T09:01:40.999Z</time></trkpt><trkpt lat="41.830534548367126" lon="14.194793741854708"><ele>824.0</ele><time>2026-04-19T09:01:42.999Z</time></trkpt><trkpt lat="41.83051153073366" lon="14.194707709681763"><ele>824.0</ele><time>2026-04-19T09:01:43.999Z</time></trkpt><trkpt lat="41.830487645519874" lon="14.194605216303101"><ele>822.5000000000001</ele><time>2026-04-19T09:01:44.999Z</time></trkpt><trkpt lat="41.830478952154095" lon="14.194494972639225"><ele>821.0</ele><time>2026-04-19T09:01:45.999Z</time></trkpt><trkpt lat="41.83049880516887" lon="14.194409300916192"><ele>819.5</ele><time>2026-04-19T09:01:46.999Z</time></trkpt><trkpt lat="41.83052636909553" lon="14.194311833465624"><ele>818.0</ele><time>2026-04-19T09:01:47.999Z</time></trkpt><trkpt lat="41.830528650392466" lon="14.194206986676981"><ele>816.5000000000001</ele><time>2026-04-19T09:01:48.999Z</time></trkpt><trkpt lat="41.830520723021515" lon="14.194109721301253"><ele>815.0</ele><time>2026-04-19T09:01:49.999Z</time></trkpt><trkpt lat="41.83049997145976" lon="14.19401290192739"><ele>811.75</ele><time>2026-04-19T09:01:50.999Z</time></trkpt><trkpt lat="41.83045758280305" lon="14.193915663645713"><ele>808.5</ele><time>2026-04-19T09:01:51.999Z</time></trkpt><trkpt lat="41.83041323562924" lon="14.193841603288691"><ele>805.25</ele><time>2026-04-19T09:01:52.999Z</time></trkpt><trkpt lat="41.830352167179306" lon="14.193801826058326"><ele>802.0</ele><time>2026-04-19T09:01:56.999Z</time></trkpt><trkpt lat="41.8300668703897" lon="14.193682225045887"><ele>801.0</ele><time>2026-04-19T09:02:06.999Z</time></trkpt><trkpt lat="41.82993831351342" lon="14.19364875147226"><ele>800.0</ele><time>2026-04-19T09:02:07.999Z</time></trkpt><trkpt lat="41.82976390789403" lon="14.193610081622765"><ele>799.0</ele><time>2026-04-19T09:02:08.999Z</time></trkpt><trkpt lat="41.82958327075653" lon="14.193586768516408"><ele>799.0</ele><time>2026-04-19T09:02:09.999Z</time></trkpt><trkpt lat="41.82939858239302" lon="14.19356643890602"><ele>799.0</ele><time>2026-04-19T09:02:10.999Z</time></trkpt><trkpt lat="41.82922909180499" lon="14.193546335424601"><ele>799.0</ele><time>2026-04-19T09:02:11.999Z</time></trkpt><trkpt lat="41.82906424309136" lon="14.193517819103429"><ele>795.5</ele><time>2026-04-19T09:02:12.999Z</time></trkpt><trkpt lat="41.82892377479248" lon="14.193505680898163"><ele>792.0</ele><time>2026-04-19T09:02:13.999Z</time></trkpt><trkpt lat="41.8288019263669" lon="14.193473815164905"><ele>788.5</ele><time>2026-04-19T09:02:14.999Z</time></trkpt><trkpt lat="41.82870126794069" lon="14.193408188752093"><ele>785.0</ele><time>2026-04-19T09:02:15.999Z</time></trkpt><trkpt lat="41.82859366582818" lon="14.193304734377781"><ele>782.25</ele><time>2026-04-19T09:02:16.999Z</time></trkpt><trkpt lat="41.82847303644328" lon="14.193177332017502"><ele>779.5</ele><time>2026-04-19T09:02:17.999Z</time></trkpt><trkpt lat="41.82835759984812" lon="14.193047395477073"><ele>776.75</ele><time>2026-04-19T09:02:18.999Z</time></trkpt><trkpt lat="41.82825027771681" lon="14.192960348974733"><ele>774.0</ele><time>2026-04-19T09:02:19.999Z</time></trkpt><trkpt lat="41.82816823171314" lon="14.192885680510797"><ele>773.2</ele><time>2026-04-19T09:02:20.999Z</time></trkpt><trkpt lat="41.828087437215316" lon="14.192818654647253"><ele>772.4000000000001</ele><time>2026-04-19T09:02:21.999Z</time></trkpt><trkpt lat="41.82800323324479" lon="14.192730817058923"><ele>771.6</ele><time>2026-04-19T09:02:22.999Z</time></trkpt><trkpt lat="41.827943900252734" lon="14.192638012053477"><ele>770.8</ele><time>2026-04-19T09:02:23.999Z</time></trkpt><trkpt lat="41.827892120815896" lon="14.192516489060466"><ele>770.0</ele><time>2026-04-19T09:02:24.999Z</time></trkpt><trkpt lat="41.82785555799882" lon="14.192389974689805"><ele>767.8</ele><time>2026-04-19T09:02:25.999Z</time></trkpt><trkpt lat="41.82780879916656" lon="14.192251575577838"><ele>765.6</ele><time>2026-04-19T09:02:26.999Z</time></trkpt><trkpt lat="41.827769298120955" lon="14.19210982632362"><ele>763.4000000000001</ele><time>2026-04-19T09:02:27.999Z</time></trkpt><trkpt lat="41.82773828960337" lon="14.19199091572859"><ele>761.2</ele><time>2026-04-19T09:02:28.999Z</time></trkpt><trkpt lat="41.827725993764005" lon="14.191867105080329"><ele>759.0</ele><time>2026-04-19T09:02:30.999Z</time></trkpt><trkpt lat="41.82776943664144" lon="14.191797897924655"><ele>759.0</ele><time>2026-04-19T09:02:33.999Z</time></trkpt><trkpt lat="41.827763925616594" lon="14.191708915684314"><ele>759.0</ele><time>2026-04-19T09:02:36.999Z</time></trkpt><trkpt lat="41.82771744813979" lon="14.19160040489091"><ele>759.0</ele><time>2026-04-19T09:02:45Z</time></trkpt><trkpt lat="41.827663826152644" lon="14.191478380501735"><ele>759.0</ele><time>2026-04-19T09:02:48Z</time></trkpt><trkpt lat="41.82759766737968" lon="14.191401940201374"><ele>759.0</ele><time>2026-04-19T09:02:49.999Z</time></trkpt><trkpt lat="41.82752027678595" lon="14.191322600030196"><ele>758.8000000000001</ele><time>2026-04-19T09:02:53Z</time></trkpt><trkpt lat="41.82744538847915" lon="14.191389498679055"><ele>758.6</ele><time>2026-04-19T09:02:57Z</time></trkpt><trkpt lat="41.82741185021435" lon="14.191496161800119"><ele>758.4</ele><time>2026-04-19T09:03:00Z</time></trkpt><trkpt lat="41.82737876711819" lon="14.191628924387304"><ele>758.2</ele><time>2026-04-19T09:03:02Z</time></trkpt><trkpt lat="41.82736143676761" lon="14.19176778497455"><ele>758.0</ele><time>2026-04-19T09:03:04Z</time></trkpt><trkpt lat="41.827326554417716" lon="14.191899772747146"><ele>758.0</ele><time>2026-04-19T09:03:06Z</time></trkpt><trkpt lat="41.82730381006673" lon="14.192000868959036"><ele>758.0</ele><time>2026-04-19T09:03:08Z</time></trkpt><trkpt lat="41.82726983058406" lon="14.192110415623787"><ele>758.0</ele><time>2026-04-19T09:03:11Z</time></trkpt><trkpt lat="41.82727200449872" lon="14.192208666195572"><ele>758.0</ele><time>2026-04-19T09:03:13Z</time></trkpt><trkpt lat="41.827249575006505" lon="14.192311226579383"><ele>758.0</ele><time>2026-04-19T09:03:17Z</time></trkpt><trkpt lat="41.82723362350904" lon="14.192431291216709"><ele>758.0</ele><time>2026-04-19T09:03:21Z</time></trkpt><trkpt lat="41.827230909311524" lon="14.192515989162073"><ele>758.5</ele><time>2026-04-19T09:03:24Z</time></trkpt><trkpt lat="41.8272100232863" lon="14.192624492450504"><ele>759.0</ele><time>2026-04-19T09:03:29Z</time></trkpt><trkpt lat="41.82724049714387" lon="14.192742132458417"><ele>759.5</ele><time>2026-04-19T09:03:31Z</time></trkpt><trkpt lat="41.82726322987847" lon="14.192823977123975"><ele>760.0</ele><time>2026-04-19T09:03:32Z</time></trkpt><trkpt lat="41.82725699462355" lon="14.19292690571074"><ele>760.5</ele><time>2026-04-19T09:03:33Z</time></trkpt><trkpt lat="41.827244997494724" lon="14.193066873312784"><ele>761.0</ele><time>2026-04-19T09:03:34Z</time></trkpt><trkpt lat="41.827231662972146" lon="14.193249060882454"><ele>761.8</ele><time>2026-04-19T09:03:35Z</time></trkpt><trkpt lat="41.827213366101674" lon="14.193396000119273"><ele>762.5999999999999</ele><time>2026-04-19T09:03:36Z</time></trkpt><trkpt lat="41.82717738772142" lon="14.193498257351985"><ele>763.4</ele><time>2026-04-19T09:03:38Z</time></trkpt><trkpt lat="41.82715381774337" lon="14.19361891712992"><ele>764.2</ele><time>2026-04-19T09:03:40Z</time></trkpt><trkpt lat="41.82710422305397" lon="14.193796996130464"><ele>765.0</ele><time>2026-04-19T09:03:42Z</time></trkpt><trkpt lat="41.827108761585144" lon="14.193961267651124"><ele>765.5</ele><time>2026-04-19T09:03:44Z</time></trkpt><trkpt lat="41.827129805479935" lon="14.194090797998662"><ele>766.0</ele><time>2026-04-19T09:03:45Z</time></trkpt><trkpt lat="41.82714591560589" lon="14.194201863873264"><ele>766.5</ele><time>2026-04-19T09:03:46Z</time></trkpt><trkpt lat="41.827162603185144" lon="14.194323290540364"><ele>767.0</ele><time>2026-04-19T09:03:47Z</time></trkpt><trkpt lat="41.827176313534714" lon="14.194418986279887"><ele>767.5</ele><time>2026-04-19T09:03:48Z</time></trkpt><trkpt lat="41.82719022927323" lon="14.194517075683441"><ele>768.0</ele><time>2026-04-19T09:03:49Z</time></trkpt><trkpt lat="41.82718660211038" lon="14.19462002809182"><ele>768.0</ele><time>2026-04-19T09:03:51Z</time></trkpt><trkpt lat="41.82718604496653" lon="14.194709867133092"><ele>768.0</ele><time>2026-04-19T09:03:53Z</time></trkpt><trkpt lat="41.8272609425567" lon="14.194734590218589"><ele>768.0</ele><time>2026-04-19T09:03:54.999Z</time></trkpt><trkpt lat="41.82732639812728" lon="14.194746101244819"><ele>768.0</ele><time>2026-04-19T09:03:55.999Z</time></trkpt><trkpt lat="41.82738863508839" lon="14.1947844166641"><ele>768.0</ele><time>2026-04-19T09:03:56.998Z</time></trkpt><trkpt lat="41.82745620574117" lon="14.194870577960899"><ele>768.0</ele><time>2026-04-19T09:03:58.997Z</time></trkpt><trkpt lat="41.8274542443478" lon="14.194976508523636"><ele>768.6666666666666</ele><time>2026-04-19T09:03:59.996Z</time></trkpt><trkpt lat="41.827442260044045" lon="14.19507025058161"><ele>769.3333333333333</ele><time>2026-04-19T09:04:00.996Z</time></trkpt><trkpt lat="41.82741248675068" lon="14.195167396242345"><ele>770.0</ele><time>2026-04-19T09:04:01.995Z</time></trkpt><trkpt lat="41.827401189326615" lon="14.195259528419296"><ele>770.6666666666666</ele><time>2026-04-19T09:04:03.995Z</time></trkpt><trkpt lat="41.8273649957653" lon="14.195329219167538"><ele>771.3333333333333</ele><time>2026-04-19T09:04:06.994Z</time></trkpt><trkpt lat="41.82735790171694" lon="14.195444212219382"><ele>772.0</ele><time>2026-04-19T09:04:08.993Z</time></trkpt><trkpt lat="41.82735223649437" lon="14.195608675745234"><ele>772.4999999999999</ele><time>2026-04-19T09:04:10.993Z</time></trkpt><trkpt lat="41.82739484239792" lon="14.195758085869256"><ele>773.0</ele><time>2026-04-19T09:04:12.992Z</time></trkpt><trkpt lat="41.82743186203041" lon="14.195826686433913"><ele>773.5</ele><time>2026-04-19T09:04:13.992Z</time></trkpt><trkpt lat="41.82749375838688" lon="14.195898204482253"><ele>774.0</ele><time>2026-04-19T09:04:15.991Z</time></trkpt><trkpt lat="41.827513325996485" lon="14.195981316736162"><ele>774.4999999999999</ele><time>2026-04-19T09:04:17.991Z</time></trkpt><trkpt lat="41.82752574161678" lon="14.196066674788963"><ele>775.0</ele><time>2026-04-19T09:04:22.99Z</time></trkpt><trkpt lat="41.82758824774915" lon="14.196149344378668"><ele>775.0</ele><time>2026-04-19T09:04:28.99Z</time></trkpt><trkpt lat="41.82757498674506" lon="14.196259320304568"><ele>775.0</ele><time>2026-04-19T09:04:30.99Z</time></trkpt><trkpt lat="41.827501388584636" lon="14.196383553098618"><ele>775.0</ele><time>2026-04-19T09:04:32.99Z</time></trkpt><trkpt lat="41.82742661067406" lon="14.196462806174004"><ele>775.0</ele><time>2026-04-19T09:04:33.989Z</time></trkpt><trkpt lat="41.82737576854831" lon="14.196517335117482"><ele>775.0</ele><time>2026-04-19T09:04:34.989Z</time></trkpt><trkpt lat="41.827294331096255" lon="14.196614863733624"><ele>775.8333333333333</ele><time>2026-04-19T09:04:36.989Z</time></trkpt><trkpt lat="41.82728114934725" lon="14.196720927311322"><ele>776.6666666666666</ele><time>2026-04-19T09:04:38.989Z</time></trkpt><trkpt lat="41.827290424279454" lon="14.196820573572571"><ele>777.5</ele><time>2026-04-19T09:04:39.989Z</time></trkpt><trkpt lat="41.827280139688305" lon="14.19692205015381"><ele>778.3333333333333</ele><time>2026-04-19T09:04:40.989Z</time></trkpt><trkpt lat="41.827255707728575" lon="14.197037276642755"><ele>779.1666666666666</ele><time>2026-04-19T09:04:41.989Z</time></trkpt><trkpt lat="41.82721955094751" lon="14.197145035186196"><ele>780.0</ele><time>2026-04-19T09:04:42.989Z</time></trkpt><trkpt lat="41.82721970785514" lon="14.19723719801846"><ele>781.8</ele><time>2026-04-19T09:04:43.989Z</time></trkpt><trkpt lat="41.82724452056457" lon="14.197376247217962"><ele>783.6</ele><time>2026-04-19T09:04:44.989Z</time></trkpt><trkpt lat="41.82725818440926" lon="14.197475302615757"><ele>785.4000000000001</ele><time>2026-04-19T09:04:45.989Z</time></trkpt><trkpt lat="41.82723419073572" lon="14.19757987521347"><ele>787.2</ele><time>2026-04-19T09:04:47.989Z</time></trkpt><trkpt lat="41.827204662682014" lon="14.197722948749764"><ele>789.0</ele><time>2026-04-19T09:04:49.989Z</time></trkpt><trkpt lat="41.827209052604985" lon="14.197848172294123"><ele>789.0</ele><time>2026-04-19T09:04:50.989Z</time></trkpt><trkpt lat="41.82721558196288" lon="14.197969392730359"><ele>789.0</ele><time>2026-04-19T09:04:51.989Z</time></trkpt><trkpt lat="41.82719896400138" lon="14.198065038716514"><ele>789.0</ele><time>2026-04-19T09:04:52.989Z</time></trkpt><trkpt lat="41.8271653336765" lon="14.198164783896905"><ele>789.0</ele><time>2026-04-19T09:04:53.989Z</time></trkpt><trkpt lat="41.827120755659706" lon="14.198255817639385"><ele>789.0</ele><time>2026-04-19T09:04:54.989Z</time></trkpt><trkpt lat="41.82708344143213" lon="14.198342826302463"><ele>789.0</ele><time>2026-04-19T09:04:55.99Z</time></trkpt><trkpt lat="41.8270419683819" lon="14.198495858723579"><ele>789.6666666666666</ele><time>2026-04-19T09:04:57.989Z</time></trkpt><trkpt lat="41.827083165163934" lon="14.198583802481695"><ele>790.3333333333333</ele><time>2026-04-19T09:04:59.989Z</time></trkpt><trkpt lat="41.827085530940565" lon="14.19869058078818"><ele>791.0</ele><time>2026-04-19T09:05:02.989Z</time></trkpt><trkpt lat="41.8270785060138" lon="14.198803226564362"><ele>791.6666666666666</ele><time>2026-04-19T09:05:03.989Z</time></trkpt><trkpt lat="41.827060410163014" lon="14.198918337416481"><ele>792.3333333333333</ele><time>2026-04-19T09:05:04.989Z</time></trkpt><trkpt lat="41.8270506619146" lon="14.199026999342347"><ele>793.0</ele><time>2026-04-19T09:05:05.989Z</time></trkpt><trkpt lat="41.827028066588625" lon="14.199115336330124"><ele>793.1666666666666</ele><time>2026-04-19T09:05:07.989Z</time></trkpt><trkpt lat="41.82698432120737" lon="14.199187715270622"><ele>793.3333333333333</ele><time>2026-04-19T09:05:11.989Z</time></trkpt><trkpt lat="41.82696668582776" lon="14.199271477490377"><ele>793.5</ele><time>2026-04-19T09:05:13.989Z</time></trkpt><trkpt lat="41.82690510442562" lon="14.199358078374724"><ele>793.6666666666667</ele><time>2026-04-19T09:05:15.988Z</time></trkpt><trkpt lat="41.826849474565634" lon="14.199402948792411"><ele>793.8333333333334</ele><time>2026-04-19T09:05:16.988Z</time></trkpt><trkpt lat="41.82679292940467" lon="14.199513184380809"><ele>794.0</ele><time>2026-04-19T09:05:18.988Z</time></trkpt><trkpt lat="41.82673754302824" lon="14.199588711590751"><ele>793.6</ele><time>2026-04-19T09:05:20.988Z</time></trkpt><trkpt lat="41.82664180386345" lon="14.199647853043782"><ele>793.2</ele><time>2026-04-19T09:05:22.988Z</time></trkpt><trkpt lat="41.826570490748814" lon="14.199783978364156"><ele>792.8000000000001</ele><time>2026-04-19T09:05:24.988Z</time></trkpt><trkpt lat="41.8265612762331" lon="14.199881393685121"><ele>792.4000000000001</ele><time>2026-04-19T09:05:25.988Z</time></trkpt><trkpt lat="41.826553227295065" lon="14.200015090335349"><ele>792.0</ele><time>2026-04-19T09:05:27.988Z</time></trkpt><trkpt lat="41.8265981862928" lon="14.20014865454146"><ele>792.0</ele><time>2026-04-19T09:05:29.988Z</time></trkpt><trkpt lat="41.826691982976996" lon="14.20023441347281"><ele>792.0</ele><time>2026-04-19T09:05:31.988Z</time></trkpt><trkpt lat="41.82679048070054" lon="14.200313288116373"><ele>792.0</ele><time>2026-04-19T09:05:33.988Z</time></trkpt><trkpt lat="41.826863613849916" lon="14.20032882142684"><ele>792.0</ele><time>2026-04-19T09:05:34.988Z</time></trkpt><trkpt lat="41.826938683186064" lon="14.20035372290478"><ele>792.0</ele><time>2026-04-19T09:05:35.988Z</time></trkpt><trkpt lat="41.82700434947719" lon="14.200384229222676"><ele>792.0</ele><time>2026-04-19T09:05:36.988Z</time></trkpt><trkpt lat="41.82704806164108" lon="14.200451874440326"><ele>792.5</ele><time>2026-04-19T09:05:37.988Z</time></trkpt><trkpt lat="41.82708340474147" lon="14.200529475620217"><ele>793.0</ele><time>2026-04-19T09:05:38.988Z</time></trkpt><trkpt lat="41.82703622062806" lon="14.200643226880944"><ele>793.5</ele><time>2026-04-19T09:05:40.988Z</time></trkpt><trkpt lat="41.82698957104908" lon="14.20071621990978"><ele>794.0</ele><time>2026-04-19T09:05:41.988Z</time></trkpt><trkpt lat="41.82691966918938" lon="14.200814621591466"><ele>794.5</ele><time>2026-04-19T09:05:43.988Z</time></trkpt><trkpt lat="41.82683040748266" lon="14.20085768425324"><ele>795.0</ele><time>2026-04-19T09:05:45.988Z</time></trkpt><trkpt lat="41.826773961668316" lon="14.200900071303165"><ele>795.0</ele><time>2026-04-19T09:05:46.988Z</time></trkpt><trkpt lat="41.82671466613797" lon="14.200944796172386"><ele>795.0</ele><time>2026-04-19T09:05:47.988Z</time></trkpt><trkpt lat="41.826616630642064" lon="14.201008813696905"><ele>795.0</ele><time>2026-04-19T09:05:49.988Z</time></trkpt><trkpt lat="41.82651804722094" lon="14.201017724415994"><ele>795.0</ele><time>2026-04-19T09:05:51.988Z</time></trkpt><trkpt lat="41.82643797961825" lon="14.20106163137607"><ele>795.0</ele><time>2026-04-19T09:05:53.988Z</time></trkpt><trkpt lat="41.826377952995074" lon="14.201090301535865"><ele>795.0</ele><time>2026-04-19T09:06:04.988Z</time></trkpt><trkpt lat="41.826401043570485" lon="14.20117126821504"><ele>795.0</ele><time>2026-04-19T09:06:07.988Z</time></trkpt><trkpt lat="41.82643449596905" lon="14.20126878121876"><ele>795.0</ele><time>2026-04-19T09:06:19.988Z</time></trkpt><trkpt lat="41.82648285532864" lon="14.201408190819382"><ele>795.0</ele><time>2026-04-19T09:06:21.988Z</time></trkpt><trkpt lat="41.82653709692549" lon="14.201463083758535"><ele>795.0</ele><time>2026-04-19T09:07:09.988Z</time></trkpt><trkpt lat="41.82663812348799" lon="14.201558516946555"><ele>795.0</ele><time>2026-04-19T09:07:11.988Z</time></trkpt><trkpt lat="41.82668478573333" lon="14.201669080196387"><ele>796.6666666666666</ele><time>2026-04-19T09:07:12.988Z</time></trkpt><trkpt lat="41.82672582382037" lon="14.201790662015782"><ele>798.3333333333333</ele><time>2026-04-19T09:07:13.988Z</time></trkpt><trkpt lat="41.826742932406745" lon="14.201880922888217"><ele>800.0</ele><time>2026-04-19T09:07:14.988Z</time></trkpt><trkpt lat="41.82672350063802" lon="14.202015935021361"><ele>801.6666666666666</ele><time>2026-04-19T09:07:16.988Z</time></trkpt><trkpt lat="41.82671165723463" lon="14.202103463696009"><ele>803.3333333333333</ele><time>2026-04-19T09:07:17.988Z</time></trkpt><trkpt lat="41.826734036789894" lon="14.202195738009921"><ele>805.0</ele><time>2026-04-19T09:07:18.988Z</time></trkpt><trkpt lat="41.82677020473487" lon="14.202282312700529"><ele>805.8333333333333</ele><time>2026-04-19T09:07:19.988Z</time></trkpt><trkpt lat="41.82682008152229" lon="14.202343253626895"><ele>806.6666666666666</ele><time>2026-04-19T09:07:20.988Z</time></trkpt><trkpt lat="41.826853206541635" lon="14.202427733093502"><ele>807.5</ele><time>2026-04-19T09:07:22.988Z</time></trkpt><trkpt lat="41.82689472023868" lon="14.202587574170185"><ele>808.3333333333333</ele><time>2026-04-19T09:07:24.988Z</time></trkpt><trkpt lat="41.82690093290424" lon="14.202732607591207"><ele>809.1666666666666</ele><time>2026-04-19T09:07:26.988Z</time></trkpt><trkpt lat="41.82692446556274" lon="14.202829058008692"><ele>810.0</ele><time>2026-04-19T09:07:28.988Z</time></trkpt><trkpt lat="41.82701405143371" lon="14.202884730929725"><ele>810.0</ele><time>2026-04-19T09:07:30.988Z</time></trkpt><trkpt lat="41.827098229769696" lon="14.20294398536403"><ele>810.0</ele><time>2026-04-19T09:07:32.988Z</time></trkpt><trkpt lat="41.827170040437444" lon="14.203054659208572"><ele>810.0</ele><time>2026-04-19T09:07:34.988Z</time></trkpt><trkpt lat="41.82720308712721" lon="14.203155097231905"><ele>810.0</ele><time>2026-04-19T09:07:38.988Z</time></trkpt><trkpt lat="41.827253176770505" lon="14.20322581846774"><ele>810.0</ele><time>2026-04-19T09:07:40.988Z</time></trkpt><trkpt lat="41.82730651099863" lon="14.203322291453292"><ele>810.0</ele><time>2026-04-19T09:07:42.988Z</time></trkpt><trkpt lat="41.82731642049339" lon="14.203418838311864"><ele>810.4285714285713</ele><time>2026-04-19T09:07:45.988Z</time></trkpt><trkpt lat="41.82733291194084" lon="14.203541380859194"><ele>810.8571428571429</ele><time>2026-04-19T09:07:48.988Z</time></trkpt><trkpt lat="41.82736405576959" lon="14.203618706749126"><ele>811.2857142857142</ele><time>2026-04-19T09:07:50.988Z</time></trkpt><trkpt lat="41.82741060133647" lon="14.203681059615317"><ele>811.7142857142857</ele><time>2026-04-19T09:07:52.988Z</time></trkpt><trkpt lat="41.8274508873634" lon="14.203752557049288"><ele>812.1428571428571</ele><time>2026-04-19T09:07:55.988Z</time></trkpt><trkpt lat="41.82745430449755" lon="14.203847946143236"><ele>812.5714285714286</ele><time>2026-04-19T09:08:00.988Z</time></trkpt><trkpt lat="41.82747741603327" lon="14.203941836585582"><ele>813.0</ele><time>2026-04-19T09:08:03.988Z</time></trkpt><trkpt lat="41.827497901134755" lon="14.204026806258211"><ele>814.8333333333334</ele><time>2026-04-19T09:08:06.988Z</time></trkpt><trkpt lat="41.82751298628854" lon="14.204109328017095"><ele>816.6666666666667</ele><time>2026-04-19T09:08:15.988Z</time></trkpt><trkpt lat="41.827561418597384" lon="14.204180300466085"><ele>818.5</ele><time>2026-04-19T09:08:22.987Z</time></trkpt><trkpt lat="41.8276206832446" lon="14.204213660188776"><ele>820.3333333333334</ele><time>2026-04-19T09:08:25.987Z</time></trkpt><trkpt lat="41.82771083299389" lon="14.204223811215584"><ele>822.1666666666667</ele><time>2026-04-19T09:08:27.987Z</time></trkpt><trkpt lat="41.827792099032656" lon="14.20428532502798"><ele>824.0</ele><time>2026-04-19T09:10:38.987Z</time></trkpt><trkpt lat="41.82786017619105" lon="14.204339147567099"><ele>824.8333333333334</ele><time>2026-04-19T09:10:40.987Z</time></trkpt><trkpt lat="41.8279114026506" lon="14.204429992997307"><ele>825.6666666666667</ele><time>2026-04-19T09:10:42.987Z</time></trkpt><trkpt lat="41.827985504861886" lon="14.204470395158395"><ele>826.5</ele><time>2026-04-19T09:10:44.987Z</time></trkpt><trkpt lat="41.828041777421056" lon="14.204535303611719"><ele>827.3333333333333</ele><time>2026-04-19T09:10:46.987Z</time></trkpt><trkpt lat="41.828099275143636" lon="14.20459999767997"><ele>828.1666666666666</ele><time>2026-04-19T09:10:49.987Z</time></trkpt><trkpt lat="41.828138498749084" lon="14.204679333905682"><ele>829.0</ele><time>2026-04-19T09:10:57.987Z</time></trkpt><trkpt lat="41.828159103909144" lon="14.204776471154597"><ele>828.3333333333333</ele><time>2026-04-19T09:11:00.987Z</time></trkpt><trkpt lat="41.82819357716054" lon="14.2048537988146"><ele>827.6666666666666</ele><time>2026-04-19T09:11:04.987Z</time></trkpt><trkpt lat="41.82821513176931" lon="14.204960287683"><ele>827.0</ele><time>2026-04-19T09:11:09.988Z</time></trkpt><trkpt lat="41.828206845419565" lon="14.205063454207172"><ele>826.3333333333333</ele><time>2026-04-19T09:11:12.988Z</time></trkpt><trkpt lat="41.82823142483267" lon="14.205150810767849"><ele>825.6666666666666</ele><time>2026-04-19T09:12:07.987Z</time></trkpt><trkpt lat="41.82822174496923" lon="14.205274654963066"><ele>825.0</ele><time>2026-04-19T09:12:10.987Z</time></trkpt><trkpt lat="41.828270702886606" lon="14.205368274566519"><ele>825.0</ele><time>2026-04-19T09:12:40.987Z</time></trkpt><trkpt lat="41.828291580407026" lon="14.205448790262738"><ele>825.0</ele><time>2026-04-19T09:13:06.986Z</time></trkpt><trkpt lat="41.82820829566204" lon="14.205440708815399"><ele>825.0</ele><time>2026-04-19T09:13:26.987Z</time></trkpt><trkpt lat="41.82825354167905" lon="14.205524673658598"><ele>825.0</ele><time>2026-04-19T09:13:42.987Z</time></trkpt><trkpt lat="41.82833906091744" lon="14.20556345548411"><ele>825.0</ele><time>2026-04-19T09:13:44.987Z</time></trkpt><trkpt lat="41.828439119469785" lon="14.20558277383171"><ele>825.0</ele><time>2026-04-19T09:13:46.987Z</time></trkpt><trkpt lat="41.828509917206866" lon="14.205563176057499"><ele>827.1666666666666</ele><time>2026-04-19T09:13:48.987Z</time></trkpt><trkpt lat="41.82856493241986" lon="14.205612156880079"><ele>829.3333333333333</ele><time>2026-04-19T09:13:54.986Z</time></trkpt><trkpt lat="41.8286208804398" lon="14.20570048248153"><ele>831.5</ele><time>2026-04-19T09:14:36.986Z</time></trkpt><trkpt lat="41.828695673899624" lon="14.205770608643997"><ele>833.6666666666666</ele><time>2026-04-19T09:14:39.986Z</time></trkpt><trkpt lat="41.828778364312655" lon="14.205836265899496"><ele>835.8333333333333</ele><time>2026-04-19T09:14:42.986Z</time></trkpt><trkpt lat="41.82884556885919" lon="14.205845815300536"><ele>838.0</ele><time>2026-04-19T09:14:47.986Z</time></trkpt><trkpt lat="41.82893008435996" lon="14.205848346570324"><ele>837.9999999999999</ele><time>2026-04-19T09:14:49.986Z</time></trkpt><trkpt lat="41.82899748938885" lon="14.205842854062574"><ele>838.0</ele><time>2026-04-19T09:14:51.986Z</time></trkpt><trkpt lat="41.82905921561065" lon="14.205922928832258"><ele>838.0</ele><time>2026-04-19T09:14:53.986Z</time></trkpt><trkpt lat="41.82910501975743" lon="14.205993117748973"><ele>838.0</ele><time>2026-04-19T09:14:54.986Z</time></trkpt><trkpt lat="41.82916012093273" lon="14.206052943710874"><ele>837.9999999999999</ele><time>2026-04-19T09:14:55.986Z</time></trkpt><trkpt lat="41.829246303252205" lon="14.206161441145666"><ele>838.0</ele><time>2026-04-19T09:14:57.986Z</time></trkpt><trkpt lat="41.829310149369945" lon="14.206281525710143"><ele>841.9999999999999</ele><time>2026-04-19T09:15:00.986Z</time></trkpt><trkpt lat="41.82935544758085" lon="14.20636249079537"><ele>846.0</ele><time>2026-04-19T09:15:07.986Z</time></trkpt><trkpt lat="41.82940759213769" lon="14.206419188384206"><ele>850.0</ele><time>2026-04-19T09:15:09.986Z</time></trkpt><trkpt lat="41.82947885886591" lon="14.2064670346716"><ele>854.0</ele><time>2026-04-19T09:15:11.985Z</time></trkpt><trkpt lat="41.829535057831215" lon="14.206408093514861"><ele>857.9999999999999</ele><time>2026-04-19T09:15:13.985Z</time></trkpt><trkpt lat="41.82958055198245" lon="14.206348450986715"><ele>862.0</ele><time>2026-04-19T09:15:15.985Z</time></trkpt><trkpt lat="41.829690003327784" lon="14.206263173264187"><ele>861.9999999999999</ele><time>2026-04-19T09:15:17.985Z</time></trkpt><trkpt lat="41.82979542064849" lon="14.206211297077985"><ele>862.0</ele><time>2026-04-19T09:15:19.986Z</time></trkpt><trkpt lat="41.82985789047419" lon="14.206178690330225"><ele>862.0</ele><time>2026-04-19T09:15:20.986Z</time></trkpt><trkpt lat="41.8299140229039" lon="14.206138218532994"><ele>862.0</ele><time>2026-04-19T09:15:21.987Z</time></trkpt><trkpt lat="41.829966702602604" lon="14.206067019597501"><ele>861.9999999999999</ele><time>2026-04-19T09:15:22.986Z</time></trkpt><trkpt lat="41.829995195471454" lon="14.205972035202851"><ele>862.0</ele><time>2026-04-19T09:15:23.986Z</time></trkpt><trkpt lat="41.83002960967598" lon="14.205871334754788"><ele>862.0</ele><time>2026-04-19T09:15:24.987Z</time></trkpt><trkpt lat="41.83006299988039" lon="14.205789231589826"><ele>862.0</ele><time>2026-04-19T09:15:25.986Z</time></trkpt><trkpt lat="41.83015967417226" lon="14.205738044476904"><ele>862.0</ele><time>2026-04-19T09:15:27.986Z</time></trkpt><trkpt lat="41.83029610877926" lon="14.205746048271237"><ele>862.0</ele><time>2026-04-19T09:15:29.986Z</time></trkpt><trkpt lat="41.83037313926686" lon="14.20577791175704"><ele>862.0</ele><time>2026-04-19T09:15:30.986Z</time></trkpt><trkpt lat="41.830449128397" lon="14.205791181354046"><ele>864.3333333333333</ele><time>2026-04-19T09:15:31.987Z</time></trkpt><trkpt lat="41.830517370756844" lon="14.205801444750767"><ele>866.6666666666666</ele><time>2026-04-19T09:15:32.987Z</time></trkpt><trkpt lat="41.83061842685619" lon="14.205724678823753"><ele>869.0</ele><time>2026-04-19T09:15:34.987Z</time></trkpt><trkpt lat="41.830680709161584" lon="14.205648507514875"><ele>871.3333333333333</ele><time>2026-04-19T09:15:35.986Z</time></trkpt><trkpt lat="41.83075912681823" lon="14.20556012766643"><ele>873.6666666666666</ele><time>2026-04-19T09:15:36.986Z</time></trkpt><trkpt lat="41.83081315123121" lon="14.205503887218425"><ele>876.0</ele><time>2026-04-19T09:15:37.986Z</time></trkpt><trkpt lat="41.830863442967846" lon="14.205447845416533"><ele>877.1999999999999</ele><time>2026-04-19T09:15:38.986Z</time></trkpt><trkpt lat="41.8308882122763" lon="14.205357953061696"><ele>878.3999999999999</ele><time>2026-04-19T09:15:40.986Z</time></trkpt><trkpt lat="41.83097666432901" lon="14.205370308548636"><ele>879.6</ele><time>2026-04-19T09:18:25.985Z</time></trkpt><trkpt lat="41.831077729352685" lon="14.205421443788369"><ele>880.8</ele><time>2026-04-19T09:18:29.985Z</time></trkpt><trkpt lat="41.83118648928629" lon="14.20546980802265"><ele>882.0</ele><time>2026-04-19T09:18:31.985Z</time></trkpt><trkpt lat="41.83126365112295" lon="14.205532894896955"><ele>883.2</ele><time>2026-04-19T09:18:33.985Z</time></trkpt><trkpt lat="41.83129436702418" lon="14.205638297693476"><ele>884.4000000000001</ele><time>2026-04-19T09:18:36.985Z</time></trkpt><trkpt lat="41.83129623259992" lon="14.205787846343673"><ele>885.5999999999999</ele><time>2026-04-19T09:18:38.985Z</time></trkpt><trkpt lat="41.83133678498935" lon="14.20595409403475"><ele>886.8</ele><time>2026-04-19T09:18:40.985Z</time></trkpt><trkpt lat="41.83134553129163" lon="14.206047507232073"><ele>888.0</ele><time>2026-04-19T09:18:41.985Z</time></trkpt><trkpt lat="41.83135382298695" lon="14.206133033553762"><ele>888.0</ele><time>2026-04-19T09:18:42.985Z</time></trkpt><trkpt lat="41.83137786899621" lon="14.206211558366379"><ele>888.0</ele><time>2026-04-19T09:18:43.985Z</time></trkpt><trkpt lat="41.831473113608006" lon="14.20632901962005"><ele>888.0</ele><time>2026-04-19T09:18:45.984Z</time></trkpt><trkpt lat="41.83154452815056" lon="14.206367224318523"><ele>888.0</ele><time>2026-04-19T09:18:46.984Z</time></trkpt><trkpt lat="41.83163042940471" lon="14.206422136752062"><ele>888.0</ele><time>2026-04-19T09:18:48.984Z</time></trkpt><trkpt lat="41.83170495003461" lon="14.20653667010244"><ele>887.1666666666666</ele><time>2026-04-19T09:18:50.984Z</time></trkpt><trkpt lat="41.83169574715884" lon="14.206659147784666"><ele>886.3333333333333</ele><time>2026-04-19T09:18:52.984Z</time></trkpt><trkpt lat="41.83169712368581" lon="14.20679723638316"><ele>885.5</ele><time>2026-04-19T09:18:54.984Z</time></trkpt><trkpt lat="41.831699013009114" lon="14.206904460449403"><ele>884.6666666666666</ele><time>2026-04-19T09:18:55.984Z</time></trkpt><trkpt lat="41.83172716062596" lon="14.207025877636342"><ele>883.8333333333333</ele><time>2026-04-19T09:18:57.984Z</time></trkpt><trkpt lat="41.83173400230503" lon="14.207130565324626"><ele>883.0</ele><time>2026-04-19T09:18:59.984Z</time></trkpt><trkpt lat="41.831728527356816" lon="14.207220705110807"><ele>882.5999999999999</ele><time>2026-04-19T09:19:00.984Z</time></trkpt><trkpt lat="41.83169202179208" lon="14.207365745819443"><ele>882.1999999999999</ele><time>2026-04-19T09:19:02.984Z</time></trkpt><trkpt lat="41.831656689027774" lon="14.2074569061979"><ele>881.8</ele><time>2026-04-19T09:19:03.984Z</time></trkpt><trkpt lat="41.83163402855134" lon="14.207536834273455"><ele>881.4</ele><time>2026-04-19T09:19:04.984Z</time></trkpt><trkpt lat="41.83159862252684" lon="14.2076713459026"><ele>881.0</ele><time>2026-04-19T09:19:06.984Z</time></trkpt><trkpt lat="41.831613445665276" lon="14.207797310417527"><ele>881.0000000000001</ele><time>2026-04-19T09:19:09.984Z</time></trkpt><trkpt lat="41.831637017890756" lon="14.207882046624366"><ele>881.0</ele><time>2026-04-19T09:19:11.984Z</time></trkpt><trkpt lat="41.831644983704685" lon="14.208021928234038"><ele>881.0</ele><time>2026-04-19T09:19:13.984Z</time></trkpt><trkpt lat="41.83172791005937" lon="14.208089594553382"><ele>881.0</ele><time>2026-04-19T09:19:15.984Z</time></trkpt><trkpt lat="41.831772080582326" lon="14.208188349677762"><ele>881.0000000000001</ele><time>2026-04-19T09:19:17.984Z</time></trkpt><trkpt lat="41.831790663921716" lon="14.208299818721606"><ele>881.0</ele><time>2026-04-19T09:19:20.984Z</time></trkpt><trkpt lat="41.8317825249765" lon="14.208389840560445"><ele>881.4285714285714</ele><time>2026-04-19T09:19:23.984Z</time></trkpt><trkpt lat="41.831776977992845" lon="14.208475364427219"><ele>881.8571428571429</ele><time>2026-04-19T09:19:26.984Z</time></trkpt><trkpt lat="41.83176592373089" lon="14.208564936656563"><ele>882.2857142857143</ele><time>2026-04-19T09:19:30.985Z</time></trkpt><trkpt lat="41.831715715827414" lon="14.208627541669532"><ele>882.7142857142858</ele><time>2026-04-19T09:19:44.986Z</time></trkpt><trkpt lat="41.8316549148013" lon="14.208685339956022"><ele>883.1428571428571</ele><time>2026-04-19T09:19:56.985Z</time></trkpt><trkpt lat="41.8316138643192" lon="14.208750870731656"><ele>883.5714285714287</ele><time>2026-04-19T09:20:02.983Z</time></trkpt><trkpt lat="41.83155886266004" lon="14.208663223051635"><ele>884.0</ele><time>2026-04-19T09:20:31.979Z</time></trkpt><trkpt lat="41.83149601973479" lon="14.208641191066606"><ele>884.0000000000001</ele><time>2026-04-19T09:20:34.979Z</time></trkpt><trkpt lat="41.83142306500335" lon="14.208602746035616"><ele>884.0</ele><time>2026-04-19T09:20:36.979Z</time></trkpt><trkpt lat="41.83135482283071" lon="14.208567154916341"><ele>884.0</ele><time>2026-04-19T09:20:39.979Z</time></trkpt><trkpt lat="41.831270521588586" lon="14.208569404945482"><ele>884.0</ele><time>2026-04-19T09:20:42.979Z</time></trkpt><trkpt lat="41.831204559060254" lon="14.20858936454885"><ele>884.0000000000001</ele><time>2026-04-19T09:20:45.979Z</time></trkpt><trkpt lat="41.83115147294846" lon="14.208646050820699"><ele>884.0</ele><time>2026-04-19T09:20:48.979Z</time></trkpt><trkpt lat="41.83106783251619" lon="14.208642433686215"><ele>884.0</ele><time>2026-04-19T09:20:51.979Z</time></trkpt><trkpt lat="41.83097836539558" lon="14.20867250619965"><ele>884.0</ele><time>2026-04-19T09:20:54.979Z</time></trkpt><trkpt lat="41.83076310984076" lon="14.208729160847309"><ele>884.0</ele><time>2026-04-19T09:20:55.979Z</time></trkpt><trkpt lat="41.830707084197364" lon="14.208807510871583"><ele>884.0</ele><time>2026-04-19T09:20:58.979Z</time></trkpt><trkpt lat="41.83064554336563" lon="14.208897398833756"><ele>883.6666666666667</ele><time>2026-04-19T09:21:00.979Z</time></trkpt><trkpt lat="41.830613937291155" lon="14.208989760645892"><ele>883.3333333333334</ele><time>2026-04-19T09:21:02.978Z</time></trkpt><trkpt lat="41.83058019563288" lon="14.2090731024642"><ele>883.0</ele><time>2026-04-19T09:21:04.978Z</time></trkpt><trkpt lat="41.83053364292381" lon="14.209171720067744"><ele>882.6666666666667</ele><time>2026-04-19T09:21:07.978Z</time></trkpt><trkpt lat="41.830470408463114" lon="14.209213301137577"><ele>882.3333333333334</ele><time>2026-04-19T09:21:09.978Z</time></trkpt><trkpt lat="41.830382915488514" lon="14.209266856126897"><ele>882.0</ele><time>2026-04-19T09:21:11.978Z</time></trkpt><trkpt lat="41.83029921433669" lon="14.2092920533306"><ele>884.8571428571429</ele><time>2026-04-19T09:21:15.978Z</time></trkpt><trkpt lat="41.830263427347155" lon="14.209391047355414"><ele>887.7142857142858</ele><time>2026-04-19T09:21:23.978Z</time></trkpt><trkpt lat="41.830222066528385" lon="14.209482536001673"><ele>890.5714285714286</ele><time>2026-04-19T09:21:25.978Z</time></trkpt><trkpt lat="41.83016979249273" lon="14.209541252759351"><ele>893.4285714285714</ele><time>2026-04-19T09:21:28.978Z</time></trkpt><trkpt lat="41.830106331703504" lon="14.209569063496117"><ele>896.2857142857143</ele><time>2026-04-19T09:21:34.978Z</time></trkpt><trkpt lat="41.830060115475256" lon="14.209627979203852"><ele>899.1428571428571</ele><time>2026-04-19T09:21:42.979Z</time></trkpt><trkpt lat="41.830058139777556" lon="14.209726048476604"><ele>902.0</ele><time>2026-04-19T09:21:55.978Z</time></trkpt><trkpt lat="41.830081798179016" lon="14.20981036728211"><ele>904.3333333333334</ele><time>2026-04-19T09:21:57.978Z</time></trkpt><trkpt lat="41.83010024874656" lon="14.209898312741101"><ele>906.6666666666667</ele><time>2026-04-19T09:21:59.978Z</time></trkpt><trkpt lat="41.83003931528696" lon="14.209985561208477"><ele>909.0</ele><time>2026-04-19T09:22:02.978Z</time></trkpt><trkpt lat="41.82996932909212" lon="14.210069834570955"><ele>911.3333333333333</ele><time>2026-04-19T09:22:04.978Z</time></trkpt><trkpt lat="41.82993118270518" lon="14.21015601036453"><ele>913.6666666666666</ele><time>2026-04-19T09:22:07.978Z</time></trkpt><trkpt lat="41.82991067069951" lon="14.210257370238367"><ele>916.0</ele><time>2026-04-19T09:22:10.978Z</time></trkpt><trkpt lat="41.82992022857184" lon="14.210389058989044"><ele>915.9999999999999</ele><time>2026-04-19T09:22:12.978Z</time></trkpt><trkpt lat="41.829862500232515" lon="14.210481996626102"><ele>916.0</ele><time>2026-04-19T09:22:14.978Z</time></trkpt><trkpt lat="41.82982575068087" lon="14.210564608421398"><ele>916.0</ele><time>2026-04-19T09:22:16.978Z</time></trkpt><trkpt lat="41.82987866061263" lon="14.210680529481724"><ele>916.0</ele><time>2026-04-19T09:22:19.978Z</time></trkpt><trkpt lat="41.82992257106198" lon="14.210760939903292"><ele>915.9999999999999</ele><time>2026-04-19T09:22:21.978Z</time></trkpt><trkpt lat="41.82997580364908" lon="14.210837520313738"><ele>916.0</ele><time>2026-04-19T09:22:24.978Z</time></trkpt><trkpt lat="41.830017477380075" lon="14.210919082530454"><ele>917.8333333333333</ele><time>2026-04-19T09:22:27.977Z</time></trkpt><trkpt lat="41.83003838127873" lon="14.21101062228646"><ele>919.6666666666666</ele><time>2026-04-19T09:22:29.977Z</time></trkpt><trkpt lat="41.83008322649256" lon="14.211105712193014"><ele>921.5</ele><time>2026-04-19T09:22:32.977Z</time></trkpt><trkpt lat="41.83011895873345" lon="14.21120892504431"><ele>923.3333333333333</ele><time>2026-04-19T09:22:35.977Z</time></trkpt><trkpt lat="41.830159005277636" lon="14.211300644318463"><ele>925.1666666666666</ele><time>2026-04-19T09:22:38.977Z</time></trkpt><trkpt lat="41.830186571137745" lon="14.211403959085747"><ele>927.0</ele><time>2026-04-19T09:22:41.977Z</time></trkpt><trkpt lat="41.830217892037034" lon="14.211485067020343"><ele>930.0</ele><time>2026-04-19T09:22:43.977Z</time></trkpt><trkpt lat="41.8302547881447" lon="14.211612588821072"><ele>933.0</ele><time>2026-04-19T09:22:45.977Z</time></trkpt><trkpt lat="41.83028372326311" lon="14.211740708396828"><ele>936.0</ele><time>2026-04-19T09:22:48.977Z</time></trkpt><trkpt lat="41.8303177599969" lon="14.21181592576744"><ele>939.0</ele><time>2026-04-19T09:22:50.977Z</time></trkpt><trkpt lat="41.830336565038124" lon="14.211898117396249"><ele>942.0</ele><time>2026-04-19T09:22:52.977Z</time></trkpt><trkpt lat="41.83037326137223" lon="14.211968635322133"><ele>945.0</ele><time>2026-04-19T09:22:54.977Z</time></trkpt><trkpt lat="41.83043038906263" lon="14.212029344490814"><ele>945.0</ele><time>2026-04-19T09:22:57.977Z</time></trkpt><trkpt lat="41.830493353656216" lon="14.212072394824878"><ele>945.0</ele><time>2026-04-19T09:23:00.977Z</time></trkpt><trkpt lat="41.83056040707675" lon="14.212099161897694"><ele>945.0</ele><time>2026-04-19T09:23:03.977Z</time></trkpt><trkpt lat="41.83061232523434" lon="14.212149257590424"><ele>945.0</ele><time>2026-04-19T09:23:10.977Z</time></trkpt><trkpt lat="41.83066536566676" lon="14.212213053176958"><ele>945.0</ele><time>2026-04-19T09:23:17.977Z</time></trkpt><trkpt lat="41.83072231996942" lon="14.212260698156571"><ele>945.0</ele><time>2026-04-19T09:23:23.977Z</time></trkpt><trkpt lat="41.830830229762306" lon="14.212352741840963"><ele>946.5</ele><time>2026-04-19T09:23:37.977Z</time></trkpt><trkpt lat="41.830882284066426" lon="14.21246847259284"><ele>948.0</ele><time>2026-04-19T09:24:05.978Z</time></trkpt><trkpt lat="41.83095717404392" lon="14.212439606121269"><ele>949.5</ele><time>2026-04-19T09:43:38Z</time></trkpt><trkpt lat="41.83100928823558" lon="14.212522318009267"><ele>951.0</ele><time>2026-04-19T09:43:40Z</time></trkpt><trkpt lat="41.83098716989855" lon="14.212615404432075"><ele>952.5</ele><time>2026-04-19T09:43:42Z</time></trkpt><trkpt lat="41.83094125839145" lon="14.212750778596776"><ele>954.0</ele><time>2026-04-19T09:43:44Z</time></trkpt><trkpt lat="41.83094319322232" lon="14.212893655872712"><ele>954.0</ele><time>2026-04-19T09:43:46Z</time></trkpt><trkpt lat="41.83094102666689" lon="14.212994149266368"><ele>954.0</ele><time>2026-04-19T09:43:48Z</time></trkpt><trkpt lat="41.83099175498114" lon="14.213104239232418"><ele>954.0</ele><time>2026-04-19T09:43:51Z</time></trkpt><trkpt lat="41.830990779732424" lon="14.213229412018212"><ele>954.0</ele><time>2026-04-19T09:43:53Z</time></trkpt><trkpt lat="41.83098685012879" lon="14.213324081594854"><ele>954.0</ele><time>2026-04-19T09:43:55Z</time></trkpt><trkpt lat="41.83095304684388" lon="14.213449240764831"><ele>954.0</ele><time>2026-04-19T09:44:08Z</time></trkpt><trkpt lat="41.83094698736693" lon="14.213540944119615"><ele>956.4000000000001</ele><time>2026-04-19T09:44:24Z</time></trkpt><trkpt lat="41.83092685914435" lon="14.213625972861557"><ele>958.8000000000001</ele><time>2026-04-19T09:44:27Z</time></trkpt><trkpt lat="41.83090010308158" lon="14.213723236428748"><ele>961.1999999999999</ele><time>2026-04-19T09:44:29Z</time></trkpt><trkpt lat="41.83081501057623" lon="14.213789643302983"><ele>963.5999999999999</ele><time>2026-04-19T09:44:31Z</time></trkpt><trkpt lat="41.83071367283964" lon="14.213878583090004"><ele>966.0</ele><time>2026-04-19T09:44:33Z</time></trkpt><trkpt lat="41.8306379784034" lon="14.21394076107595"><ele>966.0</ele><time>2026-04-19T09:44:35Z</time></trkpt><trkpt lat="41.83056054991893" lon="14.213945765147763"><ele>965.9999999999999</ele><time>2026-04-19T09:44:37Z</time></trkpt><trkpt lat="41.830477557706836" lon="14.213938594429449"><ele>965.9999999999999</ele><time>2026-04-19T09:44:39Z</time></trkpt><trkpt lat="41.8303891643236" lon="14.214022344429418"><ele>966.0</ele><time>2026-04-19T09:44:41Z</time></trkpt><trkpt lat="41.83036806174254" lon="14.214188767866016"><ele>966.0</ele><time>2026-04-19T09:44:43.001Z</time></trkpt><trkpt lat="41.83041309190275" lon="14.214288457206736"><ele>968.3333333333334</ele><time>2026-04-19T09:44:45.001Z</time></trkpt><trkpt lat="41.83042514736227" lon="14.214393407186849"><ele>970.6666666666667</ele><time>2026-04-19T09:44:47Z</time></trkpt><trkpt lat="41.83041935388611" lon="14.214534053378156"><ele>973.0</ele><time>2026-04-19T09:44:49.001Z</time></trkpt><trkpt lat="41.83042325107105" lon="14.214657683120212"><ele>975.3333333333334</ele><time>2026-04-19T09:44:51Z</time></trkpt><trkpt lat="41.830402972475476" lon="14.214760824208108"><ele>977.6666666666667</ele><time>2026-04-19T09:44:53.001Z</time></trkpt><trkpt lat="41.8303626583356" lon="14.214829276188858"><ele>980.0</ele><time>2026-04-19T09:44:54.001Z</time></trkpt><trkpt lat="41.83030705230343" lon="14.21494252416729"><ele>982.0000000000001</ele><time>2026-04-19T09:44:56Z</time></trkpt><trkpt lat="41.830255059429746" lon="14.215081840643387"><ele>984.0</ele><time>2026-04-19T09:44:58Z</time></trkpt><trkpt lat="41.83024623281052" lon="14.215165630118953"><ele>986.0</ele><time>2026-04-19T09:44:59Z</time></trkpt><trkpt lat="41.83024618011363" lon="14.215277372473128"><ele>988.0</ele><time>2026-04-19T09:45:00Z</time></trkpt><trkpt lat="41.83024312428756" lon="14.215384574073257"><ele>990.0000000000001</ele><time>2026-04-19T09:45:01Z</time></trkpt><trkpt lat="41.83024061565226" lon="14.215483356117016"><ele>992.0</ele><time>2026-04-19T09:45:02Z</time></trkpt><trkpt lat="41.83024687227228" lon="14.215585501702698"><ele>993.8333333333334</ele><time>2026-04-19T09:45:03Z</time></trkpt><trkpt lat="41.830258784563135" lon="14.215682847447875"><ele>995.6666666666667</ele><time>2026-04-19T09:45:04Z</time></trkpt><trkpt lat="41.83029017887672" lon="14.215768891220176"><ele>997.5</ele><time>2026-04-19T09:45:05Z</time></trkpt><trkpt lat="41.83030994592183" lon="14.215855081864444"><ele>999.3333333333333</ele><time>2026-04-19T09:45:06Z</time></trkpt><trkpt lat="41.830349649215236" lon="14.215973917187105"><ele>1001.1666666666666</ele><time>2026-04-19T09:45:08Z</time></trkpt><trkpt lat="41.830370547977324" lon="14.2161394981137"><ele>1003.0</ele><time>2026-04-19T09:45:10Z</time></trkpt><trkpt lat="41.83037449276643" lon="14.216226639913549"><ele>1002.9999999999999</ele><time>2026-04-19T09:45:11Z</time></trkpt><trkpt lat="41.83037427569433" lon="14.216350599979185"><ele>1003.0</ele><time>2026-04-19T09:45:13Z</time></trkpt><trkpt lat="41.83038009177136" lon="14.216441652113538"><ele>1003.0</ele><time>2026-04-19T09:45:35Z</time></trkpt><trkpt lat="41.83042807934913" lon="14.216524487341665"><ele>1003.0</ele><time>2026-04-19T09:45:39Z</time></trkpt><trkpt lat="41.8304784864313" lon="14.216582280027257"><ele>1002.9999999999999</ele><time>2026-04-19T09:45:41Z</time></trkpt><trkpt lat="41.8305416726491" lon="14.216601527823412"><ele>1003.0</ele><time>2026-04-19T09:45:43Z</time></trkpt><trkpt lat="41.8306319979217" lon="14.216571416917038"><ele>1005.4</ele><time>2026-04-19T09:45:46Z</time></trkpt><trkpt lat="41.83073203064066" lon="14.216586343891016"><ele>1007.8</ele><time>2026-04-19T09:45:48Z</time></trkpt><trkpt lat="41.83079669941368" lon="14.216599616648647"><ele>1010.2</ele><time>2026-04-19T09:45:50Z</time></trkpt><trkpt lat="41.83090714312927" lon="14.216607994539723"><ele>1012.6</ele><time>2026-04-19T09:45:52Z</time></trkpt><trkpt lat="41.83100532285725" lon="14.216630341705207"><ele>1015.0</ele><time>2026-04-19T09:45:54Z</time></trkpt><trkpt lat="41.83110833547445" lon="14.216680805511352"><ele>1015.1666666666666</ele><time>2026-04-19T09:45:56Z</time></trkpt><trkpt lat="41.83117440454601" lon="14.216724680860349"><ele>1015.3333333333333</ele><time>2026-04-19T09:45:57Z</time></trkpt><trkpt lat="41.8312520840472" lon="14.216754155670522"><ele>1015.5</ele><time>2026-04-19T09:45:58Z</time></trkpt><trkpt lat="41.831310433081086" lon="14.216789103019753"><ele>1015.6666666666667</ele><time>2026-04-19T09:45:59Z</time></trkpt><trkpt lat="41.83140937938996" lon="14.21684896859655"><ele>1015.8333333333334</ele><time>2026-04-19T09:46:01Z</time></trkpt><trkpt lat="41.8314766426801" lon="14.216971060660411"><ele>1016.0</ele><time>2026-04-19T09:46:03Z</time></trkpt><trkpt lat="41.83152020560818" lon="14.217034494136294"><ele>1016.0000000000001</ele><time>2026-04-19T09:46:04Z</time></trkpt><trkpt lat="41.83157403952894" lon="14.217085054482096"><ele>1016.0</ele><time>2026-04-19T09:46:05Z</time></trkpt><trkpt lat="41.83161127479621" lon="14.217153725331166"><ele>1016.0</ele><time>2026-04-19T09:46:06Z</time></trkpt><trkpt lat="41.83164596762717" lon="14.217254745410544"><ele>1016.0</ele><time>2026-04-19T09:46:08Z</time></trkpt><trkpt lat="41.83162226877545" lon="14.21734071115321"><ele>1016.0000000000001</ele><time>2026-04-19T09:46:10Z</time></trkpt><trkpt lat="41.83161775665826" lon="14.21746170543267"><ele>1016.0</ele><time>2026-04-19T09:46:24Z</time></trkpt><trkpt lat="41.831642533052225" lon="14.217566247070634"><ele>1015.0000000000001</ele><time>2026-04-19T09:46:27Z</time></trkpt><trkpt lat="41.83169922319137" lon="14.217658689826383"><ele>1014.0</ele><time>2026-04-19T09:46:29Z</time></trkpt><trkpt lat="41.83175255626757" lon="14.217737793801362"><ele>1013.0</ele><time>2026-04-19T09:46:30Z</time></trkpt><trkpt lat="41.8318022167184" lon="14.21783444926051"><ele>1012.0</ele><time>2026-04-19T09:46:31Z</time></trkpt><trkpt lat="41.83185665912228" lon="14.217912385116513"><ele>1011.0000000000001</ele><time>2026-04-19T09:46:32Z</time></trkpt><trkpt lat="41.83190413101727" lon="14.217985502795509"><ele>1010.0</ele><time>2026-04-19T09:46:33Z</time></trkpt><trkpt lat="41.83193980022091" lon="14.218064601565448"><ele>1012.0</ele><time>2026-04-19T09:46:34Z</time></trkpt><trkpt lat="41.8319500400059" lon="14.218184053776623"><ele>1014.0</ele><time>2026-04-19T09:46:35Z</time></trkpt><trkpt lat="41.83194593398564" lon="14.218327361166844"><ele>1016.0</ele><time>2026-04-19T09:46:36Z</time></trkpt><trkpt lat="41.83193425148923" lon="14.218449891805566"><ele>1018.0</ele><time>2026-04-19T09:46:37Z</time></trkpt><trkpt lat="41.83190062146794" lon="14.218568643357644"><ele>1020.0</ele><time>2026-04-19T09:46:38Z</time></trkpt><trkpt lat="41.831870395977745" lon="14.218668465519249"><ele>1022.5</ele><time>2026-04-19T09:46:39Z</time></trkpt><trkpt lat="41.83177481534839" lon="14.218763714739907"><ele>1025.0</ele><time>2026-04-19T09:46:41Z</time></trkpt><trkpt lat="41.83173329230794" lon="14.218834131140314"><ele>1027.5</ele><time>2026-04-19T09:46:42Z</time></trkpt><trkpt lat="41.831720030124984" lon="14.218946423087262"><ele>1030.0</ele><time>2026-04-19T09:46:43Z</time></trkpt><trkpt lat="41.831718807200076" lon="14.21904279563462"><ele>1032.5</ele><time>2026-04-19T09:46:44Z</time></trkpt><trkpt lat="41.831707696559896" lon="14.219162627809103"><ele>1035.0</ele><time>2026-04-19T09:46:45Z</time></trkpt><trkpt lat="41.83167788772078" lon="14.219290323894093"><ele>1035.8333333333333</ele><time>2026-04-19T09:46:46Z</time></trkpt><trkpt lat="41.83163318773224" lon="14.219412474695622"><ele>1036.6666666666667</ele><time>2026-04-19T09:46:47Z</time></trkpt><trkpt lat="41.83161013362733" lon="14.219502318793417"><ele>1037.5</ele><time>2026-04-19T09:46:48Z</time></trkpt><trkpt lat="41.83159633540781" lon="14.219591528083082"><ele>1038.3333333333335</ele><time>2026-04-19T09:46:50.001Z</time></trkpt><trkpt lat="41.83155209992474" lon="14.219715783685707"><ele>1039.1666666666667</ele><time>2026-04-19T09:46:53Z</time></trkpt><trkpt lat="41.83152306558982" lon="14.219839096924513"><ele>1040.0</ele><time>2026-04-19T09:46:55.001Z</time></trkpt><trkpt lat="41.83148649392201" lon="14.2199969070309"><ele>1041.0</ele><time>2026-04-19T09:46:57.001Z</time></trkpt><trkpt lat="41.83146889211615" lon="14.220087787715062"><ele>1042.0</ele><time>2026-04-19T09:46:58.001Z</time></trkpt><trkpt lat="41.831434480139045" lon="14.220169625688364"><ele>1043.0</ele><time>2026-04-19T09:46:59.001Z</time></trkpt><trkpt lat="41.83133353918689" lon="14.22031582742117"><ele>1044.0</ele><time>2026-04-19T09:47:01.001Z</time></trkpt><trkpt lat="41.83127060560685" lon="14.220387994043033"><ele>1045.0</ele><time>2026-04-19T09:47:02Z</time></trkpt><trkpt lat="41.831199888221974" lon="14.220456580973398"><ele>1045.0</ele><time>2026-04-19T09:47:03Z</time></trkpt><trkpt lat="41.83113519481386" lon="14.220511606198443"><ele>1045.0</ele><time>2026-04-19T09:47:04Z</time></trkpt><trkpt lat="41.831070854055234" lon="14.220570554067326"><ele>1045.0</ele><time>2026-04-19T09:47:05Z</time></trkpt><trkpt lat="41.83102822349464" lon="14.220637797649767"><ele>1045.0</ele><time>2026-04-19T09:47:06Z</time></trkpt><trkpt lat="41.83099434858309" lon="14.220720291626295"><ele>1045.0</ele><time>2026-04-19T09:47:07Z</time></trkpt><trkpt lat="41.83099725784354" lon="14.220910365183846"><ele>1045.0</ele><time>2026-04-19T09:47:09Z</time></trkpt><trkpt lat="41.830984848599094" lon="14.221015096621873"><ele>1046.1666666666665</ele><time>2026-04-19T09:47:10Z</time></trkpt><trkpt lat="41.83094653622288" lon="14.221101839109256"><ele>1047.3333333333333</ele><time>2026-04-19T09:47:11Z</time></trkpt><trkpt lat="41.830910773351206" lon="14.221185584036093"><ele>1048.5</ele><time>2026-04-19T09:47:12Z</time></trkpt><trkpt lat="41.83088312338189" lon="14.22127707661502"><ele>1049.6666666666667</ele><time>2026-04-19T09:47:13Z</time></trkpt><trkpt lat="41.83085969780704" lon="14.221365707327214"><ele>1050.8333333333335</ele><time>2026-04-19T09:47:14Z</time></trkpt><trkpt lat="41.830850023021064" lon="14.221478483208166"><ele>1052.0</ele><time>2026-04-19T09:47:16Z</time></trkpt><trkpt lat="41.830809967130826" lon="14.221657545225236"><ele>1053.6666666666667</ele><time>2026-04-19T09:47:18Z</time></trkpt><trkpt lat="41.83079460350037" lon="14.221789124700633"><ele>1055.3333333333335</ele><time>2026-04-19T09:47:19Z</time></trkpt><trkpt lat="41.8307788667017" lon="14.221904534763718"><ele>1057.0</ele><time>2026-04-19T09:47:20Z</time></trkpt><trkpt lat="41.8307830659798" lon="14.222014576614535"><ele>1058.6666666666667</ele><time>2026-04-19T09:47:21Z</time></trkpt><trkpt lat="41.830778565227035" lon="14.22212094077715"><ele>1060.3333333333333</ele><time>2026-04-19T09:47:22Z</time></trkpt><trkpt lat="41.830767880132946" lon="14.222228722404601"><ele>1062.0</ele><time>2026-04-19T09:47:23Z</time></trkpt><trkpt lat="41.83075137383103" lon="14.222352756893436"><ele>1064.2</ele><time>2026-04-19T09:47:24Z</time></trkpt><trkpt lat="41.83074498816471" lon="14.222469092919855"><ele>1066.4</ele><time>2026-04-19T09:47:25Z</time></trkpt><trkpt lat="41.830739859041095" lon="14.222584711956932"><ele>1068.6</ele><time>2026-04-19T09:47:26Z</time></trkpt><trkpt lat="41.83071266628164" lon="14.222697966369212"><ele>1070.8</ele><time>2026-04-19T09:47:27Z</time></trkpt><trkpt lat="41.830672294276226" lon="14.222795865685551"><ele>1073.0</ele><time>2026-04-19T09:47:28Z</time></trkpt><trkpt lat="41.8305907186274" lon="14.222890433547361"><ele>1073.0</ele><time>2026-04-19T09:47:30Z</time></trkpt><trkpt lat="41.83046296428563" lon="14.222908091913471"><ele>1073.0</ele><time>2026-04-19T09:47:32Z</time></trkpt><trkpt lat="41.830404911290174" lon="14.222947734142348"><ele>1073.0</ele><time>2026-04-19T09:47:33Z</time></trkpt><trkpt lat="41.8303630542778" lon="14.22304106895475"><ele>1073.0</ele><time>2026-04-19T09:47:34Z</time></trkpt><trkpt lat="41.83031267151406" lon="14.223125678637627"><ele>1073.0</ele><time>2026-04-19T09:47:35Z</time></trkpt><trkpt lat="41.8302458613947" lon="14.2232141721462"><ele>1073.0</ele><time>2026-04-19T09:47:36Z</time></trkpt><trkpt lat="41.830162761409404" lon="14.223302693163244"><ele>1076.0</ele><time>2026-04-19T09:47:37Z</time></trkpt><trkpt lat="41.83011001265379" lon="14.22335558630222"><ele>1079.0</ele><time>2026-04-19T09:47:38Z</time></trkpt><trkpt lat="41.83006847815302" lon="14.223444715047835"><ele>1082.0</ele><time>2026-04-19T09:47:39Z</time></trkpt><trkpt lat="41.83004816299659" lon="14.223554004126642"><ele>1085.0</ele><time>2026-04-19T09:47:40Z</time></trkpt><trkpt lat="41.830010901732" lon="14.223657085714505"><ele>1088.0</ele><time>2026-04-19T09:47:41Z</time></trkpt><trkpt lat="41.82996286666802" lon="14.223761224182423"><ele>1091.0</ele><time>2026-04-19T09:47:42Z</time></trkpt><trkpt lat="41.82993227315733" lon="14.223837146474255"><ele>1091.0</ele><time>2026-04-19T09:47:43Z</time></trkpt><trkpt lat="41.829876031945005" lon="14.223919420754282"><ele>1091.0</ele><time>2026-04-19T09:47:45Z</time></trkpt><trkpt lat="41.82982400207299" lon="14.224094548273477"><ele>1091.0</ele><time>2026-04-19T09:47:56Z</time></trkpt><trkpt lat="41.82977495039264" lon="14.224208934304773"><ele>1091.0</ele><time>2026-04-19T09:47:57Z</time></trkpt><trkpt lat="41.829710778960084" lon="14.224324814742545"><ele>1091.0</ele><time>2026-04-19T09:47:58Z</time></trkpt><trkpt lat="41.82966292045622" lon="14.224428819130985"><ele>1091.8333333333335</ele><time>2026-04-19T09:47:59Z</time></trkpt><trkpt lat="41.829641472446916" lon="14.22451847049722"><ele>1092.6666666666667</ele><time>2026-04-19T09:48:00Z</time></trkpt><trkpt lat="41.82965841720276" lon="14.224623430259008"><ele>1093.5</ele><time>2026-04-19T09:48:01Z</time></trkpt><trkpt lat="41.829672724120904" lon="14.22473924064974"><ele>1094.3333333333333</ele><time>2026-04-19T09:48:02Z</time></trkpt><trkpt lat="41.82967846990149" lon="14.224860667546722"><ele>1095.1666666666665</ele><time>2026-04-19T09:48:03Z</time></trkpt><trkpt lat="41.829700594915295" lon="14.224967192139227"><ele>1096.0</ele><time>2026-04-19T09:48:04Z</time></trkpt><trkpt lat="41.82972860479542" lon="14.22507297998996"><ele>1097.0</ele><time>2026-04-19T09:48:05Z</time></trkpt><trkpt lat="41.82977710107042" lon="14.22514516658242"><ele>1098.0</ele><time>2026-04-19T09:48:06Z</time></trkpt><trkpt lat="41.82982383760548" lon="14.225235083305746"><ele>1099.0</ele><time>2026-04-19T09:48:07Z</time></trkpt><trkpt lat="41.829826086976794" lon="14.225343037692094"><ele>1100.0</ele><time>2026-04-19T09:48:08Z</time></trkpt><trkpt lat="41.82978615508704" lon="14.225425963014873"><ele>1101.0</ele><time>2026-04-19T09:48:09Z</time></trkpt><trkpt lat="41.82972229769919" lon="14.225511760197566"><ele>1102.0</ele><time>2026-04-19T09:48:10Z</time></trkpt><trkpt lat="41.82967632067974" lon="14.225577734248057"><ele>1104.8</ele><time>2026-04-19T09:48:11Z</time></trkpt><trkpt lat="41.82962774964343" lon="14.225698651701785"><ele>1107.6</ele><time>2026-04-19T09:48:12Z</time></trkpt><trkpt lat="41.82958950391861" lon="14.225817055332518"><ele>1110.3999999999999</ele><time>2026-04-19T09:48:13Z</time></trkpt><trkpt lat="41.82955242228432" lon="14.225950666009755"><ele>1113.2</ele><time>2026-04-19T09:48:14Z</time></trkpt><trkpt lat="41.829524564511864" lon="14.226084183300895"><ele>1116.0</ele><time>2026-04-19T09:48:15Z</time></trkpt><trkpt lat="41.82949870033889" lon="14.22620847397575"><ele>1116.0</ele><time>2026-04-19T09:48:16Z</time></trkpt><trkpt lat="41.8294498611593" lon="14.226327468135002"><ele>1116.0</ele><time>2026-04-19T09:48:17Z</time></trkpt><trkpt lat="41.8294102427702" lon="14.226435060342483"><ele>1116.0</ele><time>2026-04-19T09:48:18Z</time></trkpt><trkpt lat="41.829398520766425" lon="14.226527704032693"><ele>1116.0</ele><time>2026-04-19T09:48:19Z</time></trkpt><trkpt lat="41.82942801871305" lon="14.226609584998126"><ele>1116.0</ele><time>2026-04-19T09:48:20Z</time></trkpt><trkpt lat="41.82945574942501" lon="14.226722719008272"><ele>1116.0</ele><time>2026-04-19T09:48:21Z</time></trkpt><trkpt lat="41.82949666100984" lon="14.226822293737529"><ele>1118.1666666666667</ele><time>2026-04-19T09:48:22Z</time></trkpt><trkpt lat="41.82953753134778" lon="14.226930460144626"><ele>1120.3333333333333</ele><time>2026-04-19T09:48:23Z</time></trkpt><trkpt lat="41.82956484238461" lon="14.227027407359923"><ele>1122.5</ele><time>2026-04-19T09:48:24Z</time></trkpt><trkpt lat="41.8295716973755" lon="14.227132888827834"><ele>1124.6666666666665</ele><time>2026-04-19T09:48:25Z</time></trkpt><trkpt lat="41.82955636648604" lon="14.227243364217994"><ele>1126.8333333333333</ele><time>2026-04-19T09:48:26Z</time></trkpt><trkpt lat="41.82954751417915" lon="14.2273474185642"><ele>1129.0</ele><time>2026-04-19T09:48:27Z</time></trkpt><trkpt lat="41.829548153815615" lon="14.227472144879087"><ele>1131.6000000000001</ele><time>2026-04-19T09:48:28Z</time></trkpt><trkpt lat="41.829548284825336" lon="14.227609225468749"><ele>1134.2</ele><time>2026-04-19T09:48:29Z</time></trkpt><trkpt lat="41.8295411969547" lon="14.227749062486707"><ele>1136.8000000000002</ele><time>2026-04-19T09:48:30Z</time></trkpt><trkpt lat="41.82954030578306" lon="14.227875133343"><ele>1139.4</ele><time>2026-04-19T09:48:31Z</time></trkpt><trkpt lat="41.82955322133155" lon="14.228000191070768"><ele>1142.0</ele><time>2026-04-19T09:48:32Z</time></trkpt><trkpt lat="41.82955469217178" lon="14.228124709391501"><ele>1143.8333333333335</ele><time>2026-04-19T09:48:33Z</time></trkpt><trkpt lat="41.829549098823186" lon="14.228234159387231"><ele>1145.6666666666667</ele><time>2026-04-19T09:48:34Z</time></trkpt><trkpt lat="41.829531538263375" lon="14.228344597587284"><ele>1147.5</ele><time>2026-04-19T09:48:35Z</time></trkpt><trkpt lat="41.82952257343656" lon="14.228450801927403"><ele>1149.3333333333333</ele><time>2026-04-19T09:48:36Z</time></trkpt><trkpt lat="41.82952945141082" lon="14.228563496713614"><ele>1151.1666666666665</ele><time>2026-04-19T09:48:37Z</time></trkpt><trkpt lat="41.829519703755714" lon="14.228656860850863"><ele>1153.0</ele><time>2026-04-19T09:48:38Z</time></trkpt><trkpt lat="41.82948290635824" lon="14.228725703949932"><ele>1153.0</ele><time>2026-04-19T09:48:39Z</time></trkpt><trkpt lat="41.82942359310175" lon="14.228798661627378"><ele>1153.0</ele><time>2026-04-19T09:48:40Z</time></trkpt><trkpt lat="41.82935205477663" lon="14.228894004254972"><ele>1153.0</ele><time>2026-04-19T09:48:41Z</time></trkpt><trkpt lat="41.8293020345774" lon="14.228999941269173"><ele>1153.0</ele><time>2026-04-19T09:48:42Z</time></trkpt><trkpt lat="41.82928148764266" lon="14.229128014326854"><ele>1153.0</ele><time>2026-04-19T09:48:43Z</time></trkpt><trkpt lat="41.829275980029536" lon="14.229279756682644"><ele>1155.4</ele><time>2026-04-19T09:48:44Z</time></trkpt><trkpt lat="41.82925890126087" lon="14.229421612692558"><ele>1157.8</ele><time>2026-04-19T09:48:45Z</time></trkpt><trkpt lat="41.8292122393564" lon="14.22954228153929"><ele>1160.2</ele><time>2026-04-19T09:48:46Z</time></trkpt><trkpt lat="41.82915657281231" lon="14.22967877709732"><ele>1162.6</ele><time>2026-04-19T09:48:47Z</time></trkpt><trkpt lat="41.82909920047712" lon="14.229826973688056"><ele>1165.0</ele><time>2026-04-19T09:48:48Z</time></trkpt><trkpt lat="41.829055307569064" lon="14.229970976189055"><ele>1167.3333333333333</ele><time>2026-04-19T09:48:49Z</time></trkpt><trkpt lat="41.82901459081985" lon="14.230097675860161"><ele>1169.6666666666665</ele><time>2026-04-19T09:48:50Z</time></trkpt><trkpt lat="41.82897587438607" lon="14.23021465881727"><ele>1172.0</ele><time>2026-04-19T09:48:51Z</time></trkpt><trkpt lat="41.8289654716554" lon="14.230314800435654"><ele>1174.3333333333333</ele><time>2026-04-19T09:48:52Z</time></trkpt><trkpt lat="41.828983740982316" lon="14.23041016728072"><ele>1176.6666666666667</ele><time>2026-04-19T09:48:53Z</time></trkpt><trkpt lat="41.828989590904676" lon="14.230500883643156"><ele>1179.0</ele><time>2026-04-19T09:48:54.001Z</time></trkpt><trkpt lat="41.828959861037326" lon="14.230590755880414"><ele>1181.6000000000001</ele><time>2026-04-19T09:48:55Z</time></trkpt><trkpt lat="41.82890109547059" lon="14.230699082290517"><ele>1184.2</ele><time>2026-04-19T09:48:56Z</time></trkpt><trkpt lat="41.828861424944066" lon="14.230822969752762"><ele>1186.8000000000002</ele><time>2026-04-19T09:48:57.001Z</time></trkpt><trkpt lat="41.82883617979469" lon="14.230931703840616"><ele>1189.4</ele><time>2026-04-19T09:48:58Z</time></trkpt><trkpt lat="41.82883189539758" lon="14.23103393092506"><ele>1192.0</ele><time>2026-04-19T09:48:59Z</time></trkpt><trkpt lat="41.82887951902232" lon="14.231183930287024"><ele>1192.0</ele><time>2026-04-19T09:49:01.001Z</time></trkpt><trkpt lat="41.828927372885154" lon="14.231263896963178"><ele>1192.0</ele><time>2026-04-19T09:49:02.001Z</time></trkpt><trkpt lat="41.82896412242577" lon="14.231359645859818"><ele>1192.0</ele><time>2026-04-19T09:49:03.001Z</time></trkpt><trkpt lat="41.82899260183603" lon="14.231460679103476"><ele>1192.0</ele><time>2026-04-19T09:49:04Z</time></trkpt><trkpt lat="41.829006823095504" lon="14.231559309364384"><ele>1192.0</ele><time>2026-04-19T09:49:05Z</time></trkpt><trkpt lat="41.82902176057842" lon="14.231657325691156"><ele>1192.0</ele><time>2026-04-19T09:49:06Z</time></trkpt><trkpt lat="41.82906477495665" lon="14.231787041644363"><ele>1194.4</ele><time>2026-04-19T09:49:08Z</time></trkpt><trkpt lat="41.82911406611239" lon="14.231909243900823"><ele>1196.8000000000002</ele><time>2026-04-19T09:49:10Z</time></trkpt><trkpt lat="41.82907490183339" lon="14.232016371172602"><ele>1199.2</ele><time>2026-04-19T09:49:12Z</time></trkpt><trkpt lat="41.829042195911285" lon="14.23215818947671"><ele>1201.6000000000001</ele><time>2026-04-19T09:49:14Z</time></trkpt><trkpt lat="41.828999685217575" lon="14.232279952563161"><ele>1204.0</ele><time>2026-04-19T09:49:16Z</time></trkpt><trkpt lat="41.828968672899165" lon="14.232389003671187"><ele>1204.0</ele><time>2026-04-19T09:49:18Z</time></trkpt><trkpt lat="41.82892048834292" lon="14.232460176999956"><ele>1204.0</ele><time>2026-04-19T09:49:20Z</time></trkpt><trkpt lat="41.82888039006588" lon="14.232380333653756"><ele>1204.0</ele><time>2026-04-19T09:49:29Z</time></trkpt><trkpt lat="41.82894439606773" lon="14.232314482933901"><ele>1204.0</ele><time>2026-04-19T09:49:32Z</time></trkpt><trkpt lat="41.82900955577644" lon="14.232234589115242"><ele>1204.0</ele><time>2026-04-19T09:49:35Z</time></trkpt><trkpt lat="41.829042139624015" lon="14.232151778623615"><ele>1204.0</ele><time>2026-04-19T09:49:37Z</time></trkpt><trkpt lat="41.82905176436136" lon="14.232043223931194"><ele>1204.0</ele><time>2026-04-19T09:49:39Z</time></trkpt><trkpt lat="41.82907336485733" lon="14.23194754781039"><ele>1204.0</ele><time>2026-04-19T09:49:41Z</time></trkpt><trkpt lat="41.829087650657016" lon="14.23182481750236"><ele>1204.0</ele><time>2026-04-19T09:49:44Z</time></trkpt><trkpt lat="41.82908243079806" lon="14.231726084460401"><ele>1204.0</ele><time>2026-04-19T09:49:47Z</time></trkpt><trkpt lat="41.829014322318706" lon="14.23173947629848"><ele>1204.0</ele><time>2026-04-19T09:50:17Z</time></trkpt><trkpt lat="41.82901571030715" lon="14.23183586531204"><ele>1204.0</ele><time>2026-04-19T09:50:19Z</time></trkpt><trkpt lat="41.82900706235779" lon="14.231939686333945"><ele>1204.0</ele><time>2026-04-19T09:50:21Z</time></trkpt><trkpt lat="41.82902024916305" lon="14.232046355558408"><ele>1204.0</ele><time>2026-04-19T09:50:23Z</time></trkpt><trkpt lat="41.82902362891747" lon="14.232141012437623"><ele>1204.0</ele><time>2026-04-19T09:50:25Z</time></trkpt><trkpt lat="41.82898311465391" lon="14.232249019656772"><ele>1204.0</ele><time>2026-04-19T09:50:28Z</time></trkpt><trkpt lat="41.828956913368046" lon="14.232333883720274"><ele>1204.0</ele><time>2026-04-19T09:50:31Z</time></trkpt><trkpt lat="41.828972018741304" lon="14.232436863159167"><ele>1204.0</ele><time>2026-04-19T09:50:37Z</time></trkpt><trkpt lat="41.829060365065644" lon="14.232525899072481"><ele>1204.8</ele><time>2026-04-19T09:50:39Z</time></trkpt><trkpt lat="41.8291648430311" lon="14.232508192024188"><ele>1205.6000000000001</ele><time>2026-04-19T09:50:41Z</time></trkpt><trkpt lat="41.82925694904503" lon="14.232492837662624"><ele>1206.4</ele><time>2026-04-19T09:50:43Z</time></trkpt><trkpt lat="41.82935251711355" lon="14.232464259898979"><ele>1207.2</ele><time>2026-04-19T09:50:45Z</time></trkpt><trkpt lat="41.829461914530064" lon="14.232426728509367"><ele>1208.0</ele><time>2026-04-19T09:50:47Z</time></trkpt><trkpt lat="41.82957235471832" lon="14.232373936850463"><ele>1206.6666666666667</ele><time>2026-04-19T09:50:49Z</time></trkpt><trkpt lat="41.82963311831134" lon="14.232331286098287"><ele>1205.3333333333335</ele><time>2026-04-19T09:50:50Z</time></trkpt><trkpt lat="41.82970010010544" lon="14.232296808110792"><ele>1204.0</ele><time>2026-04-19T09:50:51Z</time></trkpt><trkpt lat="41.8298109975656" lon="14.232212099312786"><ele>1202.6666666666667</ele><time>2026-04-19T09:50:53Z</time></trkpt><trkpt lat="41.82988091792238" lon="14.232162380284763"><ele>1201.3333333333333</ele><time>2026-04-19T09:50:54Z</time></trkpt><trkpt lat="41.82993917786513" lon="14.232108870358458"><ele>1200.0</ele><time>2026-04-19T09:50:55Z</time></trkpt><trkpt lat="41.83000369773342" lon="14.232061358816829"><ele>1199.5</ele><time>2026-04-19T09:50:56Z</time></trkpt><trkpt lat="41.830072122571906" lon="14.232010859270424"><ele>1199.0</ele><time>2026-04-19T09:50:57Z</time></trkpt><trkpt lat="41.83014320846889" lon="14.231947108183197"><ele>1198.5</ele><time>2026-04-19T09:50:58Z</time></trkpt><trkpt lat="41.83020475355729" lon="14.231893315060676"><ele>1198.0</ele><time>2026-04-19T09:50:59Z</time></trkpt><trkpt lat="41.8302698810178" lon="14.231862673889903"><ele>1197.5</ele><time>2026-04-19T09:51:00.001Z</time></trkpt><trkpt lat="41.83034650276231" lon="14.231837630325455"><ele>1197.0</ele><time>2026-04-19T09:51:01.001Z</time></trkpt><trkpt lat="41.83041734401292" lon="14.231814907260784"><ele>1194.0</ele><time>2026-04-19T09:51:02.001Z</time></trkpt><trkpt lat="41.830484886026326" lon="14.231790842189932"><ele>1191.0</ele><time>2026-04-19T09:51:03.001Z</time></trkpt><trkpt lat="41.83055355654066" lon="14.231774431950038"><ele>1188.0</ele><time>2026-04-19T09:51:04Z</time></trkpt><trkpt lat="41.83061569916176" lon="14.231740709503612"><ele>1185.0</ele><time>2026-04-19T09:51:05Z</time></trkpt><trkpt lat="41.83068545841563" lon="14.231711807511635"><ele>1182.0</ele><time>2026-04-19T09:51:06.001Z</time></trkpt><trkpt lat="41.830788091887776" lon="14.231737668090771"><ele>1179.0</ele><time>2026-04-19T09:51:08Z</time></trkpt><trkpt lat="41.83084616816408" lon="14.231887275858265"><ele>1179.0</ele><time>2026-04-19T09:51:10Z</time></trkpt><trkpt lat="41.830885755591034" lon="14.231963935540147"><ele>1179.0</ele><time>2026-04-19T09:51:12Z</time></trkpt><trkpt lat="41.830943160866546" lon="14.232009801951412"><ele>1179.0</ele><time>2026-04-19T09:51:14Z</time></trkpt><trkpt lat="41.83102484122994" lon="14.232051153838162"><ele>1179.0</ele><time>2026-04-19T09:51:17Z</time></trkpt><trkpt lat="41.83109184245541" lon="14.232010900877272"><ele>1179.0</ele><time>2026-04-19T09:51:20Z</time></trkpt><trkpt lat="41.831160522170016" lon="14.231939190261611"><ele>1179.0</ele><time>2026-04-19T09:51:23Z</time></trkpt><trkpt lat="41.83122507447909" lon="14.2318681645528"><ele>1176.0</ele><time>2026-04-19T09:51:25Z</time></trkpt><trkpt lat="41.83133005423687" lon="14.231804106056465"><ele>1173.0</ele><time>2026-04-19T09:51:27Z</time></trkpt><trkpt lat="41.831395232208905" lon="14.231816857783835"><ele>1170.0</ele><time>2026-04-19T09:51:28Z</time></trkpt><trkpt lat="41.83144532642787" lon="14.231879344388432"><ele>1167.0</ele><time>2026-04-19T09:51:29Z</time></trkpt><trkpt lat="41.83148547856682" lon="14.231945924615236"><ele>1164.0</ele><time>2026-04-19T09:51:30Z</time></trkpt><trkpt lat="41.83152064677066" lon="14.232035187292082"><ele>1161.0</ele><time>2026-04-19T09:51:31Z</time></trkpt><trkpt lat="41.8315896857184" lon="14.23210892414687"><ele>1161.0</ele><time>2026-04-19T09:51:33Z</time></trkpt><trkpt lat="41.83165428588467" lon="14.232033303908825"><ele>1161.0</ele><time>2026-04-19T09:51:35Z</time></trkpt><trkpt lat="41.8317198562868" lon="14.231950152137111"><ele>1161.0</ele><time>2026-04-19T09:51:37Z</time></trkpt><trkpt lat="41.83176688566033" lon="14.23179681093249"><ele>1161.0</ele><time>2026-04-19T09:51:39Z</time></trkpt><trkpt lat="41.831801232094165" lon="14.231666449674814"><ele>1161.0</ele><time>2026-04-19T09:51:41Z</time></trkpt><trkpt lat="41.831873369219124" lon="14.231563827156531"><ele>1160.0</ele><time>2026-04-19T09:51:43Z</time></trkpt><trkpt lat="41.83196003095535" lon="14.231559483454648"><ele>1159.0</ele><time>2026-04-19T09:51:45Z</time></trkpt><trkpt lat="41.83202627939009" lon="14.231547775446527"><ele>1158.0</ele><time>2026-04-19T09:51:46Z</time></trkpt><trkpt lat="41.83210768928934" lon="14.231525920085515"><ele>1157.0</ele><time>2026-04-19T09:51:48Z</time></trkpt><trkpt lat="41.83218967511484" lon="14.231555398410752"><ele>1156.0</ele><time>2026-04-19T09:51:50Z</time></trkpt><trkpt lat="41.832268903083865" lon="14.231620852399471"><ele>1155.0</ele><time>2026-04-19T09:51:52Z</time></trkpt><trkpt lat="41.832342610526524" lon="14.231612480059168"><ele>1155.0</ele><time>2026-04-19T09:51:54Z</time></trkpt><trkpt lat="41.83243316814455" lon="14.231582173193678"><ele>1155.0</ele><time>2026-04-19T09:51:56Z</time></trkpt><trkpt lat="41.83253765672919" lon="14.231578721379089"><ele>1155.0</ele><time>2026-04-19T09:51:58Z</time></trkpt><trkpt lat="41.832664679581534" lon="14.231489649744349"><ele>1155.0</ele><time>2026-04-19T09:52:00Z</time></trkpt><trkpt lat="41.83274675834094" lon="14.23143467553747"><ele>1155.0</ele><time>2026-04-19T09:52:01Z</time></trkpt><trkpt lat="41.8328738605937" lon="14.231417405540888"><ele>1151.8333333333333</ele><time>2026-04-19T09:52:03Z</time></trkpt><trkpt lat="41.83295600696282" lon="14.231394403547126"><ele>1148.6666666666667</ele><time>2026-04-19T09:52:04Z</time></trkpt><trkpt lat="41.83301306239738" lon="14.231342676999107"><ele>1145.5</ele><time>2026-04-19T09:52:05Z</time></trkpt><trkpt lat="41.83306932866376" lon="14.23127378085913"><ele>1142.3333333333335</ele><time>2026-04-19T09:52:06Z</time></trkpt><trkpt lat="41.83313625886632" lon="14.231210023228385"><ele>1139.1666666666667</ele><time>2026-04-19T09:52:07Z</time></trkpt><trkpt lat="41.83318966124409" lon="14.231159815812127"><ele>1136.0</ele><time>2026-04-19T09:52:08Z</time></trkpt><trkpt lat="41.83326806032989" lon="14.231103606700962"><ele>1136.0</ele><time>2026-04-19T09:52:10Z</time></trkpt><trkpt lat="41.83333095758686" lon="14.231061247293873"><ele>1136.0</ele><time>2026-04-19T09:52:11Z</time></trkpt><trkpt lat="41.8334326022154" lon="14.231092105105773"><ele>1136.0</ele><time>2026-04-19T09:52:13Z</time></trkpt><trkpt lat="41.83346356738947" lon="14.231170086697151"><ele>1136.0</ele><time>2026-04-19T09:52:14Z</time></trkpt><trkpt lat="41.833495194420806" lon="14.231275577944194"><ele>1136.0</ele><time>2026-04-19T09:52:16Z</time></trkpt><trkpt lat="41.8335517188264" lon="14.231318919922982"><ele>1136.0</ele><time>2026-04-19T09:52:19Z</time></trkpt><trkpt lat="41.833633564247634" lon="14.231346391586301"><ele>1135.5</ele><time>2026-04-19T09:52:23Z</time></trkpt><trkpt lat="41.83370046935205" lon="14.231380258771487"><ele>1135.0</ele><time>2026-04-19T09:52:25Z</time></trkpt><trkpt lat="41.83376124527604" lon="14.231411905527764"><ele>1134.5</ele><time>2026-04-19T09:52:27Z</time></trkpt><trkpt lat="41.83383460085239" lon="14.231463552777967"><ele>1134.0</ele><time>2026-04-19T09:52:29Z</time></trkpt><trkpt lat="41.83391560461886" lon="14.231571470104628"><ele>1133.5</ele><time>2026-04-19T09:52:31Z</time></trkpt><trkpt lat="41.83397609681898" lon="14.231619969102365"><ele>1133.0</ele><time>2026-04-19T09:52:32Z</time></trkpt><trkpt lat="41.83407592582568" lon="14.231623747765443"><ele>1135.0</ele><time>2026-04-19T09:52:34Z</time></trkpt><trkpt lat="41.834124744017565" lon="14.231704819969066"><ele>1137.0</ele><time>2026-04-19T09:52:36Z</time></trkpt><trkpt lat="41.83423767410916" lon="14.231726340170905"><ele>1139.0</ele><time>2026-04-19T09:52:38Z</time></trkpt><trkpt lat="41.83434135719158" lon="14.231841554201816"><ele>1141.0</ele><time>2026-04-19T09:52:40Z</time></trkpt><trkpt lat="41.83437999845534" lon="14.231916466552248"><ele>1143.0</ele><time>2026-04-19T09:52:41Z</time></trkpt><trkpt lat="41.83440076222704" lon="14.232013137161031"><ele>1144.6</ele><time>2026-04-19T09:52:42Z</time></trkpt><trkpt lat="41.83442522017804" lon="14.232100238518768"><ele>1146.1999999999998</ele><time>2026-04-19T09:52:43Z</time></trkpt><trkpt lat="41.83439138479879" lon="14.232224756290584"><ele>1147.8</ele><time>2026-04-19T09:52:45Z</time></trkpt><trkpt lat="41.83432460382065" lon="14.232350219639262"><ele>1149.3999999999999</ele><time>2026-04-19T09:52:47Z</time></trkpt><trkpt lat="41.83432968788655" lon="14.232509884885502"><ele>1151.0</ele><time>2026-04-19T09:52:49Z</time></trkpt><trkpt lat="41.83441213640848" lon="14.232630960949317"><ele>1153.0</ele><time>2026-04-19T09:52:51Z</time></trkpt><trkpt lat="41.83448210506414" lon="14.232640495280878"><ele>1155.0</ele><time>2026-04-19T09:52:52Z</time></trkpt><trkpt lat="41.83456218815375" lon="14.232650093425589"><ele>1157.0</ele><time>2026-04-19T09:52:53Z</time></trkpt><trkpt lat="41.8346521214895" lon="14.232687501497228"><ele>1159.0</ele><time>2026-04-19T09:52:54Z</time></trkpt><trkpt lat="41.834763507650294" lon="14.232777325284372"><ele>1161.0</ele><time>2026-04-19T09:52:56Z</time></trkpt><trkpt lat="41.83480488614275" lon="14.23289005649939"><ele>1161.0</ele><time>2026-04-19T09:52:57Z</time></trkpt><trkpt lat="41.83484708134006" lon="14.23300504321079"><ele>1161.0</ele><time>2026-04-19T09:52:58Z</time></trkpt><trkpt lat="41.83488186570539" lon="14.233102302912702"><ele>1161.0</ele><time>2026-04-19T09:52:59Z</time></trkpt><trkpt lat="41.8348291597329" lon="14.233231423108199"><ele>1161.0</ele><time>2026-04-19T09:53:01Z</time></trkpt><trkpt lat="41.834789134323664" lon="14.233334361624603"><ele>1161.0</ele><time>2026-04-19T09:53:02Z</time></trkpt><trkpt lat="41.83476139411806" lon="14.233443190528053"><ele>1162.0</ele><time>2026-04-19T09:53:03Z</time></trkpt><trkpt lat="41.834728030205504" lon="14.233532011117385"><ele>1163.0</ele><time>2026-04-19T09:53:04Z</time></trkpt><trkpt lat="41.83469284830044" lon="14.233625008362644"><ele>1164.0</ele><time>2026-04-19T09:53:06.001Z</time></trkpt><trkpt lat="41.83470385576531" lon="14.23371403313778"><ele>1165.0</ele><time>2026-04-19T09:53:35Z</time></trkpt><trkpt lat="41.83463256365289" lon="14.233774956686174"><ele>1166.0</ele><time>2026-04-19T09:53:38Z</time></trkpt><trkpt lat="41.8345400198207" lon="14.233835255662084"><ele>1167.0</ele><time>2026-04-19T09:53:40Z</time></trkpt><trkpt lat="41.83444941263336" lon="14.233898265070673"><ele>1167.0</ele><time>2026-04-19T09:53:42Z</time></trkpt><trkpt lat="41.834373058492496" lon="14.233935813812268"><ele>1167.0</ele><time>2026-04-19T09:53:44Z</time></trkpt><trkpt lat="41.83425922273523" lon="14.233995204218123"><ele>1167.0</ele><time>2026-04-19T09:53:46Z</time></trkpt><trkpt lat="41.83416210978477" lon="14.234060635114329"><ele>1167.0</ele><time>2026-04-19T09:53:48Z</time></trkpt><trkpt lat="41.83410316743013" lon="14.234128998101514"><ele>1167.0</ele><time>2026-04-19T09:53:50Z</time></trkpt><trkpt lat="41.83405369490897" lon="14.234192766496752"><ele>1166.5714285714287</ele><time>2026-04-19T09:53:51Z</time></trkpt><trkpt lat="41.83400054522361" lon="14.234274652378394"><ele>1166.1428571428573</ele><time>2026-04-19T09:53:52Z</time></trkpt><trkpt lat="41.83394729566724" lon="14.234332969261242"><ele>1165.7142857142858</ele><time>2026-04-19T09:53:53Z</time></trkpt><trkpt lat="41.833890735313744" lon="14.23439515122597"><ele>1165.2857142857142</ele><time>2026-04-19T09:53:54Z</time></trkpt><trkpt lat="41.833835291343135" lon="14.234446190683123"><ele>1164.8571428571427</ele><time>2026-04-19T09:53:55Z</time></trkpt><trkpt lat="41.833772570064006" lon="14.234499817684828"><ele>1164.4285714285713</ele><time>2026-04-19T09:53:56Z</time></trkpt><trkpt lat="41.833699421400404" lon="14.234547305080087"><ele>1164.0</ele><time>2026-04-19T09:53:57Z</time></trkpt><trkpt lat="41.83363264228741" lon="14.234611617279779"><ele>1164.0</ele><time>2026-04-19T09:53:58Z</time></trkpt><trkpt lat="41.833588889098806" lon="14.234687712454024"><ele>1164.0</ele><time>2026-04-19T09:53:59Z</time></trkpt><trkpt lat="41.83355462221291" lon="14.234775714823197"><ele>1164.0</ele><time>2026-04-19T09:54:00Z</time></trkpt><trkpt lat="41.83352192641039" lon="14.234857602046956"><ele>1164.0</ele><time>2026-04-19T09:54:01Z</time></trkpt><trkpt lat="41.833472600769525" lon="14.23494734090329"><ele>1164.0</ele><time>2026-04-19T09:54:02Z</time></trkpt><trkpt lat="41.833426804090145" lon="14.235020572554799"><ele>1164.0</ele><time>2026-04-19T09:54:03Z</time></trkpt><trkpt lat="41.8333854646201" lon="14.23519098767621"><ele>1164.857142857143</ele><time>2026-04-19T09:54:05Z</time></trkpt><trkpt lat="41.83336625221695" lon="14.235291572111143"><ele>1165.7142857142856</ele><time>2026-04-19T09:54:06Z</time></trkpt><trkpt lat="41.83334463033028" lon="14.235385645521331"><ele>1166.5714285714284</ele><time>2026-04-19T09:54:07Z</time></trkpt><trkpt lat="41.8333260451976" lon="14.235477601958115"><ele>1167.4285714285713</ele><time>2026-04-19T09:54:08Z</time></trkpt><trkpt lat="41.83329882667517" lon="14.23556614352729"><ele>1168.2857142857142</ele><time>2026-04-19T09:54:09Z</time></trkpt><trkpt lat="41.83327043521641" lon="14.235644767705871"><ele>1169.142857142857</ele><time>2026-04-19T09:54:10Z</time></trkpt><trkpt lat="41.83324822817189" lon="14.235732948476791"><ele>1170.0</ele><time>2026-04-19T09:54:11Z</time></trkpt><trkpt lat="41.83322201600698" lon="14.23583833152457"><ele>1170.6666666666667</ele><time>2026-04-19T09:54:12Z</time></trkpt><trkpt lat="41.83318489357518" lon="14.235928870490362"><ele>1171.3333333333333</ele><time>2026-04-19T09:54:13Z</time></trkpt><trkpt lat="41.83313847201395" lon="14.236026106541166"><ele>1172.0</ele><time>2026-04-19T09:54:14Z</time></trkpt><trkpt lat="41.833086975583115" lon="14.236124331291059"><ele>1172.6666666666665</ele><time>2026-04-19T09:54:15Z</time></trkpt><trkpt lat="41.83304628009295" lon="14.236234285940846"><ele>1173.3333333333333</ele><time>2026-04-19T09:54:16Z</time></trkpt><trkpt lat="41.83302179631691" lon="14.236312986750967"><ele>1174.0</ele><time>2026-04-19T09:54:17Z</time></trkpt><trkpt lat="41.83298038600185" lon="14.23642447901312"><ele>1173.1666666666665</ele><time>2026-04-19T09:54:18Z</time></trkpt><trkpt lat="41.83295775918581" lon="14.236503517685309"><ele>1172.3333333333333</ele><time>2026-04-19T09:54:19Z</time></trkpt><trkpt lat="41.832938518670346" lon="14.23662312778833"><ele>1171.5</ele><time>2026-04-19T09:54:21Z</time></trkpt><trkpt lat="41.83288937259795" lon="14.236701945951264"><ele>1170.6666666666667</ele><time>2026-04-19T09:54:24Z</time></trkpt><trkpt lat="41.83284286347784" lon="14.236789094435457"><ele>1169.8333333333335</ele><time>2026-04-19T09:54:26Z</time></trkpt><trkpt lat="41.83280822368794" lon="14.236892636152511"><ele>1169.0</ele><time>2026-04-19T09:54:28Z</time></trkpt><trkpt lat="41.832750959289896" lon="14.237004969158862"><ele>1169.0</ele><time>2026-04-19T09:54:30Z</time></trkpt><trkpt lat="41.83270228741965" lon="14.237126850710139"><ele>1169.0</ele><time>2026-04-19T09:54:32Z</time></trkpt><trkpt lat="41.83266286334426" lon="14.237219781870676"><ele>1169.0</ele><time>2026-04-19T09:54:34Z</time></trkpt><trkpt lat="41.832607572477556" lon="14.237314035885426"><ele>1169.0</ele><time>2026-04-19T09:54:37Z</time></trkpt><trkpt lat="41.83254691608485" lon="14.237395238456436"><ele>1169.0</ele><time>2026-04-19T09:54:39Z</time></trkpt><trkpt lat="41.832443056260864" lon="14.237490165265237"><ele>1170.8</ele><time>2026-04-19T09:54:41Z</time></trkpt><trkpt lat="41.83235176594375" lon="14.237541382624329"><ele>1172.6000000000001</ele><time>2026-04-19T09:54:43Z</time></trkpt><trkpt lat="41.83230782968175" lon="14.237621764853312"><ele>1174.4</ele><time>2026-04-19T09:54:46Z</time></trkpt><trkpt lat="41.8323356897131" lon="14.237726140069487"><ele>1176.2</ele><time>2026-04-19T09:54:49Z</time></trkpt><trkpt lat="41.83241353978437" lon="14.237835450786022"><ele>1178.0</ele><time>2026-04-19T09:54:51Z</time></trkpt><trkpt lat="41.83243130412743" lon="14.23797915931945"><ele>1178.0</ele><time>2026-04-19T09:54:53Z</time></trkpt><trkpt lat="41.83241903163495" lon="14.238109228852029"><ele>1178.0</ele><time>2026-04-19T09:54:55Z</time></trkpt><trkpt lat="41.83239038566769" lon="14.238184751756487"><ele>1178.0</ele><time>2026-04-19T09:54:56Z</time></trkpt><trkpt lat="41.83242362771751" lon="14.238268874119171"><ele>1178.0</ele><time>2026-04-19T09:54:58Z</time></trkpt><trkpt lat="41.83248135175504" lon="14.238316044838484"><ele>1178.0</ele><time>2026-04-19T09:55:00Z</time></trkpt><trkpt lat="41.83254541422704" lon="14.238413048779684"><ele>1178.0</ele><time>2026-04-19T09:55:02Z</time></trkpt><trkpt lat="41.83263339482089" lon="14.238506563759621"><ele>1174.8333333333335</ele><time>2026-04-19T09:55:04Z</time></trkpt><trkpt lat="41.832674501057305" lon="14.238574639443183"><ele>1171.6666666666667</ele><time>2026-04-19T09:55:05Z</time></trkpt><trkpt lat="41.832685234115594" lon="14.238685959830242"><ele>1168.5</ele><time>2026-04-19T09:55:06Z</time></trkpt><trkpt lat="41.83272972700599" lon="14.238843039575793"><ele>1165.3333333333333</ele><time>2026-04-19T09:55:08Z</time></trkpt><trkpt lat="41.832764657437465" lon="14.23892293045414"><ele>1162.1666666666665</ele><time>2026-04-19T09:55:09Z</time></trkpt><trkpt lat="41.832822128998714" lon="14.239016900719106"><ele>1159.0</ele><time>2026-04-19T09:55:11Z</time></trkpt><trkpt lat="41.83289377925565" lon="14.239098008453567"><ele>1157.1666666666665</ele><time>2026-04-19T09:55:13.001Z</time></trkpt><trkpt lat="41.83295633678039" lon="14.239212981391056"><ele>1155.3333333333333</ele><time>2026-04-19T09:55:15.001Z</time></trkpt><trkpt lat="41.833004025302195" lon="14.239274012113427"><ele>1153.5</ele><time>2026-04-19T09:55:16.001Z</time></trkpt><trkpt lat="41.83305627746412" lon="14.239322205130302"><ele>1151.6666666666667</ele><time>2026-04-19T09:55:17.001Z</time></trkpt><trkpt lat="41.833141605127715" lon="14.239440037644327"><ele>1149.8333333333335</ele><time>2026-04-19T09:55:19.001Z</time></trkpt><trkpt lat="41.833178528853225" lon="14.239532528110372"><ele>1148.0</ele><time>2026-04-19T09:55:20.001Z</time></trkpt><trkpt lat="41.83319362204358" lon="14.23962391010604"><ele>1148.0</ele><time>2026-04-19T09:55:21.001Z</time></trkpt><trkpt lat="41.83318856448232" lon="14.239713299636467"><ele>1148.0</ele><time>2026-04-19T09:55:22Z</time></trkpt><trkpt lat="41.83317856374699" lon="14.239854929887409"><ele>1148.0</ele><time>2026-04-19T09:55:24Z</time></trkpt><trkpt lat="41.833207686056724" lon="14.239981032734445"><ele>1148.0</ele><time>2026-04-19T09:55:27.001Z</time></trkpt><trkpt lat="41.833215745926296" lon="14.240086709672266"><ele>1148.0</ele><time>2026-04-19T09:55:29Z</time></trkpt><trkpt lat="41.83325208234199" lon="14.240170253168602"><ele>1148.0</ele><time>2026-04-19T09:55:31Z</time></trkpt><trkpt lat="41.83331244483113" lon="14.24020629269698"><ele>1146.5</ele><time>2026-04-19T09:55:33Z</time></trkpt><trkpt lat="41.833377801526986" lon="14.240169533811748"><ele>1145.0</ele><time>2026-04-19T09:55:35Z</time></trkpt><trkpt lat="41.83343089783491" lon="14.240107937306936"><ele>1143.5</ele><time>2026-04-19T09:55:37Z</time></trkpt><trkpt lat="41.833501521871796" lon="14.240023801585885"><ele>1142.0</ele><time>2026-04-19T09:55:39Z</time></trkpt><trkpt lat="41.83356614670581" lon="14.240058869768387"><ele>1140.5</ele><time>2026-04-19T09:55:41Z</time></trkpt><trkpt lat="41.833650868965606" lon="14.240128187219835"><ele>1139.0</ele><time>2026-04-19T09:55:43Z</time></trkpt><trkpt lat="41.833724235830466" lon="14.240073595157414"><ele>1138.0</ele><time>2026-04-19T09:55:46Z</time></trkpt><trkpt lat="41.833767047150204" lon="14.239986487264934"><ele>1137.0</ele><time>2026-04-19T09:55:49Z</time></trkpt><trkpt lat="41.833836186680884" lon="14.239905458492204"><ele>1136.0</ele><time>2026-04-19T09:55:52Z</time></trkpt><trkpt lat="41.8338848767352" lon="14.239834223032451"><ele>1135.0</ele><time>2026-04-19T09:55:55Z</time></trkpt><trkpt lat="41.83394195986108" lon="14.239783677771591"><ele>1134.0</ele><time>2026-04-19T09:55:57Z</time></trkpt><trkpt lat="41.834002761596075" lon="14.23972358344203"><ele>1133.0</ele><time>2026-04-19T09:56:01Z</time></trkpt><trkpt lat="41.834049020533925" lon="14.239646653092475"><ele>1133.0</ele><time>2026-04-19T09:56:21Z</time></trkpt><trkpt lat="41.834100795745336" lon="14.239588076875856"><ele>1133.0</ele><time>2026-04-19T09:56:41Z</time></trkpt><trkpt lat="41.83416554803989" lon="14.239554979856221"><ele>1133.0</ele><time>2026-04-19T09:56:44Z</time></trkpt><trkpt lat="41.83425693877835" lon="14.239538263915753"><ele>1133.0</ele><time>2026-04-19T09:56:47Z</time></trkpt><trkpt lat="41.834332450056905" lon="14.239526657394704"><ele>1133.0</ele><time>2026-04-19T09:56:50Z</time></trkpt><trkpt lat="41.834390559275654" lon="14.239492951906536"><ele>1133.0</ele><time>2026-04-19T09:57:58Z</time></trkpt><trkpt lat="41.83448310589433" lon="14.23950218326024"><ele>1131.5</ele><time>2026-04-19T09:58:01Z</time></trkpt><trkpt lat="41.83457138954097" lon="14.239570944536426"><ele>1130.0</ele><time>2026-04-19T09:58:03Z</time></trkpt><trkpt lat="41.83463581457925" lon="14.239643143641738"><ele>1128.5</ele><time>2026-04-19T09:58:05Z</time></trkpt><trkpt lat="41.83468685962263" lon="14.239725117808904"><ele>1127.0</ele><time>2026-04-19T09:58:07Z</time></trkpt><trkpt lat="41.834732455714146" lon="14.239834357443426"><ele>1125.5</ele><time>2026-04-19T09:58:09Z</time></trkpt><trkpt lat="41.8347938702717" lon="14.239919524202787"><ele>1124.0</ele><time>2026-04-19T09:58:11Z</time></trkpt><trkpt lat="41.834869344878584" lon="14.24000172172257"><ele>1122.6000000000001</ele><time>2026-04-19T09:58:13Z</time></trkpt><trkpt lat="41.83488913784176" lon="14.240126756150149"><ele>1121.2</ele><time>2026-04-19T09:58:15Z</time></trkpt><trkpt lat="41.83487902586818" lon="14.240227191322813"><ele>1119.8000000000002</ele><time>2026-04-19T09:58:17Z</time></trkpt><trkpt lat="41.83487463554735" lon="14.240389424519709"><ele>1118.4</ele><time>2026-04-19T09:58:19Z</time></trkpt><trkpt lat="41.83486953062211" lon="14.240512778594566"><ele>1117.0</ele><time>2026-04-19T09:58:21Z</time></trkpt><trkpt lat="41.834953582177796" lon="14.240530517879149"><ele>1117.0</ele><time>2026-04-19T09:58:23Z</time></trkpt><trkpt lat="41.83505309908793" lon="14.240597752656445"><ele>1117.0</ele><time>2026-04-19T09:58:25Z</time></trkpt><trkpt lat="41.83510576636707" lon="14.24067730113733"><ele>1117.0</ele><time>2026-04-19T09:58:26Z</time></trkpt><trkpt lat="41.835142872749266" lon="14.240765088533005"><ele>1117.0</ele><time>2026-04-19T09:58:27Z</time></trkpt><trkpt lat="41.83516483399751" lon="14.240859552056849"><ele>1117.0</ele><time>2026-04-19T09:58:28Z</time></trkpt><trkpt lat="41.83516420927472" lon="14.241007668719407"><ele>1115.3333333333333</ele><time>2026-04-19T09:58:30Z</time></trkpt><trkpt lat="41.83513419342508" lon="14.241081985423932"><ele>1113.6666666666665</ele><time>2026-04-19T09:58:31Z</time></trkpt><trkpt lat="41.835070555265226" lon="14.241183050210443"><ele>1112.0</ele><time>2026-04-19T09:58:33Z</time></trkpt><trkpt lat="41.83502630379698" lon="14.241275146289437"><ele>1110.3333333333333</ele><time>2026-04-19T09:58:35Z</time></trkpt><trkpt lat="41.83498712631697" lon="14.241368527109604"><ele>1108.6666666666667</ele><time>2026-04-19T09:58:37Z</time></trkpt><trkpt lat="41.83496424003833" lon="14.241474975779541"><ele>1107.0</ele><time>2026-04-19T09:58:39Z</time></trkpt><trkpt lat="41.834989494767655" lon="14.24157574545055"><ele>1105.5</ele><time>2026-04-19T09:58:41Z</time></trkpt><trkpt lat="41.83501572428289" lon="14.241654708180306"><ele>1104.0</ele><time>2026-04-19T09:58:42Z</time></trkpt><trkpt lat="41.83505095344141" lon="14.241736551302976"><ele>1102.5</ele><time>2026-04-19T09:58:43Z</time></trkpt><trkpt lat="41.835101668764835" lon="14.241862979347193"><ele>1101.0</ele><time>2026-04-19T09:58:45Z</time></trkpt><trkpt lat="41.83518770003574" lon="14.241901828423781"><ele>1099.5</ele><time>2026-04-19T09:58:47Z</time></trkpt><trkpt lat="41.83525183940549" lon="14.241929646605222"><ele>1098.0</ele><time>2026-04-19T09:58:48Z</time></trkpt><trkpt lat="41.83531839354806" lon="14.241946492222342"><ele>1096.4</ele><time>2026-04-19T09:58:49Z</time></trkpt><trkpt lat="41.835403803705276" lon="14.241892127248226"><ele>1094.8</ele><time>2026-04-19T09:58:51Z</time></trkpt><trkpt lat="41.8354685308225" lon="14.241846177407387"><ele>1093.2</ele><time>2026-04-19T09:58:52Z</time></trkpt><trkpt lat="41.83554917980627" lon="14.24180919392133"><ele>1091.6</ele><time>2026-04-19T09:58:53Z</time></trkpt><trkpt lat="41.83562352185086" lon="14.241783538826457"><ele>1090.0</ele><time>2026-04-19T09:58:54Z</time></trkpt><trkpt lat="41.83575333471221" lon="14.24174486613822"><ele>1090.0</ele><time>2026-04-19T09:58:56Z</time></trkpt><trkpt lat="41.83582398221238" lon="14.24172593171305"><ele>1090.0</ele><time>2026-04-19T09:58:57Z</time></trkpt><trkpt lat="41.835883595440706" lon="14.241691381837843"><ele>1090.0</ele><time>2026-04-19T09:58:58Z</time></trkpt><trkpt lat="41.83594488831345" lon="14.241637367512368"><ele>1090.0</ele><time>2026-04-19T09:58:59Z</time></trkpt><trkpt lat="41.836010397067504" lon="14.241588027485244"><ele>1090.0</ele><time>2026-04-19T09:59:00Z</time></trkpt><trkpt lat="41.836093523501155" lon="14.24148419412963"><ele>1090.0</ele><time>2026-04-19T09:59:02Z</time></trkpt><trkpt lat="41.83615741138829" lon="14.241454466838189"><ele>1089.857142857143</ele><time>2026-04-19T09:59:03Z</time></trkpt><trkpt lat="41.83622088456348" lon="14.241459784667395"><ele>1089.7142857142858</ele><time>2026-04-19T09:59:12.999Z</time></trkpt><trkpt lat="41.83628844830356" lon="14.24147532685158"><ele>1089.5714285714287</ele><time>2026-04-19T09:59:27.001Z</time></trkpt><trkpt lat="41.83636986994977" lon="14.241473694988116"><ele>1089.4285714285716</ele><time>2026-04-19T09:59:39Z</time></trkpt><trkpt lat="41.836439633066384" lon="14.24145010289756"><ele>1089.2857142857142</ele><time>2026-04-19T09:59:51Z</time></trkpt><trkpt lat="41.83651392084379" lon="14.241441783274396"><ele>1089.1428571428573</ele><time>2026-04-19T10:00:34Z</time></trkpt><trkpt lat="41.836586537766" lon="14.241437493562627"><ele>1089.0</ele><time>2026-04-19T10:00:38Z</time></trkpt><trkpt lat="41.836670115948515" lon="14.241410064252062"><ele>1089.0</ele><time>2026-04-19T10:00:42Z</time></trkpt><trkpt lat="41.83675834058116" lon="14.241332029767891"><ele>1089.0</ele><time>2026-04-19T10:00:57Z</time></trkpt><trkpt lat="41.836822618613716" lon="14.241284333726092"><ele>1089.0</ele><time>2026-04-19T10:00:59Z</time></trkpt><trkpt lat="41.836889113005014" lon="14.241254609362656"><ele>1089.0</ele><time>2026-04-19T10:01:51Z</time></trkpt><trkpt lat="41.836972313534396" lon="14.241207799477575"><ele>1089.0</ele><time>2026-04-19T10:01:59Z</time></trkpt><trkpt lat="41.83704199270377" lon="14.24117413501596"><ele>1089.0</ele><time>2026-04-19T10:02:02Z</time></trkpt><trkpt lat="41.837129896045944" lon="14.241133069457288"><ele>1087.8333333333333</ele><time>2026-04-19T10:02:05Z</time></trkpt><trkpt lat="41.837186092324025" lon="14.24108976679097"><ele>1086.6666666666667</ele><time>2026-04-19T10:02:08Z</time></trkpt><trkpt lat="41.83725777324561" lon="14.24102304689188"><ele>1085.5</ele><time>2026-04-19T10:02:10Z</time></trkpt><trkpt lat="41.837340368439264" lon="14.240944900083102"><ele>1084.3333333333335</ele><time>2026-04-19T10:02:11Z</time></trkpt><trkpt lat="41.83743168881065" lon="14.240905461952487"><ele>1083.1666666666667</ele><time>2026-04-19T10:02:12Z</time></trkpt><trkpt lat="41.837505452422526" lon="14.240928642820942"><ele>1082.0</ele><time>2026-04-19T10:10:50Z</time></trkpt><trkpt lat="41.837542918148884" lon="14.241030722870297"><ele>1082.0</ele><time>2026-04-19T10:10:52Z</time></trkpt><trkpt lat="41.83761484572848" lon="14.241167054584924"><ele>1082.0</ele><time>2026-04-19T10:10:54Z</time></trkpt><trkpt lat="41.837625611963" lon="14.241272476119073"><ele>1082.0</ele><time>2026-04-19T10:10:56Z</time></trkpt><trkpt lat="41.837582506037066" lon="14.241336853143208"><ele>1082.0</ele><time>2026-04-19T10:10:58Z</time></trkpt><trkpt lat="41.83755321019093" lon="14.241451828065937"><ele>1082.0</ele><time>2026-04-19T10:12:21Z</time></trkpt><trkpt lat="41.837551283255" lon="14.24154676633198"><ele>1082.0</ele><time>2026-04-19T10:15:26Z</time></trkpt><trkpt lat="41.83755589674982" lon="14.24163320062032"><ele>1081.7142857142858</ele><time>2026-04-19T10:16:49Z</time></trkpt><trkpt lat="41.837591464689716" lon="14.241716770742562"><ele>1081.4285714285716</ele><time>2026-04-19T10:17:58.999Z</time></trkpt><trkpt lat="41.8376216650926" lon="14.241800973219505"><ele>1081.142857142857</ele><time>2026-04-19T10:18:33Z</time></trkpt><trkpt lat="41.83759507553346" lon="14.241883330950856"><ele>1080.857142857143</ele><time>2026-04-19T10:18:47Z</time></trkpt><trkpt lat="41.83752695368908" lon="14.241898604044533"><ele>1080.5714285714284</ele><time>2026-04-19T10:21:19Z</time></trkpt><trkpt lat="41.837433489869454" lon="14.241913626522301"><ele>1080.2857142857142</ele><time>2026-04-19T10:21:22Z</time></trkpt><trkpt lat="41.83735792228159" lon="14.241934808060101"><ele>1080.0</ele><time>2026-04-19T10:21:26Z</time></trkpt><trkpt lat="41.83729496802846" lon="14.241984366699722"><ele>1080.0</ele><time>2026-04-19T10:21:31Z</time></trkpt><trkpt lat="41.83723116800111" lon="14.241968960480731"><ele>1080.0</ele><time>2026-04-19T10:21:49Z</time></trkpt><trkpt lat="41.83716584291936" lon="14.242022468284416"><ele>1080.0</ele><time>2026-04-19T10:21:52Z</time></trkpt><trkpt lat="41.83708960365146" lon="14.24209424808307"><ele>1080.0</ele><time>2026-04-19T10:21:54Z</time></trkpt><trkpt lat="41.837036257254425" lon="14.242162645330241"><ele>1080.0</ele><time>2026-04-19T10:21:56Z</time></trkpt><trkpt lat="41.83699223364392" lon="14.242225318556722"><ele>1080.0</ele><time>2026-04-19T10:22:00Z</time></trkpt><trkpt lat="41.836946551560885" lon="14.242296105735576"><ele>1080.0</ele><time>2026-04-19T10:22:05Z</time></trkpt><trkpt lat="41.83693162067603" lon="14.242387831981612"><ele>1078.8333333333333</ele><time>2026-04-19T10:22:07Z</time></trkpt><trkpt lat="41.83690302693927" lon="14.242480377541991"><ele>1077.6666666666667</ele><time>2026-04-19T10:22:09Z</time></trkpt><trkpt lat="41.83688023170046" lon="14.242587187421956"><ele>1076.5</ele><time>2026-04-19T10:22:11Z</time></trkpt><trkpt lat="41.836866170099775" lon="14.24268406538424"><ele>1075.3333333333335</ele><time>2026-04-19T10:22:14Z</time></trkpt><trkpt lat="41.83684794380956" lon="14.242797220656598"><ele>1074.1666666666667</ele><time>2026-04-19T10:22:18Z</time></trkpt><trkpt lat="41.83683296516791" lon="14.242936871858616"><ele>1073.0</ele><time>2026-04-19T10:22:21Z</time></trkpt><trkpt lat="41.8368392891467" lon="14.243030333712348"><ele>1071.3333333333335</ele><time>2026-04-19T10:22:23Z</time></trkpt><trkpt lat="41.836840748758" lon="14.243160784857183"><ele>1069.6666666666667</ele><time>2026-04-19T10:22:26Z</time></trkpt><trkpt lat="41.83684434452825" lon="14.243267682242273"><ele>1068.0</ele><time>2026-04-19T10:22:28Z</time></trkpt><trkpt lat="41.836846290696954" lon="14.24336103061178"><ele>1066.3333333333333</ele><time>2026-04-19T10:22:29Z</time></trkpt><trkpt lat="41.836848462365985" lon="14.243480413345203"><ele>1064.6666666666665</ele><time>2026-04-19T10:22:30Z</time></trkpt><trkpt lat="41.83684115926286" lon="14.243574450830065"><ele>1063.0</ele><time>2026-04-19T10:22:31Z</time></trkpt><trkpt lat="41.83681806650147" lon="14.243680137567933"><ele>1063.0</ele><time>2026-04-19T10:22:33Z</time></trkpt><trkpt lat="41.836784627760856" lon="14.243760601910967"><ele>1063.0</ele><time>2026-04-19T10:22:36Z</time></trkpt><trkpt lat="41.836749659307024" lon="14.243861574497702"><ele>1063.0</ele><time>2026-04-19T10:22:45Z</time></trkpt><trkpt lat="41.83671084720364" lon="14.243950515893413"><ele>1063.0</ele><time>2026-04-19T10:22:47Z</time></trkpt><trkpt lat="41.83666665640218" lon="14.244016219841845"><ele>1063.0</ele><time>2026-04-19T10:22:50Z</time></trkpt><trkpt lat="41.83662035794413" lon="14.244079032168099"><ele>1063.0</ele><time>2026-04-19T10:22:54Z</time></trkpt><trkpt lat="41.836565246613475" lon="14.2441528428137"><ele>1063.0</ele><time>2026-04-19T10:22:56Z</time></trkpt><trkpt lat="41.836514826322244" lon="14.24421718391977"><ele>1063.0</ele><time>2026-04-19T10:22:57Z</time></trkpt><trkpt lat="41.83647660532114" lon="14.244285262391774"><ele>1063.0</ele><time>2026-04-19T10:22:58Z</time></trkpt><trkpt lat="41.83641818033636" lon="14.24434906955031"><ele>1063.0</ele><time>2026-04-19T10:23:00Z</time></trkpt><trkpt lat="41.83636695751857" lon="14.244404738140886"><ele>1063.0</ele><time>2026-04-19T10:23:00.999Z</time></trkpt><trkpt lat="41.836316992212645" lon="14.244482114398318"><ele>1063.0</ele><time>2026-04-19T10:23:02.999Z</time></trkpt><trkpt lat="41.836292477901836" lon="14.244560556408139"><ele>1063.0</ele><time>2026-04-19T10:23:05.999Z</time></trkpt><trkpt lat="41.83624574989056" lon="14.244629288606243"><ele>1063.0</ele><time>2026-04-19T10:23:08.999Z</time></trkpt><trkpt lat="41.836180109222155" lon="14.244677370188858"><ele>1063.0</ele><time>2026-04-19T10:23:11.999Z</time></trkpt><trkpt lat="41.836133621811854" lon="14.244735086573678"><ele>1063.0</ele><time>2026-04-19T10:23:15.999Z</time></trkpt><trkpt lat="41.83606962482012" lon="14.244815206771374"><ele>1063.0</ele><time>2026-04-19T10:24:07.999Z</time></trkpt><trkpt lat="41.836020582100126" lon="14.244911563526179"><ele>1063.0</ele><time>2026-04-19T10:24:09.999Z</time></trkpt><trkpt lat="41.83596785997917" lon="14.245006357244886"><ele>1063.0</ele><time>2026-04-19T10:24:11.999Z</time></trkpt><trkpt lat="41.83593873725867" lon="14.245103315996406"><ele>1063.0</ele><time>2026-04-19T10:24:13.999Z</time></trkpt><trkpt lat="41.83593135197276" lon="14.245202314188536"><ele>1063.0</ele><time>2026-04-19T10:24:23.999Z</time></trkpt><trkpt lat="41.83592313789949" lon="14.245312314019259"><ele>1063.0</ele><time>2026-04-19T10:24:25.999Z</time></trkpt><trkpt lat="41.835931662006296" lon="14.245397270842933"><ele>1063.0</ele><time>2026-04-19T10:24:38.999Z</time></trkpt><trkpt lat="41.83595318821635" lon="14.245480561355155"><ele>1063.0</ele><time>2026-04-19T10:24:43.999Z</time></trkpt><trkpt lat="41.835987534324666" lon="14.245579566870601"><ele>1063.0</ele><time>2026-04-19T10:24:45.999Z</time></trkpt><trkpt lat="41.83602176800888" lon="14.245672160101632"><ele>1063.0</ele><time>2026-04-19T10:24:47.999Z</time></trkpt><trkpt lat="41.83607462745769" lon="14.245755571587159"><ele>1064.3333333333333</ele><time>2026-04-19T10:24:50.999Z</time></trkpt><trkpt lat="41.83607781528518" lon="14.245841774385148"><ele>1065.6666666666665</ele><time>2026-04-19T10:25:07.999Z</time></trkpt><trkpt lat="41.83601326894914" lon="14.24584312428694"><ele>1067.0</ele><time>2026-04-19T10:25:09.999Z</time></trkpt><trkpt lat="41.835938064427" lon="14.245830161651549"><ele>1068.3333333333333</ele><time>2026-04-19T10:25:11.999Z</time></trkpt><trkpt lat="41.83582914642834" lon="14.245836283009647"><ele>1069.6666666666667</ele><time>2026-04-19T10:25:13.999Z</time></trkpt><trkpt lat="41.835763289195455" lon="14.245892782258407"><ele>1071.0</ele><time>2026-04-19T10:25:15.999Z</time></trkpt><trkpt lat="41.8357787485506" lon="14.246019734673954"><ele>1071.0</ele><time>2026-04-19T10:25:17.999Z</time></trkpt><trkpt lat="41.83582975692017" lon="14.246120952021748"><ele>1071.0</ele><time>2026-04-19T10:25:19.999Z</time></trkpt><trkpt lat="41.835874952073006" lon="14.24622758635662"><ele>1071.0</ele><time>2026-04-19T10:25:21.999Z</time></trkpt><trkpt lat="41.83588635178336" lon="14.246358005175397"><ele>1071.0</ele><time>2026-04-19T10:25:23.999Z</time></trkpt><trkpt lat="41.835857129955684" lon="14.246478461492911"><ele>1071.0</ele><time>2026-04-19T10:25:25.999Z</time></trkpt><trkpt lat="41.83581373884677" lon="14.246547982836097"><ele>1071.0</ele><time>2026-04-19T10:25:27.999Z</time></trkpt><trkpt lat="41.83574169929433" lon="14.246666203669662"><ele>1072.857142857143</ele><time>2026-04-19T10:25:29.999Z</time></trkpt><trkpt lat="41.83568221029972" lon="14.246738758295725"><ele>1074.7142857142858</ele><time>2026-04-19T10:25:31.999Z</time></trkpt><trkpt lat="41.83568699952666" lon="14.246836841076387"><ele>1076.5714285714284</ele><time>2026-04-19T10:25:33.999Z</time></trkpt><trkpt lat="41.83565472009625" lon="14.246918030615596"><ele>1078.4285714285716</ele><time>2026-04-19T10:25:37.999Z</time></trkpt><trkpt lat="41.83563038596482" lon="14.247005201315524"><ele>1080.2857142857142</ele><time>2026-04-19T10:25:40.999Z</time></trkpt><trkpt lat="41.83562075733267" lon="14.24709510779673"><ele>1082.142857142857</ele><time>2026-04-19T10:25:49.999Z</time></trkpt><trkpt lat="41.835582649826684" lon="14.247170431760644"><ele>1084.0</ele><time>2026-04-19T10:25:51.999Z</time></trkpt><trkpt lat="41.835539206855394" lon="14.247235998979901"><ele>1085.5</ele><time>2026-04-19T10:25:54.999Z</time></trkpt><trkpt lat="41.835475649704314" lon="14.247295449268393"><ele>1087.0</ele><time>2026-04-19T10:26:04.999Z</time></trkpt><trkpt lat="41.83542327573519" lon="14.247351783650258"><ele>1088.5</ele><time>2026-04-19T10:26:06.999Z</time></trkpt><trkpt lat="41.83536813109231" lon="14.247454790734047"><ele>1090.0</ele><time>2026-04-19T10:26:08.999Z</time></trkpt><trkpt lat="41.83530027470297" lon="14.247539328613033"><ele>1091.5</ele><time>2026-04-19T10:26:10.999Z</time></trkpt><trkpt lat="41.835234274863396" lon="14.247618051189816"><ele>1093.0</ele><time>2026-04-19T10:26:12.998Z</time></trkpt><trkpt lat="41.83518167811761" lon="14.247670579991583"><ele>1094.5</ele><time>2026-04-19T10:26:14.998Z</time></trkpt><trkpt lat="41.8351057250506" lon="14.247713674537625"><ele>1096.0</ele><time>2026-04-19T10:26:17.998Z</time></trkpt><trkpt lat="41.835039475233806" lon="14.247763808714765"><ele>1097.5</ele><time>2026-04-19T10:26:19.998Z</time></trkpt><trkpt lat="41.834974855729804" lon="14.247821728123563"><ele>1099.0</ele><time>2026-04-19T10:26:21.998Z</time></trkpt><trkpt lat="41.83491211671831" lon="14.24786644857381"><ele>1100.5</ele><time>2026-04-19T10:26:23.998Z</time></trkpt><trkpt lat="41.834843089164416" lon="14.247919359366904"><ele>1102.0</ele><time>2026-04-19T10:26:26.998Z</time></trkpt><trkpt lat="41.83473962745193" lon="14.24796066482174"><ele>1102.0</ele><time>2026-04-19T10:26:29.998Z</time></trkpt><trkpt lat="41.83467030061774" lon="14.248034175505552"><ele>1102.0</ele><time>2026-04-19T10:26:31.998Z</time></trkpt><trkpt lat="41.83459559472386" lon="14.248116746990783"><ele>1102.0</ele><time>2026-04-19T10:26:33.998Z</time></trkpt><trkpt lat="41.834591981261205" lon="14.24822021998693"><ele>1102.0</ele><time>2026-04-19T10:26:40.998Z</time></trkpt><trkpt lat="41.834651064972235" lon="14.24831653360943"><ele>1102.0</ele><time>2026-04-19T10:26:42.998Z</time></trkpt><trkpt lat="41.83467049789589" lon="14.248416863287344"><ele>1102.0</ele><time>2026-04-19T10:26:43.998Z</time></trkpt><trkpt lat="41.83468033772906" lon="14.248524760188623"><ele>1103.4</ele><time>2026-04-19T10:26:44.998Z</time></trkpt><trkpt lat="41.83467544496952" lon="14.248638586642329"><ele>1104.8000000000002</ele><time>2026-04-19T10:26:45.998Z</time></trkpt><trkpt lat="41.834638153640704" lon="14.248762806663512"><ele>1106.2</ele><time>2026-04-19T10:26:46.998Z</time></trkpt><trkpt lat="41.83457696426015" lon="14.248894150828841"><ele>1107.6000000000001</ele><time>2026-04-19T10:26:47.998Z</time></trkpt><trkpt lat="41.83452516222737" lon="14.249031995795523"><ele>1109.0</ele><time>2026-04-19T10:26:48.998Z</time></trkpt><trkpt lat="41.83446835730088" lon="14.24912322021125"><ele>1110.8</ele><time>2026-04-19T10:26:49.998Z</time></trkpt><trkpt lat="41.83442191472495" lon="14.2492474305919"><ele>1112.6000000000001</ele><time>2026-04-19T10:26:50.998Z</time></trkpt><trkpt lat="41.83438422476036" lon="14.249377685315299"><ele>1114.4</ele><time>2026-04-19T10:26:51.998Z</time></trkpt><trkpt lat="41.83435692792193" lon="14.24949374938292"><ele>1116.2</ele><time>2026-04-19T10:26:52.998Z</time></trkpt><trkpt lat="41.834334698617994" lon="14.249611254706888"><ele>1118.0</ele><time>2026-04-19T10:26:53.998Z</time></trkpt><trkpt lat="41.83431184220537" lon="14.249702115084503"><ele>1121.6</ele><time>2026-04-19T10:26:54.998Z</time></trkpt><trkpt lat="41.83428567757216" lon="14.249809142597318"><ele>1125.1999999999998</ele><time>2026-04-19T10:26:55.998Z</time></trkpt><trkpt lat="41.83426042432741" lon="14.249932744431703"><ele>1128.8</ele><time>2026-04-19T10:26:56.998Z</time></trkpt><trkpt lat="41.83424003219635" lon="14.250047738881372"><ele>1132.3999999999999</ele><time>2026-04-19T10:26:57.998Z</time></trkpt><trkpt lat="41.834213630340756" lon="14.250169478667555"><ele>1136.0</ele><time>2026-04-19T10:26:58.998Z</time></trkpt><trkpt lat="41.83417031660006" lon="14.25029035550878"><ele>1136.0</ele><time>2026-04-19T10:26:59.998Z</time></trkpt><trkpt lat="41.83412508269488" lon="14.250406480207246"><ele>1136.0</ele><time>2026-04-19T10:27:00.998Z</time></trkpt><trkpt lat="41.83409201983673" lon="14.250500308258792"><ele>1136.0</ele><time>2026-04-19T10:27:01.998Z</time></trkpt><trkpt lat="41.83407330705827" lon="14.25058646554484"><ele>1136.0</ele><time>2026-04-19T10:27:02.998Z</time></trkpt><trkpt lat="41.83405486195227" lon="14.250668622944122"><ele>1136.0</ele><time>2026-04-19T10:27:03.998Z</time></trkpt><trkpt lat="41.83401736629422" lon="14.250818417151375"><ele>1136.0</ele><time>2026-04-19T10:27:05.998Z</time></trkpt><trkpt lat="41.83397390905096" lon="14.250898195443284"><ele>1137.5</ele><time>2026-04-19T10:27:07.998Z</time></trkpt><trkpt lat="41.833936263436684" lon="14.25101154947519"><ele>1139.0</ele><time>2026-04-19T10:27:10.998Z</time></trkpt><trkpt lat="41.834014268930844" lon="14.251014349793824"><ele>1140.5</ele><time>2026-04-19T10:27:15.998Z</time></trkpt><trkpt lat="41.83406009154614" lon="14.250950381069515"><ele>1142.0</ele><time>2026-04-19T10:27:17.998Z</time></trkpt><trkpt lat="41.83409299260912" lon="14.250872901521463"><ele>1143.5</ele><time>2026-04-19T10:27:19.998Z</time></trkpt><trkpt lat="41.83415119749074" lon="14.250818899216876"><ele>1145.0</ele><time>2026-04-19T10:27:22.998Z</time></trkpt><trkpt lat="41.834116664789946" lon="14.250720219747597"><ele>1143.5</ele><time>2026-04-19T10:27:24.998Z</time></trkpt><trkpt lat="41.83408639762648" lon="14.25058936704959"><ele>1142.0</ele><time>2026-04-19T10:27:26.998Z</time></trkpt><trkpt lat="41.83410231786712" lon="14.250501935178612"><ele>1140.5</ele><time>2026-04-19T10:27:28.998Z</time></trkpt><trkpt lat="41.83417164051466" lon="14.250413720614112"><ele>1139.0</ele><time>2026-04-19T10:27:30.998Z</time></trkpt><trkpt lat="41.834231817178946" lon="14.25035978208453"><ele>1137.5</ele><time>2026-04-19T10:27:31.998Z</time></trkpt><trkpt lat="41.83430500235944" lon="14.250309406594658"><ele>1136.0</ele><time>2026-04-19T10:27:32.998Z</time></trkpt><trkpt lat="41.83439034761008" lon="14.250264797280892"><ele>1134.8333333333335</ele><time>2026-04-19T10:27:33.998Z</time></trkpt><trkpt lat="41.8344710129164" lon="14.250217453729785"><ele>1133.6666666666667</ele><time>2026-04-19T10:27:34.998Z</time></trkpt><trkpt lat="41.834546267667996" lon="14.250200660781497"><ele>1132.5</ele><time>2026-04-19T10:27:35.998Z</time></trkpt><trkpt lat="41.8346291098286" lon="14.25024902735519"><ele>1131.3333333333333</ele><time>2026-04-19T10:27:37.998Z</time></trkpt><trkpt lat="41.83466173298656" lon="14.25040984353268"><ele>1130.1666666666665</ele><time>2026-04-19T10:27:39.998Z</time></trkpt><trkpt lat="41.83471079922276" lon="14.25047112016789"><ele>1129.0</ele><time>2026-04-19T10:27:40.998Z</time></trkpt><trkpt lat="41.834784841739065" lon="14.25052384780084"><ele>1129.0</ele><time>2026-04-19T10:27:41.998Z</time></trkpt><trkpt lat="41.83484890085056" lon="14.250568692924913"><ele>1129.0</ele><time>2026-04-19T10:27:42.998Z</time></trkpt><trkpt lat="41.834914008105756" lon="14.250637214524776"><ele>1129.0</ele><time>2026-04-19T10:27:43.998Z</time></trkpt><trkpt lat="41.83496924601174" lon="14.25074053243867"><ele>1129.0</ele><time>2026-04-19T10:27:44.998Z</time></trkpt><trkpt lat="41.83501908274013" lon="14.2508560025702"><ele>1129.0</ele><time>2026-04-19T10:27:45.998Z</time></trkpt><trkpt lat="41.83505918977827" lon="14.250977905674306"><ele>1129.0</ele><time>2026-04-19T10:27:46.998Z</time></trkpt><trkpt lat="41.83508375496381" lon="14.251083230663655"><ele>1129.3333333333333</ele><time>2026-04-19T10:27:47.998Z</time></trkpt><trkpt lat="41.83509689540513" lon="14.251184696445444"><ele>1129.6666666666665</ele><time>2026-04-19T10:27:48.998Z</time></trkpt><trkpt lat="41.8351200671612" lon="14.25126526072789"><ele>1130.0</ele><time>2026-04-19T10:27:49.998Z</time></trkpt><trkpt lat="41.835143375134756" lon="14.251376638829544"><ele>1130.3333333333333</ele><time>2026-04-19T10:27:50.998Z</time></trkpt><trkpt lat="41.835158095774744" lon="14.25147550091006"><ele>1130.6666666666667</ele><time>2026-04-19T10:27:51.998Z</time></trkpt><trkpt lat="41.83515735284206" lon="14.251570140914751"><ele>1131.0</ele><time>2026-04-19T10:27:52.998Z</time></trkpt><trkpt lat="41.83514747954517" lon="14.251688214072074"><ele>1133.0</ele><time>2026-04-19T10:27:53.998Z</time></trkpt><trkpt lat="41.835139246416965" lon="14.251809109941869"><ele>1135.0</ele><time>2026-04-19T10:27:54.998Z</time></trkpt><trkpt lat="41.835122966656755" lon="14.251942054250627"><ele>1137.0</ele><time>2026-04-19T10:27:55.998Z</time></trkpt><trkpt lat="41.835098367158196" lon="14.252066767065077"><ele>1139.0</ele><time>2026-04-19T10:27:56.998Z</time></trkpt><trkpt lat="41.83507491615765" lon="14.252167633329202"><ele>1141.0</ele><time>2026-04-19T10:27:57.998Z</time></trkpt><trkpt lat="41.83504124448404" lon="14.252277493129558"><ele>1145.2</ele><time>2026-04-19T10:27:58.998Z</time></trkpt><trkpt lat="41.834992610746475" lon="14.252405678995157"><ele>1149.3999999999999</ele><time>2026-04-19T10:27:59.998Z</time></trkpt><trkpt lat="41.83493305858079" lon="14.25252769050687"><ele>1153.6</ele><time>2026-04-19T10:28:00.998Z</time></trkpt><trkpt lat="41.83488570445586" lon="14.252646175145136"><ele>1157.8</ele><time>2026-04-19T10:28:01.998Z</time></trkpt><trkpt lat="41.83485623511058" lon="14.252758945029383"><ele>1162.0</ele><time>2026-04-19T10:28:02.998Z</time></trkpt><trkpt lat="41.83483409982406" lon="14.252861235980232"><ele>1162.0</ele><time>2026-04-19T10:28:03.998Z</time></trkpt><trkpt lat="41.834824811718306" lon="14.253005982646101"><ele>1162.0</ele><time>2026-04-19T10:28:05.998Z</time></trkpt><trkpt lat="41.834786753821355" lon="14.253076622931578"><ele>1162.0</ele><time>2026-04-19T10:28:09.998Z</time></trkpt><trkpt lat="41.83470337193779" lon="14.253075068709553"><ele>1162.0</ele><time>2026-04-19T10:28:13.998Z</time></trkpt><trkpt lat="41.83459246586793" lon="14.253061848845192"><ele>1162.0</ele><time>2026-04-19T10:28:15.998Z</time></trkpt><trkpt lat="41.83447076509717" lon="14.25299307200548"><ele>1162.0</ele><time>2026-04-19T10:28:17.998Z</time></trkpt><trkpt lat="41.834376420864125" lon="14.253028076079305"><ele>1162.0</ele><time>2026-04-19T10:28:19.998Z</time></trkpt><trkpt lat="41.83429819116023" lon="14.253034932783002"><ele>1162.0</ele><time>2026-04-19T10:28:21.998Z</time></trkpt><trkpt lat="41.83424827729348" lon="14.252980747954384"><ele>1162.0</ele><time>2026-04-19T10:28:24.998Z</time></trkpt><trkpt lat="41.83415173864391" lon="14.252974161043756"><ele>1162.0</ele><time>2026-04-19T10:28:28.998Z</time></trkpt><trkpt lat="41.8340546281226" lon="14.25300460225481"><ele>1162.0</ele><time>2026-04-19T10:28:30.998Z</time></trkpt><trkpt lat="41.833973495325495" lon="14.253017643914372"><ele>1163.5</ele><time>2026-04-19T10:28:44.998Z</time></trkpt><trkpt lat="41.833899976640915" lon="14.252982024468379"><ele>1165.0</ele><time>2026-04-19T10:28:48.998Z</time></trkpt><trkpt lat="41.833849890211155" lon="14.25291895436836"><ele>1166.5</ele><time>2026-04-19T10:28:51.998Z</time></trkpt><trkpt lat="41.833798530934345" lon="14.253002102022322"><ele>1168.0</ele><time>2026-04-19T10:28:53.998Z</time></trkpt><trkpt lat="41.83373117616807" lon="14.253088689413035"><ele>1169.5</ele><time>2026-04-19T10:28:55.998Z</time></trkpt><trkpt lat="41.83378818002491" lon="14.25305019650548"><ele>1171.0</ele><time>2026-04-19T10:31:09.997Z</time></trkpt><trkpt lat="41.83381937862606" lon="14.2529682787327"><ele>1171.0</ele><time>2026-04-19T10:31:13.997Z</time></trkpt><trkpt lat="41.833850530708105" lon="14.252859646017187"><ele>1171.0</ele><time>2026-04-19T10:32:13.997Z</time></trkpt><trkpt lat="41.833780426511666" lon="14.252883701726677"><ele>1171.0</ele><time>2026-04-19T10:32:15.997Z</time></trkpt><trkpt lat="41.83378313372006" lon="14.252975238102321"><ele>1171.0</ele><time>2026-04-19T10:32:17.997Z</time></trkpt><trkpt lat="41.833763198577714" lon="14.253055522979311"><ele>1171.0</ele><time>2026-04-19T10:32:46.996Z</time></trkpt><trkpt lat="41.83370195611001" lon="14.25313744917549"><ele>1171.0</ele><time>2026-04-19T10:32:48.996Z</time></trkpt><trkpt lat="41.83364818879271" lon="14.253208466614998"><ele>1172.6666666666665</ele><time>2026-04-19T10:32:51.996Z</time></trkpt><trkpt lat="41.83361751543686" lon="14.253314411234653"><ele>1174.3333333333333</ele><time>2026-04-19T10:32:54.996Z</time></trkpt><trkpt lat="41.83358021327402" lon="14.253389987809763"><ele>1176.0</ele><time>2026-04-19T10:32:56.996Z</time></trkpt><trkpt lat="41.83350953238214" lon="14.253466361446332"><ele>1177.6666666666667</ele><time>2026-04-19T10:32:59.996Z</time></trkpt><trkpt lat="41.833479771875005" lon="14.25355587958809"><ele>1179.3333333333335</ele><time>2026-04-19T10:33:02.996Z</time></trkpt><trkpt lat="41.833441070444735" lon="14.253632783483763"><ele>1181.0</ele><time>2026-04-19T10:33:06.996Z</time></trkpt><trkpt lat="41.83345703167829" lon="14.253513677441337"><ele>1181.0</ele><time>2026-04-19T10:33:18.996Z</time></trkpt><trkpt lat="41.833519282265534" lon="14.2535626258677"><ele>1181.0</ele><time>2026-04-19T10:33:21.996Z</time></trkpt><trkpt lat="41.833465564776006" lon="14.253643967118895"><ele>1181.0</ele><time>2026-04-19T10:33:24.996Z</time></trkpt><trkpt lat="41.83338961091872" lon="14.253721162866459"><ele>1181.0</ele><time>2026-04-19T10:33:26.996Z</time></trkpt><trkpt lat="41.833285514251216" lon="14.253763918862157"><ele>1181.0</ele><time>2026-04-19T10:33:28.996Z</time></trkpt><trkpt lat="41.833227496976725" lon="14.253826553720502"><ele>1181.0</ele><time>2026-04-19T10:33:30.996Z</time></trkpt><trkpt lat="41.83315939534128" lon="14.253891514639674"><ele>1182.142857142857</ele><time>2026-04-19T10:33:32.996Z</time></trkpt><trkpt lat="41.83311936256998" lon="14.253963641818899"><ele>1183.2857142857144</ele><time>2026-04-19T10:33:49.996Z</time></trkpt><trkpt lat="41.833052220555665" lon="14.253989873527653"><ele>1184.4285714285716</ele><time>2026-04-19T10:33:52.996Z</time></trkpt><trkpt lat="41.83298532344502" lon="14.253992461655557"><ele>1185.5714285714287</ele><time>2026-04-19T10:34:01.996Z</time></trkpt><trkpt lat="41.83292292621624" lon="14.25396758278738"><ele>1186.7142857142858</ele><time>2026-04-19T10:34:04.996Z</time></trkpt><trkpt lat="41.83283743565842" lon="14.253961323510492"><ele>1187.857142857143</ele><time>2026-04-19T10:36:00.995Z</time></trkpt><trkpt lat="41.832761862118055" lon="14.253943384067135"><ele>1189.0</ele><time>2026-04-19T10:36:06.995Z</time></trkpt><trkpt lat="41.83269050164931" lon="14.253952645364379"><ele>1193.1666666666665</ele><time>2026-04-19T10:36:08.995Z</time></trkpt><trkpt lat="41.832608489306665" lon="14.253963160391667"><ele>1197.3333333333333</ele><time>2026-04-19T10:36:12.995Z</time></trkpt><trkpt lat="41.83250477828962" lon="14.254006546616099"><ele>1201.5</ele><time>2026-04-19T10:36:14.995Z</time></trkpt><trkpt lat="41.83243869537635" lon="14.25405550487465"><ele>1205.6666666666667</ele><time>2026-04-19T10:36:15.995Z</time></trkpt><trkpt lat="41.83237202979912" lon="14.254078101092077"><ele>1209.8333333333335</ele><time>2026-04-19T10:36:16.995Z</time></trkpt><trkpt lat="41.83230567774926" lon="14.254102895926039"><ele>1214.0</ele><time>2026-04-19T10:36:17.995Z</time></trkpt><trkpt lat="41.83223803843157" lon="14.254144289752178"><ele>1214.0</ele><time>2026-04-19T10:36:18.995Z</time></trkpt><trkpt lat="41.83218522555408" lon="14.254257767090259"><ele>1214.0</ele><time>2026-04-19T10:36:20.995Z</time></trkpt><trkpt lat="41.83211015383841" lon="14.254348468181819"><ele>1214.0</ele><time>2026-04-19T10:36:22.995Z</time></trkpt><trkpt lat="41.83203458315931" lon="14.254426435998964"><ele>1214.0</ele><time>2026-04-19T10:36:24.995Z</time></trkpt><trkpt lat="41.83204660691584" lon="14.254524919587375"><ele>1214.0</ele><time>2026-04-19T10:36:26.995Z</time></trkpt><trkpt lat="41.831980432879654" lon="14.254615214491983"><ele>1214.0</ele><time>2026-04-19T10:36:28.995Z</time></trkpt><trkpt lat="41.83191995911569" lon="14.254665609711898"><ele>1214.0</ele><time>2026-04-19T10:36:30.995Z</time></trkpt><trkpt lat="41.83183835573155" lon="14.254721777632712"><ele>1214.0</ele><time>2026-04-19T10:36:57.995Z</time></trkpt><trkpt lat="41.83174819092054" lon="14.254781083768961"><ele>1214.0</ele><time>2026-04-19T10:36:59.995Z</time></trkpt><trkpt lat="41.831647639739906" lon="14.254835373433762"><ele>1214.0</ele><time>2026-04-19T10:37:01.995Z</time></trkpt><trkpt lat="41.831561962320635" lon="14.254839959912365"><ele>1219.2</ele><time>2026-04-19T10:37:03.995Z</time></trkpt><trkpt lat="41.831452842705204" lon="14.254869663711073"><ele>1224.4</ele><time>2026-04-19T10:37:05.995Z</time></trkpt><trkpt lat="41.8313285430907" lon="14.254951187563256"><ele>1229.6</ele><time>2026-04-19T10:37:07.995Z</time></trkpt><trkpt lat="41.831267443830036" lon="14.254997755192504"><ele>1234.8</ele><time>2026-04-19T10:37:08.995Z</time></trkpt><trkpt lat="41.83120311688005" lon="14.255131619983286"><ele>1240.0</ele><time>2026-04-19T10:37:10.995Z</time></trkpt><trkpt lat="41.83118712933231" lon="14.255217074196743"><ele>1240.0</ele><time>2026-04-19T10:37:11.995Z</time></trkpt><trkpt lat="41.8311593364329" lon="14.255312031429245"><ele>1240.0</ele><time>2026-04-19T10:37:12.995Z</time></trkpt><trkpt lat="41.83113679957431" lon="14.255405190737333"><ele>1240.0</ele><time>2026-04-19T10:37:13.995Z</time></trkpt><trkpt lat="41.83107047632423" lon="14.25551472409992"><ele>1240.0</ele><time>2026-04-19T10:37:15.995Z</time></trkpt><trkpt lat="41.831005424295235" lon="14.255510723424349"><ele>1240.0</ele><time>2026-04-19T10:37:16.995Z</time></trkpt><trkpt lat="41.83096408059948" lon="14.255445099678164"><ele>1240.0</ele><time>2026-04-19T10:37:18.995Z</time></trkpt><trkpt lat="41.83086951533491" lon="14.255429171324804"><ele>1241.4</ele><time>2026-04-19T10:37:21.995Z</time></trkpt><trkpt lat="41.830807519728964" lon="14.25540016539109"><ele>1242.8</ele><time>2026-04-19T10:37:23.995Z</time></trkpt><trkpt lat="41.83072554804866" lon="14.255438412917227"><ele>1244.2</ele><time>2026-04-19T10:37:25.995Z</time></trkpt><trkpt lat="41.830620700041514" lon="14.25550195212395"><ele>1245.6</ele><time>2026-04-19T10:37:27.995Z</time></trkpt><trkpt lat="41.83054805786684" lon="14.25558305004307"><ele>1247.0</ele><time>2026-04-19T10:37:29.995Z</time></trkpt><trkpt lat="41.83057085517765" lon="14.25571497156264"><ele>1252.0</ele><time>2026-04-19T10:37:31.995Z</time></trkpt><trkpt lat="41.83062762118008" lon="14.255769541667686"><ele>1257.0</ele><time>2026-04-19T10:37:32.995Z</time></trkpt><trkpt lat="41.83070044299365" lon="14.255875150942996"><ele>1262.0</ele><time>2026-04-19T10:37:34.995Z</time></trkpt><trkpt lat="41.830669710589625" lon="14.256019742972049"><ele>1267.0</ele><time>2026-04-19T10:37:36.995Z</time></trkpt><trkpt lat="41.83060358133716" lon="14.256122544430704"><ele>1272.0</ele><time>2026-04-19T10:37:38.995Z</time></trkpt><trkpt lat="41.830592765657904" lon="14.25621656712178"><ele>1272.0</ele><time>2026-04-19T10:37:43.995Z</time></trkpt><trkpt lat="41.83059855394902" lon="14.256307190745368"><ele>1272.0</ele><time>2026-04-19T10:38:12.995Z</time></trkpt><trkpt lat="41.830561929995504" lon="14.25637936547821"><ele>1272.0</ele><time>2026-04-19T10:38:15.995Z</time></trkpt><trkpt lat="41.83055131655997" lon="14.256521335973925"><ele>1272.0</ele><time>2026-04-19T10:38:17.995Z</time></trkpt><trkpt lat="41.83053838180999" lon="14.256617684320641"><ele>1272.0</ele><time>2026-04-19T10:38:18.995Z</time></trkpt><trkpt lat="41.83053108492254" lon="14.256713172201753"><ele>1272.0</ele><time>2026-04-19T10:38:19.995Z</time></trkpt><trkpt lat="41.83052084313551" lon="14.25680437387155"><ele>1275.0</ele><time>2026-04-19T10:38:20.995Z</time></trkpt><trkpt lat="41.83051251984368" lon="14.25694393495563"><ele>1278.0</ele><time>2026-04-19T10:38:22.995Z</time></trkpt><trkpt lat="41.83054655201235" lon="14.257022511844376"><ele>1281.0</ele><time>2026-04-19T10:38:23.995Z</time></trkpt><trkpt lat="41.830594305140835" lon="14.25708014680896"><ele>1284.0</ele><time>2026-04-19T10:38:24.995Z</time></trkpt><trkpt lat="41.83064384013133" lon="14.25714732844651"><ele>1287.0</ele><time>2026-04-19T10:38:25.995Z</time></trkpt><trkpt lat="41.8306809754055" lon="14.2572234859549"><ele>1290.0</ele><time>2026-04-19T10:38:26.995Z</time></trkpt><trkpt lat="41.83071091977108" lon="14.257312344081551"><ele>1293.0</ele><time>2026-04-19T10:38:27.995Z</time></trkpt><trkpt lat="41.8307703776152" lon="14.257450780313"><ele>1295.8000000000002</ele><time>2026-04-19T10:38:29.995Z</time></trkpt><trkpt lat="41.83081913568946" lon="14.257588742225565"><ele>1298.6</ele><time>2026-04-19T10:38:31.995Z</time></trkpt><trkpt lat="41.83082458042269" lon="14.257690600214614"><ele>1301.4</ele><time>2026-04-19T10:38:33.995Z</time></trkpt><trkpt lat="41.83083178449006" lon="14.257784924956935"><ele>1304.1999999999998</ele><time>2026-04-19T10:38:36.995Z</time></trkpt><trkpt lat="41.83086206761032" lon="14.257900678145147"><ele>1307.0</ele><time>2026-04-19T10:38:38.995Z</time></trkpt><trkpt lat="41.83090944356675" lon="14.25801952270021"><ele>1309.6666666666667</ele><time>2026-04-19T10:38:40.995Z</time></trkpt><trkpt lat="41.83090712171118" lon="14.258139593576695"><ele>1312.3333333333335</ele><time>2026-04-19T10:38:42.995Z</time></trkpt><trkpt lat="41.830880069234595" lon="14.258264820380703"><ele>1315.0</ele><time>2026-04-19T10:38:44.995Z</time></trkpt><trkpt lat="41.83087526404764" lon="14.258355424652269"><ele>1317.6666666666667</ele><time>2026-04-19T10:38:46.995Z</time></trkpt><trkpt lat="41.8308736911775" lon="14.25847178394143"><ele>1320.3333333333333</ele><time>2026-04-19T10:38:48.995Z</time></trkpt><trkpt lat="41.830841085190606" lon="14.258544938107434"><ele>1323.0</ele><time>2026-04-19T10:38:49.995Z</time></trkpt><trkpt lat="41.83080792533083" lon="14.258625844613107"><ele>1323.0</ele><time>2026-04-19T10:38:50.995Z</time></trkpt><trkpt lat="41.83081228213291" lon="14.25877443724581"><ele>1323.0</ele><time>2026-04-19T10:38:52.995Z</time></trkpt><trkpt lat="41.83087586664441" lon="14.25888453843729"><ele>1323.0</ele><time>2026-04-19T10:38:54.995Z</time></trkpt><trkpt lat="41.8309149419611" lon="14.258954362739964"><ele>1323.0</ele><time>2026-04-19T10:38:56.994Z</time></trkpt><trkpt lat="41.83093042583883" lon="14.259065478411957"><ele>1323.0</ele><time>2026-04-19T10:39:04.994Z</time></trkpt><trkpt lat="41.830901021873224" lon="14.259143517458742"><ele>1323.0</ele><time>2026-04-19T10:39:07.994Z</time></trkpt><trkpt lat="41.83087812992815" lon="14.259224977245678"><ele>1325.3333333333333</ele><time>2026-04-19T10:39:09.994Z</time></trkpt><trkpt lat="41.8308905444332" lon="14.259374466662143"><ele>1327.6666666666667</ele><time>2026-04-19T10:39:11.994Z</time></trkpt><trkpt lat="41.83087289237246" lon="14.25949055885754"><ele>1330.0</ele><time>2026-04-19T10:39:13.994Z</time></trkpt><trkpt lat="41.83086580177146" lon="14.259592129297259"><ele>1332.3333333333335</ele><time>2026-04-19T10:39:14.994Z</time></trkpt><trkpt lat="41.83088674035844" lon="14.259684994076569"><ele>1334.6666666666667</ele><time>2026-04-19T10:39:15.994Z</time></trkpt><trkpt lat="41.830946246807365" lon="14.259752830203553"><ele>1337.0</ele><time>2026-04-19T10:39:16.994Z</time></trkpt><trkpt lat="41.831028753429614" lon="14.25978004601026"><ele>1340.8333333333335</ele><time>2026-04-19T10:39:17.994Z</time></trkpt><trkpt lat="41.831070932386524" lon="14.259890633904604"><ele>1344.6666666666667</ele><time>2026-04-19T10:39:20.994Z</time></trkpt><trkpt lat="41.831068176970945" lon="14.26002678035656"><ele>1348.5</ele><time>2026-04-19T10:39:22.994Z</time></trkpt><trkpt lat="41.83110574639447" lon="14.260167529762779"><ele>1352.3333333333333</ele><time>2026-04-19T10:39:24.994Z</time></trkpt><trkpt lat="41.83114116455446" lon="14.260246717196091"><ele>1356.1666666666665</ele><time>2026-04-19T10:39:25.994Z</time></trkpt><trkpt lat="41.831161705733294" lon="14.260333961399091"><ele>1360.0</ele><time>2026-04-19T10:39:26.994Z</time></trkpt><trkpt lat="41.83116077686645" lon="14.260421947135985"><ele>1360.0</ele><time>2026-04-19T10:39:27.994Z</time></trkpt><trkpt lat="41.83116544610539" lon="14.26055115560013"><ele>1360.0</ele><time>2026-04-19T10:39:29.994Z</time></trkpt><trkpt lat="41.83115860065799" lon="14.260671240748295"><ele>1360.0</ele><time>2026-04-19T10:39:32.994Z</time></trkpt><trkpt lat="41.83117341217544" lon="14.260791007143746"><ele>1360.0</ele><time>2026-04-19T10:39:34.994Z</time></trkpt><trkpt lat="41.83118074724411" lon="14.260885186590466"><ele>1360.0</ele><time>2026-04-19T10:39:35.994Z</time></trkpt><trkpt lat="41.831188366890004" lon="14.260969079929833"><ele>1360.0</ele><time>2026-04-19T10:39:36.994Z</time></trkpt><trkpt lat="41.83118677240541" lon="14.261077910467725"><ele>1362.6666666666665</ele><time>2026-04-19T10:39:37.994Z</time></trkpt><trkpt lat="41.83119179108035" lon="14.26118099310065"><ele>1365.3333333333333</ele><time>2026-04-19T10:39:38.994Z</time></trkpt><trkpt lat="41.831194106794555" lon="14.261273056060622"><ele>1368.0</ele><time>2026-04-19T10:39:39.994Z</time></trkpt><trkpt lat="41.83121717559493" lon="14.261351974355692"><ele>1370.6666666666667</ele><time>2026-04-19T10:39:40.994Z</time></trkpt><trkpt lat="41.831245100008346" lon="14.261500738456828"><ele>1373.3333333333335</ele><time>2026-04-19T10:39:42.994Z</time></trkpt><trkpt lat="41.83130698649898" lon="14.261641523689521"><ele>1376.0</ele><time>2026-04-19T10:39:44.994Z</time></trkpt><trkpt lat="41.83135438939319" lon="14.261801586627673"><ele>1378.3333333333335</ele><time>2026-04-19T10:39:46.994Z</time></trkpt><trkpt lat="41.831378867167935" lon="14.261892449226446"><ele>1380.6666666666667</ele><time>2026-04-19T10:39:47.994Z</time></trkpt><trkpt lat="41.831403716583424" lon="14.261970889106873"><ele>1383.0</ele><time>2026-04-19T10:39:48.994Z</time></trkpt><trkpt lat="41.83142278664969" lon="14.262099302115073"><ele>1385.3333333333333</ele><time>2026-04-19T10:39:50.994Z</time></trkpt><trkpt lat="41.83142462150562" lon="14.262223075412498"><ele>1387.6666666666665</ele><time>2026-04-19T10:39:52.994Z</time></trkpt><trkpt lat="41.831371533722795" lon="14.262357790788995"><ele>1390.0</ele><time>2026-04-19T10:39:54.994Z</time></trkpt><trkpt lat="41.83131306204095" lon="14.262459495343597"><ele>1391.1666666666665</ele><time>2026-04-19T10:39:56.994Z</time></trkpt><trkpt lat="41.83126471675581" lon="14.262557760561503"><ele>1392.3333333333333</ele><time>2026-04-19T10:39:58.994Z</time></trkpt><trkpt lat="41.83126489601993" lon="14.262678970894967"><ele>1393.5</ele><time>2026-04-19T10:40:00.994Z</time></trkpt><trkpt lat="41.8312924150827" lon="14.26280677054764"><ele>1394.6666666666667</ele><time>2026-04-19T10:40:02.994Z</time></trkpt><trkpt lat="41.83131681521309" lon="14.262910248781722"><ele>1395.8333333333335</ele><time>2026-04-19T10:40:04.994Z</time></trkpt><trkpt lat="41.83140379007478" lon="14.262933811137017"><ele>1397.0</ele><time>2026-04-19T10:40:06.994Z</time></trkpt><trkpt lat="41.831467285298906" lon="14.262910942695209"><ele>1397.0</ele><time>2026-04-19T10:40:07.994Z</time></trkpt><trkpt lat="41.831543512428134" lon="14.262879099271547"><ele>1397.0</ele><time>2026-04-19T10:40:08.994Z</time></trkpt><trkpt lat="41.83160929456951" lon="14.262859949845419"><ele>1397.0</ele><time>2026-04-19T10:40:09.994Z</time></trkpt><trkpt lat="41.83173168586483" lon="14.262808532806735"><ele>1397.0</ele><time>2026-04-19T10:40:11.994Z</time></trkpt><trkpt lat="41.83179384740778" lon="14.262786801726353"><ele>1397.0</ele><time>2026-04-19T10:40:12.994Z</time></trkpt><trkpt lat="41.831865144381666" lon="14.262764022615423"><ele>1397.0</ele><time>2026-04-19T10:40:13.994Z</time></trkpt><trkpt lat="41.831942222428715" lon="14.262700040572424"><ele>1398.5</ele><time>2026-04-19T10:40:14.994Z</time></trkpt><trkpt lat="41.83201407786344" lon="14.2626439873525"><ele>1400.0</ele><time>2026-04-19T10:40:15.994Z</time></trkpt><trkpt lat="41.832064391438934" lon="14.262575305442486"><ele>1401.5</ele><time>2026-04-19T10:40:16.994Z</time></trkpt><trkpt lat="41.83211782462483" lon="14.26251985037031"><ele>1403.0</ele><time>2026-04-19T10:40:17.994Z</time></trkpt><trkpt lat="41.83216773813319" lon="14.262463189021354"><ele>1404.5</ele><time>2026-04-19T10:40:18.994Z</time></trkpt><trkpt lat="41.832262014517156" lon="14.262378987904714"><ele>1406.0</ele><time>2026-04-19T10:40:20.994Z</time></trkpt><trkpt lat="41.832325576013616" lon="14.262321317885263"><ele>1406.0</ele><time>2026-04-19T10:40:21.994Z</time></trkpt><trkpt lat="41.832423001025646" lon="14.26222046681508"><ele>1406.0</ele><time>2026-04-19T10:40:23.994Z</time></trkpt><trkpt lat="41.83248326934617" lon="14.262184437491957"><ele>1406.0</ele><time>2026-04-19T10:40:25.994Z</time></trkpt><trkpt lat="41.8325341043475" lon="14.262279044471489"><ele>1406.0</ele><time>2026-04-19T10:40:27.994Z</time></trkpt><trkpt lat="41.83255294867152" lon="14.262379162480501"><ele>1406.0</ele><time>2026-04-19T10:40:31.994Z</time></trkpt><trkpt lat="41.832480870831446" lon="14.262444005245406"><ele>1406.0</ele><time>2026-04-19T10:40:34.994Z</time></trkpt><trkpt lat="41.832449846163236" lon="14.262528128165401"><ele>1406.0</ele><time>2026-04-19T10:40:56.999Z</time></trkpt><trkpt lat="41.83244120282785" lon="14.262650160234804"><ele>1406.0</ele><time>2026-04-19T10:41:36.999Z</time></trkpt><trkpt lat="41.83245058635452" lon="14.262745178916255"><ele>1406.0</ele><time>2026-04-19T10:41:49.999Z</time></trkpt><trkpt lat="41.832502482842216" lon="14.262804196842351"><ele>1406.0</ele><time>2026-04-19T10:41:59.999Z</time></trkpt><trkpt lat="41.83252929145521" lon="14.262723460056856"><ele>1406.0</ele><time>2026-04-19T10:43:54.998Z</time></trkpt><trkpt lat="41.832609177045185" lon="14.262721047963078"><ele>1406.0</ele><time>2026-04-19T10:44:46.998Z</time></trkpt><trkpt lat="41.83264513594964" lon="14.262792832884442"><ele>1406.0</ele><time>2026-04-19T10:44:52.998Z</time></trkpt><trkpt lat="41.832695920869924" lon="14.262845663262416"><ele>1405.4285714285713</ele><time>2026-04-19T10:45:02.998Z</time></trkpt><trkpt lat="41.83274098834755" lon="14.262909308259225"><ele>1404.857142857143</ele><time>2026-04-19T10:45:07.998Z</time></trkpt><trkpt lat="41.832770806023355" lon="14.262985642473279"><ele>1404.2857142857142</ele><time>2026-04-19T10:45:14.998Z</time></trkpt><trkpt lat="41.83282427890191" lon="14.263034335124072"><ele>1403.7142857142858</ele><time>2026-04-19T10:45:19.998Z</time></trkpt><trkpt lat="41.83289167367452" lon="14.263066501922964"><ele>1403.142857142857</ele><time>2026-04-19T10:45:24.998Z</time></trkpt><trkpt lat="41.83294049268023" lon="14.26313491123347"><ele>1402.5714285714287</ele><time>2026-04-19T10:45:29.998Z</time></trkpt><trkpt lat="41.83302075809081" lon="14.263102471723315"><ele>1402.0</ele><time>2026-04-19T10:48:54.998Z</time></trkpt><trkpt lat="41.83294665635953" lon="14.263185685270457"><ele>1402.0</ele><time>2026-04-19T10:51:58.995Z</time></trkpt><trkpt lat="41.83298833633938" lon="14.263104688614087"><ele>1402.0</ele><time>2026-04-19T10:56:09.991Z</time></trkpt><trkpt lat="41.832917870121335" lon="14.263202848152044"><ele>1402.0</ele><time>2026-04-19T11:02:32.982Z</time></trkpt><trkpt lat="41.83296938596733" lon="14.263048252339729"><ele>1402.0</ele><time>2026-04-19T11:05:32.976Z</time></trkpt><trkpt lat="41.832988109826296" lon="14.26318886214112"><ele>1402.0</ele><time>2026-04-19T11:10:44.968Z</time></trkpt><trkpt lat="41.833011900681576" lon="14.263098421280715"><ele>1402.0</ele><time>2026-04-19T11:20:34.963Z</time></trkpt></trkseg></trk></gpx>